<?xml version="1.0" encoding="UTF-8" standalone="no" ?>
<gpx xmlns="http://www.topografix.com/GPX/1/1" xmlns:xsi="http://www.w3.org/2001/XMLSchema-instance" xsi:schemaLocation="http://www.topografix.com/GPX/1/1 http://www.topografix.com/GPX/1/1/gpx.xsd" version="1.1" creator="VisuGPX - https://www.visugpx.com">
  <metadata>
    <name>Randonnée La Plante à Herqueville</name>
    <desc><![CDATA[Circuit au départ de \"La Plante\" à Herqueville avec passage par Muids dans la boucle de la Seine]]></desc>
  </metadata>
  <trk>
    <name><![CDATA[Randonnée La Plante à Herqueville_1]]></name>
    <trkseg>
      <trkpt lat="49.23959" lon="1.27185">
        <ele>58.1</ele>
        <time>2015-08-13T09:57:52Z</time>
      </trkpt>
      <trkpt lat="49.23961" lon="1.27185">
        <ele>58.1</ele>
        <time>2015-08-13T09:57:57Z</time>
      </trkpt>
      <trkpt lat="49.23959" lon="1.27185">
        <ele>58.1</ele>
        <time>2015-08-13T09:58:02Z</time>
      </trkpt>
      <trkpt lat="49.23957" lon="1.27186">
        <ele>58.1</ele>
        <time>2015-08-13T09:58:07Z</time>
      </trkpt>
      <trkpt lat="49.23959" lon="1.27186">
        <ele>58.1</ele>
        <time>2015-08-13T09:58:17Z</time>
      </trkpt>
      <trkpt lat="49.23959" lon="1.27186">
        <ele>58.1</ele>
        <time>2015-08-13T09:58:22Z</time>
      </trkpt>
      <trkpt lat="49.23955" lon="1.27186">
        <ele>57.037052</ele>
        <time>2015-08-13T09:58:32Z</time>
      </trkpt>
      <trkpt lat="49.23955" lon="1.27186">
        <ele>57.037052</ele>
        <time>2015-08-13T09:58:37Z</time>
      </trkpt>
      <trkpt lat="49.23955" lon="1.27193">
        <ele>57.037052</ele>
        <time>2015-08-13T09:58:47Z</time>
      </trkpt>
      <trkpt lat="49.23952" lon="1.27203">
        <ele>57.365604</ele>
        <time>2015-08-13T09:58:52Z</time>
      </trkpt>
      <trkpt lat="49.23949" lon="1.2721">
        <ele>57.365604</ele>
        <time>2015-08-13T09:58:57Z</time>
      </trkpt>
      <trkpt lat="49.23945" lon="1.27215">
        <ele>57.604324</ele>
        <time>2015-08-13T09:59:02Z</time>
      </trkpt>
      <trkpt lat="49.23941" lon="1.27223">
        <ele>57.604324</ele>
        <time>2015-08-13T09:59:07Z</time>
      </trkpt>
      <trkpt lat="49.23934" lon="1.27236">
        <ele>57.760086</ele>
        <time>2015-08-13T09:59:17Z</time>
      </trkpt>
      <trkpt lat="49.23932" lon="1.27241">
        <ele>57.760086</ele>
        <time>2015-08-13T09:59:22Z</time>
      </trkpt>
      <trkpt lat="49.23918" lon="1.2726">
        <ele>57.127388</ele>
        <time>2015-08-13T09:59:37Z</time>
      </trkpt>
      <trkpt lat="49.23914" lon="1.27264">
        <ele>57.127388</ele>
        <time>2015-08-13T09:59:42Z</time>
      </trkpt>
      <trkpt lat="49.23904" lon="1.27278">
        <ele>56.44965</ele>
        <time>2015-08-13T09:59:52Z</time>
      </trkpt>
      <trkpt lat="49.23901" lon="1.27288">
        <ele>56.44965</ele>
        <time>2015-08-13T09:59:57Z</time>
      </trkpt>
      <trkpt lat="49.23894" lon="1.27303">
        <ele>55.912853</ele>
        <time>2015-08-13T10:00:07Z</time>
      </trkpt>
      <trkpt lat="49.23888" lon="1.27313">
        <ele>55.457634</ele>
        <time>2015-08-13T10:00:12Z</time>
      </trkpt>
      <trkpt lat="49.2388" lon="1.27327">
        <ele>54.92678</ele>
        <time>2015-08-13T10:00:22Z</time>
      </trkpt>
      <trkpt lat="49.23876" lon="1.27332">
        <ele>54.92678</ele>
        <time>2015-08-13T10:00:27Z</time>
      </trkpt>
      <trkpt lat="49.23869" lon="1.27355">
        <ele>54.315346</ele>
        <time>2015-08-13T10:00:37Z</time>
      </trkpt>
      <trkpt lat="49.23866" lon="1.27356">
        <ele>54.315346</ele>
        <time>2015-08-13T10:00:42Z</time>
      </trkpt>
      <trkpt lat="49.23862" lon="1.27369">
        <ele>53.776394</ele>
        <time>2015-08-13T10:00:52Z</time>
      </trkpt>
      <trkpt lat="49.23856" lon="1.2738">
        <ele>53.389336</ele>
        <time>2015-08-13T10:00:57Z</time>
      </trkpt>
      <trkpt lat="49.23845" lon="1.27395">
        <ele>53.179344</ele>
        <time>2015-08-13T10:01:07Z</time>
      </trkpt>
      <trkpt lat="49.23842" lon="1.27403">
        <ele>53.179344</ele>
        <time>2015-08-13T10:01:12Z</time>
      </trkpt>
      <trkpt lat="49.23836" lon="1.27421">
        <ele>53.351395</ele>
        <time>2015-08-13T10:01:22Z</time>
      </trkpt>
      <trkpt lat="49.23832" lon="1.27427">
        <ele>53.351395</ele>
        <time>2015-08-13T10:01:27Z</time>
      </trkpt>
      <trkpt lat="49.23822" lon="1.27441">
        <ele>53.754196</ele>
        <time>2015-08-13T10:01:37Z</time>
      </trkpt>
      <trkpt lat="49.23818" lon="1.2745">
        <ele>53.754196</ele>
        <time>2015-08-13T10:01:42Z</time>
      </trkpt>
      <trkpt lat="49.23807" lon="1.27467">
        <ele>54.329308</ele>
        <time>2015-08-13T10:01:57Z</time>
      </trkpt>
      <trkpt lat="49.23805" lon="1.27466">
        <ele>54.329308</ele>
        <time>2015-08-13T10:02:02Z</time>
      </trkpt>
      <trkpt lat="49.23801" lon="1.27459">
        <ele>54.329308</ele>
        <time>2015-08-13T10:02:12Z</time>
      </trkpt>
      <trkpt lat="49.23796" lon="1.2745">
        <ele>54.858734</ele>
        <time>2015-08-13T10:02:17Z</time>
      </trkpt>
      <trkpt lat="49.23788" lon="1.27436">
        <ele>55.03747</ele>
        <time>2015-08-13T10:02:27Z</time>
      </trkpt>
      <trkpt lat="49.23786" lon="1.27429">
        <ele>55.03747</ele>
        <time>2015-08-13T10:02:32Z</time>
      </trkpt>
      <trkpt lat="49.23777" lon="1.27413">
        <ele>54.665432</ele>
        <time>2015-08-13T10:02:42Z</time>
      </trkpt>
      <trkpt lat="49.23773" lon="1.27408">
        <ele>54.665432</ele>
        <time>2015-08-13T10:02:47Z</time>
      </trkpt>
      <trkpt lat="49.23762" lon="1.2739">
        <ele>53.88664</ele>
        <time>2015-08-13T10:02:57Z</time>
      </trkpt>
      <trkpt lat="49.23758" lon="1.27384">
        <ele>53.88664</ele>
        <time>2015-08-13T10:03:02Z</time>
      </trkpt>
      <trkpt lat="49.23751" lon="1.27369">
        <ele>53.12283</ele>
        <time>2015-08-13T10:03:12Z</time>
      </trkpt>
      <trkpt lat="49.23745" lon="1.27358">
        <ele>52.466717</ele>
        <time>2015-08-13T10:03:17Z</time>
      </trkpt>
      <trkpt lat="49.23737" lon="1.27347">
        <ele>51.84805</ele>
        <time>2015-08-13T10:03:27Z</time>
      </trkpt>
      <trkpt lat="49.23731" lon="1.2734">
        <ele>51.84805</ele>
        <time>2015-08-13T10:03:32Z</time>
      </trkpt>
      <trkpt lat="49.23723" lon="1.27327">
        <ele>51.35247</ele>
        <time>2015-08-13T10:03:42Z</time>
      </trkpt>
      <trkpt lat="49.23718" lon="1.2732">
        <ele>51.35247</ele>
        <time>2015-08-13T10:03:47Z</time>
      </trkpt>
      <trkpt lat="49.23702" lon="1.273">
        <ele>50.704895</ele>
        <time>2015-08-13T10:04:02Z</time>
      </trkpt>
      <trkpt lat="49.23695" lon="1.27294">
        <ele>50.704895</ele>
        <time>2015-08-13T10:04:07Z</time>
      </trkpt>
      <trkpt lat="49.23685" lon="1.27284">
        <ele>50.05133</ele>
        <time>2015-08-13T10:04:17Z</time>
      </trkpt>
      <trkpt lat="49.23681" lon="1.27279">
        <ele>50.05133</ele>
        <time>2015-08-13T10:04:22Z</time>
      </trkpt>
      <trkpt lat="49.2367" lon="1.2727">
        <ele>49.56353</ele>
        <time>2015-08-13T10:04:32Z</time>
      </trkpt>
      <trkpt lat="49.23664" lon="1.27264">
        <ele>49.56353</ele>
        <time>2015-08-13T10:04:37Z</time>
      </trkpt>
      <trkpt lat="49.23656" lon="1.27252">
        <ele>49.126698</ele>
        <time>2015-08-13T10:04:47Z</time>
      </trkpt>
      <trkpt lat="49.2365" lon="1.27248">
        <ele>49.126698</ele>
        <time>2015-08-13T10:04:52Z</time>
      </trkpt>
      <trkpt lat="49.23637" lon="1.27235">
        <ele>48.722153</ele>
        <time>2015-08-13T10:05:02Z</time>
      </trkpt>
      <trkpt lat="49.23633" lon="1.27232">
        <ele>48.722153</ele>
        <time>2015-08-13T10:05:07Z</time>
      </trkpt>
      <trkpt lat="49.23622" lon="1.27219">
        <ele>48.193752</ele>
        <time>2015-08-13T10:05:17Z</time>
      </trkpt>
      <trkpt lat="49.23618" lon="1.27213">
        <ele>48.193752</ele>
        <time>2015-08-13T10:05:22Z</time>
      </trkpt>
      <trkpt lat="49.2361" lon="1.27201">
        <ele>47.801872</ele>
        <time>2015-08-13T10:05:32Z</time>
      </trkpt>
      <trkpt lat="49.23604" lon="1.27194">
        <ele>47.801872</ele>
        <time>2015-08-13T10:05:37Z</time>
      </trkpt>
      <trkpt lat="49.23596" lon="1.27182">
        <ele>47.27245</ele>
        <time>2015-08-13T10:05:47Z</time>
      </trkpt>
      <trkpt lat="49.23589" lon="1.27176">
        <ele>47.27245</ele>
        <time>2015-08-13T10:05:52Z</time>
      </trkpt>
      <trkpt lat="49.23581" lon="1.27164">
        <ele>46.657406</ele>
        <time>2015-08-13T10:06:02Z</time>
      </trkpt>
      <trkpt lat="49.23577" lon="1.2716">
        <ele>46.657406</ele>
        <time>2015-08-13T10:06:07Z</time>
      </trkpt>
      <trkpt lat="49.23563" lon="1.27142">
        <ele>45.893536</ele>
        <time>2015-08-13T10:06:22Z</time>
      </trkpt>
      <trkpt lat="49.23558" lon="1.27135">
        <ele>45.893536</ele>
        <time>2015-08-13T10:06:27Z</time>
      </trkpt>
      <trkpt lat="49.23549" lon="1.27124">
        <ele>44.949444</ele>
        <time>2015-08-13T10:06:37Z</time>
      </trkpt>
      <trkpt lat="49.23546" lon="1.2712">
        <ele>44.949444</ele>
        <time>2015-08-13T10:06:42Z</time>
      </trkpt>
      <trkpt lat="49.23534" lon="1.27105">
        <ele>43.86563</ele>
        <time>2015-08-13T10:06:52Z</time>
      </trkpt>
      <trkpt lat="49.2353" lon="1.27101">
        <ele>43.86563</ele>
        <time>2015-08-13T10:06:57Z</time>
      </trkpt>
      <trkpt lat="49.23516" lon="1.2709">
        <ele>42.58186</ele>
        <time>2015-08-13T10:07:07Z</time>
      </trkpt>
      <trkpt lat="49.23513" lon="1.27084">
        <ele>42.58186</ele>
        <time>2015-08-13T10:07:12Z</time>
      </trkpt>
      <trkpt lat="49.23505" lon="1.27075">
        <ele>41.15498</ele>
        <time>2015-08-13T10:07:22Z</time>
      </trkpt>
      <trkpt lat="49.235" lon="1.27069">
        <ele>41.15498</ele>
        <time>2015-08-13T10:07:27Z</time>
      </trkpt>
      <trkpt lat="49.23489" lon="1.27051">
        <ele>39.48249</ele>
        <time>2015-08-13T10:07:37Z</time>
      </trkpt>
      <trkpt lat="49.23483" lon="1.27041">
        <ele>39.48249</ele>
        <time>2015-08-13T10:07:42Z</time>
      </trkpt>
      <trkpt lat="49.23481" lon="1.27037">
        <ele>38.445335</ele>
        <time>2015-08-13T10:07:52Z</time>
      </trkpt>
      <trkpt lat="49.23472" lon="1.27018">
        <ele>37.80795</ele>
        <time>2015-08-13T10:07:57Z</time>
      </trkpt>
      <trkpt lat="49.23462" lon="1.27007">
        <ele>37.66534</ele>
        <time>2015-08-13T10:08:07Z</time>
      </trkpt>
      <trkpt lat="49.23454" lon="1.26998">
        <ele>37.72384</ele>
        <time>2015-08-13T10:08:12Z</time>
      </trkpt>
      <trkpt lat="49.23442" lon="1.26984">
        <ele>37.954624</ele>
        <time>2015-08-13T10:08:22Z</time>
      </trkpt>
      <trkpt lat="49.23439" lon="1.2698">
        <ele>37.954624</ele>
        <time>2015-08-13T10:08:27Z</time>
      </trkpt>
      <trkpt lat="49.23424" lon="1.26963">
        <ele>38.418262</ele>
        <time>2015-08-13T10:08:42Z</time>
      </trkpt>
      <trkpt lat="49.23418" lon="1.26957">
        <ele>38.418262</ele>
        <time>2015-08-13T10:08:47Z</time>
      </trkpt>
      <trkpt lat="49.23406" lon="1.26947">
        <ele>39.080994</ele>
        <time>2015-08-13T10:08:57Z</time>
      </trkpt>
      <trkpt lat="49.23403" lon="1.26944">
        <ele>39.080994</ele>
        <time>2015-08-13T10:09:02Z</time>
      </trkpt>
      <trkpt lat="49.23393" lon="1.26935">
        <ele>39.625645</ele>
        <time>2015-08-13T10:09:12Z</time>
      </trkpt>
      <trkpt lat="49.23387" lon="1.26928">
        <ele>39.625645</ele>
        <time>2015-08-13T10:09:17Z</time>
      </trkpt>
      <trkpt lat="49.23376" lon="1.26923">
        <ele>39.740593</ele>
        <time>2015-08-13T10:09:27Z</time>
      </trkpt>
      <trkpt lat="49.23373" lon="1.26919">
        <ele>39.740593</ele>
        <time>2015-08-13T10:09:32Z</time>
      </trkpt>
      <trkpt lat="49.23361" lon="1.26912">
        <ele>39.85943</ele>
        <time>2015-08-13T10:09:42Z</time>
      </trkpt>
      <trkpt lat="49.23355" lon="1.26906">
        <ele>39.85943</ele>
        <time>2015-08-13T10:09:47Z</time>
      </trkpt>
      <trkpt lat="49.23342" lon="1.26898">
        <ele>39.87422</ele>
        <time>2015-08-13T10:09:57Z</time>
      </trkpt>
      <trkpt lat="49.23336" lon="1.26894">
        <ele>39.87422</ele>
        <time>2015-08-13T10:10:02Z</time>
      </trkpt>
      <trkpt lat="49.23324" lon="1.2688">
        <ele>39.80604</ele>
        <time>2015-08-13T10:10:12Z</time>
      </trkpt>
      <trkpt lat="49.23318" lon="1.26878">
        <ele>39.80604</ele>
        <time>2015-08-13T10:10:17Z</time>
      </trkpt>
      <trkpt lat="49.23308" lon="1.26867">
        <ele>39.75051</ele>
        <time>2015-08-13T10:10:27Z</time>
      </trkpt>
      <trkpt lat="49.23303" lon="1.26862">
        <ele>39.75051</ele>
        <time>2015-08-13T10:10:32Z</time>
      </trkpt>
      <trkpt lat="49.23297" lon="1.26854">
        <ele>39.781033</ele>
        <time>2015-08-13T10:10:42Z</time>
      </trkpt>
      <trkpt lat="49.23294" lon="1.26852">
        <ele>39.781033</ele>
        <time>2015-08-13T10:10:47Z</time>
      </trkpt>
      <trkpt lat="49.2328" lon="1.26839">
        <ele>39.46709</ele>
        <time>2015-08-13T10:10:57Z</time>
      </trkpt>
      <trkpt lat="49.23274" lon="1.26836">
        <ele>39.46709</ele>
        <time>2015-08-13T10:11:02Z</time>
      </trkpt>
      <trkpt lat="49.23264" lon="1.2683">
        <ele>39.10705</ele>
        <time>2015-08-13T10:11:12Z</time>
      </trkpt>
      <trkpt lat="49.23259" lon="1.26823">
        <ele>39.10705</ele>
        <time>2015-08-13T10:11:17Z</time>
      </trkpt>
      <trkpt lat="49.23243" lon="1.26805">
        <ele>38.825176</ele>
        <time>2015-08-13T10:11:32Z</time>
      </trkpt>
      <trkpt lat="49.23239" lon="1.26803">
        <ele>38.825176</ele>
        <time>2015-08-13T10:11:37Z</time>
      </trkpt>
      <trkpt lat="49.23228" lon="1.26795">
        <ele>38.585026</ele>
        <time>2015-08-13T10:11:47Z</time>
      </trkpt>
      <trkpt lat="49.23222" lon="1.26787">
        <ele>38.585026</ele>
        <time>2015-08-13T10:11:52Z</time>
      </trkpt>
      <trkpt lat="49.23212" lon="1.26774">
        <ele>38.263</ele>
        <time>2015-08-13T10:12:02Z</time>
      </trkpt>
      <trkpt lat="49.2321" lon="1.26773">
        <ele>38.263</ele>
        <time>2015-08-13T10:12:07Z</time>
      </trkpt>
      <trkpt lat="49.23192" lon="1.26761">
        <ele>37.790974</ele>
        <time>2015-08-13T10:12:17Z</time>
      </trkpt>
      <trkpt lat="49.23188" lon="1.26758">
        <ele>37.790974</ele>
        <time>2015-08-13T10:12:22Z</time>
      </trkpt>
      <trkpt lat="49.23169" lon="1.26753">
        <ele>37.301144</ele>
        <time>2015-08-13T10:12:32Z</time>
      </trkpt>
      <trkpt lat="49.23163" lon="1.26753">
        <ele>37.301144</ele>
        <time>2015-08-13T10:12:37Z</time>
      </trkpt>
      <trkpt lat="49.2315" lon="1.26766">
        <ele>37.078476</ele>
        <time>2015-08-13T10:12:47Z</time>
      </trkpt>
      <trkpt lat="49.23144" lon="1.26768">
        <ele>37.078476</ele>
        <time>2015-08-13T10:12:52Z</time>
      </trkpt>
      <trkpt lat="49.23132" lon="1.2678">
        <ele>37.100834</ele>
        <time>2015-08-13T10:13:02Z</time>
      </trkpt>
      <trkpt lat="49.23127" lon="1.26785">
        <ele>37.100834</ele>
        <time>2015-08-13T10:13:07Z</time>
      </trkpt>
      <trkpt lat="49.23117" lon="1.26791">
        <ele>37.199043</ele>
        <time>2015-08-13T10:13:17Z</time>
      </trkpt>
      <trkpt lat="49.23112" lon="1.26798">
        <ele>37.199043</ele>
        <time>2015-08-13T10:13:22Z</time>
      </trkpt>
      <trkpt lat="49.23101" lon="1.26811">
        <ele>37.203194</ele>
        <time>2015-08-13T10:13:32Z</time>
      </trkpt>
      <trkpt lat="49.23098" lon="1.26819">
        <ele>37.203194</ele>
        <time>2015-08-13T10:13:37Z</time>
      </trkpt>
      <trkpt lat="49.23086" lon="1.26839">
        <ele>36.78095</ele>
        <time>2015-08-13T10:13:52Z</time>
      </trkpt>
      <trkpt lat="49.23082" lon="1.26846">
        <ele>36.78095</ele>
        <time>2015-08-13T10:13:57Z</time>
      </trkpt>
      <trkpt lat="49.23071" lon="1.26864">
        <ele>35.937763</ele>
        <time>2015-08-13T10:14:07Z</time>
      </trkpt>
      <trkpt lat="49.23068" lon="1.2687">
        <ele>35.937763</ele>
        <time>2015-08-13T10:14:12Z</time>
      </trkpt>
      <trkpt lat="49.23062" lon="1.26887">
        <ele>34.8411</ele>
        <time>2015-08-13T10:14:22Z</time>
      </trkpt>
      <trkpt lat="49.2306" lon="1.26894">
        <ele>34.8411</ele>
        <time>2015-08-13T10:14:27Z</time>
      </trkpt>
      <trkpt lat="49.23051" lon="1.26909">
        <ele>33.557255</ele>
        <time>2015-08-13T10:14:37Z</time>
      </trkpt>
      <trkpt lat="49.23045" lon="1.26919">
        <ele>33.557255</ele>
        <time>2015-08-13T10:14:42Z</time>
      </trkpt>
      <trkpt lat="49.23035" lon="1.26935">
        <ele>32.98069</ele>
        <time>2015-08-13T10:14:52Z</time>
      </trkpt>
      <trkpt lat="49.23028" lon="1.26948">
        <ele>32.793365</ele>
        <time>2015-08-13T10:14:57Z</time>
      </trkpt>
      <trkpt lat="49.23018" lon="1.26972">
        <ele>33.41585</ele>
        <time>2015-08-13T10:15:12Z</time>
      </trkpt>
      <trkpt lat="49.23016" lon="1.26983">
        <ele>33.41585</ele>
        <time>2015-08-13T10:15:17Z</time>
      </trkpt>
      <trkpt lat="49.23012" lon="1.27004">
        <ele>34.317066</ele>
        <time>2015-08-13T10:15:27Z</time>
      </trkpt>
      <trkpt lat="49.23011" lon="1.27009">
        <ele>34.317066</ele>
        <time>2015-08-13T10:15:32Z</time>
      </trkpt>
      <trkpt lat="49.2301" lon="1.27025">
        <ele>35.356163</ele>
        <time>2015-08-13T10:15:42Z</time>
      </trkpt>
      <trkpt lat="49.23009" lon="1.27034">
        <ele>35.356163</ele>
        <time>2015-08-13T10:15:47Z</time>
      </trkpt>
      <trkpt lat="49.23005" lon="1.27054">
        <ele>36.33059</ele>
        <time>2015-08-13T10:15:57Z</time>
      </trkpt>
      <trkpt lat="49.23003" lon="1.27061">
        <ele>36.33059</ele>
        <time>2015-08-13T10:16:02Z</time>
      </trkpt>
      <trkpt lat="49.22998" lon="1.2708">
        <ele>37.372513</ele>
        <time>2015-08-13T10:16:12Z</time>
      </trkpt>
      <trkpt lat="49.22996" lon="1.27086">
        <ele>37.372513</ele>
        <time>2015-08-13T10:16:17Z</time>
      </trkpt>
      <trkpt lat="49.22993" lon="1.2711">
        <ele>38.415512</ele>
        <time>2015-08-13T10:16:27Z</time>
      </trkpt>
      <trkpt lat="49.22991" lon="1.2712">
        <ele>38.415512</ele>
        <time>2015-08-13T10:16:32Z</time>
      </trkpt>
      <trkpt lat="49.22986" lon="1.27133">
        <ele>39.41275</ele>
        <time>2015-08-13T10:16:42Z</time>
      </trkpt>
      <trkpt lat="49.22982" lon="1.27143">
        <ele>39.41275</ele>
        <time>2015-08-13T10:16:47Z</time>
      </trkpt>
      <trkpt lat="49.22973" lon="1.27173">
        <ele>40.45114</ele>
        <time>2015-08-13T10:17:02Z</time>
      </trkpt>
      <trkpt lat="49.22971" lon="1.27183">
        <ele>40.45114</ele>
        <time>2015-08-13T10:17:07Z</time>
      </trkpt>
      <trkpt lat="49.22964" lon="1.27199">
        <ele>41.65423</ele>
        <time>2015-08-13T10:17:17Z</time>
      </trkpt>
      <trkpt lat="49.22961" lon="1.27204">
        <ele>41.65423</ele>
        <time>2015-08-13T10:17:22Z</time>
      </trkpt>
      <trkpt lat="49.22959" lon="1.27222">
        <ele>42.760513</ele>
        <time>2015-08-13T10:17:32Z</time>
      </trkpt>
      <trkpt lat="49.22962" lon="1.27231">
        <ele>42.760513</ele>
        <time>2015-08-13T10:17:37Z</time>
      </trkpt>
      <trkpt lat="49.22968" lon="1.27249">
        <ele>43.70161</ele>
        <time>2015-08-13T10:17:47Z</time>
      </trkpt>
      <trkpt lat="49.22971" lon="1.2726">
        <ele>43.70161</ele>
        <time>2015-08-13T10:17:52Z</time>
      </trkpt>
      <trkpt lat="49.22973" lon="1.27275">
        <ele>44.44355</ele>
        <time>2015-08-13T10:18:02Z</time>
      </trkpt>
      <trkpt lat="49.22971" lon="1.27287">
        <ele>44.44355</ele>
        <time>2015-08-13T10:18:07Z</time>
      </trkpt>
      <trkpt lat="49.22976" lon="1.27308">
        <ele>44.91218</ele>
        <time>2015-08-13T10:18:17Z</time>
      </trkpt>
      <trkpt lat="49.22977" lon="1.27314">
        <ele>44.91218</ele>
        <time>2015-08-13T10:18:22Z</time>
      </trkpt>
      <trkpt lat="49.22979" lon="1.27332">
        <ele>45.284756</ele>
        <time>2015-08-13T10:18:32Z</time>
      </trkpt>
      <trkpt lat="49.22981" lon="1.27341">
        <ele>45.284756</ele>
        <time>2015-08-13T10:18:37Z</time>
      </trkpt>
      <trkpt lat="49.22984" lon="1.27372">
        <ele>45.69686</ele>
        <time>2015-08-13T10:18:52Z</time>
      </trkpt>
      <trkpt lat="49.22984" lon="1.27379">
        <ele>45.69686</ele>
        <time>2015-08-13T10:18:57Z</time>
      </trkpt>
      <trkpt lat="49.22987" lon="1.27398">
        <ele>46.014523</ele>
        <time>2015-08-13T10:19:07Z</time>
      </trkpt>
      <trkpt lat="49.22988" lon="1.27407">
        <ele>46.014523</ele>
        <time>2015-08-13T10:19:12Z</time>
      </trkpt>
      <trkpt lat="49.22993" lon="1.27427">
        <ele>46.09955</ele>
        <time>2015-08-13T10:19:22Z</time>
      </trkpt>
      <trkpt lat="49.22997" lon="1.27434">
        <ele>46.09955</ele>
        <time>2015-08-13T10:19:27Z</time>
      </trkpt>
      <trkpt lat="49.22996" lon="1.27451">
        <ele>46.04088</ele>
        <time>2015-08-13T10:19:37Z</time>
      </trkpt>
      <trkpt lat="49.22996" lon="1.27461">
        <ele>46.04088</ele>
        <time>2015-08-13T10:19:42Z</time>
      </trkpt>
      <trkpt lat="49.22996" lon="1.27482">
        <ele>45.921375</ele>
        <time>2015-08-13T10:19:52Z</time>
      </trkpt>
      <trkpt lat="49.22995" lon="1.2749">
        <ele>45.921375</ele>
        <time>2015-08-13T10:19:57Z</time>
      </trkpt>
      <trkpt lat="49.22996" lon="1.27506">
        <ele>45.7748</ele>
        <time>2015-08-13T10:20:07Z</time>
      </trkpt>
      <trkpt lat="49.22996" lon="1.27522">
        <ele>45.60372</ele>
        <time>2015-08-13T10:20:12Z</time>
      </trkpt>
      <trkpt lat="49.22996" lon="1.27537">
        <ele>45.338562</ele>
        <time>2015-08-13T10:20:22Z</time>
      </trkpt>
      <trkpt lat="49.22998" lon="1.27543">
        <ele>45.338562</ele>
        <time>2015-08-13T10:20:27Z</time>
      </trkpt>
      <trkpt lat="49.23" lon="1.27566">
        <ele>44.900715</ele>
        <time>2015-08-13T10:20:37Z</time>
      </trkpt>
      <trkpt lat="49.23002" lon="1.27573">
        <ele>44.900715</ele>
        <time>2015-08-13T10:20:42Z</time>
      </trkpt>
      <trkpt lat="49.23007" lon="1.27596">
        <ele>44.54958</ele>
        <time>2015-08-13T10:20:57Z</time>
      </trkpt>
      <trkpt lat="49.23011" lon="1.27607">
        <ele>44.54958</ele>
        <time>2015-08-13T10:21:02Z</time>
      </trkpt>
      <trkpt lat="49.23017" lon="1.27617">
        <ele>44.20802</ele>
        <time>2015-08-13T10:21:12Z</time>
      </trkpt>
      <trkpt lat="49.23021" lon="1.27621">
        <ele>44.20802</ele>
        <time>2015-08-13T10:21:17Z</time>
      </trkpt>
      <trkpt lat="49.23024" lon="1.2764">
        <ele>43.74686</ele>
        <time>2015-08-13T10:21:27Z</time>
      </trkpt>
      <trkpt lat="49.23027" lon="1.27646">
        <ele>43.74686</ele>
        <time>2015-08-13T10:21:32Z</time>
      </trkpt>
      <trkpt lat="49.2303" lon="1.27665">
        <ele>43.11888</ele>
        <time>2015-08-13T10:21:42Z</time>
      </trkpt>
      <trkpt lat="49.2303" lon="1.27676">
        <ele>43.11888</ele>
        <time>2015-08-13T10:21:47Z</time>
      </trkpt>
      <trkpt lat="49.2303" lon="1.27696">
        <ele>42.42505</ele>
        <time>2015-08-13T10:21:57Z</time>
      </trkpt>
      <trkpt lat="49.2303" lon="1.27702">
        <ele>42.42505</ele>
        <time>2015-08-13T10:22:02Z</time>
      </trkpt>
      <trkpt lat="49.23033" lon="1.27725">
        <ele>41.94663</ele>
        <time>2015-08-13T10:22:12Z</time>
      </trkpt>
      <trkpt lat="49.23033" lon="1.27735">
        <ele>41.94663</ele>
        <time>2015-08-13T10:22:17Z</time>
      </trkpt>
      <trkpt lat="49.23036" lon="1.27755">
        <ele>41.770508</ele>
        <time>2015-08-13T10:22:27Z</time>
      </trkpt>
      <trkpt lat="49.23035" lon="1.27764">
        <ele>41.770508</ele>
        <time>2015-08-13T10:22:32Z</time>
      </trkpt>
      <trkpt lat="49.23039" lon="1.27788">
        <ele>41.70225</ele>
        <time>2015-08-13T10:22:47Z</time>
      </trkpt>
      <trkpt lat="49.23041" lon="1.27797">
        <ele>41.70225</ele>
        <time>2015-08-13T10:22:52Z</time>
      </trkpt>
      <trkpt lat="49.23041" lon="1.27817">
        <ele>41.806618</ele>
        <time>2015-08-13T10:23:02Z</time>
      </trkpt>
      <trkpt lat="49.23041" lon="1.27825">
        <ele>41.806618</ele>
        <time>2015-08-13T10:23:07Z</time>
      </trkpt>
      <trkpt lat="49.23043" lon="1.27842">
        <ele>41.88347</ele>
        <time>2015-08-13T10:23:17Z</time>
      </trkpt>
      <trkpt lat="49.23044" lon="1.27849">
        <ele>41.88347</ele>
        <time>2015-08-13T10:23:22Z</time>
      </trkpt>
      <trkpt lat="49.23046" lon="1.27872">
        <ele>42.03593</ele>
        <time>2015-08-13T10:23:32Z</time>
      </trkpt>
      <trkpt lat="49.23045" lon="1.27885">
        <ele>42.03593</ele>
        <time>2015-08-13T10:23:37Z</time>
      </trkpt>
      <trkpt lat="49.23045" lon="1.279">
        <ele>42.229504</ele>
        <time>2015-08-13T10:23:47Z</time>
      </trkpt>
      <trkpt lat="49.23045" lon="1.27908">
        <ele>42.229504</ele>
        <time>2015-08-13T10:23:52Z</time>
      </trkpt>
      <trkpt lat="49.2305" lon="1.27927">
        <ele>42.677284</ele>
        <time>2015-08-13T10:24:02Z</time>
      </trkpt>
      <trkpt lat="49.23051" lon="1.2794">
        <ele>42.677284</ele>
        <time>2015-08-13T10:24:07Z</time>
      </trkpt>
      <trkpt lat="49.2305" lon="1.27964">
        <ele>43.20099</ele>
        <time>2015-08-13T10:24:17Z</time>
      </trkpt>
      <trkpt lat="49.2305" lon="1.27969">
        <ele>43.20099</ele>
        <time>2015-08-13T10:24:22Z</time>
      </trkpt>
      <trkpt lat="49.23047" lon="1.2799">
        <ele>43.83714</ele>
        <time>2015-08-13T10:24:32Z</time>
      </trkpt>
      <trkpt lat="49.23047" lon="1.27998">
        <ele>43.83714</ele>
        <time>2015-08-13T10:24:37Z</time>
      </trkpt>
      <trkpt lat="49.23047" lon="1.28015">
        <ele>44.633667</ele>
        <time>2015-08-13T10:24:47Z</time>
      </trkpt>
      <trkpt lat="49.23048" lon="1.28027">
        <ele>44.633667</ele>
        <time>2015-08-13T10:24:52Z</time>
      </trkpt>
      <trkpt lat="49.23048" lon="1.28043">
        <ele>45.34615</ele>
        <time>2015-08-13T10:25:02Z</time>
      </trkpt>
      <trkpt lat="49.23048" lon="1.28054">
        <ele>45.34615</ele>
        <time>2015-08-13T10:25:07Z</time>
      </trkpt>
      <trkpt lat="49.2305" lon="1.28074">
        <ele>45.979107</ele>
        <time>2015-08-13T10:25:17Z</time>
      </trkpt>
      <trkpt lat="49.23049" lon="1.2808">
        <ele>45.979107</ele>
        <time>2015-08-13T10:25:22Z</time>
      </trkpt>
      <trkpt lat="49.2305" lon="1.28106">
        <ele>46.43604</ele>
        <time>2015-08-13T10:25:37Z</time>
      </trkpt>
      <trkpt lat="49.2305" lon="1.28113">
        <ele>46.43604</ele>
        <time>2015-08-13T10:25:42Z</time>
      </trkpt>
      <trkpt lat="49.23052" lon="1.28135">
        <ele>46.786655</ele>
        <time>2015-08-13T10:25:52Z</time>
      </trkpt>
      <trkpt lat="49.23052" lon="1.28144">
        <ele>46.786655</ele>
        <time>2015-08-13T10:25:57Z</time>
      </trkpt>
      <trkpt lat="49.23052" lon="1.28165">
        <ele>47.081425</ele>
        <time>2015-08-13T10:26:07Z</time>
      </trkpt>
      <trkpt lat="49.23053" lon="1.28171">
        <ele>47.081425</ele>
        <time>2015-08-13T10:26:12Z</time>
      </trkpt>
      <trkpt lat="49.23052" lon="1.28188">
        <ele>47.28079</ele>
        <time>2015-08-13T10:26:22Z</time>
      </trkpt>
      <trkpt lat="49.23052" lon="1.28202">
        <ele>47.28079</ele>
        <time>2015-08-13T10:26:27Z</time>
      </trkpt>
      <trkpt lat="49.23053" lon="1.2822">
        <ele>47.348366</ele>
        <time>2015-08-13T10:26:37Z</time>
      </trkpt>
      <trkpt lat="49.23053" lon="1.28228">
        <ele>47.348366</ele>
        <time>2015-08-13T10:26:42Z</time>
      </trkpt>
      <trkpt lat="49.23055" lon="1.28248">
        <ele>47.35176</ele>
        <time>2015-08-13T10:26:52Z</time>
      </trkpt>
      <trkpt lat="49.23056" lon="1.28257">
        <ele>47.35176</ele>
        <time>2015-08-13T10:26:57Z</time>
      </trkpt>
      <trkpt lat="49.23059" lon="1.28272">
        <ele>47.483513</ele>
        <time>2015-08-13T10:27:07Z</time>
      </trkpt>
      <trkpt lat="49.23063" lon="1.28278">
        <ele>47.483513</ele>
        <time>2015-08-13T10:27:12Z</time>
      </trkpt>
      <trkpt lat="49.23064" lon="1.28295">
        <ele>47.633373</ele>
        <time>2015-08-13T10:27:22Z</time>
      </trkpt>
      <trkpt lat="49.23066" lon="1.28309">
        <ele>47.74241</ele>
        <time>2015-08-13T10:27:27Z</time>
      </trkpt>
      <trkpt lat="49.23071" lon="1.28326">
        <ele>47.9291</ele>
        <time>2015-08-13T10:27:37Z</time>
      </trkpt>
      <trkpt lat="49.23073" lon="1.28335">
        <ele>47.9291</ele>
        <time>2015-08-13T10:27:42Z</time>
      </trkpt>
      <trkpt lat="49.23079" lon="1.2836">
        <ele>48.288593</ele>
        <time>2015-08-13T10:27:57Z</time>
      </trkpt>
      <trkpt lat="49.23082" lon="1.28368">
        <ele>48.288593</ele>
        <time>2015-08-13T10:28:02Z</time>
      </trkpt>
      <trkpt lat="49.23087" lon="1.28381">
        <ele>48.69238</ele>
        <time>2015-08-13T10:28:12Z</time>
      </trkpt>
      <trkpt lat="49.23089" lon="1.28389">
        <ele>48.69238</ele>
        <time>2015-08-13T10:28:17Z</time>
      </trkpt>
      <trkpt lat="49.23095" lon="1.28406">
        <ele>48.99246</ele>
        <time>2015-08-13T10:28:27Z</time>
      </trkpt>
      <trkpt lat="49.23098" lon="1.28415">
        <ele>48.99246</ele>
        <time>2015-08-13T10:28:32Z</time>
      </trkpt>
      <trkpt lat="49.23101" lon="1.28423">
        <ele>49.181725</ele>
        <time>2015-08-13T10:28:42Z</time>
      </trkpt>
      <trkpt lat="49.23109" lon="1.28437">
        <ele>49.34038</ele>
        <time>2015-08-13T10:28:47Z</time>
      </trkpt>
      <trkpt lat="49.23115" lon="1.28454">
        <ele>49.52842</ele>
        <time>2015-08-13T10:28:57Z</time>
      </trkpt>
      <trkpt lat="49.23117" lon="1.28461">
        <ele>49.52842</ele>
        <time>2015-08-13T10:29:02Z</time>
      </trkpt>
      <trkpt lat="49.23125" lon="1.28477">
        <ele>49.657234</ele>
        <time>2015-08-13T10:29:12Z</time>
      </trkpt>
      <trkpt lat="49.23129" lon="1.28489">
        <ele>49.657234</ele>
        <time>2015-08-13T10:29:17Z</time>
      </trkpt>
      <trkpt lat="49.23139" lon="1.28511">
        <ele>49.630497</ele>
        <time>2015-08-13T10:29:32Z</time>
      </trkpt>
      <trkpt lat="49.23142" lon="1.28518">
        <ele>49.630497</ele>
        <time>2015-08-13T10:29:37Z</time>
      </trkpt>
      <trkpt lat="49.23149" lon="1.28532">
        <ele>49.474678</ele>
        <time>2015-08-13T10:29:47Z</time>
      </trkpt>
      <trkpt lat="49.23153" lon="1.28539">
        <ele>49.474678</ele>
        <time>2015-08-13T10:29:52Z</time>
      </trkpt>
      <trkpt lat="49.2316" lon="1.28552">
        <ele>49.286743</ele>
        <time>2015-08-13T10:30:02Z</time>
      </trkpt>
      <trkpt lat="49.23165" lon="1.28561">
        <ele>49.286743</ele>
        <time>2015-08-13T10:30:07Z</time>
      </trkpt>
      <trkpt lat="49.23173" lon="1.28575">
        <ele>48.99808</ele>
        <time>2015-08-13T10:30:17Z</time>
      </trkpt>
      <trkpt lat="49.23175" lon="1.28581">
        <ele>48.99808</ele>
        <time>2015-08-13T10:30:22Z</time>
      </trkpt>
      <trkpt lat="49.23186" lon="1.28597">
        <ele>48.58865</ele>
        <time>2015-08-13T10:30:32Z</time>
      </trkpt>
      <trkpt lat="49.23189" lon="1.28604">
        <ele>48.58865</ele>
        <time>2015-08-13T10:30:37Z</time>
      </trkpt>
      <trkpt lat="49.23199" lon="1.28616">
        <ele>48.256374</ele>
        <time>2015-08-13T10:30:47Z</time>
      </trkpt>
      <trkpt lat="49.23205" lon="1.28623">
        <ele>48.256374</ele>
        <time>2015-08-13T10:30:52Z</time>
      </trkpt>
      <trkpt lat="49.2321" lon="1.28638">
        <ele>47.95383</ele>
        <time>2015-08-13T10:31:02Z</time>
      </trkpt>
      <trkpt lat="49.23214" lon="1.28645">
        <ele>47.95383</ele>
        <time>2015-08-13T10:31:07Z</time>
      </trkpt>
      <trkpt lat="49.23222" lon="1.28657">
        <ele>47.752277</ele>
        <time>2015-08-13T10:31:17Z</time>
      </trkpt>
      <trkpt lat="49.23226" lon="1.28662">
        <ele>47.752277</ele>
        <time>2015-08-13T10:31:22Z</time>
      </trkpt>
      <trkpt lat="49.23239" lon="1.28687">
        <ele>47.65979</ele>
        <time>2015-08-13T10:31:37Z</time>
      </trkpt>
      <trkpt lat="49.23242" lon="1.28693">
        <ele>47.65979</ele>
        <time>2015-08-13T10:31:42Z</time>
      </trkpt>
      <trkpt lat="49.23248" lon="1.28706">
        <ele>47.654705</ele>
        <time>2015-08-13T10:31:52Z</time>
      </trkpt>
      <trkpt lat="49.23251" lon="1.28714">
        <ele>47.654705</ele>
        <time>2015-08-13T10:31:57Z</time>
      </trkpt>
      <trkpt lat="49.23256" lon="1.2873">
        <ele>47.745506</ele>
        <time>2015-08-13T10:32:07Z</time>
      </trkpt>
      <trkpt lat="49.2326" lon="1.28737">
        <ele>47.745506</ele>
        <time>2015-08-13T10:32:12Z</time>
      </trkpt>
      <trkpt lat="49.23263" lon="1.28751">
        <ele>47.82448</ele>
        <time>2015-08-13T10:32:22Z</time>
      </trkpt>
      <trkpt lat="49.23265" lon="1.2876">
        <ele>47.82448</ele>
        <time>2015-08-13T10:32:27Z</time>
      </trkpt>
      <trkpt lat="49.23271" lon="1.28774">
        <ele>47.878296</ele>
        <time>2015-08-13T10:32:37Z</time>
      </trkpt>
      <trkpt lat="49.23273" lon="1.28782">
        <ele>47.878296</ele>
        <time>2015-08-13T10:32:42Z</time>
      </trkpt>
      <trkpt lat="49.2328" lon="1.288">
        <ele>47.909077</ele>
        <time>2015-08-13T10:32:52Z</time>
      </trkpt>
      <trkpt lat="49.23282" lon="1.28805">
        <ele>47.909077</ele>
        <time>2015-08-13T10:32:57Z</time>
      </trkpt>
      <trkpt lat="49.23292" lon="1.28832">
        <ele>47.97648</ele>
        <time>2015-08-13T10:33:12Z</time>
      </trkpt>
      <trkpt lat="49.23295" lon="1.28841">
        <ele>47.97648</ele>
        <time>2015-08-13T10:33:17Z</time>
      </trkpt>
      <trkpt lat="49.233" lon="1.28858">
        <ele>47.991535</ele>
        <time>2015-08-13T10:33:27Z</time>
      </trkpt>
      <trkpt lat="49.233" lon="1.2887">
        <ele>47.991535</ele>
        <time>2015-08-13T10:33:32Z</time>
      </trkpt>
      <trkpt lat="49.23301" lon="1.28887">
        <ele>48.00166</ele>
        <time>2015-08-13T10:33:42Z</time>
      </trkpt>
      <trkpt lat="49.23302" lon="1.28897">
        <ele>48.00166</ele>
        <time>2015-08-13T10:33:47Z</time>
      </trkpt>
      <trkpt lat="49.23301" lon="1.28914">
        <ele>48.06518</ele>
        <time>2015-08-13T10:33:57Z</time>
      </trkpt>
      <trkpt lat="49.23302" lon="1.2892">
        <ele>48.06518</ele>
        <time>2015-08-13T10:34:02Z</time>
      </trkpt>
      <trkpt lat="49.23309" lon="1.28937">
        <ele>47.96216</ele>
        <time>2015-08-13T10:34:12Z</time>
      </trkpt>
      <trkpt lat="49.23311" lon="1.28945">
        <ele>47.96216</ele>
        <time>2015-08-13T10:34:17Z</time>
      </trkpt>
      <trkpt lat="49.23314" lon="1.2896">
        <ele>47.89279</ele>
        <time>2015-08-13T10:34:27Z</time>
      </trkpt>
      <trkpt lat="49.23314" lon="1.28967">
        <ele>47.89279</ele>
        <time>2015-08-13T10:34:32Z</time>
      </trkpt>
      <trkpt lat="49.23315" lon="1.28976">
        <ele>47.955982</ele>
        <time>2015-08-13T10:34:42Z</time>
      </trkpt>
      <trkpt lat="49.23315" lon="1.28976">
        <ele>47.955982</ele>
        <time>2015-08-13T10:34:47Z</time>
      </trkpt>
      <trkpt lat="49.23317" lon="1.28976">
        <ele>47.955982</ele>
        <time>2015-08-13T10:34:57Z</time>
      </trkpt>
      <trkpt lat="49.23319" lon="1.28973">
        <ele>47.955982</ele>
        <time>2015-08-13T10:35:02Z</time>
      </trkpt>
      <trkpt lat="49.2332" lon="1.28971">
        <ele>47.955982</ele>
        <time>2015-08-13T10:35:12Z</time>
      </trkpt>
      <trkpt lat="49.23319" lon="1.28971">
        <ele>47.955982</ele>
        <time>2015-08-13T10:35:17Z</time>
      </trkpt>
      <trkpt lat="49.23319" lon="1.28972">
        <ele>47.955982</ele>
        <time>2015-08-13T10:35:32Z</time>
      </trkpt>
      <trkpt lat="49.2332" lon="1.28972">
        <ele>48.17093</ele>
        <time>2015-08-13T10:35:37Z</time>
      </trkpt>
      <trkpt lat="49.23322" lon="1.28971">
        <ele>48.17093</ele>
        <time>2015-08-13T10:35:47Z</time>
      </trkpt>
      <trkpt lat="49.23322" lon="1.2897">
        <ele>48.17093</ele>
        <time>2015-08-13T10:35:52Z</time>
      </trkpt>
      <trkpt lat="49.23321" lon="1.2897">
        <ele>48.17093</ele>
        <time>2015-08-13T10:36:02Z</time>
      </trkpt>
      <trkpt lat="49.23319" lon="1.28974">
        <ele>48.17093</ele>
        <time>2015-08-13T10:36:07Z</time>
      </trkpt>
      <trkpt lat="49.23322" lon="1.28978">
        <ele>48.137047</ele>
        <time>2015-08-13T10:36:17Z</time>
      </trkpt>
      <trkpt lat="49.23321" lon="1.28976">
        <ele>48.137047</ele>
        <time>2015-08-13T10:36:22Z</time>
      </trkpt>
      <trkpt lat="49.23319" lon="1.2898">
        <ele>48.137047</ele>
        <time>2015-08-13T10:36:32Z</time>
      </trkpt>
      <trkpt lat="49.23321" lon="1.28983">
        <ele>48.137047</ele>
        <time>2015-08-13T10:36:37Z</time>
      </trkpt>
      <trkpt lat="49.23321" lon="1.28983">
        <ele>48.137047</ele>
        <time>2015-08-13T10:36:47Z</time>
      </trkpt>
      <trkpt lat="49.23321" lon="1.28982">
        <ele>48.137047</ele>
        <time>2015-08-13T10:36:52Z</time>
      </trkpt>
      <trkpt lat="49.23321" lon="1.28982">
        <ele>48.137047</ele>
        <time>2015-08-13T10:37:02Z</time>
      </trkpt>
      <trkpt lat="49.23321" lon="1.28977">
        <ele>48.190014</ele>
        <time>2015-08-13T10:37:47Z</time>
      </trkpt>
      <trkpt lat="49.23321" lon="1.28977">
        <ele>48.190014</ele>
        <time>2015-08-13T10:37:52Z</time>
      </trkpt>
      <trkpt lat="49.23325" lon="1.28969">
        <ele>48.190014</ele>
        <time>2015-08-13T10:38:02Z</time>
      </trkpt>
      <trkpt lat="49.23328" lon="1.28968">
        <ele>48.366787</ele>
        <time>2015-08-13T10:38:07Z</time>
      </trkpt>
      <trkpt lat="49.23334" lon="1.28967">
        <ele>48.366787</ele>
        <time>2015-08-13T10:38:17Z</time>
      </trkpt>
      <trkpt lat="49.23338" lon="1.28968">
        <ele>48.715656</ele>
        <time>2015-08-13T10:38:22Z</time>
      </trkpt>
      <trkpt lat="49.23352" lon="1.28966">
        <ele>49.266457</ele>
        <time>2015-08-13T10:38:32Z</time>
      </trkpt>
      <trkpt lat="49.23359" lon="1.28967">
        <ele>49.266457</ele>
        <time>2015-08-13T10:38:37Z</time>
      </trkpt>
      <trkpt lat="49.23374" lon="1.28969">
        <ele>49.93097</ele>
        <time>2015-08-13T10:38:52Z</time>
      </trkpt>
      <trkpt lat="49.23382" lon="1.28974">
        <ele>49.93097</ele>
        <time>2015-08-13T10:38:57Z</time>
      </trkpt>
      <trkpt lat="49.23396" lon="1.28978">
        <ele>50.900955</ele>
        <time>2015-08-13T10:39:07Z</time>
      </trkpt>
      <trkpt lat="49.23403" lon="1.28985">
        <ele>50.900955</ele>
        <time>2015-08-13T10:39:12Z</time>
      </trkpt>
      <trkpt lat="49.23414" lon="1.28992">
        <ele>52.252346</ele>
        <time>2015-08-13T10:39:22Z</time>
      </trkpt>
      <trkpt lat="49.23419" lon="1.2899">
        <ele>52.252346</ele>
        <time>2015-08-13T10:39:27Z</time>
      </trkpt>
      <trkpt lat="49.2343" lon="1.28989">
        <ele>53.852684</ele>
        <time>2015-08-13T10:39:37Z</time>
      </trkpt>
      <trkpt lat="49.23435" lon="1.28989">
        <ele>53.852684</ele>
        <time>2015-08-13T10:39:42Z</time>
      </trkpt>
      <trkpt lat="49.23451" lon="1.28984">
        <ele>55.56416</ele>
        <time>2015-08-13T10:39:52Z</time>
      </trkpt>
      <trkpt lat="49.23456" lon="1.28982">
        <ele>55.56416</ele>
        <time>2015-08-13T10:39:57Z</time>
      </trkpt>
      <trkpt lat="49.2347" lon="1.28981">
        <ele>57.27321</ele>
        <time>2015-08-13T10:40:07Z</time>
      </trkpt>
      <trkpt lat="49.2348" lon="1.28982">
        <ele>58.874664</ele>
        <time>2015-08-13T10:40:12Z</time>
      </trkpt>
      <trkpt lat="49.23489" lon="1.28983">
        <ele>60.343487</ele>
        <time>2015-08-13T10:40:22Z</time>
      </trkpt>
      <trkpt lat="49.23495" lon="1.28985">
        <ele>60.343487</ele>
        <time>2015-08-13T10:40:27Z</time>
      </trkpt>
      <trkpt lat="49.23508" lon="1.28994">
        <ele>61.743385</ele>
        <time>2015-08-13T10:40:37Z</time>
      </trkpt>
      <trkpt lat="49.23514" lon="1.29">
        <ele>61.743385</ele>
        <time>2015-08-13T10:40:42Z</time>
      </trkpt>
      <trkpt lat="49.23526" lon="1.29005">
        <ele>63.162468</ele>
        <time>2015-08-13T10:40:52Z</time>
      </trkpt>
      <trkpt lat="49.23526" lon="1.29006">
        <ele>63.162468</ele>
        <time>2015-08-13T10:40:57Z</time>
      </trkpt>
      <trkpt lat="49.23526" lon="1.29009">
        <ele>63.162468</ele>
        <time>2015-08-13T10:41:07Z</time>
      </trkpt>
      <trkpt lat="49.23528" lon="1.29013">
        <ele>63.162468</ele>
        <time>2015-08-13T10:41:12Z</time>
      </trkpt>
      <trkpt lat="49.23531" lon="1.29015">
        <ele>64.26446</ele>
        <time>2015-08-13T10:41:22Z</time>
      </trkpt>
      <trkpt lat="49.23541" lon="1.29019">
        <ele>65.257545</ele>
        <time>2015-08-13T10:41:27Z</time>
      </trkpt>
      <trkpt lat="49.23564" lon="1.29027">
        <ele>66.09004</ele>
        <time>2015-08-13T10:41:42Z</time>
      </trkpt>
      <trkpt lat="49.2357" lon="1.2903">
        <ele>66.09004</ele>
        <time>2015-08-13T10:41:47Z</time>
      </trkpt>
      <trkpt lat="49.23583" lon="1.2904">
        <ele>66.7578</ele>
        <time>2015-08-13T10:41:57Z</time>
      </trkpt>
      <trkpt lat="49.23588" lon="1.29044">
        <ele>66.7578</ele>
        <time>2015-08-13T10:42:02Z</time>
      </trkpt>
      <trkpt lat="49.23601" lon="1.29052">
        <ele>67.3728</ele>
        <time>2015-08-13T10:42:12Z</time>
      </trkpt>
      <trkpt lat="49.23607" lon="1.29055">
        <ele>67.3728</ele>
        <time>2015-08-13T10:42:17Z</time>
      </trkpt>
      <trkpt lat="49.23622" lon="1.29063">
        <ele>67.794044</ele>
        <time>2015-08-13T10:42:27Z</time>
      </trkpt>
      <trkpt lat="49.23628" lon="1.29068">
        <ele>67.794044</ele>
        <time>2015-08-13T10:42:32Z</time>
      </trkpt>
      <trkpt lat="49.23641" lon="1.29074">
        <ele>67.99237</ele>
        <time>2015-08-13T10:42:42Z</time>
      </trkpt>
      <trkpt lat="49.23646" lon="1.29078">
        <ele>67.99237</ele>
        <time>2015-08-13T10:42:47Z</time>
      </trkpt>
      <trkpt lat="49.23658" lon="1.29082">
        <ele>67.97028</ele>
        <time>2015-08-13T10:42:57Z</time>
      </trkpt>
      <trkpt lat="49.23664" lon="1.29083">
        <ele>67.97028</ele>
        <time>2015-08-13T10:43:02Z</time>
      </trkpt>
      <trkpt lat="49.23678" lon="1.29083">
        <ele>67.71636</ele>
        <time>2015-08-13T10:43:12Z</time>
      </trkpt>
      <trkpt lat="49.23685" lon="1.29084">
        <ele>67.71636</ele>
        <time>2015-08-13T10:43:17Z</time>
      </trkpt>
      <trkpt lat="49.23703" lon="1.29086">
        <ele>67.29278</ele>
        <time>2015-08-13T10:43:32Z</time>
      </trkpt>
      <trkpt lat="49.23709" lon="1.29087">
        <ele>67.29278</ele>
        <time>2015-08-13T10:43:37Z</time>
      </trkpt>
      <trkpt lat="49.23723" lon="1.29088">
        <ele>66.728836</ele>
        <time>2015-08-13T10:43:47Z</time>
      </trkpt>
      <trkpt lat="49.23728" lon="1.29089">
        <ele>66.728836</ele>
        <time>2015-08-13T10:43:52Z</time>
      </trkpt>
      <trkpt lat="49.23743" lon="1.29092">
        <ele>66.09535</ele>
        <time>2015-08-13T10:44:02Z</time>
      </trkpt>
      <trkpt lat="49.2375" lon="1.29092">
        <ele>66.09535</ele>
        <time>2015-08-13T10:44:07Z</time>
      </trkpt>
      <trkpt lat="49.23764" lon="1.29097">
        <ele>65.47254</ele>
        <time>2015-08-13T10:44:17Z</time>
      </trkpt>
      <trkpt lat="49.2377" lon="1.29099">
        <ele>65.47254</ele>
        <time>2015-08-13T10:44:22Z</time>
      </trkpt>
      <trkpt lat="49.23781" lon="1.29103">
        <ele>64.848274</ele>
        <time>2015-08-13T10:44:32Z</time>
      </trkpt>
      <trkpt lat="49.23788" lon="1.29106">
        <ele>64.848274</ele>
        <time>2015-08-13T10:44:37Z</time>
      </trkpt>
      <trkpt lat="49.238" lon="1.29113">
        <ele>64.196884</ele>
        <time>2015-08-13T10:44:47Z</time>
      </trkpt>
      <trkpt lat="49.23806" lon="1.29116">
        <ele>64.196884</ele>
        <time>2015-08-13T10:44:52Z</time>
      </trkpt>
      <trkpt lat="49.23819" lon="1.29121">
        <ele>63.609943</ele>
        <time>2015-08-13T10:45:02Z</time>
      </trkpt>
      <trkpt lat="49.23825" lon="1.29121">
        <ele>63.609943</ele>
        <time>2015-08-13T10:45:07Z</time>
      </trkpt>
      <trkpt lat="49.23842" lon="1.29128">
        <ele>63.056816</ele>
        <time>2015-08-13T10:45:22Z</time>
      </trkpt>
      <trkpt lat="49.23847" lon="1.29132">
        <ele>63.056816</ele>
        <time>2015-08-13T10:45:27Z</time>
      </trkpt>
      <trkpt lat="49.23859" lon="1.2914">
        <ele>62.49459</ele>
        <time>2015-08-13T10:45:37Z</time>
      </trkpt>
      <trkpt lat="49.23866" lon="1.29143">
        <ele>62.49459</ele>
        <time>2015-08-13T10:45:42Z</time>
      </trkpt>
      <trkpt lat="49.23878" lon="1.29151">
        <ele>62.027607</ele>
        <time>2015-08-13T10:45:52Z</time>
      </trkpt>
      <trkpt lat="49.23883" lon="1.29153">
        <ele>62.027607</ele>
        <time>2015-08-13T10:45:57Z</time>
      </trkpt>
      <trkpt lat="49.23894" lon="1.2916">
        <ele>61.5793</ele>
        <time>2015-08-13T10:46:07Z</time>
      </trkpt>
      <trkpt lat="49.239" lon="1.29163">
        <ele>61.5793</ele>
        <time>2015-08-13T10:46:12Z</time>
      </trkpt>
      <trkpt lat="49.23911" lon="1.29172">
        <ele>61.064228</ele>
        <time>2015-08-13T10:46:22Z</time>
      </trkpt>
      <trkpt lat="49.23916" lon="1.29179">
        <ele>61.064228</ele>
        <time>2015-08-13T10:46:27Z</time>
      </trkpt>
      <trkpt lat="49.23926" lon="1.29184">
        <ele>60.48983</ele>
        <time>2015-08-13T10:46:37Z</time>
      </trkpt>
      <trkpt lat="49.23931" lon="1.29189">
        <ele>60.48983</ele>
        <time>2015-08-13T10:46:42Z</time>
      </trkpt>
      <trkpt lat="49.23952" lon="1.29206">
        <ele>59.83429</ele>
        <time>2015-08-13T10:46:57Z</time>
      </trkpt>
      <trkpt lat="49.23958" lon="1.29212">
        <ele>59.83429</ele>
        <time>2015-08-13T10:47:02Z</time>
      </trkpt>
      <trkpt lat="49.2397" lon="1.29223">
        <ele>59.236088</ele>
        <time>2015-08-13T10:47:12Z</time>
      </trkpt>
      <trkpt lat="49.23976" lon="1.29228">
        <ele>59.236088</ele>
        <time>2015-08-13T10:47:17Z</time>
      </trkpt>
      <trkpt lat="49.23987" lon="1.29237">
        <ele>58.65039</ele>
        <time>2015-08-13T10:47:27Z</time>
      </trkpt>
      <trkpt lat="49.23993" lon="1.29243">
        <ele>58.65039</ele>
        <time>2015-08-13T10:47:32Z</time>
      </trkpt>
      <trkpt lat="49.24006" lon="1.29254">
        <ele>58.208473</ele>
        <time>2015-08-13T10:47:42Z</time>
      </trkpt>
      <trkpt lat="49.24012" lon="1.29259">
        <ele>58.208473</ele>
        <time>2015-08-13T10:47:47Z</time>
      </trkpt>
      <trkpt lat="49.24023" lon="1.29272">
        <ele>57.829765</ele>
        <time>2015-08-13T10:47:57Z</time>
      </trkpt>
      <trkpt lat="49.24024" lon="1.29275">
        <ele>57.829765</ele>
        <time>2015-08-13T10:48:02Z</time>
      </trkpt>
      <trkpt lat="49.24029" lon="1.29292">
        <ele>57.48259</ele>
        <time>2015-08-13T10:48:12Z</time>
      </trkpt>
      <trkpt lat="49.2403" lon="1.29301">
        <ele>57.48259</ele>
        <time>2015-08-13T10:48:17Z</time>
      </trkpt>
      <trkpt lat="49.24039" lon="1.29332">
        <ele>57.195087</ele>
        <time>2015-08-13T10:48:32Z</time>
      </trkpt>
      <trkpt lat="49.24041" lon="1.2934">
        <ele>57.195087</ele>
        <time>2015-08-13T10:48:37Z</time>
      </trkpt>
      <trkpt lat="49.24048" lon="1.29357">
        <ele>56.94988</ele>
        <time>2015-08-13T10:48:47Z</time>
      </trkpt>
      <trkpt lat="49.2405" lon="1.29368">
        <ele>56.94988</ele>
        <time>2015-08-13T10:48:52Z</time>
      </trkpt>
      <trkpt lat="49.24057" lon="1.29383">
        <ele>56.83153</ele>
        <time>2015-08-13T10:49:02Z</time>
      </trkpt>
      <trkpt lat="49.2406" lon="1.2939">
        <ele>56.83153</ele>
        <time>2015-08-13T10:49:07Z</time>
      </trkpt>
      <trkpt lat="49.24068" lon="1.29411">
        <ele>56.572136</ele>
        <time>2015-08-13T10:49:17Z</time>
      </trkpt>
      <trkpt lat="49.24072" lon="1.2942">
        <ele>56.572136</ele>
        <time>2015-08-13T10:49:22Z</time>
      </trkpt>
      <trkpt lat="49.24076" lon="1.29434">
        <ele>56.327293</ele>
        <time>2015-08-13T10:49:32Z</time>
      </trkpt>
      <trkpt lat="49.24078" lon="1.29441">
        <ele>56.327293</ele>
        <time>2015-08-13T10:49:37Z</time>
      </trkpt>
      <trkpt lat="49.24086" lon="1.29457">
        <ele>56.039326</ele>
        <time>2015-08-13T10:49:47Z</time>
      </trkpt>
      <trkpt lat="49.24092" lon="1.29467">
        <ele>55.75572</ele>
        <time>2015-08-13T10:49:52Z</time>
      </trkpt>
      <trkpt lat="49.24101" lon="1.29482">
        <ele>55.491592</ele>
        <time>2015-08-13T10:50:02Z</time>
      </trkpt>
      <trkpt lat="49.24106" lon="1.29489">
        <ele>55.491592</ele>
        <time>2015-08-13T10:50:07Z</time>
      </trkpt>
      <trkpt lat="49.24116" lon="1.29501">
        <ele>55.390533</ele>
        <time>2015-08-13T10:50:17Z</time>
      </trkpt>
      <trkpt lat="49.24121" lon="1.29507">
        <ele>55.390533</ele>
        <time>2015-08-13T10:50:22Z</time>
      </trkpt>
      <trkpt lat="49.24135" lon="1.29521">
        <ele>55.426556</ele>
        <time>2015-08-13T10:50:37Z</time>
      </trkpt>
      <trkpt lat="49.2414" lon="1.29527">
        <ele>55.426556</ele>
        <time>2015-08-13T10:50:42Z</time>
      </trkpt>
      <trkpt lat="49.24152" lon="1.29536">
        <ele>55.488674</ele>
        <time>2015-08-13T10:50:52Z</time>
      </trkpt>
      <trkpt lat="49.24156" lon="1.29541">
        <ele>55.488674</ele>
        <time>2015-08-13T10:50:57Z</time>
      </trkpt>
      <trkpt lat="49.24169" lon="1.29547">
        <ele>55.618042</ele>
        <time>2015-08-13T10:51:07Z</time>
      </trkpt>
      <trkpt lat="49.24176" lon="1.29551">
        <ele>55.618042</ele>
        <time>2015-08-13T10:51:12Z</time>
      </trkpt>
      <trkpt lat="49.24185" lon="1.29559">
        <ele>55.75169</ele>
        <time>2015-08-13T10:51:22Z</time>
      </trkpt>
      <trkpt lat="49.24192" lon="1.29565">
        <ele>55.75169</ele>
        <time>2015-08-13T10:51:27Z</time>
      </trkpt>
      <trkpt lat="49.24207" lon="1.29574">
        <ele>55.86004</ele>
        <time>2015-08-13T10:51:37Z</time>
      </trkpt>
      <trkpt lat="49.24211" lon="1.29579">
        <ele>55.86004</ele>
        <time>2015-08-13T10:51:42Z</time>
      </trkpt>
      <trkpt lat="49.2422" lon="1.29592">
        <ele>55.93013</ele>
        <time>2015-08-13T10:51:52Z</time>
      </trkpt>
      <trkpt lat="49.24227" lon="1.29596">
        <ele>55.93013</ele>
        <time>2015-08-13T10:51:57Z</time>
      </trkpt>
      <trkpt lat="49.24236" lon="1.29608">
        <ele>55.993263</ele>
        <time>2015-08-13T10:52:07Z</time>
      </trkpt>
      <trkpt lat="49.24242" lon="1.29612">
        <ele>55.993263</ele>
        <time>2015-08-13T10:52:12Z</time>
      </trkpt>
      <trkpt lat="49.24254" lon="1.29624">
        <ele>56.150494</ele>
        <time>2015-08-13T10:52:22Z</time>
      </trkpt>
      <trkpt lat="49.24257" lon="1.29629">
        <ele>56.150494</ele>
        <time>2015-08-13T10:52:27Z</time>
      </trkpt>
      <trkpt lat="49.2427" lon="1.2964">
        <ele>56.4231</ele>
        <time>2015-08-13T10:52:37Z</time>
      </trkpt>
      <trkpt lat="49.24276" lon="1.29644">
        <ele>56.4231</ele>
        <time>2015-08-13T10:52:42Z</time>
      </trkpt>
      <trkpt lat="49.24293" lon="1.29658">
        <ele>56.74399</ele>
        <time>2015-08-13T10:52:57Z</time>
      </trkpt>
      <trkpt lat="49.243" lon="1.29665">
        <ele>56.74399</ele>
        <time>2015-08-13T10:53:02Z</time>
      </trkpt>
      <trkpt lat="49.24313" lon="1.29675">
        <ele>57.16615</ele>
        <time>2015-08-13T10:53:12Z</time>
      </trkpt>
      <trkpt lat="49.2432" lon="1.29678">
        <ele>57.16615</ele>
        <time>2015-08-13T10:53:17Z</time>
      </trkpt>
      <trkpt lat="49.24329" lon="1.29685">
        <ele>57.70953</ele>
        <time>2015-08-13T10:53:27Z</time>
      </trkpt>
      <trkpt lat="49.24335" lon="1.29691">
        <ele>57.70953</ele>
        <time>2015-08-13T10:53:32Z</time>
      </trkpt>
      <trkpt lat="49.24349" lon="1.29698">
        <ele>58.262596</ele>
        <time>2015-08-13T10:53:42Z</time>
      </trkpt>
      <trkpt lat="49.24354" lon="1.29702">
        <ele>58.262596</ele>
        <time>2015-08-13T10:53:47Z</time>
      </trkpt>
      <trkpt lat="49.24364" lon="1.29709">
        <ele>58.72196</ele>
        <time>2015-08-13T10:53:57Z</time>
      </trkpt>
      <trkpt lat="49.24369" lon="1.29711">
        <ele>58.72196</ele>
        <time>2015-08-13T10:54:02Z</time>
      </trkpt>
      <trkpt lat="49.24384" lon="1.29717">
        <ele>58.934464</ele>
        <time>2015-08-13T10:54:12Z</time>
      </trkpt>
      <trkpt lat="49.24389" lon="1.2972">
        <ele>58.934464</ele>
        <time>2015-08-13T10:54:17Z</time>
      </trkpt>
      <trkpt lat="49.24405" lon="1.29727">
        <ele>59.018288</ele>
        <time>2015-08-13T10:54:27Z</time>
      </trkpt>
      <trkpt lat="49.24411" lon="1.29729">
        <ele>59.018288</ele>
        <time>2015-08-13T10:54:32Z</time>
      </trkpt>
      <trkpt lat="49.2442" lon="1.29734">
        <ele>59.15537</ele>
        <time>2015-08-13T10:54:42Z</time>
      </trkpt>
      <trkpt lat="49.24425" lon="1.29735">
        <ele>59.15537</ele>
        <time>2015-08-13T10:54:47Z</time>
      </trkpt>
      <trkpt lat="49.24439" lon="1.29737">
        <ele>59.269142</ele>
        <time>2015-08-13T10:54:57Z</time>
      </trkpt>
      <trkpt lat="49.24447" lon="1.29739">
        <ele>59.269142</ele>
        <time>2015-08-13T10:55:02Z</time>
      </trkpt>
      <trkpt lat="49.24465" lon="1.29739">
        <ele>59.36081</ele>
        <time>2015-08-13T10:55:17Z</time>
      </trkpt>
      <trkpt lat="49.24474" lon="1.29738">
        <ele>59.489197</ele>
        <time>2015-08-13T10:55:22Z</time>
      </trkpt>
      <trkpt lat="49.24487" lon="1.29738">
        <ele>59.564613</ele>
        <time>2015-08-13T10:55:32Z</time>
      </trkpt>
      <trkpt lat="49.24494" lon="1.29734">
        <ele>59.564613</ele>
        <time>2015-08-13T10:55:37Z</time>
      </trkpt>
      <trkpt lat="49.24506" lon="1.29733">
        <ele>59.259125</ele>
        <time>2015-08-13T10:55:47Z</time>
      </trkpt>
      <trkpt lat="49.24513" lon="1.2973">
        <ele>59.259125</ele>
        <time>2015-08-13T10:55:52Z</time>
      </trkpt>
      <trkpt lat="49.24523" lon="1.29726">
        <ele>58.875237</ele>
        <time>2015-08-13T10:56:02Z</time>
      </trkpt>
      <trkpt lat="49.24528" lon="1.29723">
        <ele>58.875237</ele>
        <time>2015-08-13T10:56:07Z</time>
      </trkpt>
      <trkpt lat="49.2454" lon="1.29718">
        <ele>58.362003</ele>
        <time>2015-08-13T10:56:17Z</time>
      </trkpt>
      <trkpt lat="49.24546" lon="1.29716">
        <ele>58.362003</ele>
        <time>2015-08-13T10:56:22Z</time>
      </trkpt>
      <trkpt lat="49.24559" lon="1.29715">
        <ele>57.61495</ele>
        <time>2015-08-13T10:56:32Z</time>
      </trkpt>
      <trkpt lat="49.24565" lon="1.29712">
        <ele>57.61495</ele>
        <time>2015-08-13T10:56:37Z</time>
      </trkpt>
      <trkpt lat="49.24579" lon="1.29708">
        <ele>56.725277</ele>
        <time>2015-08-13T10:56:47Z</time>
      </trkpt>
      <trkpt lat="49.24586" lon="1.29709">
        <ele>56.725277</ele>
        <time>2015-08-13T10:56:52Z</time>
      </trkpt>
      <trkpt lat="49.24599" lon="1.29716">
        <ele>55.821117</ele>
        <time>2015-08-13T10:57:02Z</time>
      </trkpt>
      <trkpt lat="49.24602" lon="1.29722">
        <ele>55.821117</ele>
        <time>2015-08-13T10:57:07Z</time>
      </trkpt>
      <trkpt lat="49.24615" lon="1.29739">
        <ele>54.8771</ele>
        <time>2015-08-13T10:57:22Z</time>
      </trkpt>
      <trkpt lat="49.2462" lon="1.29744">
        <ele>54.8771</ele>
        <time>2015-08-13T10:57:27Z</time>
      </trkpt>
      <trkpt lat="49.24629" lon="1.29755">
        <ele>53.941883</ele>
        <time>2015-08-13T10:57:37Z</time>
      </trkpt>
      <trkpt lat="49.24632" lon="1.29762">
        <ele>53.941883</ele>
        <time>2015-08-13T10:57:42Z</time>
      </trkpt>
      <trkpt lat="49.24639" lon="1.29774">
        <ele>53.089317</ele>
        <time>2015-08-13T10:57:52Z</time>
      </trkpt>
      <trkpt lat="49.24643" lon="1.29778">
        <ele>53.089317</ele>
        <time>2015-08-13T10:57:57Z</time>
      </trkpt>
      <trkpt lat="49.24651" lon="1.29787">
        <ele>52.34433</ele>
        <time>2015-08-13T10:58:07Z</time>
      </trkpt>
      <trkpt lat="49.24656" lon="1.29793">
        <ele>52.34433</ele>
        <time>2015-08-13T10:58:12Z</time>
      </trkpt>
      <trkpt lat="49.24664" lon="1.29803">
        <ele>51.75852</ele>
        <time>2015-08-13T10:58:22Z</time>
      </trkpt>
      <trkpt lat="49.24667" lon="1.29809">
        <ele>51.75852</ele>
        <time>2015-08-13T10:58:27Z</time>
      </trkpt>
      <trkpt lat="49.24675" lon="1.29821">
        <ele>51.46566</ele>
        <time>2015-08-13T10:58:37Z</time>
      </trkpt>
      <trkpt lat="49.24678" lon="1.29827">
        <ele>51.46566</ele>
        <time>2015-08-13T10:58:42Z</time>
      </trkpt>
      <trkpt lat="49.24685" lon="1.29836">
        <ele>51.473576</ele>
        <time>2015-08-13T10:58:52Z</time>
      </trkpt>
      <trkpt lat="49.24689" lon="1.2984">
        <ele>51.473576</ele>
        <time>2015-08-13T10:58:57Z</time>
      </trkpt>
      <trkpt lat="49.247" lon="1.29853">
        <ele>51.485985</ele>
        <time>2015-08-13T10:59:12Z</time>
      </trkpt>
      <trkpt lat="49.24703" lon="1.29858">
        <ele>51.485985</ele>
        <time>2015-08-13T10:59:17Z</time>
      </trkpt>
      <trkpt lat="49.24714" lon="1.29864">
        <ele>51.833603</ele>
        <time>2015-08-13T10:59:27Z</time>
      </trkpt>
      <trkpt lat="49.24721" lon="1.29867">
        <ele>51.833603</ele>
        <time>2015-08-13T10:59:32Z</time>
      </trkpt>
      <trkpt lat="49.2473" lon="1.2987">
        <ele>52.53366</ele>
        <time>2015-08-13T10:59:42Z</time>
      </trkpt>
      <trkpt lat="49.24738" lon="1.2987">
        <ele>52.53366</ele>
        <time>2015-08-13T10:59:47Z</time>
      </trkpt>
      <trkpt lat="49.24748" lon="1.29869">
        <ele>53.64435</ele>
        <time>2015-08-13T10:59:57Z</time>
      </trkpt>
      <trkpt lat="49.24755" lon="1.29869">
        <ele>53.64435</ele>
        <time>2015-08-13T11:00:02Z</time>
      </trkpt>
      <trkpt lat="49.24766" lon="1.29868">
        <ele>55.17518</ele>
        <time>2015-08-13T11:00:12Z</time>
      </trkpt>
      <trkpt lat="49.2477" lon="1.29864">
        <ele>55.17518</ele>
        <time>2015-08-13T11:00:17Z</time>
      </trkpt>
      <trkpt lat="49.24782" lon="1.29864">
        <ele>56.960865</ele>
        <time>2015-08-13T11:00:27Z</time>
      </trkpt>
      <trkpt lat="49.24788" lon="1.29863">
        <ele>56.960865</ele>
        <time>2015-08-13T11:00:32Z</time>
      </trkpt>
      <trkpt lat="49.248" lon="1.29861">
        <ele>58.789906</ele>
        <time>2015-08-13T11:00:42Z</time>
      </trkpt>
      <trkpt lat="49.24805" lon="1.29861">
        <ele>58.789906</ele>
        <time>2015-08-13T11:00:47Z</time>
      </trkpt>
      <trkpt lat="49.24821" lon="1.29863">
        <ele>60.76889</ele>
        <time>2015-08-13T11:01:02Z</time>
      </trkpt>
      <trkpt lat="49.24827" lon="1.29864">
        <ele>60.76889</ele>
        <time>2015-08-13T11:01:07Z</time>
      </trkpt>
      <trkpt lat="49.24839" lon="1.29861">
        <ele>62.621494</ele>
        <time>2015-08-13T11:01:17Z</time>
      </trkpt>
      <trkpt lat="49.24844" lon="1.29859">
        <ele>62.621494</ele>
        <time>2015-08-13T11:01:22Z</time>
      </trkpt>
      <trkpt lat="49.24856" lon="1.29859">
        <ele>64.36593</ele>
        <time>2015-08-13T11:01:32Z</time>
      </trkpt>
      <trkpt lat="49.24863" lon="1.29859">
        <ele>64.36593</ele>
        <time>2015-08-13T11:01:37Z</time>
      </trkpt>
      <trkpt lat="49.24877" lon="1.29859">
        <ele>65.9906</ele>
        <time>2015-08-13T11:01:47Z</time>
      </trkpt>
      <trkpt lat="49.24882" lon="1.29859">
        <ele>65.9906</ele>
        <time>2015-08-13T11:01:52Z</time>
      </trkpt>
      <trkpt lat="49.24893" lon="1.2986">
        <ele>67.58608</ele>
        <time>2015-08-13T11:02:02Z</time>
      </trkpt>
      <trkpt lat="49.24896" lon="1.29862">
        <ele>67.58608</ele>
        <time>2015-08-13T11:02:07Z</time>
      </trkpt>
      <trkpt lat="49.24891" lon="1.29863">
        <ele>67.58608</ele>
        <time>2015-08-13T11:02:22Z</time>
      </trkpt>
      <trkpt lat="49.24893" lon="1.29865">
        <ele>69.13556</ele>
        <time>2015-08-13T11:02:27Z</time>
      </trkpt>
      <trkpt lat="49.24895" lon="1.29865">
        <ele>69.13556</ele>
        <time>2015-08-13T11:02:37Z</time>
      </trkpt>
      <trkpt lat="49.24899" lon="1.29865">
        <ele>69.13556</ele>
        <time>2015-08-13T11:02:42Z</time>
      </trkpt>
      <trkpt lat="49.2491" lon="1.29867">
        <ele>70.50841</ele>
        <time>2015-08-13T11:02:52Z</time>
      </trkpt>
      <trkpt lat="49.24916" lon="1.29868">
        <ele>70.50841</ele>
        <time>2015-08-13T11:02:57Z</time>
      </trkpt>
      <trkpt lat="49.24913" lon="1.29863">
        <ele>71.71388</ele>
        <time>2015-08-13T11:03:07Z</time>
      </trkpt>
      <trkpt lat="49.24912" lon="1.29861">
        <ele>71.71388</ele>
        <time>2015-08-13T11:03:12Z</time>
      </trkpt>
      <trkpt lat="49.24922" lon="1.29863">
        <ele>72.68907</ele>
        <time>2015-08-13T11:03:22Z</time>
      </trkpt>
      <trkpt lat="49.24923" lon="1.29867">
        <ele>72.68907</ele>
        <time>2015-08-13T11:03:27Z</time>
      </trkpt>
      <trkpt lat="49.24924" lon="1.29868">
        <ele>72.68907</ele>
        <time>2015-08-13T11:03:37Z</time>
      </trkpt>
      <trkpt lat="49.24925" lon="1.2987">
        <ele>72.68907</ele>
        <time>2015-08-13T11:03:42Z</time>
      </trkpt>
      <trkpt lat="49.24933" lon="1.29875">
        <ele>73.43409</ele>
        <time>2015-08-13T11:03:52Z</time>
      </trkpt>
      <trkpt lat="49.24934" lon="1.29875">
        <ele>73.43409</ele>
        <time>2015-08-13T11:03:57Z</time>
      </trkpt>
      <trkpt lat="49.2494" lon="1.29876">
        <ele>73.43409</ele>
        <time>2015-08-13T11:04:12Z</time>
      </trkpt>
      <trkpt lat="49.24939" lon="1.29874">
        <ele>73.43409</ele>
        <time>2015-08-13T11:04:17Z</time>
      </trkpt>
      <trkpt lat="49.24934" lon="1.2987">
        <ele>73.97861</ele>
        <time>2015-08-13T11:04:27Z</time>
      </trkpt>
      <trkpt lat="49.24931" lon="1.29871">
        <ele>73.97861</ele>
        <time>2015-08-13T11:04:32Z</time>
      </trkpt>
      <trkpt lat="49.24921" lon="1.29869">
        <ele>74.33637</ele>
        <time>2015-08-13T11:04:42Z</time>
      </trkpt>
      <trkpt lat="49.24917" lon="1.29866">
        <ele>74.33637</ele>
        <time>2015-08-13T11:04:47Z</time>
      </trkpt>
      <trkpt lat="49.24903" lon="1.29863">
        <ele>74.70808</ele>
        <time>2015-08-13T11:04:57Z</time>
      </trkpt>
      <trkpt lat="49.24898" lon="1.29862">
        <ele>74.70808</ele>
        <time>2015-08-13T11:05:02Z</time>
      </trkpt>
      <trkpt lat="49.24889" lon="1.2987">
        <ele>75.09239</ele>
        <time>2015-08-13T11:05:12Z</time>
      </trkpt>
      <trkpt lat="49.24886" lon="1.29877">
        <ele>75.09239</ele>
        <time>2015-08-13T11:05:17Z</time>
      </trkpt>
      <trkpt lat="49.2489" lon="1.29876">
        <ele>75.1855</ele>
        <time>2015-08-13T11:05:32Z</time>
      </trkpt>
      <trkpt lat="49.24888" lon="1.29876">
        <ele>75.1855</ele>
        <time>2015-08-13T11:05:37Z</time>
      </trkpt>
      <trkpt lat="49.24884" lon="1.29894">
        <ele>75.16794</ele>
        <time>2015-08-13T11:05:47Z</time>
      </trkpt>
      <trkpt lat="49.24881" lon="1.29905">
        <ele>75.16794</ele>
        <time>2015-08-13T11:05:52Z</time>
      </trkpt>
      <trkpt lat="49.24879" lon="1.29921">
        <ele>75.207375</ele>
        <time>2015-08-13T11:06:02Z</time>
      </trkpt>
      <trkpt lat="49.24877" lon="1.2993">
        <ele>75.207375</ele>
        <time>2015-08-13T11:06:07Z</time>
      </trkpt>
      <trkpt lat="49.24875" lon="1.29948">
        <ele>75.430244</ele>
        <time>2015-08-13T11:06:17Z</time>
      </trkpt>
      <trkpt lat="49.24874" lon="1.29956">
        <ele>75.430244</ele>
        <time>2015-08-13T11:06:22Z</time>
      </trkpt>
      <trkpt lat="49.24869" lon="1.2997">
        <ele>75.90999</ele>
        <time>2015-08-13T11:06:32Z</time>
      </trkpt>
      <trkpt lat="49.24867" lon="1.2998">
        <ele>75.90999</ele>
        <time>2015-08-13T11:06:37Z</time>
      </trkpt>
      <trkpt lat="49.24861" lon="1.3">
        <ele>76.396965</ele>
        <time>2015-08-13T11:06:47Z</time>
      </trkpt>
      <trkpt lat="49.24858" lon="1.30008">
        <ele>76.396965</ele>
        <time>2015-08-13T11:06:52Z</time>
      </trkpt>
      <trkpt lat="49.24857" lon="1.30022">
        <ele>76.77516</ele>
        <time>2015-08-13T11:07:02Z</time>
      </trkpt>
      <trkpt lat="49.24855" lon="1.3003">
        <ele>76.77516</ele>
        <time>2015-08-13T11:07:07Z</time>
      </trkpt>
      <trkpt lat="49.24851" lon="1.30051">
        <ele>77.240074</ele>
        <time>2015-08-13T11:07:17Z</time>
      </trkpt>
      <trkpt lat="49.24849" lon="1.30059">
        <ele>77.240074</ele>
        <time>2015-08-13T11:07:22Z</time>
      </trkpt>
      <trkpt lat="49.24846" lon="1.30076">
        <ele>77.65561</ele>
        <time>2015-08-13T11:07:32Z</time>
      </trkpt>
      <trkpt lat="49.24844" lon="1.30083">
        <ele>77.65561</ele>
        <time>2015-08-13T11:07:37Z</time>
      </trkpt>
      <trkpt lat="49.24842" lon="1.30104">
        <ele>78.05434</ele>
        <time>2015-08-13T11:07:47Z</time>
      </trkpt>
      <trkpt lat="49.24841" lon="1.30113">
        <ele>78.05434</ele>
        <time>2015-08-13T11:07:52Z</time>
      </trkpt>
      <trkpt lat="49.24835" lon="1.30138">
        <ele>78.49536</ele>
        <time>2015-08-13T11:08:07Z</time>
      </trkpt>
      <trkpt lat="49.24832" lon="1.30146">
        <ele>78.49536</ele>
        <time>2015-08-13T11:08:12Z</time>
      </trkpt>
      <trkpt lat="49.2483" lon="1.30164">
        <ele>78.961296</ele>
        <time>2015-08-13T11:08:22Z</time>
      </trkpt>
      <trkpt lat="49.24827" lon="1.30173">
        <ele>78.961296</ele>
        <time>2015-08-13T11:08:27Z</time>
      </trkpt>
      <trkpt lat="49.24825" lon="1.30191">
        <ele>79.49364</ele>
        <time>2015-08-13T11:08:37Z</time>
      </trkpt>
      <trkpt lat="49.24823" lon="1.30198">
        <ele>79.49364</ele>
        <time>2015-08-13T11:08:42Z</time>
      </trkpt>
      <trkpt lat="49.24818" lon="1.30218">
        <ele>79.90008</ele>
        <time>2015-08-13T11:08:52Z</time>
      </trkpt>
      <trkpt lat="49.24817" lon="1.30224">
        <ele>79.90008</ele>
        <time>2015-08-13T11:08:57Z</time>
      </trkpt>
      <trkpt lat="49.24814" lon="1.30241">
        <ele>80.13253</ele>
        <time>2015-08-13T11:09:07Z</time>
      </trkpt>
      <trkpt lat="49.24813" lon="1.3025">
        <ele>80.13253</ele>
        <time>2015-08-13T11:09:12Z</time>
      </trkpt>
      <trkpt lat="49.2481" lon="1.30268">
        <ele>80.233406</ele>
        <time>2015-08-13T11:09:22Z</time>
      </trkpt>
      <trkpt lat="49.24807" lon="1.30274">
        <ele>80.233406</ele>
        <time>2015-08-13T11:09:27Z</time>
      </trkpt>
      <trkpt lat="49.24803" lon="1.30294">
        <ele>80.184746</ele>
        <time>2015-08-13T11:09:37Z</time>
      </trkpt>
      <trkpt lat="49.24801" lon="1.30304">
        <ele>80.184746</ele>
        <time>2015-08-13T11:09:42Z</time>
      </trkpt>
      <trkpt lat="49.24798" lon="1.30322">
        <ele>80.05681</ele>
        <time>2015-08-13T11:09:52Z</time>
      </trkpt>
      <trkpt lat="49.24796" lon="1.30332">
        <ele>80.05681</ele>
        <time>2015-08-13T11:09:57Z</time>
      </trkpt>
      <trkpt lat="49.24795" lon="1.3035">
        <ele>79.88609</ele>
        <time>2015-08-13T11:10:07Z</time>
      </trkpt>
      <trkpt lat="49.24795" lon="1.30358">
        <ele>79.88609</ele>
        <time>2015-08-13T11:10:12Z</time>
      </trkpt>
      <trkpt lat="49.24798" lon="1.30373">
        <ele>79.5336</ele>
        <time>2015-08-13T11:10:22Z</time>
      </trkpt>
      <trkpt lat="49.24799" lon="1.30384">
        <ele>79.5336</ele>
        <time>2015-08-13T11:10:27Z</time>
      </trkpt>
      <trkpt lat="49.248" lon="1.30402">
        <ele>79.058395</ele>
        <time>2015-08-13T11:10:37Z</time>
      </trkpt>
      <trkpt lat="49.24801" lon="1.30411">
        <ele>79.058395</ele>
        <time>2015-08-13T11:10:42Z</time>
      </trkpt>
      <trkpt lat="49.24805" lon="1.30436">
        <ele>78.40024</ele>
        <time>2015-08-13T11:10:57Z</time>
      </trkpt>
      <trkpt lat="49.24807" lon="1.30444">
        <ele>78.40024</ele>
        <time>2015-08-13T11:11:02Z</time>
      </trkpt>
      <trkpt lat="49.24807" lon="1.30461">
        <ele>77.69117</ele>
        <time>2015-08-13T11:11:12Z</time>
      </trkpt>
      <trkpt lat="49.24809" lon="1.3047">
        <ele>77.69117</ele>
        <time>2015-08-13T11:11:17Z</time>
      </trkpt>
      <trkpt lat="49.24811" lon="1.3049">
        <ele>76.95275</ele>
        <time>2015-08-13T11:11:27Z</time>
      </trkpt>
      <trkpt lat="49.24812" lon="1.30499">
        <ele>76.95275</ele>
        <time>2015-08-13T11:11:32Z</time>
      </trkpt>
      <trkpt lat="49.24812" lon="1.30522">
        <ele>76.23382</ele>
        <time>2015-08-13T11:11:42Z</time>
      </trkpt>
      <trkpt lat="49.24814" lon="1.30532">
        <ele>76.23382</ele>
        <time>2015-08-13T11:11:47Z</time>
      </trkpt>
      <trkpt lat="49.24816" lon="1.3055">
        <ele>75.723656</ele>
        <time>2015-08-13T11:11:57Z</time>
      </trkpt>
      <trkpt lat="49.24816" lon="1.30559">
        <ele>75.723656</ele>
        <time>2015-08-13T11:12:02Z</time>
      </trkpt>
      <trkpt lat="49.24818" lon="1.30577">
        <ele>75.26554</ele>
        <time>2015-08-13T11:12:12Z</time>
      </trkpt>
      <trkpt lat="49.24819" lon="1.30586">
        <ele>75.26554</ele>
        <time>2015-08-13T11:12:17Z</time>
      </trkpt>
      <trkpt lat="49.24821" lon="1.30604">
        <ele>74.742874</ele>
        <time>2015-08-13T11:12:27Z</time>
      </trkpt>
      <trkpt lat="49.24823" lon="1.30613">
        <ele>74.742874</ele>
        <time>2015-08-13T11:12:32Z</time>
      </trkpt>
      <trkpt lat="49.24824" lon="1.30631">
        <ele>74.11983</ele>
        <time>2015-08-13T11:12:42Z</time>
      </trkpt>
      <trkpt lat="49.24825" lon="1.3064">
        <ele>74.11983</ele>
        <time>2015-08-13T11:12:47Z</time>
      </trkpt>
      <trkpt lat="49.24827" lon="1.30658">
        <ele>73.44985</ele>
        <time>2015-08-13T11:12:57Z</time>
      </trkpt>
      <trkpt lat="49.24828" lon="1.30668">
        <ele>73.44985</ele>
        <time>2015-08-13T11:13:02Z</time>
      </trkpt>
      <trkpt lat="49.24827" lon="1.30686">
        <ele>72.68169</ele>
        <time>2015-08-13T11:13:17Z</time>
      </trkpt>
      <trkpt lat="49.24825" lon="1.30687">
        <ele>72.68169</ele>
        <time>2015-08-13T11:13:22Z</time>
      </trkpt>
      <trkpt lat="49.24825" lon="1.30701">
        <ele>71.825676</ele>
        <time>2015-08-13T11:13:32Z</time>
      </trkpt>
      <trkpt lat="49.24824" lon="1.3071">
        <ele>71.825676</ele>
        <time>2015-08-13T11:13:37Z</time>
      </trkpt>
      <trkpt lat="49.24824" lon="1.30728">
        <ele>70.99246</ele>
        <time>2015-08-13T11:13:47Z</time>
      </trkpt>
      <trkpt lat="49.24826" lon="1.30737">
        <ele>70.99246</ele>
        <time>2015-08-13T11:13:52Z</time>
      </trkpt>
      <trkpt lat="49.24829" lon="1.30745">
        <ele>70.26999</ele>
        <time>2015-08-13T11:14:02Z</time>
      </trkpt>
      <trkpt lat="49.2483" lon="1.30743">
        <ele>70.26999</ele>
        <time>2015-08-13T11:14:07Z</time>
      </trkpt>
      <trkpt lat="49.24828" lon="1.30746">
        <ele>70.26999</ele>
        <time>2015-08-13T11:14:17Z</time>
      </trkpt>
      <trkpt lat="49.24829" lon="1.30747">
        <ele>70.26999</ele>
        <time>2015-08-13T11:14:22Z</time>
      </trkpt>
      <trkpt lat="49.2483" lon="1.3074">
        <ele>69.422325</ele>
        <time>2015-08-13T11:14:37Z</time>
      </trkpt>
      <trkpt lat="49.24831" lon="1.3074">
        <ele>69.422325</ele>
        <time>2015-08-13T11:14:42Z</time>
      </trkpt>
      <trkpt lat="49.24831" lon="1.30738">
        <ele>69.422325</ele>
        <time>2015-08-13T11:14:52Z</time>
      </trkpt>
      <trkpt lat="49.24831" lon="1.30739">
        <ele>69.422325</ele>
        <time>2015-08-13T11:14:57Z</time>
      </trkpt>
      <trkpt lat="49.24831" lon="1.30741">
        <ele>69.422325</ele>
        <time>2015-08-13T11:15:07Z</time>
      </trkpt>
      <trkpt lat="49.24834" lon="1.30745">
        <ele>69.422325</ele>
        <time>2015-08-13T11:15:12Z</time>
      </trkpt>
      <trkpt lat="49.24831" lon="1.30765">
        <ele>68.77874</ele>
        <time>2015-08-13T11:15:22Z</time>
      </trkpt>
      <trkpt lat="49.24831" lon="1.30772">
        <ele>68.77874</ele>
        <time>2015-08-13T11:15:27Z</time>
      </trkpt>
      <trkpt lat="49.2483" lon="1.30787">
        <ele>68.225746</ele>
        <time>2015-08-13T11:15:37Z</time>
      </trkpt>
      <trkpt lat="49.2483" lon="1.30794">
        <ele>68.225746</ele>
        <time>2015-08-13T11:15:42Z</time>
      </trkpt>
      <trkpt lat="49.2483" lon="1.30811">
        <ele>67.58579</ele>
        <time>2015-08-13T11:15:52Z</time>
      </trkpt>
      <trkpt lat="49.24831" lon="1.30819">
        <ele>67.58579</ele>
        <time>2015-08-13T11:15:57Z</time>
      </trkpt>
      <trkpt lat="49.24831" lon="1.30834">
        <ele>66.88187</ele>
        <time>2015-08-13T11:16:07Z</time>
      </trkpt>
      <trkpt lat="49.2483" lon="1.30837">
        <ele>66.88187</ele>
        <time>2015-08-13T11:16:12Z</time>
      </trkpt>
      <trkpt lat="49.24833" lon="1.30836">
        <ele>66.88187</ele>
        <time>2015-08-13T11:16:22Z</time>
      </trkpt>
      <trkpt lat="49.24834" lon="1.30836">
        <ele>66.88187</ele>
        <time>2015-08-13T11:16:27Z</time>
      </trkpt>
      <trkpt lat="49.24833" lon="1.30835">
        <ele>66.88187</ele>
        <time>2015-08-13T11:16:37Z</time>
      </trkpt>
      <trkpt lat="49.2483" lon="1.30835">
        <ele>66.27949</ele>
        <time>2015-08-13T11:16:42Z</time>
      </trkpt>
      <trkpt lat="49.24828" lon="1.30837">
        <ele>66.27949</ele>
        <time>2015-08-13T11:16:57Z</time>
      </trkpt>
      <trkpt lat="49.24827" lon="1.30839">
        <ele>66.27949</ele>
        <time>2015-08-13T11:17:02Z</time>
      </trkpt>
      <trkpt lat="49.24828" lon="1.30849">
        <ele>65.60016</ele>
        <time>2015-08-13T11:17:12Z</time>
      </trkpt>
      <trkpt lat="49.24829" lon="1.30857">
        <ele>65.60016</ele>
        <time>2015-08-13T11:17:17Z</time>
      </trkpt>
      <trkpt lat="49.24829" lon="1.30872">
        <ele>65.01012</ele>
        <time>2015-08-13T11:17:27Z</time>
      </trkpt>
      <trkpt lat="49.2483" lon="1.3088">
        <ele>65.01012</ele>
        <time>2015-08-13T11:17:32Z</time>
      </trkpt>
      <trkpt lat="49.24829" lon="1.30896">
        <ele>64.36039</ele>
        <time>2015-08-13T11:17:42Z</time>
      </trkpt>
      <trkpt lat="49.24829" lon="1.30906">
        <ele>64.36039</ele>
        <time>2015-08-13T11:17:47Z</time>
      </trkpt>
      <trkpt lat="49.24828" lon="1.30924">
        <ele>63.642735</ele>
        <time>2015-08-13T11:17:57Z</time>
      </trkpt>
      <trkpt lat="49.24827" lon="1.30931">
        <ele>63.642735</ele>
        <time>2015-08-13T11:18:02Z</time>
      </trkpt>
      <trkpt lat="49.24826" lon="1.30946">
        <ele>62.77758</ele>
        <time>2015-08-13T11:18:12Z</time>
      </trkpt>
      <trkpt lat="49.24827" lon="1.30957">
        <ele>62.77758</ele>
        <time>2015-08-13T11:18:17Z</time>
      </trkpt>
      <trkpt lat="49.24827" lon="1.30975">
        <ele>61.8068</ele>
        <time>2015-08-13T11:18:27Z</time>
      </trkpt>
      <trkpt lat="49.24827" lon="1.30984">
        <ele>61.8068</ele>
        <time>2015-08-13T11:18:32Z</time>
      </trkpt>
      <trkpt lat="49.24828" lon="1.31004">
        <ele>60.812656</ele>
        <time>2015-08-13T11:18:42Z</time>
      </trkpt>
      <trkpt lat="49.24827" lon="1.31012">
        <ele>60.812656</ele>
        <time>2015-08-13T11:18:47Z</time>
      </trkpt>
      <trkpt lat="49.24827" lon="1.31031">
        <ele>59.8281</ele>
        <time>2015-08-13T11:18:57Z</time>
      </trkpt>
      <trkpt lat="49.24826" lon="1.3104">
        <ele>59.8281</ele>
        <time>2015-08-13T11:19:02Z</time>
      </trkpt>
      <trkpt lat="49.24825" lon="1.31056">
        <ele>58.840317</ele>
        <time>2015-08-13T11:19:12Z</time>
      </trkpt>
      <trkpt lat="49.24824" lon="1.31067">
        <ele>58.840317</ele>
        <time>2015-08-13T11:19:17Z</time>
      </trkpt>
      <trkpt lat="49.24824" lon="1.31088">
        <ele>57.736496</ele>
        <time>2015-08-13T11:19:27Z</time>
      </trkpt>
      <trkpt lat="49.24823" lon="1.31094">
        <ele>57.736496</ele>
        <time>2015-08-13T11:19:32Z</time>
      </trkpt>
      <trkpt lat="49.24823" lon="1.31111">
        <ele>56.6285</ele>
        <time>2015-08-13T11:19:42Z</time>
      </trkpt>
      <trkpt lat="49.24823" lon="1.3112">
        <ele>56.6285</ele>
        <time>2015-08-13T11:19:47Z</time>
      </trkpt>
      <trkpt lat="49.24821" lon="1.31144">
        <ele>55.461388</ele>
        <time>2015-08-13T11:20:02Z</time>
      </trkpt>
      <trkpt lat="49.24821" lon="1.31151">
        <ele>55.461388</ele>
        <time>2015-08-13T11:20:07Z</time>
      </trkpt>
      <trkpt lat="49.24823" lon="1.31171">
        <ele>54.371674</ele>
        <time>2015-08-13T11:20:17Z</time>
      </trkpt>
      <trkpt lat="49.24823" lon="1.3118">
        <ele>54.371674</ele>
        <time>2015-08-13T11:20:22Z</time>
      </trkpt>
      <trkpt lat="49.24823" lon="1.31198">
        <ele>53.47113</ele>
        <time>2015-08-13T11:20:32Z</time>
      </trkpt>
      <trkpt lat="49.24822" lon="1.31205">
        <ele>53.47113</ele>
        <time>2015-08-13T11:20:37Z</time>
      </trkpt>
      <trkpt lat="49.24821" lon="1.31223">
        <ele>52.689762</ele>
        <time>2015-08-13T11:20:47Z</time>
      </trkpt>
      <trkpt lat="49.24821" lon="1.31236">
        <ele>52.689762</ele>
        <time>2015-08-13T11:20:52Z</time>
      </trkpt>
      <trkpt lat="49.24823" lon="1.31253">
        <ele>51.991123</ele>
        <time>2015-08-13T11:21:02Z</time>
      </trkpt>
      <trkpt lat="49.24822" lon="1.31262">
        <ele>51.991123</ele>
        <time>2015-08-13T11:21:07Z</time>
      </trkpt>
      <trkpt lat="49.24821" lon="1.3128">
        <ele>51.297897</ele>
        <time>2015-08-13T11:21:17Z</time>
      </trkpt>
      <trkpt lat="49.2482" lon="1.31293">
        <ele>51.297897</ele>
        <time>2015-08-13T11:21:22Z</time>
      </trkpt>
      <trkpt lat="49.24819" lon="1.3131">
        <ele>50.75452</ele>
        <time>2015-08-13T11:21:32Z</time>
      </trkpt>
      <trkpt lat="49.24819" lon="1.31322">
        <ele>50.75452</ele>
        <time>2015-08-13T11:21:37Z</time>
      </trkpt>
      <trkpt lat="49.24818" lon="1.31343">
        <ele>50.321392</ele>
        <time>2015-08-13T11:21:47Z</time>
      </trkpt>
      <trkpt lat="49.24816" lon="1.31355">
        <ele>50.321392</ele>
        <time>2015-08-13T11:21:52Z</time>
      </trkpt>
      <trkpt lat="49.24815" lon="1.31375">
        <ele>49.94702</ele>
        <time>2015-08-13T11:22:02Z</time>
      </trkpt>
      <trkpt lat="49.24817" lon="1.31383">
        <ele>49.94702</ele>
        <time>2015-08-13T11:22:07Z</time>
      </trkpt>
      <trkpt lat="49.24816" lon="1.3141">
        <ele>49.64113</ele>
        <time>2015-08-13T11:22:22Z</time>
      </trkpt>
      <trkpt lat="49.24816" lon="1.31422">
        <ele>49.64113</ele>
        <time>2015-08-13T11:22:27Z</time>
      </trkpt>
      <trkpt lat="49.24814" lon="1.31443">
        <ele>49.426872</ele>
        <time>2015-08-13T11:22:37Z</time>
      </trkpt>
      <trkpt lat="49.24814" lon="1.31452">
        <ele>49.426872</ele>
        <time>2015-08-13T11:22:42Z</time>
      </trkpt>
      <trkpt lat="49.24814" lon="1.31471">
        <ele>49.368637</ele>
        <time>2015-08-13T11:22:52Z</time>
      </trkpt>
      <trkpt lat="49.24812" lon="1.31483">
        <ele>49.368637</ele>
        <time>2015-08-13T11:22:57Z</time>
      </trkpt>
      <trkpt lat="49.24812" lon="1.315">
        <ele>49.367077</ele>
        <time>2015-08-13T11:23:07Z</time>
      </trkpt>
      <trkpt lat="49.24812" lon="1.31509">
        <ele>49.367077</ele>
        <time>2015-08-13T11:23:12Z</time>
      </trkpt>
      <trkpt lat="49.24811" lon="1.31531">
        <ele>49.35876</ele>
        <time>2015-08-13T11:23:22Z</time>
      </trkpt>
      <trkpt lat="49.2481" lon="1.31542">
        <ele>49.35876</ele>
        <time>2015-08-13T11:23:27Z</time>
      </trkpt>
      <trkpt lat="49.2481" lon="1.31561">
        <ele>49.37138</ele>
        <time>2015-08-13T11:23:37Z</time>
      </trkpt>
      <trkpt lat="49.2481" lon="1.31567">
        <ele>49.37138</ele>
        <time>2015-08-13T11:23:42Z</time>
      </trkpt>
      <trkpt lat="49.24809" lon="1.31592">
        <ele>49.64668</ele>
        <time>2015-08-13T11:23:52Z</time>
      </trkpt>
      <trkpt lat="49.2481" lon="1.31598">
        <ele>49.64668</ele>
        <time>2015-08-13T11:23:57Z</time>
      </trkpt>
      <trkpt lat="49.24809" lon="1.31629">
        <ele>50.206135</ele>
        <time>2015-08-13T11:24:12Z</time>
      </trkpt>
      <trkpt lat="49.2481" lon="1.31634">
        <ele>50.206135</ele>
        <time>2015-08-13T11:24:17Z</time>
      </trkpt>
      <trkpt lat="49.24809" lon="1.31654">
        <ele>50.780617</ele>
        <time>2015-08-13T11:24:27Z</time>
      </trkpt>
      <trkpt lat="49.24809" lon="1.31663">
        <ele>50.780617</ele>
        <time>2015-08-13T11:24:32Z</time>
      </trkpt>
      <trkpt lat="49.2481" lon="1.31679">
        <ele>51.380135</ele>
        <time>2015-08-13T11:24:42Z</time>
      </trkpt>
      <trkpt lat="49.2481" lon="1.31688">
        <ele>51.380135</ele>
        <time>2015-08-13T11:24:47Z</time>
      </trkpt>
      <trkpt lat="49.2481" lon="1.31697">
        <ele>52.057133</ele>
        <time>2015-08-13T11:24:57Z</time>
      </trkpt>
      <trkpt lat="49.24809" lon="1.31693">
        <ele>52.057133</ele>
        <time>2015-08-13T11:25:02Z</time>
      </trkpt>
      <trkpt lat="49.24808" lon="1.31703">
        <ele>52.057133</ele>
        <time>2015-08-13T11:25:12Z</time>
      </trkpt>
      <trkpt lat="49.24807" lon="1.31712">
        <ele>52.629433</ele>
        <time>2015-08-13T11:25:17Z</time>
      </trkpt>
      <trkpt lat="49.24807" lon="1.31716">
        <ele>52.629433</ele>
        <time>2015-08-13T11:25:27Z</time>
      </trkpt>
      <trkpt lat="49.24808" lon="1.31714">
        <ele>52.629433</ele>
        <time>2015-08-13T11:25:32Z</time>
      </trkpt>
      <trkpt lat="49.24808" lon="1.31709">
        <ele>52.629433</ele>
        <time>2015-08-13T11:25:42Z</time>
      </trkpt>
      <trkpt lat="49.24809" lon="1.31701">
        <ele>53.04385</ele>
        <time>2015-08-13T11:25:47Z</time>
      </trkpt>
      <trkpt lat="49.24808" lon="1.31664">
        <ele>53.265995</ele>
        <time>2015-08-13T11:26:07Z</time>
      </trkpt>
      <trkpt lat="49.24809" lon="1.31658">
        <ele>53.265995</ele>
        <time>2015-08-13T11:26:12Z</time>
      </trkpt>
      <trkpt lat="49.24811" lon="1.31646">
        <ele>53.480762</ele>
        <time>2015-08-13T11:26:22Z</time>
      </trkpt>
      <trkpt lat="49.2481" lon="1.31636">
        <ele>53.480762</ele>
        <time>2015-08-13T11:26:27Z</time>
      </trkpt>
      <trkpt lat="49.2481" lon="1.31618">
        <ele>53.585716</ele>
        <time>2015-08-13T11:26:37Z</time>
      </trkpt>
      <trkpt lat="49.2481" lon="1.31608">
        <ele>53.585716</ele>
        <time>2015-08-13T11:26:42Z</time>
      </trkpt>
      <trkpt lat="49.24811" lon="1.31588">
        <ele>53.63041</ele>
        <time>2015-08-13T11:26:52Z</time>
      </trkpt>
      <trkpt lat="49.24811" lon="1.31579">
        <ele>53.63041</ele>
        <time>2015-08-13T11:26:57Z</time>
      </trkpt>
      <trkpt lat="49.24811" lon="1.31557">
        <ele>53.61775</ele>
        <time>2015-08-13T11:27:07Z</time>
      </trkpt>
      <trkpt lat="49.24812" lon="1.31548">
        <ele>53.61775</ele>
        <time>2015-08-13T11:27:12Z</time>
      </trkpt>
      <trkpt lat="49.24813" lon="1.31529">
        <ele>53.579453</ele>
        <time>2015-08-13T11:27:22Z</time>
      </trkpt>
      <trkpt lat="49.24812" lon="1.31519">
        <ele>53.579453</ele>
        <time>2015-08-13T11:27:27Z</time>
      </trkpt>
      <trkpt lat="49.24812" lon="1.31501">
        <ele>53.573868</ele>
        <time>2015-08-13T11:27:37Z</time>
      </trkpt>
      <trkpt lat="49.24814" lon="1.31492">
        <ele>53.573868</ele>
        <time>2015-08-13T11:27:42Z</time>
      </trkpt>
      <trkpt lat="49.24813" lon="1.31474">
        <ele>53.53972</ele>
        <time>2015-08-13T11:27:52Z</time>
      </trkpt>
      <trkpt lat="49.24815" lon="1.31464">
        <ele>53.53972</ele>
        <time>2015-08-13T11:27:57Z</time>
      </trkpt>
      <trkpt lat="49.24816" lon="1.31446">
        <ele>53.506832</ele>
        <time>2015-08-13T11:28:07Z</time>
      </trkpt>
      <trkpt lat="49.24816" lon="1.31436">
        <ele>53.506832</ele>
        <time>2015-08-13T11:28:12Z</time>
      </trkpt>
      <trkpt lat="49.24816" lon="1.31419">
        <ele>53.430832</ele>
        <time>2015-08-13T11:28:22Z</time>
      </trkpt>
      <trkpt lat="49.24816" lon="1.3141">
        <ele>53.430832</ele>
        <time>2015-08-13T11:28:27Z</time>
      </trkpt>
      <trkpt lat="49.24816" lon="1.31391">
        <ele>53.357243</ele>
        <time>2015-08-13T11:28:37Z</time>
      </trkpt>
      <trkpt lat="49.24817" lon="1.31382">
        <ele>53.357243</ele>
        <time>2015-08-13T11:28:42Z</time>
      </trkpt>
      <trkpt lat="49.24816" lon="1.31353">
        <ele>53.285053</ele>
        <time>2015-08-13T11:28:57Z</time>
      </trkpt>
      <trkpt lat="49.24816" lon="1.31343">
        <ele>53.285053</ele>
        <time>2015-08-13T11:29:02Z</time>
      </trkpt>
      <trkpt lat="49.24817" lon="1.31323">
        <ele>53.184547</ele>
        <time>2015-08-13T11:29:12Z</time>
      </trkpt>
      <trkpt lat="49.24817" lon="1.31315">
        <ele>53.184547</ele>
        <time>2015-08-13T11:29:17Z</time>
      </trkpt>
      <trkpt lat="49.24818" lon="1.31296">
        <ele>53.114788</ele>
        <time>2015-08-13T11:29:27Z</time>
      </trkpt>
      <trkpt lat="49.24818" lon="1.31286">
        <ele>53.114788</ele>
        <time>2015-08-13T11:29:32Z</time>
      </trkpt>
      <trkpt lat="49.24819" lon="1.31268">
        <ele>53.087215</ele>
        <time>2015-08-13T11:29:42Z</time>
      </trkpt>
      <trkpt lat="49.24819" lon="1.31259">
        <ele>53.087215</ele>
        <time>2015-08-13T11:29:47Z</time>
      </trkpt>
      <trkpt lat="49.24819" lon="1.3124">
        <ele>52.99708</ele>
        <time>2015-08-13T11:29:57Z</time>
      </trkpt>
      <trkpt lat="49.24819" lon="1.31231">
        <ele>52.99708</ele>
        <time>2015-08-13T11:30:02Z</time>
      </trkpt>
      <trkpt lat="49.24819" lon="1.31212">
        <ele>52.906055</ele>
        <time>2015-08-13T11:30:12Z</time>
      </trkpt>
      <trkpt lat="49.24819" lon="1.31203">
        <ele>52.906055</ele>
        <time>2015-08-13T11:30:17Z</time>
      </trkpt>
      <trkpt lat="49.24819" lon="1.31174">
        <ele>52.78487</ele>
        <time>2015-08-13T11:30:32Z</time>
      </trkpt>
      <trkpt lat="49.2482" lon="1.31164">
        <ele>52.78487</ele>
        <time>2015-08-13T11:30:37Z</time>
      </trkpt>
      <trkpt lat="49.24821" lon="1.31145">
        <ele>52.60652</ele>
        <time>2015-08-13T11:30:47Z</time>
      </trkpt>
      <trkpt lat="49.24821" lon="1.31137">
        <ele>52.60652</ele>
        <time>2015-08-13T11:30:52Z</time>
      </trkpt>
      <trkpt lat="49.24823" lon="1.31116">
        <ele>52.447063</ele>
        <time>2015-08-13T11:31:02Z</time>
      </trkpt>
      <trkpt lat="49.24823" lon="1.31107">
        <ele>52.447063</ele>
        <time>2015-08-13T11:31:07Z</time>
      </trkpt>
      <trkpt lat="49.24823" lon="1.3109">
        <ele>52.348137</ele>
        <time>2015-08-13T11:31:17Z</time>
      </trkpt>
      <trkpt lat="49.24822" lon="1.31078">
        <ele>52.348137</ele>
        <time>2015-08-13T11:31:22Z</time>
      </trkpt>
      <trkpt lat="49.24824" lon="1.3106">
        <ele>52.304935</ele>
        <time>2015-08-13T11:31:32Z</time>
      </trkpt>
      <trkpt lat="49.24824" lon="1.3105">
        <ele>52.304935</ele>
        <time>2015-08-13T11:31:37Z</time>
      </trkpt>
      <trkpt lat="49.24824" lon="1.31031">
        <ele>52.28408</ele>
        <time>2015-08-13T11:31:47Z</time>
      </trkpt>
      <trkpt lat="49.24824" lon="1.31023">
        <ele>52.28408</ele>
        <time>2015-08-13T11:31:52Z</time>
      </trkpt>
      <trkpt lat="49.24825" lon="1.31003">
        <ele>52.32665</ele>
        <time>2015-08-13T11:32:02Z</time>
      </trkpt>
      <trkpt lat="49.24824" lon="1.30994">
        <ele>52.32665</ele>
        <time>2015-08-13T11:32:07Z</time>
      </trkpt>
      <trkpt lat="49.24825" lon="1.30975">
        <ele>52.3841</ele>
        <time>2015-08-13T11:32:17Z</time>
      </trkpt>
      <trkpt lat="49.24826" lon="1.30967">
        <ele>52.3841</ele>
        <time>2015-08-13T11:32:22Z</time>
      </trkpt>
      <trkpt lat="49.24828" lon="1.30946">
        <ele>52.483505</ele>
        <time>2015-08-13T11:32:32Z</time>
      </trkpt>
      <trkpt lat="49.24828" lon="1.30938">
        <ele>52.483505</ele>
        <time>2015-08-13T11:32:37Z</time>
      </trkpt>
      <trkpt lat="49.24828" lon="1.30912">
        <ele>52.721897</ele>
        <time>2015-08-13T11:32:52Z</time>
      </trkpt>
      <trkpt lat="49.24828" lon="1.30902">
        <ele>52.721897</ele>
        <time>2015-08-13T11:32:57Z</time>
      </trkpt>
      <trkpt lat="49.24827" lon="1.30886">
        <ele>53.05914</ele>
        <time>2015-08-13T11:33:07Z</time>
      </trkpt>
      <trkpt lat="49.24827" lon="1.30877">
        <ele>53.05914</ele>
        <time>2015-08-13T11:33:12Z</time>
      </trkpt>
      <trkpt lat="49.24827" lon="1.3086">
        <ele>53.48661</ele>
        <time>2015-08-13T11:33:22Z</time>
      </trkpt>
      <trkpt lat="49.24828" lon="1.30852">
        <ele>53.48661</ele>
        <time>2015-08-13T11:33:27Z</time>
      </trkpt>
      <trkpt lat="49.24828" lon="1.30833">
        <ele>53.92405</ele>
        <time>2015-08-13T11:33:37Z</time>
      </trkpt>
      <trkpt lat="49.24828" lon="1.30823">
        <ele>53.92405</ele>
        <time>2015-08-13T11:33:42Z</time>
      </trkpt>
      <trkpt lat="49.24827" lon="1.30809">
        <ele>54.484444</ele>
        <time>2015-08-13T11:33:52Z</time>
      </trkpt>
      <trkpt lat="49.24827" lon="1.308">
        <ele>54.484444</ele>
        <time>2015-08-13T11:33:57Z</time>
      </trkpt>
      <trkpt lat="49.24827" lon="1.30783">
        <ele>55.07041</ele>
        <time>2015-08-13T11:34:07Z</time>
      </trkpt>
      <trkpt lat="49.24827" lon="1.30774">
        <ele>55.07041</ele>
        <time>2015-08-13T11:34:12Z</time>
      </trkpt>
      <trkpt lat="49.24827" lon="1.30746">
        <ele>55.793457</ele>
        <time>2015-08-13T11:34:27Z</time>
      </trkpt>
      <trkpt lat="49.24827" lon="1.30738">
        <ele>55.793457</ele>
        <time>2015-08-13T11:34:32Z</time>
      </trkpt>
      <trkpt lat="49.24828" lon="1.30722">
        <ele>56.598026</ele>
        <time>2015-08-13T11:34:42Z</time>
      </trkpt>
      <trkpt lat="49.24829" lon="1.30714">
        <ele>56.598026</ele>
        <time>2015-08-13T11:34:47Z</time>
      </trkpt>
      <trkpt lat="49.24826" lon="1.30698">
        <ele>57.475697</ele>
        <time>2015-08-13T11:34:57Z</time>
      </trkpt>
      <trkpt lat="49.24823" lon="1.30695">
        <ele>57.475697</ele>
        <time>2015-08-13T11:35:02Z</time>
      </trkpt>
      <trkpt lat="49.24812" lon="1.30701">
        <ele>58.389683</ele>
        <time>2015-08-13T11:35:12Z</time>
      </trkpt>
      <trkpt lat="49.2481" lon="1.30703">
        <ele>58.389683</ele>
        <time>2015-08-13T11:35:17Z</time>
      </trkpt>
      <trkpt lat="49.248" lon="1.30707">
        <ele>59.277042</ele>
        <time>2015-08-13T11:35:27Z</time>
      </trkpt>
      <trkpt lat="49.24798" lon="1.30707">
        <ele>59.277042</ele>
        <time>2015-08-13T11:35:32Z</time>
      </trkpt>
      <trkpt lat="49.24794" lon="1.3071">
        <ele>59.277042</ele>
        <time>2015-08-13T11:35:37Z</time>
      </trkpt>
      <trkpt lat="49.24789" lon="1.30714">
        <ele>59.921055</ele>
        <time>2015-08-13T11:35:42Z</time>
      </trkpt>
      <trkpt lat="49.24783" lon="1.30716">
        <ele>59.921055</ele>
        <time>2015-08-13T11:35:47Z</time>
      </trkpt>
      <trkpt lat="49.24778" lon="1.30716">
        <ele>60.40989</ele>
        <time>2015-08-13T11:35:52Z</time>
      </trkpt>
      <trkpt lat="49.24772" lon="1.30718">
        <ele>60.40989</ele>
        <time>2015-08-13T11:35:57Z</time>
      </trkpt>
      <trkpt lat="49.24767" lon="1.3072">
        <ele>60.739265</ele>
        <time>2015-08-13T11:36:02Z</time>
      </trkpt>
      <trkpt lat="49.24763" lon="1.3072">
        <ele>60.739265</ele>
        <time>2015-08-13T11:36:07Z</time>
      </trkpt>
      <trkpt lat="49.24758" lon="1.30723">
        <ele>60.93455</ele>
        <time>2015-08-13T11:36:12Z</time>
      </trkpt>
      <trkpt lat="49.24753" lon="1.30727">
        <ele>60.93455</ele>
        <time>2015-08-13T11:36:17Z</time>
      </trkpt>
      <trkpt lat="49.24749" lon="1.30729">
        <ele>60.990856</ele>
        <time>2015-08-13T11:36:22Z</time>
      </trkpt>
      <trkpt lat="49.24744" lon="1.30734">
        <ele>60.990856</ele>
        <time>2015-08-13T11:36:27Z</time>
      </trkpt>
      <trkpt lat="49.24737" lon="1.30738">
        <ele>61.019386</ele>
        <time>2015-08-13T11:36:32Z</time>
      </trkpt>
      <trkpt lat="49.24723" lon="1.30743">
        <ele>61.10889</ele>
        <time>2015-08-13T11:36:42Z</time>
      </trkpt>
      <trkpt lat="49.24717" lon="1.30745">
        <ele>61.10889</ele>
        <time>2015-08-13T11:36:47Z</time>
      </trkpt>
      <trkpt lat="49.24704" lon="1.30745">
        <ele>61.211777</ele>
        <time>2015-08-13T11:36:57Z</time>
      </trkpt>
      <trkpt lat="49.24699" lon="1.30746">
        <ele>61.211777</ele>
        <time>2015-08-13T11:37:02Z</time>
      </trkpt>
      <trkpt lat="49.24692" lon="1.30746">
        <ele>61.32719</ele>
        <time>2015-08-13T11:37:12Z</time>
      </trkpt>
      <trkpt lat="49.24692" lon="1.30746">
        <ele>61.32719</ele>
        <time>2015-08-13T11:37:17Z</time>
      </trkpt>
      <trkpt lat="49.24692" lon="1.30745">
        <ele>61.32719</ele>
        <time>2015-08-13T11:37:27Z</time>
      </trkpt>
      <trkpt lat="49.24694" lon="1.30742">
        <ele>61.32719</ele>
        <time>2015-08-13T11:37:32Z</time>
      </trkpt>
      <trkpt lat="49.24692" lon="1.30749">
        <ele>61.32719</ele>
        <time>2015-08-13T11:37:42Z</time>
      </trkpt>
      <trkpt lat="49.24692" lon="1.30752">
        <ele>61.324635</ele>
        <time>2015-08-13T11:37:47Z</time>
      </trkpt>
      <trkpt lat="49.24694" lon="1.30748">
        <ele>61.324635</ele>
        <time>2015-08-13T11:38:02Z</time>
      </trkpt>
      <trkpt lat="49.24693" lon="1.3075">
        <ele>61.324635</ele>
        <time>2015-08-13T11:38:07Z</time>
      </trkpt>
      <trkpt lat="49.24692" lon="1.3075">
        <ele>61.324635</ele>
        <time>2015-08-13T11:38:17Z</time>
      </trkpt>
      <trkpt lat="49.24693" lon="1.30754">
        <ele>61.29974</ele>
        <time>2015-08-13T11:38:22Z</time>
      </trkpt>
      <trkpt lat="49.24689" lon="1.30751">
        <ele>61.29974</ele>
        <time>2015-08-13T11:38:32Z</time>
      </trkpt>
      <trkpt lat="49.24684" lon="1.3075">
        <ele>61.269146</ele>
        <time>2015-08-13T11:38:37Z</time>
      </trkpt>
      <trkpt lat="49.24671" lon="1.30753">
        <ele>61.176254</ele>
        <time>2015-08-13T11:38:47Z</time>
      </trkpt>
      <trkpt lat="49.24664" lon="1.30754">
        <ele>61.176254</ele>
        <time>2015-08-13T11:38:52Z</time>
      </trkpt>
      <trkpt lat="49.24655" lon="1.30755">
        <ele>60.925594</ele>
        <time>2015-08-13T11:39:02Z</time>
      </trkpt>
      <trkpt lat="49.2465" lon="1.30756">
        <ele>60.925594</ele>
        <time>2015-08-13T11:39:07Z</time>
      </trkpt>
      <trkpt lat="49.24636" lon="1.3076">
        <ele>60.501217</ele>
        <time>2015-08-13T11:39:17Z</time>
      </trkpt>
      <trkpt lat="49.24629" lon="1.30761">
        <ele>60.501217</ele>
        <time>2015-08-13T11:39:22Z</time>
      </trkpt>
      <trkpt lat="49.24616" lon="1.30764">
        <ele>60.004143</ele>
        <time>2015-08-13T11:39:32Z</time>
      </trkpt>
      <trkpt lat="49.2461" lon="1.30768">
        <ele>60.004143</ele>
        <time>2015-08-13T11:39:37Z</time>
      </trkpt>
      <trkpt lat="49.24602" lon="1.30769">
        <ele>59.456112</ele>
        <time>2015-08-13T11:39:47Z</time>
      </trkpt>
      <trkpt lat="49.24595" lon="1.30768">
        <ele>59.456112</ele>
        <time>2015-08-13T11:39:52Z</time>
      </trkpt>
      <trkpt lat="49.24581" lon="1.30772">
        <ele>58.863018</ele>
        <time>2015-08-13T11:40:02Z</time>
      </trkpt>
      <trkpt lat="49.24576" lon="1.30773">
        <ele>58.863018</ele>
        <time>2015-08-13T11:40:07Z</time>
      </trkpt>
      <trkpt lat="49.24562" lon="1.30778">
        <ele>58.158367</ele>
        <time>2015-08-13T11:40:17Z</time>
      </trkpt>
      <trkpt lat="49.24557" lon="1.30779">
        <ele>58.158367</ele>
        <time>2015-08-13T11:40:22Z</time>
      </trkpt>
      <trkpt lat="49.24537" lon="1.30784">
        <ele>57.1944</ele>
        <time>2015-08-13T11:40:37Z</time>
      </trkpt>
      <trkpt lat="49.24531" lon="1.30783">
        <ele>57.1944</ele>
        <time>2015-08-13T11:40:42Z</time>
      </trkpt>
      <trkpt lat="49.24518" lon="1.30788">
        <ele>56.13754</ele>
        <time>2015-08-13T11:40:52Z</time>
      </trkpt>
      <trkpt lat="49.24511" lon="1.30791">
        <ele>56.13754</ele>
        <time>2015-08-13T11:40:57Z</time>
      </trkpt>
      <trkpt lat="49.24503" lon="1.30806">
        <ele>55.08458</ele>
        <time>2015-08-13T11:41:07Z</time>
      </trkpt>
      <trkpt lat="49.24502" lon="1.30814">
        <ele>55.08458</ele>
        <time>2015-08-13T11:41:12Z</time>
      </trkpt>
      <trkpt lat="49.245" lon="1.30831">
        <ele>54.024273</ele>
        <time>2015-08-13T11:41:22Z</time>
      </trkpt>
      <trkpt lat="49.24497" lon="1.30838">
        <ele>54.024273</ele>
        <time>2015-08-13T11:41:27Z</time>
      </trkpt>
      <trkpt lat="49.24492" lon="1.30854">
        <ele>52.98941</ele>
        <time>2015-08-13T11:41:37Z</time>
      </trkpt>
      <trkpt lat="49.24487" lon="1.3086">
        <ele>52.98941</ele>
        <time>2015-08-13T11:41:42Z</time>
      </trkpt>
      <trkpt lat="49.24474" lon="1.30872">
        <ele>52.010254</ele>
        <time>2015-08-13T11:41:52Z</time>
      </trkpt>
      <trkpt lat="49.2447" lon="1.30875">
        <ele>52.010254</ele>
        <time>2015-08-13T11:41:57Z</time>
      </trkpt>
      <trkpt lat="49.24458" lon="1.30887">
        <ele>51.11463</ele>
        <time>2015-08-13T11:42:07Z</time>
      </trkpt>
      <trkpt lat="49.24453" lon="1.30893">
        <ele>51.11463</ele>
        <time>2015-08-13T11:42:12Z</time>
      </trkpt>
      <trkpt lat="49.24439" lon="1.30909">
        <ele>50.22715</ele>
        <time>2015-08-13T11:42:27Z</time>
      </trkpt>
      <trkpt lat="49.24434" lon="1.30914">
        <ele>50.22715</ele>
        <time>2015-08-13T11:42:32Z</time>
      </trkpt>
      <trkpt lat="49.24426" lon="1.30925">
        <ele>49.522854</ele>
        <time>2015-08-13T11:42:42Z</time>
      </trkpt>
      <trkpt lat="49.24421" lon="1.3093">
        <ele>49.522854</ele>
        <time>2015-08-13T11:42:47Z</time>
      </trkpt>
      <trkpt lat="49.24409" lon="1.30941">
        <ele>48.918365</ele>
        <time>2015-08-13T11:42:57Z</time>
      </trkpt>
      <trkpt lat="49.24405" lon="1.30946">
        <ele>48.918365</ele>
        <time>2015-08-13T11:43:02Z</time>
      </trkpt>
      <trkpt lat="49.24395" lon="1.30959">
        <ele>48.436954</ele>
        <time>2015-08-13T11:43:12Z</time>
      </trkpt>
      <trkpt lat="49.2439" lon="1.30962">
        <ele>48.436954</ele>
        <time>2015-08-13T11:43:17Z</time>
      </trkpt>
      <trkpt lat="49.24379" lon="1.3097">
        <ele>48.114178</ele>
        <time>2015-08-13T11:43:27Z</time>
      </trkpt>
      <trkpt lat="49.24373" lon="1.30973">
        <ele>48.114178</ele>
        <time>2015-08-13T11:43:32Z</time>
      </trkpt>
      <trkpt lat="49.24362" lon="1.30977">
        <ele>47.93924</ele>
        <time>2015-08-13T11:43:42Z</time>
      </trkpt>
      <trkpt lat="49.24356" lon="1.30983">
        <ele>47.93924</ele>
        <time>2015-08-13T11:43:47Z</time>
      </trkpt>
      <trkpt lat="49.24346" lon="1.30988">
        <ele>47.973705</ele>
        <time>2015-08-13T11:43:57Z</time>
      </trkpt>
      <trkpt lat="49.24341" lon="1.3099">
        <ele>47.973705</ele>
        <time>2015-08-13T11:44:02Z</time>
      </trkpt>
      <trkpt lat="49.2433" lon="1.3099">
        <ele>48.057808</ele>
        <time>2015-08-13T11:44:12Z</time>
      </trkpt>
      <trkpt lat="49.24329" lon="1.3099">
        <ele>48.057808</ele>
        <time>2015-08-13T11:44:17Z</time>
      </trkpt>
      <trkpt lat="49.24331" lon="1.30993">
        <ele>48.057808</ele>
        <time>2015-08-13T11:44:27Z</time>
      </trkpt>
      <trkpt lat="49.24332" lon="1.30993">
        <ele>48.057808</ele>
        <time>2015-08-13T11:44:32Z</time>
      </trkpt>
      <trkpt lat="49.2433" lon="1.30989">
        <ele>48.057808</ele>
        <time>2015-08-13T11:44:47Z</time>
      </trkpt>
      <trkpt lat="49.24329" lon="1.30989">
        <ele>48.057808</ele>
        <time>2015-08-13T11:44:52Z</time>
      </trkpt>
      <trkpt lat="49.24329" lon="1.30989">
        <ele>48.057808</ele>
        <time>2015-08-13T11:45:02Z</time>
      </trkpt>
      <trkpt lat="49.24317" lon="1.30985">
        <ele>48.072144</ele>
        <time>2015-08-13T11:45:47Z</time>
      </trkpt>
      <trkpt lat="49.2431" lon="1.30981">
        <ele>48.072144</ele>
        <time>2015-08-13T11:45:52Z</time>
      </trkpt>
      <trkpt lat="49.24299" lon="1.3097">
        <ele>48.1368</ele>
        <time>2015-08-13T11:46:02Z</time>
      </trkpt>
      <trkpt lat="49.24294" lon="1.30968">
        <ele>48.1368</ele>
        <time>2015-08-13T11:46:07Z</time>
      </trkpt>
      <trkpt lat="49.24283" lon="1.30965">
        <ele>48.13227</ele>
        <time>2015-08-13T11:46:17Z</time>
      </trkpt>
      <trkpt lat="49.24278" lon="1.30961">
        <ele>48.13227</ele>
        <time>2015-08-13T11:46:22Z</time>
      </trkpt>
      <trkpt lat="49.2426" lon="1.30949">
        <ele>48.236217</ele>
        <time>2015-08-13T11:46:37Z</time>
      </trkpt>
      <trkpt lat="49.24255" lon="1.30944">
        <ele>48.236217</ele>
        <time>2015-08-13T11:46:42Z</time>
      </trkpt>
      <trkpt lat="49.24244" lon="1.30941">
        <ele>48.32468</ele>
        <time>2015-08-13T11:46:52Z</time>
      </trkpt>
      <trkpt lat="49.24237" lon="1.30941">
        <ele>48.32468</ele>
        <time>2015-08-13T11:46:57Z</time>
      </trkpt>
      <trkpt lat="49.24222" lon="1.30939">
        <ele>48.599857</ele>
        <time>2015-08-13T11:47:07Z</time>
      </trkpt>
      <trkpt lat="49.24218" lon="1.30938">
        <ele>48.599857</ele>
        <time>2015-08-13T11:47:12Z</time>
      </trkpt>
      <trkpt lat="49.24207" lon="1.30935">
        <ele>49.061203</ele>
        <time>2015-08-13T11:47:22Z</time>
      </trkpt>
      <trkpt lat="49.24201" lon="1.30934">
        <ele>49.061203</ele>
        <time>2015-08-13T11:47:27Z</time>
      </trkpt>
      <trkpt lat="49.24189" lon="1.3093">
        <ele>49.477093</ele>
        <time>2015-08-13T11:47:37Z</time>
      </trkpt>
      <trkpt lat="49.24184" lon="1.30926">
        <ele>49.477093</ele>
        <time>2015-08-13T11:47:42Z</time>
      </trkpt>
      <trkpt lat="49.24172" lon="1.30923">
        <ele>50.050953</ele>
        <time>2015-08-13T11:47:52Z</time>
      </trkpt>
      <trkpt lat="49.24167" lon="1.30922">
        <ele>50.050953</ele>
        <time>2015-08-13T11:47:57Z</time>
      </trkpt>
      <trkpt lat="49.24157" lon="1.30923">
        <ele>50.869934</ele>
        <time>2015-08-13T11:48:07Z</time>
      </trkpt>
      <trkpt lat="49.24149" lon="1.30922">
        <ele>50.869934</ele>
        <time>2015-08-13T11:48:12Z</time>
      </trkpt>
      <trkpt lat="49.24133" lon="1.3092">
        <ele>51.81234</ele>
        <time>2015-08-13T11:48:22Z</time>
      </trkpt>
      <trkpt lat="49.24128" lon="1.30921">
        <ele>51.81234</ele>
        <time>2015-08-13T11:48:27Z</time>
      </trkpt>
      <trkpt lat="49.24106" lon="1.30917">
        <ele>52.880367</ele>
        <time>2015-08-13T11:48:42Z</time>
      </trkpt>
      <trkpt lat="49.24101" lon="1.30918">
        <ele>52.880367</ele>
        <time>2015-08-13T11:48:47Z</time>
      </trkpt>
      <trkpt lat="49.2409" lon="1.3092">
        <ele>53.787495</ele>
        <time>2015-08-13T11:48:57Z</time>
      </trkpt>
      <trkpt lat="49.24085" lon="1.30924">
        <ele>53.787495</ele>
        <time>2015-08-13T11:49:02Z</time>
      </trkpt>
      <trkpt lat="49.24079" lon="1.30928">
        <ele>54.441658</ele>
        <time>2015-08-13T11:49:12Z</time>
      </trkpt>
      <trkpt lat="49.24077" lon="1.30929">
        <ele>54.441658</ele>
        <time>2015-08-13T11:49:17Z</time>
      </trkpt>
      <trkpt lat="49.24065" lon="1.30926">
        <ele>54.887993</ele>
        <time>2015-08-13T11:49:27Z</time>
      </trkpt>
      <trkpt lat="49.24059" lon="1.30929">
        <ele>54.887993</ele>
        <time>2015-08-13T11:49:32Z</time>
      </trkpt>
      <trkpt lat="49.24047" lon="1.30929">
        <ele>55.35628</ele>
        <time>2015-08-13T11:49:42Z</time>
      </trkpt>
      <trkpt lat="49.24041" lon="1.30931">
        <ele>55.35628</ele>
        <time>2015-08-13T11:49:47Z</time>
      </trkpt>
      <trkpt lat="49.2403" lon="1.30934">
        <ele>55.872063</ele>
        <time>2015-08-13T11:49:57Z</time>
      </trkpt>
      <trkpt lat="49.24022" lon="1.30937">
        <ele>55.872063</ele>
        <time>2015-08-13T11:50:02Z</time>
      </trkpt>
      <trkpt lat="49.24007" lon="1.30942">
        <ele>56.574196</ele>
        <time>2015-08-13T11:50:12Z</time>
      </trkpt>
      <trkpt lat="49.24001" lon="1.30942">
        <ele>56.574196</ele>
        <time>2015-08-13T11:50:17Z</time>
      </trkpt>
      <trkpt lat="49.23988" lon="1.30944">
        <ele>57.30264</ele>
        <time>2015-08-13T11:50:27Z</time>
      </trkpt>
      <trkpt lat="49.23983" lon="1.30946">
        <ele>57.30264</ele>
        <time>2015-08-13T11:50:32Z</time>
      </trkpt>
      <trkpt lat="49.23966" lon="1.30952">
        <ele>57.8082</ele>
        <time>2015-08-13T11:50:47Z</time>
      </trkpt>
      <trkpt lat="49.2396" lon="1.30953">
        <ele>57.8082</ele>
        <time>2015-08-13T11:50:52Z</time>
      </trkpt>
      <trkpt lat="49.23948" lon="1.30956">
        <ele>58.177715</ele>
        <time>2015-08-13T11:51:02Z</time>
      </trkpt>
      <trkpt lat="49.23941" lon="1.30958">
        <ele>58.177715</ele>
        <time>2015-08-13T11:51:07Z</time>
      </trkpt>
      <trkpt lat="49.23927" lon="1.30962">
        <ele>58.448833</ele>
        <time>2015-08-13T11:51:17Z</time>
      </trkpt>
      <trkpt lat="49.2392" lon="1.30963">
        <ele>58.448833</ele>
        <time>2015-08-13T11:51:22Z</time>
      </trkpt>
      <trkpt lat="49.23908" lon="1.30966">
        <ele>58.570305</ele>
        <time>2015-08-13T11:51:32Z</time>
      </trkpt>
      <trkpt lat="49.23902" lon="1.30968">
        <ele>58.570305</ele>
        <time>2015-08-13T11:51:37Z</time>
      </trkpt>
      <trkpt lat="49.23891" lon="1.30974">
        <ele>58.552753</ele>
        <time>2015-08-13T11:51:47Z</time>
      </trkpt>
      <trkpt lat="49.23885" lon="1.30977">
        <ele>58.552753</ele>
        <time>2015-08-13T11:51:52Z</time>
      </trkpt>
      <trkpt lat="49.23871" lon="1.30981">
        <ele>58.40646</ele>
        <time>2015-08-13T11:52:02Z</time>
      </trkpt>
      <trkpt lat="49.23863" lon="1.30983">
        <ele>58.40646</ele>
        <time>2015-08-13T11:52:07Z</time>
      </trkpt>
      <trkpt lat="49.2385" lon="1.30985">
        <ele>58.18458</ele>
        <time>2015-08-13T11:52:17Z</time>
      </trkpt>
      <trkpt lat="49.23843" lon="1.30987">
        <ele>58.18458</ele>
        <time>2015-08-13T11:52:22Z</time>
      </trkpt>
      <trkpt lat="49.2383" lon="1.30993">
        <ele>57.95104</ele>
        <time>2015-08-13T11:52:32Z</time>
      </trkpt>
      <trkpt lat="49.23824" lon="1.30995">
        <ele>57.95104</ele>
        <time>2015-08-13T11:52:37Z</time>
      </trkpt>
      <trkpt lat="49.23812" lon="1.30997">
        <ele>57.736294</ele>
        <time>2015-08-13T11:52:47Z</time>
      </trkpt>
      <trkpt lat="49.23804" lon="1.31002">
        <ele>57.736294</ele>
        <time>2015-08-13T11:52:52Z</time>
      </trkpt>
      <trkpt lat="49.23785" lon="1.31008">
        <ele>57.554146</ele>
        <time>2015-08-13T11:53:07Z</time>
      </trkpt>
      <trkpt lat="49.23779" lon="1.31009">
        <ele>57.554146</ele>
        <time>2015-08-13T11:53:12Z</time>
      </trkpt>
      <trkpt lat="49.23767" lon="1.31014">
        <ele>57.40289</ele>
        <time>2015-08-13T11:53:22Z</time>
      </trkpt>
      <trkpt lat="49.2376" lon="1.31016">
        <ele>57.40289</ele>
        <time>2015-08-13T11:53:27Z</time>
      </trkpt>
      <trkpt lat="49.23748" lon="1.3102">
        <ele>57.237656</ele>
        <time>2015-08-13T11:53:37Z</time>
      </trkpt>
      <trkpt lat="49.23742" lon="1.31022">
        <ele>57.237656</ele>
        <time>2015-08-13T11:53:42Z</time>
      </trkpt>
      <trkpt lat="49.23727" lon="1.31027">
        <ele>57.088974</ele>
        <time>2015-08-13T11:53:52Z</time>
      </trkpt>
      <trkpt lat="49.23721" lon="1.31029">
        <ele>57.088974</ele>
        <time>2015-08-13T11:53:57Z</time>
      </trkpt>
      <trkpt lat="49.23709" lon="1.31033">
        <ele>56.941875</ele>
        <time>2015-08-13T11:54:07Z</time>
      </trkpt>
      <trkpt lat="49.23703" lon="1.31035">
        <ele>56.941875</ele>
        <time>2015-08-13T11:54:12Z</time>
      </trkpt>
      <trkpt lat="49.2369" lon="1.3104">
        <ele>56.753666</ele>
        <time>2015-08-13T11:54:22Z</time>
      </trkpt>
      <trkpt lat="49.23683" lon="1.31042">
        <ele>56.753666</ele>
        <time>2015-08-13T11:54:27Z</time>
      </trkpt>
      <trkpt lat="49.23669" lon="1.31046">
        <ele>56.6002</ele>
        <time>2015-08-13T11:54:37Z</time>
      </trkpt>
      <trkpt lat="49.23663" lon="1.31048">
        <ele>56.6002</ele>
        <time>2015-08-13T11:54:42Z</time>
      </trkpt>
      <trkpt lat="49.23651" lon="1.31054">
        <ele>56.42197</ele>
        <time>2015-08-13T11:54:52Z</time>
      </trkpt>
      <trkpt lat="49.23644" lon="1.31056">
        <ele>56.42197</ele>
        <time>2015-08-13T11:54:57Z</time>
      </trkpt>
      <trkpt lat="49.23631" lon="1.31059">
        <ele>56.279198</ele>
        <time>2015-08-13T11:55:07Z</time>
      </trkpt>
      <trkpt lat="49.23624" lon="1.31063">
        <ele>56.279198</ele>
        <time>2015-08-13T11:55:12Z</time>
      </trkpt>
      <trkpt lat="49.23604" lon="1.31067">
        <ele>56.15553</ele>
        <time>2015-08-13T11:55:27Z</time>
      </trkpt>
      <trkpt lat="49.23598" lon="1.3107">
        <ele>56.15553</ele>
        <time>2015-08-13T11:55:32Z</time>
      </trkpt>
      <trkpt lat="49.23586" lon="1.31074">
        <ele>56.035755</ele>
        <time>2015-08-13T11:55:42Z</time>
      </trkpt>
      <trkpt lat="49.2358" lon="1.31076">
        <ele>56.035755</ele>
        <time>2015-08-13T11:55:47Z</time>
      </trkpt>
      <trkpt lat="49.23567" lon="1.3108">
        <ele>55.948997</ele>
        <time>2015-08-13T11:55:57Z</time>
      </trkpt>
      <trkpt lat="49.2356" lon="1.31082">
        <ele>55.948997</ele>
        <time>2015-08-13T11:56:02Z</time>
      </trkpt>
      <trkpt lat="49.23547" lon="1.31087">
        <ele>55.878918</ele>
        <time>2015-08-13T11:56:12Z</time>
      </trkpt>
      <trkpt lat="49.2354" lon="1.31089">
        <ele>55.878918</ele>
        <time>2015-08-13T11:56:17Z</time>
      </trkpt>
      <trkpt lat="49.23527" lon="1.31093">
        <ele>55.89678</ele>
        <time>2015-08-13T11:56:27Z</time>
      </trkpt>
      <trkpt lat="49.23521" lon="1.31093">
        <ele>55.89678</ele>
        <time>2015-08-13T11:56:32Z</time>
      </trkpt>
      <trkpt lat="49.23509" lon="1.31098">
        <ele>55.981895</ele>
        <time>2015-08-13T11:56:42Z</time>
      </trkpt>
      <trkpt lat="49.23502" lon="1.31101">
        <ele>55.981895</ele>
        <time>2015-08-13T11:56:47Z</time>
      </trkpt>
      <trkpt lat="49.23484" lon="1.31106">
        <ele>56.12932</ele>
        <time>2015-08-13T11:57:02Z</time>
      </trkpt>
      <trkpt lat="49.23478" lon="1.31107">
        <ele>56.12932</ele>
        <time>2015-08-13T11:57:07Z</time>
      </trkpt>
      <trkpt lat="49.23465" lon="1.31113">
        <ele>56.33428</ele>
        <time>2015-08-13T11:57:17Z</time>
      </trkpt>
      <trkpt lat="49.23458" lon="1.31115">
        <ele>56.33428</ele>
        <time>2015-08-13T11:57:22Z</time>
      </trkpt>
      <trkpt lat="49.23447" lon="1.31121">
        <ele>56.534546</ele>
        <time>2015-08-13T11:57:32Z</time>
      </trkpt>
      <trkpt lat="49.23441" lon="1.31122">
        <ele>56.534546</ele>
        <time>2015-08-13T11:57:37Z</time>
      </trkpt>
      <trkpt lat="49.23432" lon="1.31126">
        <ele>56.658062</ele>
        <time>2015-08-13T11:57:47Z</time>
      </trkpt>
      <trkpt lat="49.23427" lon="1.31129">
        <ele>56.658062</ele>
        <time>2015-08-13T11:57:52Z</time>
      </trkpt>
      <trkpt lat="49.23417" lon="1.31131">
        <ele>56.681507</ele>
        <time>2015-08-13T11:58:02Z</time>
      </trkpt>
      <trkpt lat="49.23415" lon="1.3113">
        <ele>56.681507</ele>
        <time>2015-08-13T11:58:07Z</time>
      </trkpt>
      <trkpt lat="49.23412" lon="1.31133">
        <ele>56.681507</ele>
        <time>2015-08-13T11:58:17Z</time>
      </trkpt>
      <trkpt lat="49.23407" lon="1.31136">
        <ele>56.713245</ele>
        <time>2015-08-13T11:58:22Z</time>
      </trkpt>
      <trkpt lat="49.23395" lon="1.31139">
        <ele>56.738373</ele>
        <time>2015-08-13T11:58:32Z</time>
      </trkpt>
      <trkpt lat="49.23389" lon="1.31141">
        <ele>56.738373</ele>
        <time>2015-08-13T11:58:37Z</time>
      </trkpt>
      <trkpt lat="49.23377" lon="1.31146">
        <ele>56.67104</ele>
        <time>2015-08-13T11:58:47Z</time>
      </trkpt>
      <trkpt lat="49.23372" lon="1.31146">
        <ele>56.67104</ele>
        <time>2015-08-13T11:58:52Z</time>
      </trkpt>
      <trkpt lat="49.23358" lon="1.31152">
        <ele>56.561657</ele>
        <time>2015-08-13T11:59:02Z</time>
      </trkpt>
      <trkpt lat="49.23352" lon="1.31152">
        <ele>56.561657</ele>
        <time>2015-08-13T11:59:07Z</time>
      </trkpt>
      <trkpt lat="49.23333" lon="1.31155">
        <ele>56.399406</ele>
        <time>2015-08-13T11:59:22Z</time>
      </trkpt>
      <trkpt lat="49.23327" lon="1.31156">
        <ele>56.399406</ele>
        <time>2015-08-13T11:59:27Z</time>
      </trkpt>
      <trkpt lat="49.23314" lon="1.31158">
        <ele>56.18881</ele>
        <time>2015-08-13T11:59:37Z</time>
      </trkpt>
      <trkpt lat="49.23308" lon="1.31159">
        <ele>56.18881</ele>
        <time>2015-08-13T11:59:42Z</time>
      </trkpt>
      <trkpt lat="49.23296" lon="1.31161">
        <ele>55.862137</ele>
        <time>2015-08-13T11:59:52Z</time>
      </trkpt>
      <trkpt lat="49.2329" lon="1.31162">
        <ele>55.862137</ele>
        <time>2015-08-13T11:59:57Z</time>
      </trkpt>
      <trkpt lat="49.23279" lon="1.31167">
        <ele>55.313713</ele>
        <time>2015-08-13T12:00:07Z</time>
      </trkpt>
      <trkpt lat="49.23274" lon="1.31169">
        <ele>55.313713</ele>
        <time>2015-08-13T12:00:12Z</time>
      </trkpt>
      <trkpt lat="49.2326" lon="1.31173">
        <ele>54.532707</ele>
        <time>2015-08-13T12:00:22Z</time>
      </trkpt>
      <trkpt lat="49.23255" lon="1.31175">
        <ele>54.532707</ele>
        <time>2015-08-13T12:00:27Z</time>
      </trkpt>
      <trkpt lat="49.23242" lon="1.3118">
        <ele>53.56736</ele>
        <time>2015-08-13T12:00:37Z</time>
      </trkpt>
      <trkpt lat="49.23236" lon="1.31182">
        <ele>53.56736</ele>
        <time>2015-08-13T12:00:42Z</time>
      </trkpt>
      <trkpt lat="49.23225" lon="1.31188">
        <ele>52.390804</ele>
        <time>2015-08-13T12:00:52Z</time>
      </trkpt>
      <trkpt lat="49.2322" lon="1.31191">
        <ele>52.390804</ele>
        <time>2015-08-13T12:00:57Z</time>
      </trkpt>
      <trkpt lat="49.23206" lon="1.31196">
        <ele>51.007538</ele>
        <time>2015-08-13T12:01:07Z</time>
      </trkpt>
      <trkpt lat="49.23201" lon="1.31198">
        <ele>51.007538</ele>
        <time>2015-08-13T12:01:12Z</time>
      </trkpt>
      <trkpt lat="49.23189" lon="1.31204">
        <ele>49.393448</ele>
        <time>2015-08-13T12:01:22Z</time>
      </trkpt>
      <trkpt lat="49.23184" lon="1.31207">
        <ele>49.393448</ele>
        <time>2015-08-13T12:01:27Z</time>
      </trkpt>
      <trkpt lat="49.2317" lon="1.31212">
        <ele>47.570023</ele>
        <time>2015-08-13T12:01:37Z</time>
      </trkpt>
      <trkpt lat="49.23165" lon="1.31214">
        <ele>47.570023</ele>
        <time>2015-08-13T12:01:42Z</time>
      </trkpt>
      <trkpt lat="49.23147" lon="1.31224">
        <ele>45.35595</ele>
        <time>2015-08-13T12:01:57Z</time>
      </trkpt>
      <trkpt lat="49.23141" lon="1.31227">
        <ele>45.35595</ele>
        <time>2015-08-13T12:02:02Z</time>
      </trkpt>
      <trkpt lat="49.23129" lon="1.31231">
        <ele>42.987774</ele>
        <time>2015-08-13T12:02:12Z</time>
      </trkpt>
      <trkpt lat="49.23122" lon="1.31235">
        <ele>42.987774</ele>
        <time>2015-08-13T12:02:17Z</time>
      </trkpt>
      <trkpt lat="49.23111" lon="1.31241">
        <ele>40.454437</ele>
        <time>2015-08-13T12:02:27Z</time>
      </trkpt>
      <trkpt lat="49.23104" lon="1.31243">
        <ele>40.454437</ele>
        <time>2015-08-13T12:02:32Z</time>
      </trkpt>
      <trkpt lat="49.23092" lon="1.3125">
        <ele>37.890175</ele>
        <time>2015-08-13T12:02:42Z</time>
      </trkpt>
      <trkpt lat="49.23085" lon="1.31254">
        <ele>37.890175</ele>
        <time>2015-08-13T12:02:47Z</time>
      </trkpt>
      <trkpt lat="49.23075" lon="1.31259">
        <ele>35.304054</ele>
        <time>2015-08-13T12:02:57Z</time>
      </trkpt>
      <trkpt lat="49.23068" lon="1.31263">
        <ele>35.304054</ele>
        <time>2015-08-13T12:03:02Z</time>
      </trkpt>
      <trkpt lat="49.2305" lon="1.31275">
        <ele>32.617947</ele>
        <time>2015-08-13T12:03:17Z</time>
      </trkpt>
      <trkpt lat="49.23044" lon="1.31279">
        <ele>32.617947</ele>
        <time>2015-08-13T12:03:22Z</time>
      </trkpt>
      <trkpt lat="49.23037" lon="1.31285">
        <ele>30.033428</ele>
        <time>2015-08-13T12:03:32Z</time>
      </trkpt>
      <trkpt lat="49.23028" lon="1.31291">
        <ele>27.621555</ele>
        <time>2015-08-13T12:03:37Z</time>
      </trkpt>
      <trkpt lat="49.23016" lon="1.31298">
        <ele>25.389885</ele>
        <time>2015-08-13T12:03:47Z</time>
      </trkpt>
      <trkpt lat="49.23009" lon="1.31303">
        <ele>25.389885</ele>
        <time>2015-08-13T12:03:52Z</time>
      </trkpt>
      <trkpt lat="49.22998" lon="1.31309">
        <ele>23.229467</ele>
        <time>2015-08-13T12:04:02Z</time>
      </trkpt>
      <trkpt lat="49.2299" lon="1.31312">
        <ele>23.229467</ele>
        <time>2015-08-13T12:04:07Z</time>
      </trkpt>
      <trkpt lat="49.22977" lon="1.31319">
        <ele>21.197523</ele>
        <time>2015-08-13T12:04:17Z</time>
      </trkpt>
      <trkpt lat="49.22972" lon="1.31323">
        <ele>21.197523</ele>
        <time>2015-08-13T12:04:22Z</time>
      </trkpt>
      <trkpt lat="49.22962" lon="1.3133">
        <ele>19.144793</ele>
        <time>2015-08-13T12:04:32Z</time>
      </trkpt>
      <trkpt lat="49.22957" lon="1.31333">
        <ele>19.144793</ele>
        <time>2015-08-13T12:04:37Z</time>
      </trkpt>
      <trkpt lat="49.2295" lon="1.31337">
        <ele>17.105806</ele>
        <time>2015-08-13T12:04:47Z</time>
      </trkpt>
      <trkpt lat="49.22944" lon="1.31341">
        <ele>17.105806</ele>
        <time>2015-08-13T12:04:52Z</time>
      </trkpt>
      <trkpt lat="49.22934" lon="1.31352">
        <ele>15.097947</ele>
        <time>2015-08-13T12:05:02Z</time>
      </trkpt>
      <trkpt lat="49.22928" lon="1.31355">
        <ele>15.097947</ele>
        <time>2015-08-13T12:05:07Z</time>
      </trkpt>
      <trkpt lat="49.22917" lon="1.31364">
        <ele>13.209126</ele>
        <time>2015-08-13T12:05:17Z</time>
      </trkpt>
      <trkpt lat="49.22912" lon="1.31369">
        <ele>13.209126</ele>
        <time>2015-08-13T12:05:22Z</time>
      </trkpt>
      <trkpt lat="49.22893" lon="1.31384">
        <ele>11.304137</ele>
        <time>2015-08-13T12:05:37Z</time>
      </trkpt>
      <trkpt lat="49.22887" lon="1.31389">
        <ele>11.304137</ele>
        <time>2015-08-13T12:05:42Z</time>
      </trkpt>
      <trkpt lat="49.22874" lon="1.314">
        <ele>9.531401</ele>
        <time>2015-08-13T12:05:52Z</time>
      </trkpt>
      <trkpt lat="49.2287" lon="1.31404">
        <ele>9.531401</ele>
        <time>2015-08-13T12:05:57Z</time>
      </trkpt>
      <trkpt lat="49.2286" lon="1.31416">
        <ele>7.8693876</ele>
        <time>2015-08-13T12:06:07Z</time>
      </trkpt>
      <trkpt lat="49.22855" lon="1.3142">
        <ele>7.8693876</ele>
        <time>2015-08-13T12:06:12Z</time>
      </trkpt>
      <trkpt lat="49.22843" lon="1.3143">
        <ele>6.3409204</ele>
        <time>2015-08-13T12:06:22Z</time>
      </trkpt>
      <trkpt lat="49.22837" lon="1.31436">
        <ele>6.3409204</ele>
        <time>2015-08-13T12:06:27Z</time>
      </trkpt>
      <trkpt lat="49.22825" lon="1.31442">
        <ele>5.0242696</ele>
        <time>2015-08-13T12:06:37Z</time>
      </trkpt>
      <trkpt lat="49.22819" lon="1.31443">
        <ele>5.0242696</ele>
        <time>2015-08-13T12:06:42Z</time>
      </trkpt>
      <trkpt lat="49.22806" lon="1.31445">
        <ele>3.9335773</ele>
        <time>2015-08-13T12:06:52Z</time>
      </trkpt>
      <trkpt lat="49.228" lon="1.31449">
        <ele>3.9335773</ele>
        <time>2015-08-13T12:06:57Z</time>
      </trkpt>
      <trkpt lat="49.2279" lon="1.31458">
        <ele>3.0523589</ele>
        <time>2015-08-13T12:07:07Z</time>
      </trkpt>
      <trkpt lat="49.22785" lon="1.31463">
        <ele>3.0523589</ele>
        <time>2015-08-13T12:07:12Z</time>
      </trkpt>
      <trkpt lat="49.22776" lon="1.31477">
        <ele>2.33581</ele>
        <time>2015-08-13T12:07:22Z</time>
      </trkpt>
      <trkpt lat="49.22772" lon="1.31483">
        <ele>2.33581</ele>
        <time>2015-08-13T12:07:27Z</time>
      </trkpt>
      <trkpt lat="49.22762" lon="1.31489">
        <ele>1.8715442</ele>
        <time>2015-08-13T12:07:37Z</time>
      </trkpt>
      <trkpt lat="49.22757" lon="1.31494">
        <ele>1.8715442</ele>
        <time>2015-08-13T12:07:42Z</time>
      </trkpt>
      <trkpt lat="49.22741" lon="1.31506">
        <ele>1.5381774</ele>
        <time>2015-08-13T12:07:57Z</time>
      </trkpt>
      <trkpt lat="49.22736" lon="1.31501">
        <ele>1.5381774</ele>
        <time>2015-08-13T12:08:02Z</time>
      </trkpt>
      <trkpt lat="49.22732" lon="1.31484">
        <ele>1.2660227</ele>
        <time>2015-08-13T12:08:12Z</time>
      </trkpt>
      <trkpt lat="49.22729" lon="1.31475">
        <ele>1.2660227</ele>
        <time>2015-08-13T12:08:17Z</time>
      </trkpt>
      <trkpt lat="49.22724" lon="1.31459">
        <ele>1.1487907</ele>
        <time>2015-08-13T12:08:27Z</time>
      </trkpt>
      <trkpt lat="49.22721" lon="1.31451">
        <ele>1.1487907</ele>
        <time>2015-08-13T12:08:32Z</time>
      </trkpt>
      <trkpt lat="49.22716" lon="1.31437">
        <ele>1.2295821</ele>
        <time>2015-08-13T12:08:42Z</time>
      </trkpt>
      <trkpt lat="49.22713" lon="1.31432">
        <ele>1.2295821</ele>
        <time>2015-08-13T12:08:47Z</time>
      </trkpt>
      <trkpt lat="49.22697" lon="1.31437">
        <ele>1.2883317</ele>
        <time>2015-08-13T12:08:57Z</time>
      </trkpt>
      <trkpt lat="49.22692" lon="1.31444">
        <ele>1.2883317</ele>
        <time>2015-08-13T12:09:02Z</time>
      </trkpt>
      <trkpt lat="49.22681" lon="1.31455">
        <ele>1.3085163</ele>
        <time>2015-08-13T12:09:12Z</time>
      </trkpt>
      <trkpt lat="49.22675" lon="1.3146">
        <ele>1.3085163</ele>
        <time>2015-08-13T12:09:17Z</time>
      </trkpt>
      <trkpt lat="49.22665" lon="1.31469">
        <ele>1.4478507</ele>
        <time>2015-08-13T12:09:27Z</time>
      </trkpt>
      <trkpt lat="49.22659" lon="1.31475">
        <ele>1.4478507</ele>
        <time>2015-08-13T12:09:32Z</time>
      </trkpt>
      <trkpt lat="49.22643" lon="1.31487">
        <ele>1.880949</ele>
        <time>2015-08-13T12:09:47Z</time>
      </trkpt>
      <trkpt lat="49.22637" lon="1.31492">
        <ele>1.880949</ele>
        <time>2015-08-13T12:09:52Z</time>
      </trkpt>
      <trkpt lat="49.22628" lon="1.315">
        <ele>2.3796833</ele>
        <time>2015-08-13T12:10:02Z</time>
      </trkpt>
      <trkpt lat="49.22621" lon="1.31504">
        <ele>2.3796833</ele>
        <time>2015-08-13T12:10:07Z</time>
      </trkpt>
      <trkpt lat="49.22612" lon="1.31502">
        <ele>2.9486887</ele>
        <time>2015-08-13T12:10:17Z</time>
      </trkpt>
      <trkpt lat="49.22606" lon="1.31495">
        <ele>2.9486887</ele>
        <time>2015-08-13T12:10:22Z</time>
      </trkpt>
      <trkpt lat="49.22598" lon="1.31481">
        <ele>3.6497428</ele>
        <time>2015-08-13T12:10:32Z</time>
      </trkpt>
      <trkpt lat="49.22594" lon="1.31474">
        <ele>3.6497428</ele>
        <time>2015-08-13T12:10:37Z</time>
      </trkpt>
      <trkpt lat="49.22589" lon="1.31459">
        <ele>4.453296</ele>
        <time>2015-08-13T12:10:47Z</time>
      </trkpt>
      <trkpt lat="49.22585" lon="1.31452">
        <ele>4.453296</ele>
        <time>2015-08-13T12:10:52Z</time>
      </trkpt>
      <trkpt lat="49.22578" lon="1.31437">
        <ele>5.2741</ele>
        <time>2015-08-13T12:11:02Z</time>
      </trkpt>
      <trkpt lat="49.22575" lon="1.31431">
        <ele>5.2741</ele>
        <time>2015-08-13T12:11:07Z</time>
      </trkpt>
      <trkpt lat="49.22567" lon="1.31415">
        <ele>6.105247</ele>
        <time>2015-08-13T12:11:17Z</time>
      </trkpt>
      <trkpt lat="49.22564" lon="1.31409">
        <ele>6.105247</ele>
        <time>2015-08-13T12:11:22Z</time>
      </trkpt>
      <trkpt lat="49.22555" lon="1.31392">
        <ele>6.9836273</ele>
        <time>2015-08-13T12:11:32Z</time>
      </trkpt>
      <trkpt lat="49.22553" lon="1.31386">
        <ele>6.9836273</ele>
        <time>2015-08-13T12:11:37Z</time>
      </trkpt>
      <trkpt lat="49.22546" lon="1.31372">
        <ele>7.7704487</ele>
        <time>2015-08-13T12:11:47Z</time>
      </trkpt>
      <trkpt lat="49.22541" lon="1.31365">
        <ele>7.7704487</ele>
        <time>2015-08-13T12:11:52Z</time>
      </trkpt>
      <trkpt lat="49.22535" lon="1.31351">
        <ele>8.524821</ele>
        <time>2015-08-13T12:12:02Z</time>
      </trkpt>
      <trkpt lat="49.22531" lon="1.31343">
        <ele>8.524821</ele>
        <time>2015-08-13T12:12:07Z</time>
      </trkpt>
      <trkpt lat="49.2252" lon="1.31319">
        <ele>9.172017</ele>
        <time>2015-08-13T12:12:22Z</time>
      </trkpt>
      <trkpt lat="49.22518" lon="1.31313">
        <ele>9.172017</ele>
        <time>2015-08-13T12:12:27Z</time>
      </trkpt>
      <trkpt lat="49.22509" lon="1.313">
        <ele>9.744091</ele>
        <time>2015-08-13T12:12:37Z</time>
      </trkpt>
      <trkpt lat="49.22505" lon="1.31295">
        <ele>9.744091</ele>
        <time>2015-08-13T12:12:42Z</time>
      </trkpt>
      <trkpt lat="49.22496" lon="1.31283">
        <ele>10.271082</ele>
        <time>2015-08-13T12:12:52Z</time>
      </trkpt>
      <trkpt lat="49.22492" lon="1.31278">
        <ele>10.271082</ele>
        <time>2015-08-13T12:12:57Z</time>
      </trkpt>
      <trkpt lat="49.22484" lon="1.31268">
        <ele>10.766662</ele>
        <time>2015-08-13T12:13:07Z</time>
      </trkpt>
      <trkpt lat="49.2248" lon="1.31263">
        <ele>10.766662</ele>
        <time>2015-08-13T12:13:12Z</time>
      </trkpt>
      <trkpt lat="49.22468" lon="1.3125">
        <ele>11.286952</ele>
        <time>2015-08-13T12:13:22Z</time>
      </trkpt>
      <trkpt lat="49.22464" lon="1.31242">
        <ele>11.286952</ele>
        <time>2015-08-13T12:13:27Z</time>
      </trkpt>
      <trkpt lat="49.22453" lon="1.31232">
        <ele>11.754313</ele>
        <time>2015-08-13T12:13:37Z</time>
      </trkpt>
      <trkpt lat="49.22449" lon="1.31224">
        <ele>11.754313</ele>
        <time>2015-08-13T12:13:42Z</time>
      </trkpt>
      <trkpt lat="49.22443" lon="1.31209">
        <ele>12.1979685</ele>
        <time>2015-08-13T12:13:52Z</time>
      </trkpt>
      <trkpt lat="49.2244" lon="1.31203">
        <ele>12.1979685</ele>
        <time>2015-08-13T12:13:57Z</time>
      </trkpt>
      <trkpt lat="49.22429" lon="1.31192">
        <ele>12.558729</ele>
        <time>2015-08-13T12:14:07Z</time>
      </trkpt>
      <trkpt lat="49.22424" lon="1.31184">
        <ele>12.558729</ele>
        <time>2015-08-13T12:14:12Z</time>
      </trkpt>
      <trkpt lat="49.22419" lon="1.3117">
        <ele>12.882995</ele>
        <time>2015-08-13T12:14:22Z</time>
      </trkpt>
      <trkpt lat="49.22415" lon="1.31164">
        <ele>12.882995</ele>
        <time>2015-08-13T12:14:27Z</time>
      </trkpt>
      <trkpt lat="49.22408" lon="1.31152">
        <ele>13.185171</ele>
        <time>2015-08-13T12:14:37Z</time>
      </trkpt>
      <trkpt lat="49.22403" lon="1.31142">
        <ele>13.185171</ele>
        <time>2015-08-13T12:14:42Z</time>
      </trkpt>
      <trkpt lat="49.22396" lon="1.31124">
        <ele>13.622909</ele>
        <time>2015-08-13T12:14:52Z</time>
      </trkpt>
      <trkpt lat="49.22395" lon="1.31119">
        <ele>13.622909</ele>
        <time>2015-08-13T12:14:57Z</time>
      </trkpt>
      <trkpt lat="49.22383" lon="1.31095">
        <ele>14.082625</ele>
        <time>2015-08-13T12:15:12Z</time>
      </trkpt>
      <trkpt lat="49.22379" lon="1.31089">
        <ele>14.082625</ele>
        <time>2015-08-13T12:15:17Z</time>
      </trkpt>
      <trkpt lat="49.22374" lon="1.31073">
        <ele>14.531202</ele>
        <time>2015-08-13T12:15:27Z</time>
      </trkpt>
      <trkpt lat="49.22371" lon="1.31064">
        <ele>14.531202</ele>
        <time>2015-08-13T12:15:32Z</time>
      </trkpt>
      <trkpt lat="49.22365" lon="1.31048">
        <ele>14.851644</ele>
        <time>2015-08-13T12:15:42Z</time>
      </trkpt>
      <trkpt lat="49.22361" lon="1.31038">
        <ele>14.851644</ele>
        <time>2015-08-13T12:15:47Z</time>
      </trkpt>
      <trkpt lat="49.22354" lon="1.31027">
        <ele>15.094553</ele>
        <time>2015-08-13T12:15:57Z</time>
      </trkpt>
      <trkpt lat="49.22352" lon="1.3102">
        <ele>15.094553</ele>
        <time>2015-08-13T12:16:02Z</time>
      </trkpt>
      <trkpt lat="49.22348" lon="1.30998">
        <ele>15.465673</ele>
        <time>2015-08-13T12:16:12Z</time>
      </trkpt>
      <trkpt lat="49.22347" lon="1.3099">
        <ele>15.465673</ele>
        <time>2015-08-13T12:16:17Z</time>
      </trkpt>
      <trkpt lat="49.22332" lon="1.30991">
        <ele>16.011282</ele>
        <time>2015-08-13T12:16:27Z</time>
      </trkpt>
      <trkpt lat="49.22327" lon="1.30994">
        <ele>16.011282</ele>
        <time>2015-08-13T12:16:32Z</time>
      </trkpt>
      <trkpt lat="49.22317" lon="1.31001">
        <ele>16.50007</ele>
        <time>2015-08-13T12:16:42Z</time>
      </trkpt>
      <trkpt lat="49.22314" lon="1.30997">
        <ele>16.50007</ele>
        <time>2015-08-13T12:16:47Z</time>
      </trkpt>
      <trkpt lat="49.22313" lon="1.30976">
        <ele>16.8621</ele>
        <time>2015-08-13T12:16:57Z</time>
      </trkpt>
      <trkpt lat="49.22311" lon="1.30965">
        <ele>16.8621</ele>
        <time>2015-08-13T12:17:02Z</time>
      </trkpt>
      <trkpt lat="49.22311" lon="1.30951">
        <ele>17.148327</ele>
        <time>2015-08-13T12:17:12Z</time>
      </trkpt>
      <trkpt lat="49.22314" lon="1.30952">
        <ele>17.148327</ele>
        <time>2015-08-13T12:17:17Z</time>
      </trkpt>
      <trkpt lat="49.22315" lon="1.30925">
        <ele>17.29099</ele>
        <time>2015-08-13T12:17:32Z</time>
      </trkpt>
      <trkpt lat="49.22312" lon="1.3092">
        <ele>17.29099</ele>
        <time>2015-08-13T12:17:37Z</time>
      </trkpt>
      <trkpt lat="49.22315" lon="1.30902">
        <ele>17.386332</ele>
        <time>2015-08-13T12:17:47Z</time>
      </trkpt>
      <trkpt lat="49.22315" lon="1.30893">
        <ele>17.386332</ele>
        <time>2015-08-13T12:17:52Z</time>
      </trkpt>
      <trkpt lat="49.22315" lon="1.30875">
        <ele>17.552576</ele>
        <time>2015-08-13T12:18:02Z</time>
      </trkpt>
      <trkpt lat="49.22315" lon="1.30864">
        <ele>17.552576</ele>
        <time>2015-08-13T12:18:07Z</time>
      </trkpt>
      <trkpt lat="49.22317" lon="1.30846">
        <ele>17.682985</ele>
        <time>2015-08-13T12:18:17Z</time>
      </trkpt>
      <trkpt lat="49.2232" lon="1.30841">
        <ele>17.682985</ele>
        <time>2015-08-13T12:18:22Z</time>
      </trkpt>
      <trkpt lat="49.22319" lon="1.30821">
        <ele>17.866198</ele>
        <time>2015-08-13T12:18:32Z</time>
      </trkpt>
      <trkpt lat="49.22318" lon="1.30814">
        <ele>17.866198</ele>
        <time>2015-08-13T12:18:37Z</time>
      </trkpt>
      <trkpt lat="49.22321" lon="1.30793">
        <ele>18.0978</ele>
        <time>2015-08-13T12:18:47Z</time>
      </trkpt>
      <trkpt lat="49.22324" lon="1.30787">
        <ele>18.0978</ele>
        <time>2015-08-13T12:18:52Z</time>
      </trkpt>
      <trkpt lat="49.2233" lon="1.30773">
        <ele>18.330416</ele>
        <time>2015-08-13T12:19:02Z</time>
      </trkpt>
      <trkpt lat="49.22332" lon="1.30767">
        <ele>18.330416</ele>
        <time>2015-08-13T12:19:07Z</time>
      </trkpt>
      <trkpt lat="49.22343" lon="1.30767">
        <ele>18.693148</ele>
        <time>2015-08-13T12:19:22Z</time>
      </trkpt>
      <trkpt lat="49.22347" lon="1.30766">
        <ele>18.693148</ele>
        <time>2015-08-13T12:19:27Z</time>
      </trkpt>
      <trkpt lat="49.22357" lon="1.30762">
        <ele>19.132385</ele>
        <time>2015-08-13T12:19:37Z</time>
      </trkpt>
      <trkpt lat="49.22363" lon="1.3075">
        <ele>19.46861</ele>
        <time>2015-08-13T12:19:42Z</time>
      </trkpt>
      <trkpt lat="49.2237" lon="1.30743">
        <ele>19.46861</ele>
        <time>2015-08-13T12:19:52Z</time>
      </trkpt>
      <trkpt lat="49.22371" lon="1.30742">
        <ele>19.478197</ele>
        <time>2015-08-13T12:19:57Z</time>
      </trkpt>
      <trkpt lat="49.2237" lon="1.30743">
        <ele>19.478197</ele>
        <time>2015-08-13T12:20:12Z</time>
      </trkpt>
      <trkpt lat="49.22369" lon="1.30743">
        <ele>19.478197</ele>
        <time>2015-08-13T12:20:17Z</time>
      </trkpt>
      <trkpt lat="49.22368" lon="1.30742">
        <ele>19.478197</ele>
        <time>2015-08-13T12:20:22Z</time>
      </trkpt>
      <trkpt lat="49.22368" lon="1.30742">
        <ele>19.478197</ele>
        <time>2015-08-13T12:20:27Z</time>
      </trkpt>
      <trkpt lat="49.22368" lon="1.30742">
        <ele>19.478197</ele>
        <time>2015-08-13T12:20:32Z</time>
      </trkpt>
      <trkpt lat="49.22368" lon="1.30737">
        <ele>19.478197</ele>
        <time>2015-08-13T12:20:37Z</time>
      </trkpt>
      <trkpt lat="49.22368" lon="1.30737">
        <ele>19.478197</ele>
        <time>2015-08-13T12:20:42Z</time>
      </trkpt>
      <trkpt lat="49.22368" lon="1.30737">
        <ele>19.478197</ele>
        <time>2015-08-13T12:20:47Z</time>
      </trkpt>
      <trkpt lat="49.22379" lon="1.30736">
        <ele>19.545774</ele>
        <time>2015-08-13T12:21:27Z</time>
      </trkpt>
      <trkpt lat="49.22386" lon="1.30736">
        <ele>19.545774</ele>
        <time>2015-08-13T12:21:32Z</time>
      </trkpt>
      <trkpt lat="49.22398" lon="1.30732">
        <ele>19.73939</ele>
        <time>2015-08-13T12:21:42Z</time>
      </trkpt>
      <trkpt lat="49.22403" lon="1.30731">
        <ele>19.73939</ele>
        <time>2015-08-13T12:21:47Z</time>
      </trkpt>
      <trkpt lat="49.22414" lon="1.30728">
        <ele>19.675043</ele>
        <time>2015-08-13T12:21:57Z</time>
      </trkpt>
      <trkpt lat="49.2242" lon="1.30725">
        <ele>19.675043</ele>
        <time>2015-08-13T12:22:02Z</time>
      </trkpt>
      <trkpt lat="49.2243" lon="1.30719">
        <ele>19.357988</ele>
        <time>2015-08-13T12:22:12Z</time>
      </trkpt>
      <trkpt lat="49.22436" lon="1.30717">
        <ele>19.357988</ele>
        <time>2015-08-13T12:22:17Z</time>
      </trkpt>
      <trkpt lat="49.22446" lon="1.30709">
        <ele>18.92354</ele>
        <time>2015-08-13T12:22:27Z</time>
      </trkpt>
      <trkpt lat="49.22452" lon="1.30706">
        <ele>18.92354</ele>
        <time>2015-08-13T12:22:32Z</time>
      </trkpt>
      <trkpt lat="49.22459" lon="1.30701">
        <ele>18.310093</ele>
        <time>2015-08-13T12:22:42Z</time>
      </trkpt>
      <trkpt lat="49.22465" lon="1.30697">
        <ele>18.310093</ele>
        <time>2015-08-13T12:22:47Z</time>
      </trkpt>
      <trkpt lat="49.22482" lon="1.30687">
        <ele>17.734901</ele>
        <time>2015-08-13T12:23:02Z</time>
      </trkpt>
      <trkpt lat="49.22487" lon="1.30684">
        <ele>17.734901</ele>
        <time>2015-08-13T12:23:07Z</time>
      </trkpt>
      <trkpt lat="49.22496" lon="1.30677">
        <ele>17.067715</ele>
        <time>2015-08-13T12:23:17Z</time>
      </trkpt>
      <trkpt lat="49.22502" lon="1.30673">
        <ele>17.067715</ele>
        <time>2015-08-13T12:23:22Z</time>
      </trkpt>
      <trkpt lat="49.22512" lon="1.30668">
        <ele>16.533983</ele>
        <time>2015-08-13T12:23:32Z</time>
      </trkpt>
      <trkpt lat="49.22517" lon="1.30662">
        <ele>16.533983</ele>
        <time>2015-08-13T12:23:37Z</time>
      </trkpt>
      <trkpt lat="49.22526" lon="1.30662">
        <ele>16.068409</ele>
        <time>2015-08-13T12:23:47Z</time>
      </trkpt>
      <trkpt lat="49.22532" lon="1.30665">
        <ele>16.068409</ele>
        <time>2015-08-13T12:23:52Z</time>
      </trkpt>
      <trkpt lat="49.22539" lon="1.30658">
        <ele>15.711172</ele>
        <time>2015-08-13T12:24:02Z</time>
      </trkpt>
      <trkpt lat="49.22543" lon="1.30656">
        <ele>15.711172</ele>
        <time>2015-08-13T12:24:07Z</time>
      </trkpt>
      <trkpt lat="49.22551" lon="1.30648">
        <ele>15.542421</ele>
        <time>2015-08-13T12:24:17Z</time>
      </trkpt>
      <trkpt lat="49.22557" lon="1.3064">
        <ele>15.542421</ele>
        <time>2015-08-13T12:24:22Z</time>
      </trkpt>
      <trkpt lat="49.22564" lon="1.30631">
        <ele>15.318828</ele>
        <time>2015-08-13T12:24:32Z</time>
      </trkpt>
      <trkpt lat="49.22567" lon="1.30624">
        <ele>15.318828</ele>
        <time>2015-08-13T12:24:37Z</time>
      </trkpt>
      <trkpt lat="49.22571" lon="1.30607">
        <ele>15.074471</ele>
        <time>2015-08-13T12:24:47Z</time>
      </trkpt>
      <trkpt lat="49.2257" lon="1.30597">
        <ele>15.074471</ele>
        <time>2015-08-13T12:24:52Z</time>
      </trkpt>
      <trkpt lat="49.22569" lon="1.30582">
        <ele>14.711267</ele>
        <time>2015-08-13T12:25:02Z</time>
      </trkpt>
      <trkpt lat="49.22568" lon="1.30571">
        <ele>14.711267</ele>
        <time>2015-08-13T12:25:07Z</time>
      </trkpt>
      <trkpt lat="49.22566" lon="1.30543">
        <ele>14.340403</ele>
        <time>2015-08-13T12:25:22Z</time>
      </trkpt>
      <trkpt lat="49.22567" lon="1.30537">
        <ele>14.340403</ele>
        <time>2015-08-13T12:25:27Z</time>
      </trkpt>
      <trkpt lat="49.22571" lon="1.30526">
        <ele>14.021656</ele>
        <time>2015-08-13T12:25:37Z</time>
      </trkpt>
      <trkpt lat="49.22572" lon="1.30526">
        <ele>14.021656</ele>
        <time>2015-08-13T12:25:42Z</time>
      </trkpt>
      <trkpt lat="49.22578" lon="1.30521">
        <ele>14.021656</ele>
        <time>2015-08-13T12:25:52Z</time>
      </trkpt>
      <trkpt lat="49.22581" lon="1.3052">
        <ele>13.767009</ele>
        <time>2015-08-13T12:25:57Z</time>
      </trkpt>
      <trkpt lat="49.22588" lon="1.30515">
        <ele>13.767009</ele>
        <time>2015-08-13T12:26:07Z</time>
      </trkpt>
      <trkpt lat="49.22593" lon="1.30512">
        <ele>13.44324</ele>
        <time>2015-08-13T12:26:12Z</time>
      </trkpt>
      <trkpt lat="49.22603" lon="1.30502">
        <ele>13.128832</ele>
        <time>2015-08-13T12:26:22Z</time>
      </trkpt>
      <trkpt lat="49.2261" lon="1.30498">
        <ele>13.128832</ele>
        <time>2015-08-13T12:26:27Z</time>
      </trkpt>
      <trkpt lat="49.22619" lon="1.30484">
        <ele>12.85321</ele>
        <time>2015-08-13T12:26:37Z</time>
      </trkpt>
      <trkpt lat="49.2262" lon="1.30475">
        <ele>12.85321</ele>
        <time>2015-08-13T12:26:42Z</time>
      </trkpt>
      <trkpt lat="49.22618" lon="1.30457">
        <ele>12.557027</ele>
        <time>2015-08-13T12:26:52Z</time>
      </trkpt>
      <trkpt lat="49.22617" lon="1.30448">
        <ele>12.557027</ele>
        <time>2015-08-13T12:26:57Z</time>
      </trkpt>
      <trkpt lat="49.22614" lon="1.30431">
        <ele>12.271781</ele>
        <time>2015-08-13T12:27:07Z</time>
      </trkpt>
      <trkpt lat="49.22612" lon="1.3042">
        <ele>12.271781</ele>
        <time>2015-08-13T12:27:12Z</time>
      </trkpt>
      <trkpt lat="49.22608" lon="1.30403">
        <ele>12.041005</ele>
        <time>2015-08-13T12:27:22Z</time>
      </trkpt>
      <trkpt lat="49.22608" lon="1.30393">
        <ele>12.041005</ele>
        <time>2015-08-13T12:27:27Z</time>
      </trkpt>
      <trkpt lat="49.22615" lon="1.30383">
        <ele>11.832786</ele>
        <time>2015-08-13T12:27:37Z</time>
      </trkpt>
      <trkpt lat="49.22619" lon="1.30378">
        <ele>11.832786</ele>
        <time>2015-08-13T12:27:42Z</time>
      </trkpt>
      <trkpt lat="49.22631" lon="1.30371">
        <ele>11.646277</ele>
        <time>2015-08-13T12:27:52Z</time>
      </trkpt>
      <trkpt lat="49.22637" lon="1.30367">
        <ele>11.646277</ele>
        <time>2015-08-13T12:27:57Z</time>
      </trkpt>
      <trkpt lat="49.22649" lon="1.30362">
        <ele>11.480598</ele>
        <time>2015-08-13T12:28:07Z</time>
      </trkpt>
      <trkpt lat="49.22654" lon="1.30359">
        <ele>11.480598</ele>
        <time>2015-08-13T12:28:12Z</time>
      </trkpt>
      <trkpt lat="49.22663" lon="1.30352">
        <ele>11.406894</ele>
        <time>2015-08-13T12:28:22Z</time>
      </trkpt>
      <trkpt lat="49.22667" lon="1.30347">
        <ele>11.406894</ele>
        <time>2015-08-13T12:28:27Z</time>
      </trkpt>
      <trkpt lat="49.22667" lon="1.30333">
        <ele>11.346678</ele>
        <time>2015-08-13T12:28:42Z</time>
      </trkpt>
      <trkpt lat="49.22666" lon="1.30325">
        <ele>11.346678</ele>
        <time>2015-08-13T12:28:47Z</time>
      </trkpt>
      <trkpt lat="49.22662" lon="1.30305">
        <ele>11.255981</ele>
        <time>2015-08-13T12:28:57Z</time>
      </trkpt>
      <trkpt lat="49.22661" lon="1.30299">
        <ele>11.255981</ele>
        <time>2015-08-13T12:29:02Z</time>
      </trkpt>
      <trkpt lat="49.22657" lon="1.30283">
        <ele>11.3102865</ele>
        <time>2015-08-13T12:29:12Z</time>
      </trkpt>
      <trkpt lat="49.22656" lon="1.30274">
        <ele>11.3102865</ele>
        <time>2015-08-13T12:29:17Z</time>
      </trkpt>
      <trkpt lat="49.22654" lon="1.30255">
        <ele>11.383525</ele>
        <time>2015-08-13T12:29:27Z</time>
      </trkpt>
      <trkpt lat="49.22653" lon="1.30247">
        <ele>11.383525</ele>
        <time>2015-08-13T12:29:32Z</time>
      </trkpt>
      <trkpt lat="49.22651" lon="1.3023">
        <ele>11.50292</ele>
        <time>2015-08-13T12:29:42Z</time>
      </trkpt>
      <trkpt lat="49.2265" lon="1.30221">
        <ele>11.50292</ele>
        <time>2015-08-13T12:29:47Z</time>
      </trkpt>
      <trkpt lat="49.22645" lon="1.30203">
        <ele>11.679131</ele>
        <time>2015-08-13T12:29:57Z</time>
      </trkpt>
      <trkpt lat="49.22644" lon="1.30195">
        <ele>11.679131</ele>
        <time>2015-08-13T12:30:02Z</time>
      </trkpt>
      <trkpt lat="49.2264" lon="1.3018">
        <ele>11.936263</ele>
        <time>2015-08-13T12:30:12Z</time>
      </trkpt>
      <trkpt lat="49.22638" lon="1.3017">
        <ele>11.936263</ele>
        <time>2015-08-13T12:30:17Z</time>
      </trkpt>
      <trkpt lat="49.22633" lon="1.30149">
        <ele>12.267584</ele>
        <time>2015-08-13T12:30:32Z</time>
      </trkpt>
      <trkpt lat="49.22629" lon="1.30138">
        <ele>12.267584</ele>
        <time>2015-08-13T12:30:37Z</time>
      </trkpt>
      <trkpt lat="49.22625" lon="1.30123">
        <ele>12.652224</ele>
        <time>2015-08-13T12:30:47Z</time>
      </trkpt>
      <trkpt lat="49.22624" lon="1.30117">
        <ele>12.652224</ele>
        <time>2015-08-13T12:30:52Z</time>
      </trkpt>
      <trkpt lat="49.2262" lon="1.30101">
        <ele>13.04186</ele>
        <time>2015-08-13T12:31:02Z</time>
      </trkpt>
      <trkpt lat="49.22617" lon="1.30092">
        <ele>13.04186</ele>
        <time>2015-08-13T12:31:07Z</time>
      </trkpt>
      <trkpt lat="49.22611" lon="1.30074">
        <ele>13.34847</ele>
        <time>2015-08-13T12:31:17Z</time>
      </trkpt>
      <trkpt lat="49.22609" lon="1.30066">
        <ele>13.34847</ele>
        <time>2015-08-13T12:31:22Z</time>
      </trkpt>
      <trkpt lat="49.22605" lon="1.30049">
        <ele>13.591602</ele>
        <time>2015-08-13T12:31:32Z</time>
      </trkpt>
      <trkpt lat="49.22603" lon="1.30042">
        <ele>13.591602</ele>
        <time>2015-08-13T12:31:37Z</time>
      </trkpt>
      <trkpt lat="49.22597" lon="1.30028">
        <ele>13.818372</ele>
        <time>2015-08-13T12:31:47Z</time>
      </trkpt>
      <trkpt lat="49.22595" lon="1.30018">
        <ele>13.818372</ele>
        <time>2015-08-13T12:31:52Z</time>
      </trkpt>
      <trkpt lat="49.2259" lon="1.29998">
        <ele>14.130125</ele>
        <time>2015-08-13T12:32:02Z</time>
      </trkpt>
      <trkpt lat="49.22588" lon="1.29992">
        <ele>14.130125</ele>
        <time>2015-08-13T12:32:07Z</time>
      </trkpt>
      <trkpt lat="49.22581" lon="1.29973">
        <ele>14.462008</ele>
        <time>2015-08-13T12:32:17Z</time>
      </trkpt>
      <trkpt lat="49.22579" lon="1.29967">
        <ele>14.462008</ele>
        <time>2015-08-13T12:32:22Z</time>
      </trkpt>
      <trkpt lat="49.22576" lon="1.29965">
        <ele>14.462008</ele>
        <time>2015-08-13T12:32:32Z</time>
      </trkpt>
      <trkpt lat="49.22573" lon="1.29959">
        <ele>14.725061</ele>
        <time>2015-08-13T12:32:37Z</time>
      </trkpt>
      <trkpt lat="49.22569" lon="1.29943">
        <ele>14.952351</ele>
        <time>2015-08-13T12:32:47Z</time>
      </trkpt>
      <trkpt lat="49.22566" lon="1.29934">
        <ele>14.952351</ele>
        <time>2015-08-13T12:32:52Z</time>
      </trkpt>
      <trkpt lat="49.22562" lon="1.29922">
        <ele>15.145803</ele>
        <time>2015-08-13T12:33:02Z</time>
      </trkpt>
      <trkpt lat="49.22558" lon="1.29913">
        <ele>15.145803</ele>
        <time>2015-08-13T12:33:07Z</time>
      </trkpt>
      <trkpt lat="49.22551" lon="1.29886">
        <ele>15.206435</ele>
        <time>2015-08-13T12:33:22Z</time>
      </trkpt>
      <trkpt lat="49.22549" lon="1.29879">
        <ele>15.206435</ele>
        <time>2015-08-13T12:33:27Z</time>
      </trkpt>
      <trkpt lat="49.22543" lon="1.29862">
        <ele>15.259085</ele>
        <time>2015-08-13T12:33:37Z</time>
      </trkpt>
      <trkpt lat="49.2254" lon="1.29854">
        <ele>15.259085</ele>
        <time>2015-08-13T12:33:42Z</time>
      </trkpt>
      <trkpt lat="49.22534" lon="1.29837">
        <ele>15.376222</ele>
        <time>2015-08-13T12:33:52Z</time>
      </trkpt>
      <trkpt lat="49.22531" lon="1.29829">
        <ele>15.376222</ele>
        <time>2015-08-13T12:33:57Z</time>
      </trkpt>
      <trkpt lat="49.22527" lon="1.2982">
        <ele>15.451895</ele>
        <time>2015-08-13T12:34:07Z</time>
      </trkpt>
      <trkpt lat="49.22529" lon="1.2982">
        <ele>15.451895</ele>
        <time>2015-08-13T12:34:12Z</time>
      </trkpt>
      <trkpt lat="49.22528" lon="1.29822">
        <ele>15.451895</ele>
        <time>2015-08-13T12:34:22Z</time>
      </trkpt>
      <trkpt lat="49.22529" lon="1.29825">
        <ele>15.451895</ele>
        <time>2015-08-13T12:34:27Z</time>
      </trkpt>
      <trkpt lat="49.22528" lon="1.29825">
        <ele>15.451895</ele>
        <time>2015-08-13T12:34:32Z</time>
      </trkpt>
      <trkpt lat="49.22529" lon="1.29827">
        <ele>15.451895</ele>
        <time>2015-08-13T12:34:37Z</time>
      </trkpt>
      <trkpt lat="49.22529" lon="1.29827">
        <ele>15.451895</ele>
        <time>2015-08-13T12:34:42Z</time>
      </trkpt>
      <trkpt lat="49.22529" lon="1.29827">
        <ele>15.451895</ele>
        <time>2015-08-13T12:34:47Z</time>
      </trkpt>
      <trkpt lat="49.22529" lon="1.29827">
        <ele>15.451895</ele>
        <time>2015-08-13T12:34:52Z</time>
      </trkpt>
      <trkpt lat="49.22529" lon="1.29826">
        <ele>15.451895</ele>
        <time>2015-08-13T12:34:57Z</time>
      </trkpt>
      <trkpt lat="49.22528" lon="1.29823">
        <ele>15.301593</ele>
        <time>2015-08-13T12:35:02Z</time>
      </trkpt>
      <trkpt lat="49.22526" lon="1.29821">
        <ele>15.301593</ele>
        <time>2015-08-13T12:35:07Z</time>
      </trkpt>
      <trkpt lat="49.22525" lon="1.29821">
        <ele>15.301593</ele>
        <time>2015-08-13T12:35:12Z</time>
      </trkpt>
      <trkpt lat="49.22525" lon="1.2982">
        <ele>15.301593</ele>
        <time>2015-08-13T12:35:17Z</time>
      </trkpt>
      <trkpt lat="49.22526" lon="1.29819">
        <ele>15.301593</ele>
        <time>2015-08-13T12:35:22Z</time>
      </trkpt>
      <trkpt lat="49.22526" lon="1.29818">
        <ele>15.301593</ele>
        <time>2015-08-13T12:35:27Z</time>
      </trkpt>
      <trkpt lat="49.22526" lon="1.29817">
        <ele>15.301593</ele>
        <time>2015-08-13T12:35:32Z</time>
      </trkpt>
      <trkpt lat="49.22526" lon="1.29817">
        <ele>15.301593</ele>
        <time>2015-08-13T12:35:37Z</time>
      </trkpt>
      <trkpt lat="49.22526" lon="1.29817">
        <ele>15.301593</ele>
        <time>2015-08-13T12:35:42Z</time>
      </trkpt>
      <trkpt lat="49.22526" lon="1.29818">
        <ele>15.301593</ele>
        <time>2015-08-13T12:35:57Z</time>
      </trkpt>
      <trkpt lat="49.22524" lon="1.29818">
        <ele>14.899119</ele>
        <time>2015-08-13T12:36:02Z</time>
      </trkpt>
      <trkpt lat="49.22524" lon="1.29818">
        <ele>14.899119</ele>
        <time>2015-08-13T12:36:07Z</time>
      </trkpt>
      <trkpt lat="49.22527" lon="1.29821">
        <ele>14.899119</ele>
        <time>2015-08-13T12:36:12Z</time>
      </trkpt>
      <trkpt lat="49.2253" lon="1.2983">
        <ele>14.480317</ele>
        <time>2015-08-13T12:36:17Z</time>
      </trkpt>
      <trkpt lat="49.22533" lon="1.29835">
        <ele>14.480317</ele>
        <time>2015-08-13T12:36:22Z</time>
      </trkpt>
      <trkpt lat="49.22537" lon="1.29854">
        <ele>14.306988</ele>
        <time>2015-08-13T12:36:32Z</time>
      </trkpt>
      <trkpt lat="49.22538" lon="1.29857">
        <ele>14.306988</ele>
        <time>2015-08-13T12:36:37Z</time>
      </trkpt>
      <trkpt lat="49.22538" lon="1.29857">
        <ele>14.306988</ele>
        <time>2015-08-13T12:36:42Z</time>
      </trkpt>
      <trkpt lat="49.22538" lon="1.29857">
        <ele>14.306988</ele>
        <time>2015-08-13T12:36:57Z</time>
      </trkpt>
      <trkpt lat="49.22541" lon="1.29859">
        <ele>14.306988</ele>
        <time>2015-08-13T12:37:02Z</time>
      </trkpt>
      <trkpt lat="49.22542" lon="1.29863">
        <ele>14.306988</ele>
        <time>2015-08-13T12:37:07Z</time>
      </trkpt>
      <trkpt lat="49.22544" lon="1.29873">
        <ele>14.116629</ele>
        <time>2015-08-13T12:37:12Z</time>
      </trkpt>
      <trkpt lat="49.22546" lon="1.29881">
        <ele>14.116629</ele>
        <time>2015-08-13T12:37:17Z</time>
      </trkpt>
      <trkpt lat="49.22552" lon="1.29899">
        <ele>13.997525</ele>
        <time>2015-08-13T12:37:27Z</time>
      </trkpt>
      <trkpt lat="49.22556" lon="1.29907">
        <ele>13.997525</ele>
        <time>2015-08-13T12:37:32Z</time>
      </trkpt>
      <trkpt lat="49.22561" lon="1.29924">
        <ele>13.872753</ele>
        <time>2015-08-13T12:37:42Z</time>
      </trkpt>
      <trkpt lat="49.22563" lon="1.29933">
        <ele>13.872753</ele>
        <time>2015-08-13T12:37:47Z</time>
      </trkpt>
      <trkpt lat="49.22569" lon="1.29949">
        <ele>13.757518</ele>
        <time>2015-08-13T12:37:57Z</time>
      </trkpt>
      <trkpt lat="49.22572" lon="1.29958">
        <ele>13.757518</ele>
        <time>2015-08-13T12:38:02Z</time>
      </trkpt>
      <trkpt lat="49.22572" lon="1.29972">
        <ele>13.665881</ele>
        <time>2015-08-13T12:38:12Z</time>
      </trkpt>
      <trkpt lat="49.2257" lon="1.29975">
        <ele>13.665881</ele>
        <time>2015-08-13T12:38:17Z</time>
      </trkpt>
      <trkpt lat="49.22563" lon="1.29979">
        <ele>13.567565</ele>
        <time>2015-08-13T12:38:27Z</time>
      </trkpt>
      <trkpt lat="49.22558" lon="1.29983">
        <ele>13.567565</ele>
        <time>2015-08-13T12:38:32Z</time>
      </trkpt>
      <trkpt lat="49.22552" lon="1.29988">
        <ele>13.448942</ele>
        <time>2015-08-13T12:38:37Z</time>
      </trkpt>
      <trkpt lat="49.22546" lon="1.29991">
        <ele>13.448942</ele>
        <time>2015-08-13T12:38:42Z</time>
      </trkpt>
      <trkpt lat="49.22541" lon="1.29994">
        <ele>13.311851</ele>
        <time>2015-08-13T12:38:47Z</time>
      </trkpt>
      <trkpt lat="49.22536" lon="1.29996">
        <ele>13.311851</ele>
        <time>2015-08-13T12:38:52Z</time>
      </trkpt>
      <trkpt lat="49.22532" lon="1.29999">
        <ele>13.085979</ele>
        <time>2015-08-13T12:38:57Z</time>
      </trkpt>
      <trkpt lat="49.22527" lon="1.30002">
        <ele>13.085979</ele>
        <time>2015-08-13T12:39:02Z</time>
      </trkpt>
      <trkpt lat="49.22523" lon="1.30006">
        <ele>12.749661</ele>
        <time>2015-08-13T12:39:07Z</time>
      </trkpt>
      <trkpt lat="49.22515" lon="1.30012">
        <ele>12.749661</ele>
        <time>2015-08-13T12:39:12Z</time>
      </trkpt>
      <trkpt lat="49.2251" lon="1.30018">
        <ele>12.239887</ele>
        <time>2015-08-13T12:39:17Z</time>
      </trkpt>
      <trkpt lat="49.22506" lon="1.30024">
        <ele>12.239887</ele>
        <time>2015-08-13T12:39:22Z</time>
      </trkpt>
      <trkpt lat="49.22503" lon="1.30033">
        <ele>11.729329</ele>
        <time>2015-08-13T12:39:27Z</time>
      </trkpt>
      <trkpt lat="49.22502" lon="1.30043">
        <ele>11.729329</ele>
        <time>2015-08-13T12:39:32Z</time>
      </trkpt>
      <trkpt lat="49.22491" lon="1.30054">
        <ele>11.248265</ele>
        <time>2015-08-13T12:39:42Z</time>
      </trkpt>
      <trkpt lat="49.22487" lon="1.30056">
        <ele>11.248265</ele>
        <time>2015-08-13T12:39:47Z</time>
      </trkpt>
      <trkpt lat="49.22473" lon="1.30066">
        <ele>10.839059</ele>
        <time>2015-08-13T12:39:57Z</time>
      </trkpt>
      <trkpt lat="49.22468" lon="1.30068">
        <ele>10.839059</ele>
        <time>2015-08-13T12:40:02Z</time>
      </trkpt>
      <trkpt lat="49.22455" lon="1.30075">
        <ele>10.526332</ele>
        <time>2015-08-13T12:40:12Z</time>
      </trkpt>
      <trkpt lat="49.22449" lon="1.30078">
        <ele>10.526332</ele>
        <time>2015-08-13T12:40:17Z</time>
      </trkpt>
      <trkpt lat="49.22437" lon="1.30086">
        <ele>10.40466</ele>
        <time>2015-08-13T12:40:27Z</time>
      </trkpt>
      <trkpt lat="49.2243" lon="1.3009">
        <ele>10.40466</ele>
        <time>2015-08-13T12:40:32Z</time>
      </trkpt>
      <trkpt lat="49.22417" lon="1.30101">
        <ele>10.474651</ele>
        <time>2015-08-13T12:40:42Z</time>
      </trkpt>
      <trkpt lat="49.22412" lon="1.30103">
        <ele>10.474651</ele>
        <time>2015-08-13T12:40:47Z</time>
      </trkpt>
      <trkpt lat="49.224" lon="1.3011">
        <ele>10.76513</ele>
        <time>2015-08-13T12:40:57Z</time>
      </trkpt>
      <trkpt lat="49.22393" lon="1.30114">
        <ele>10.76513</ele>
        <time>2015-08-13T12:41:02Z</time>
      </trkpt>
      <trkpt lat="49.22375" lon="1.30124">
        <ele>11.316582</ele>
        <time>2015-08-13T12:41:17Z</time>
      </trkpt>
      <trkpt lat="49.2237" lon="1.30128">
        <ele>11.316582</ele>
        <time>2015-08-13T12:41:22Z</time>
      </trkpt>
      <trkpt lat="49.22364" lon="1.3013">
        <ele>11.891961</ele>
        <time>2015-08-13T12:41:32Z</time>
      </trkpt>
      <trkpt lat="49.22364" lon="1.3013">
        <ele>11.891961</ele>
        <time>2015-08-13T12:41:37Z</time>
      </trkpt>
      <trkpt lat="49.22363" lon="1.30132">
        <ele>11.891961</ele>
        <time>2015-08-13T12:41:42Z</time>
      </trkpt>
      <trkpt lat="49.2236" lon="1.30126">
        <ele>11.891961</ele>
        <time>2015-08-13T12:41:47Z</time>
      </trkpt>
      <trkpt lat="49.22356" lon="1.30118">
        <ele>12.055393</ele>
        <time>2015-08-13T12:41:52Z</time>
      </trkpt>
      <trkpt lat="49.22354" lon="1.30109">
        <ele>12.055393</ele>
        <time>2015-08-13T12:41:57Z</time>
      </trkpt>
      <trkpt lat="49.22348" lon="1.30092">
        <ele>12.052675</ele>
        <time>2015-08-13T12:42:07Z</time>
      </trkpt>
      <trkpt lat="49.22344" lon="1.30082">
        <ele>12.052675</ele>
        <time>2015-08-13T12:42:12Z</time>
      </trkpt>
      <trkpt lat="49.22339" lon="1.30066">
        <ele>12.083188</ele>
        <time>2015-08-13T12:42:22Z</time>
      </trkpt>
      <trkpt lat="49.22337" lon="1.30058">
        <ele>12.083188</ele>
        <time>2015-08-13T12:42:27Z</time>
      </trkpt>
      <trkpt lat="49.22333" lon="1.3004">
        <ele>12.014531</ele>
        <time>2015-08-13T12:42:37Z</time>
      </trkpt>
      <trkpt lat="49.2233" lon="1.3003">
        <ele>12.014531</ele>
        <time>2015-08-13T12:42:42Z</time>
      </trkpt>
      <trkpt lat="49.22325" lon="1.30003">
        <ele>12.041352</ele>
        <time>2015-08-13T12:42:57Z</time>
      </trkpt>
      <trkpt lat="49.22324" lon="1.29995">
        <ele>12.041352</ele>
        <time>2015-08-13T12:43:02Z</time>
      </trkpt>
      <trkpt lat="49.2232" lon="1.29975">
        <ele>12.026691</ele>
        <time>2015-08-13T12:43:12Z</time>
      </trkpt>
      <trkpt lat="49.22318" lon="1.29965">
        <ele>12.026691</ele>
        <time>2015-08-13T12:43:17Z</time>
      </trkpt>
      <trkpt lat="49.22315" lon="1.29947">
        <ele>12.0167</ele>
        <time>2015-08-13T12:43:27Z</time>
      </trkpt>
      <trkpt lat="49.22314" lon="1.2994">
        <ele>12.0167</ele>
        <time>2015-08-13T12:43:32Z</time>
      </trkpt>
      <trkpt lat="49.22312" lon="1.29923">
        <ele>11.967661</ele>
        <time>2015-08-13T12:43:42Z</time>
      </trkpt>
      <trkpt lat="49.22312" lon="1.29917">
        <ele>11.967661</ele>
        <time>2015-08-13T12:43:47Z</time>
      </trkpt>
      <trkpt lat="49.22311" lon="1.29897">
        <ele>11.795947</ele>
        <time>2015-08-13T12:43:57Z</time>
      </trkpt>
      <trkpt lat="49.22311" lon="1.2989">
        <ele>11.795947</ele>
        <time>2015-08-13T12:44:02Z</time>
      </trkpt>
      <trkpt lat="49.22309" lon="1.29868">
        <ele>11.482064</ele>
        <time>2015-08-13T12:44:12Z</time>
      </trkpt>
      <trkpt lat="49.22306" lon="1.29858">
        <ele>11.482064</ele>
        <time>2015-08-13T12:44:17Z</time>
      </trkpt>
      <trkpt lat="49.22305" lon="1.29843">
        <ele>11.037173</ele>
        <time>2015-08-13T12:44:27Z</time>
      </trkpt>
      <trkpt lat="49.22304" lon="1.29833">
        <ele>11.037173</ele>
        <time>2015-08-13T12:44:32Z</time>
      </trkpt>
      <trkpt lat="49.223" lon="1.29797">
        <ele>10.414334</ele>
        <time>2015-08-13T12:44:47Z</time>
      </trkpt>
      <trkpt lat="49.22299" lon="1.29788">
        <ele>10.414334</ele>
        <time>2015-08-13T12:44:52Z</time>
      </trkpt>
      <trkpt lat="49.223" lon="1.29772">
        <ele>9.743484</ele>
        <time>2015-08-13T12:45:02Z</time>
      </trkpt>
      <trkpt lat="49.22299" lon="1.29762">
        <ele>9.743484</ele>
        <time>2015-08-13T12:45:07Z</time>
      </trkpt>
      <trkpt lat="49.22301" lon="1.29751">
        <ele>9.246015</ele>
        <time>2015-08-13T12:45:17Z</time>
      </trkpt>
      <trkpt lat="49.223" lon="1.29743">
        <ele>9.246015</ele>
        <time>2015-08-13T12:45:22Z</time>
      </trkpt>
      <trkpt lat="49.22299" lon="1.29726">
        <ele>8.96804</ele>
        <time>2015-08-13T12:45:32Z</time>
      </trkpt>
      <trkpt lat="49.22298" lon="1.29716">
        <ele>8.96804</ele>
        <time>2015-08-13T12:45:37Z</time>
      </trkpt>
      <trkpt lat="49.22294" lon="1.29699">
        <ele>8.966065</ele>
        <time>2015-08-13T12:45:47Z</time>
      </trkpt>
      <trkpt lat="49.22294" lon="1.29692">
        <ele>8.966065</ele>
        <time>2015-08-13T12:45:52Z</time>
      </trkpt>
      <trkpt lat="49.2229" lon="1.29678">
        <ele>9.061077</ele>
        <time>2015-08-13T12:46:02Z</time>
      </trkpt>
      <trkpt lat="49.22288" lon="1.29671">
        <ele>9.061077</ele>
        <time>2015-08-13T12:46:07Z</time>
      </trkpt>
      <trkpt lat="49.22286" lon="1.2966">
        <ele>9.25986</ele>
        <time>2015-08-13T12:46:17Z</time>
      </trkpt>
      <trkpt lat="49.22282" lon="1.29648">
        <ele>9.25986</ele>
        <time>2015-08-13T12:46:22Z</time>
      </trkpt>
      <trkpt lat="49.22277" lon="1.29632">
        <ele>9.481935</ele>
        <time>2015-08-13T12:46:32Z</time>
      </trkpt>
      <trkpt lat="49.22275" lon="1.2962">
        <ele>9.481935</ele>
        <time>2015-08-13T12:46:37Z</time>
      </trkpt>
      <trkpt lat="49.22274" lon="1.29598">
        <ele>9.767943</ele>
        <time>2015-08-13T12:46:47Z</time>
      </trkpt>
      <trkpt lat="49.22274" lon="1.2959">
        <ele>9.767943</ele>
        <time>2015-08-13T12:46:52Z</time>
      </trkpt>
      <trkpt lat="49.22268" lon="1.29574">
        <ele>10.270653</ele>
        <time>2015-08-13T12:47:02Z</time>
      </trkpt>
      <trkpt lat="49.22266" lon="1.29566">
        <ele>10.270653</ele>
        <time>2015-08-13T12:47:07Z</time>
      </trkpt>
      <trkpt lat="49.22258" lon="1.29541">
        <ele>10.943652</ele>
        <time>2015-08-13T12:47:22Z</time>
      </trkpt>
      <trkpt lat="49.22255" lon="1.2953">
        <ele>10.943652</ele>
        <time>2015-08-13T12:47:27Z</time>
      </trkpt>
      <trkpt lat="49.22249" lon="1.29516">
        <ele>11.657001</ele>
        <time>2015-08-13T12:47:37Z</time>
      </trkpt>
      <trkpt lat="49.22248" lon="1.29514">
        <ele>11.657001</ele>
        <time>2015-08-13T12:47:42Z</time>
      </trkpt>
      <trkpt lat="49.22242" lon="1.29503">
        <ele>12.2181425</ele>
        <time>2015-08-13T12:47:52Z</time>
      </trkpt>
      <trkpt lat="49.22238" lon="1.29493">
        <ele>12.2181425</ele>
        <time>2015-08-13T12:47:57Z</time>
      </trkpt>
      <trkpt lat="49.22237" lon="1.29482">
        <ele>12.6508665</ele>
        <time>2015-08-13T12:48:07Z</time>
      </trkpt>
      <trkpt lat="49.22234" lon="1.29478">
        <ele>12.6508665</ele>
        <time>2015-08-13T12:48:12Z</time>
      </trkpt>
      <trkpt lat="49.22229" lon="1.29457">
        <ele>12.977591</ele>
        <time>2015-08-13T12:48:22Z</time>
      </trkpt>
      <trkpt lat="49.22227" lon="1.29446">
        <ele>12.977591</ele>
        <time>2015-08-13T12:48:27Z</time>
      </trkpt>
      <trkpt lat="49.22223" lon="1.29435">
        <ele>13.219407</ele>
        <time>2015-08-13T12:48:37Z</time>
      </trkpt>
      <trkpt lat="49.22219" lon="1.29423">
        <ele>13.439353</ele>
        <time>2015-08-13T12:48:42Z</time>
      </trkpt>
      <trkpt lat="49.22211" lon="1.29408">
        <ele>13.623866</ele>
        <time>2015-08-13T12:48:52Z</time>
      </trkpt>
      <trkpt lat="49.22208" lon="1.294">
        <ele>13.623866</ele>
        <time>2015-08-13T12:48:57Z</time>
      </trkpt>
      <trkpt lat="49.22204" lon="1.29386">
        <ele>13.890204</ele>
        <time>2015-08-13T12:49:07Z</time>
      </trkpt>
      <trkpt lat="49.22201" lon="1.29378">
        <ele>13.890204</ele>
        <time>2015-08-13T12:49:12Z</time>
      </trkpt>
      <trkpt lat="49.22194" lon="1.29359">
        <ele>14.188287</ele>
        <time>2015-08-13T12:49:22Z</time>
      </trkpt>
      <trkpt lat="49.22192" lon="1.29352">
        <ele>14.188287</ele>
        <time>2015-08-13T12:49:27Z</time>
      </trkpt>
      <trkpt lat="49.22186" lon="1.29336">
        <ele>14.428414</ele>
        <time>2015-08-13T12:49:37Z</time>
      </trkpt>
      <trkpt lat="49.22182" lon="1.29327">
        <ele>14.428414</ele>
        <time>2015-08-13T12:49:42Z</time>
      </trkpt>
      <trkpt lat="49.22178" lon="1.29306">
        <ele>14.729424</ele>
        <time>2015-08-13T12:49:57Z</time>
      </trkpt>
      <trkpt lat="49.22174" lon="1.293">
        <ele>14.729424</ele>
        <time>2015-08-13T12:50:02Z</time>
      </trkpt>
      <trkpt lat="49.22162" lon="1.29285">
        <ele>14.8842325</ele>
        <time>2015-08-13T12:50:12Z</time>
      </trkpt>
      <trkpt lat="49.22158" lon="1.29274">
        <ele>14.8842325</ele>
        <time>2015-08-13T12:50:17Z</time>
      </trkpt>
      <trkpt lat="49.22151" lon="1.2926">
        <ele>15.0905075</ele>
        <time>2015-08-13T12:50:27Z</time>
      </trkpt>
      <trkpt lat="49.22148" lon="1.29247">
        <ele>15.0905075</ele>
        <time>2015-08-13T12:50:32Z</time>
      </trkpt>
      <trkpt lat="49.22143" lon="1.29233">
        <ele>15.372754</ele>
        <time>2015-08-13T12:50:42Z</time>
      </trkpt>
      <trkpt lat="49.2214" lon="1.29228">
        <ele>15.372754</ele>
        <time>2015-08-13T12:50:47Z</time>
      </trkpt>
      <trkpt lat="49.22133" lon="1.29209">
        <ele>15.638204</ele>
        <time>2015-08-13T12:50:57Z</time>
      </trkpt>
      <trkpt lat="49.22129" lon="1.29206">
        <ele>15.638204</ele>
        <time>2015-08-13T12:51:02Z</time>
      </trkpt>
      <trkpt lat="49.22121" lon="1.29193">
        <ele>15.800976</ele>
        <time>2015-08-13T12:51:12Z</time>
      </trkpt>
      <trkpt lat="49.22118" lon="1.29186">
        <ele>15.800976</ele>
        <time>2015-08-13T12:51:17Z</time>
      </trkpt>
      <trkpt lat="49.22109" lon="1.29172">
        <ele>16.055624</ele>
        <time>2015-08-13T12:51:27Z</time>
      </trkpt>
      <trkpt lat="49.22104" lon="1.29162">
        <ele>16.055624</ele>
        <time>2015-08-13T12:51:32Z</time>
      </trkpt>
      <trkpt lat="49.22096" lon="1.29145">
        <ele>16.52453</ele>
        <time>2015-08-13T12:51:47Z</time>
      </trkpt>
      <trkpt lat="49.22091" lon="1.29138">
        <ele>16.52453</ele>
        <time>2015-08-13T12:51:52Z</time>
      </trkpt>
      <trkpt lat="49.22083" lon="1.29121">
        <ele>16.873774</ele>
        <time>2015-08-13T12:52:02Z</time>
      </trkpt>
      <trkpt lat="49.2208" lon="1.29116">
        <ele>16.873774</ele>
        <time>2015-08-13T12:52:07Z</time>
      </trkpt>
      <trkpt lat="49.22073" lon="1.29104">
        <ele>17.125774</ele>
        <time>2015-08-13T12:52:17Z</time>
      </trkpt>
      <trkpt lat="49.2207" lon="1.29098">
        <ele>17.125774</ele>
        <time>2015-08-13T12:52:22Z</time>
      </trkpt>
      <trkpt lat="49.22062" lon="1.29079">
        <ele>17.344841</ele>
        <time>2015-08-13T12:52:32Z</time>
      </trkpt>
      <trkpt lat="49.22059" lon="1.2907">
        <ele>17.344841</ele>
        <time>2015-08-13T12:52:37Z</time>
      </trkpt>
      <trkpt lat="49.22051" lon="1.29057">
        <ele>17.54744</ele>
        <time>2015-08-13T12:52:47Z</time>
      </trkpt>
      <trkpt lat="49.22047" lon="1.29049">
        <ele>17.54744</ele>
        <time>2015-08-13T12:52:52Z</time>
      </trkpt>
      <trkpt lat="49.22045" lon="1.29043">
        <ele>17.691261</ele>
        <time>2015-08-13T12:53:02Z</time>
      </trkpt>
      <trkpt lat="49.22042" lon="1.29036">
        <ele>17.691261</ele>
        <time>2015-08-13T12:53:07Z</time>
      </trkpt>
      <trkpt lat="49.22036" lon="1.29022">
        <ele>17.722874</ele>
        <time>2015-08-13T12:53:17Z</time>
      </trkpt>
      <trkpt lat="49.22032" lon="1.29013">
        <ele>17.722874</ele>
        <time>2015-08-13T12:53:22Z</time>
      </trkpt>
      <trkpt lat="49.22026" lon="1.29">
        <ele>17.665169</ele>
        <time>2015-08-13T12:53:32Z</time>
      </trkpt>
      <trkpt lat="49.22023" lon="1.28992">
        <ele>17.665169</ele>
        <time>2015-08-13T12:53:37Z</time>
      </trkpt>
      <trkpt lat="49.22017" lon="1.28975">
        <ele>17.654913</ele>
        <time>2015-08-13T12:53:47Z</time>
      </trkpt>
      <trkpt lat="49.22014" lon="1.28966">
        <ele>17.654913</ele>
        <time>2015-08-13T12:53:52Z</time>
      </trkpt>
      <trkpt lat="49.2201" lon="1.2896">
        <ele>17.602545</ele>
        <time>2015-08-13T12:54:02Z</time>
      </trkpt>
      <trkpt lat="49.22008" lon="1.28951">
        <ele>17.602545</ele>
        <time>2015-08-13T12:54:07Z</time>
      </trkpt>
      <trkpt lat="49.21999" lon="1.28929">
        <ele>17.554914</ele>
        <time>2015-08-13T12:54:22Z</time>
      </trkpt>
      <trkpt lat="49.21996" lon="1.28922">
        <ele>17.554914</ele>
        <time>2015-08-13T12:54:27Z</time>
      </trkpt>
      <trkpt lat="49.21989" lon="1.28906">
        <ele>17.454552</ele>
        <time>2015-08-13T12:54:37Z</time>
      </trkpt>
      <trkpt lat="49.21987" lon="1.28901">
        <ele>17.454552</ele>
        <time>2015-08-13T12:54:42Z</time>
      </trkpt>
      <trkpt lat="49.21979" lon="1.28885">
        <ele>17.291597</ele>
        <time>2015-08-13T12:54:52Z</time>
      </trkpt>
      <trkpt lat="49.21977" lon="1.28877">
        <ele>17.291597</ele>
        <time>2015-08-13T12:54:57Z</time>
      </trkpt>
      <trkpt lat="49.21972" lon="1.28866">
        <ele>17.085924</ele>
        <time>2015-08-13T12:55:07Z</time>
      </trkpt>
      <trkpt lat="49.21968" lon="1.28858">
        <ele>17.085924</ele>
        <time>2015-08-13T12:55:12Z</time>
      </trkpt>
      <trkpt lat="49.21964" lon="1.28848">
        <ele>16.827242</ele>
        <time>2015-08-13T12:55:22Z</time>
      </trkpt>
      <trkpt lat="49.21961" lon="1.28842">
        <ele>16.827242</ele>
        <time>2015-08-13T12:55:27Z</time>
      </trkpt>
      <trkpt lat="49.21955" lon="1.28824">
        <ele>16.462933</ele>
        <time>2015-08-13T12:55:37Z</time>
      </trkpt>
      <trkpt lat="49.21953" lon="1.28815">
        <ele>16.462933</ele>
        <time>2015-08-13T12:55:42Z</time>
      </trkpt>
      <trkpt lat="49.21943" lon="1.28803">
        <ele>16.016598</ele>
        <time>2015-08-13T12:55:52Z</time>
      </trkpt>
      <trkpt lat="49.21939" lon="1.28798">
        <ele>16.016598</ele>
        <time>2015-08-13T12:55:57Z</time>
      </trkpt>
      <trkpt lat="49.21928" lon="1.28787">
        <ele>15.481496</ele>
        <time>2015-08-13T12:56:07Z</time>
      </trkpt>
      <trkpt lat="49.21923" lon="1.28784">
        <ele>15.481496</ele>
        <time>2015-08-13T12:56:12Z</time>
      </trkpt>
      <trkpt lat="49.21917" lon="1.28773">
        <ele>15.038969</ele>
        <time>2015-08-13T12:56:22Z</time>
      </trkpt>
      <trkpt lat="49.21913" lon="1.28768">
        <ele>15.038969</ele>
        <time>2015-08-13T12:56:27Z</time>
      </trkpt>
      <trkpt lat="49.21909" lon="1.28761">
        <ele>14.885583</ele>
        <time>2015-08-13T12:56:37Z</time>
      </trkpt>
      <trkpt lat="49.21909" lon="1.28761">
        <ele>14.885583</ele>
        <time>2015-08-13T12:56:42Z</time>
      </trkpt>
      <trkpt lat="49.21907" lon="1.28766">
        <ele>14.885583</ele>
        <time>2015-08-13T12:56:57Z</time>
      </trkpt>
      <trkpt lat="49.21906" lon="1.28766">
        <ele>14.885583</ele>
        <time>2015-08-13T12:57:07Z</time>
      </trkpt>
      <trkpt lat="49.21906" lon="1.28767">
        <ele>14.885583</ele>
        <time>2015-08-13T12:57:12Z</time>
      </trkpt>
      <trkpt lat="49.21906" lon="1.28764">
        <ele>14.885583</ele>
        <time>2015-08-13T13:41:16Z</time>
      </trkpt>
      <trkpt lat="49.21906" lon="1.28764">
        <ele>14.885583</ele>
        <time>2015-08-13T13:41:21Z</time>
      </trkpt>
      <trkpt lat="49.21906" lon="1.28764">
        <ele>14.885583</ele>
        <time>2015-08-13T13:41:26Z</time>
      </trkpt>
      <trkpt lat="49.21917" lon="1.28761">
        <ele>13.588589</ele>
        <time>2015-08-13T13:42:06Z</time>
      </trkpt>
      <trkpt lat="49.21922" lon="1.28759">
        <ele>13.588589</ele>
        <time>2015-08-13T13:42:11Z</time>
      </trkpt>
      <trkpt lat="49.21922" lon="1.28752">
        <ele>12.7635355</ele>
        <time>2015-08-13T13:42:21Z</time>
      </trkpt>
      <trkpt lat="49.21922" lon="1.28749">
        <ele>12.7635355</ele>
        <time>2015-08-13T13:42:26Z</time>
      </trkpt>
      <trkpt lat="49.21918" lon="1.28743">
        <ele>12.7635355</ele>
        <time>2015-08-13T13:42:36Z</time>
      </trkpt>
      <trkpt lat="49.21912" lon="1.2874">
        <ele>12.0180855</ele>
        <time>2015-08-13T13:42:41Z</time>
      </trkpt>
      <trkpt lat="49.21899" lon="1.28729">
        <ele>11.377563</ele>
        <time>2015-08-13T13:42:51Z</time>
      </trkpt>
      <trkpt lat="49.21895" lon="1.2872">
        <ele>11.377563</ele>
        <time>2015-08-13T13:42:56Z</time>
      </trkpt>
      <trkpt lat="49.21886" lon="1.28706">
        <ele>11.0092125</ele>
        <time>2015-08-13T13:43:06Z</time>
      </trkpt>
      <trkpt lat="49.21881" lon="1.287">
        <ele>11.0092125</ele>
        <time>2015-08-13T13:43:11Z</time>
      </trkpt>
      <trkpt lat="49.21866" lon="1.28685">
        <ele>10.923071</ele>
        <time>2015-08-13T13:43:26Z</time>
      </trkpt>
      <trkpt lat="49.21861" lon="1.28679">
        <ele>10.923071</ele>
        <time>2015-08-13T13:43:31Z</time>
      </trkpt>
      <trkpt lat="49.21854" lon="1.28667">
        <ele>10.767328</ele>
        <time>2015-08-13T13:43:41Z</time>
      </trkpt>
      <trkpt lat="49.21848" lon="1.2866">
        <ele>10.767328</ele>
        <time>2015-08-13T13:43:46Z</time>
      </trkpt>
      <trkpt lat="49.2184" lon="1.28648">
        <ele>10.634095</ele>
        <time>2015-08-13T13:43:56Z</time>
      </trkpt>
      <trkpt lat="49.21835" lon="1.28643">
        <ele>10.634095</ele>
        <time>2015-08-13T13:44:01Z</time>
      </trkpt>
      <trkpt lat="49.21828" lon="1.28635">
        <ele>10.334798</ele>
        <time>2015-08-13T13:44:11Z</time>
      </trkpt>
      <trkpt lat="49.21822" lon="1.2863">
        <ele>10.334798</ele>
        <time>2015-08-13T13:44:16Z</time>
      </trkpt>
      <trkpt lat="49.21811" lon="1.28615">
        <ele>9.896898</ele>
        <time>2015-08-13T13:44:26Z</time>
      </trkpt>
      <trkpt lat="49.21806" lon="1.28608">
        <ele>9.896898</ele>
        <time>2015-08-13T13:44:31Z</time>
      </trkpt>
      <trkpt lat="49.21799" lon="1.28595">
        <ele>9.605592</ele>
        <time>2015-08-13T13:44:41Z</time>
      </trkpt>
      <trkpt lat="49.21793" lon="1.28589">
        <ele>9.605592</ele>
        <time>2015-08-13T13:44:46Z</time>
      </trkpt>
      <trkpt lat="49.21784" lon="1.28577">
        <ele>9.465271</ele>
        <time>2015-08-13T13:44:56Z</time>
      </trkpt>
      <trkpt lat="49.21782" lon="1.28571">
        <ele>9.465271</ele>
        <time>2015-08-13T13:45:01Z</time>
      </trkpt>
      <trkpt lat="49.21774" lon="1.28555">
        <ele>9.36426</ele>
        <time>2015-08-13T13:45:11Z</time>
      </trkpt>
      <trkpt lat="49.2177" lon="1.28549">
        <ele>9.36426</ele>
        <time>2015-08-13T13:45:16Z</time>
      </trkpt>
      <trkpt lat="49.2176" lon="1.28533">
        <ele>9.328637</ele>
        <time>2015-08-13T13:45:26Z</time>
      </trkpt>
      <trkpt lat="49.21757" lon="1.2853">
        <ele>9.328637</ele>
        <time>2015-08-13T13:45:31Z</time>
      </trkpt>
      <trkpt lat="49.21747" lon="1.28518">
        <ele>9.310295</ele>
        <time>2015-08-13T13:45:41Z</time>
      </trkpt>
      <trkpt lat="49.21743" lon="1.28513">
        <ele>9.310295</ele>
        <time>2015-08-13T13:45:46Z</time>
      </trkpt>
      <trkpt lat="49.21734" lon="1.28506">
        <ele>9.336633</ele>
        <time>2015-08-13T13:45:56Z</time>
      </trkpt>
      <trkpt lat="49.21728" lon="1.28499">
        <ele>9.336633</ele>
        <time>2015-08-13T13:46:01Z</time>
      </trkpt>
      <trkpt lat="49.21715" lon="1.28479">
        <ele>9.447299</ele>
        <time>2015-08-13T13:46:16Z</time>
      </trkpt>
      <trkpt lat="49.21709" lon="1.28471">
        <ele>9.447299</ele>
        <time>2015-08-13T13:46:21Z</time>
      </trkpt>
      <trkpt lat="49.21701" lon="1.2846">
        <ele>9.563476</ele>
        <time>2015-08-13T13:46:31Z</time>
      </trkpt>
      <trkpt lat="49.21695" lon="1.28454">
        <ele>9.563476</ele>
        <time>2015-08-13T13:46:36Z</time>
      </trkpt>
      <trkpt lat="49.21686" lon="1.28444">
        <ele>9.655333</ele>
        <time>2015-08-13T13:46:46Z</time>
      </trkpt>
      <trkpt lat="49.21682" lon="1.28439">
        <ele>9.655333</ele>
        <time>2015-08-13T13:46:51Z</time>
      </trkpt>
      <trkpt lat="49.21675" lon="1.28425">
        <ele>9.752925</ele>
        <time>2015-08-13T13:47:01Z</time>
      </trkpt>
      <trkpt lat="49.2167" lon="1.2842">
        <ele>9.752925</ele>
        <time>2015-08-13T13:47:06Z</time>
      </trkpt>
      <trkpt lat="49.21662" lon="1.28406">
        <ele>9.840835</ele>
        <time>2015-08-13T13:47:16Z</time>
      </trkpt>
      <trkpt lat="49.21657" lon="1.28401">
        <ele>9.840835</ele>
        <time>2015-08-13T13:47:21Z</time>
      </trkpt>
      <trkpt lat="49.21647" lon="1.28389">
        <ele>9.948027</ele>
        <time>2015-08-13T13:47:31Z</time>
      </trkpt>
      <trkpt lat="49.21644" lon="1.28385">
        <ele>9.948027</ele>
        <time>2015-08-13T13:47:36Z</time>
      </trkpt>
      <trkpt lat="49.21636" lon="1.28372">
        <ele>10.000394</ele>
        <time>2015-08-13T13:47:46Z</time>
      </trkpt>
      <trkpt lat="49.2163" lon="1.28363">
        <ele>10.000394</ele>
        <time>2015-08-13T13:47:51Z</time>
      </trkpt>
      <trkpt lat="49.21615" lon="1.28349">
        <ele>10.073532</ele>
        <time>2015-08-13T13:48:07Z</time>
      </trkpt>
      <trkpt lat="49.21611" lon="1.28345">
        <ele>10.073532</ele>
        <time>2015-08-13T13:48:11Z</time>
      </trkpt>
      <trkpt lat="49.21602" lon="1.28332">
        <ele>10.150955</ele>
        <time>2015-08-13T13:48:21Z</time>
      </trkpt>
      <trkpt lat="49.21601" lon="1.28331">
        <ele>10.150955</ele>
        <time>2015-08-13T13:48:27Z</time>
      </trkpt>
      <trkpt lat="49.2159" lon="1.28314">
        <ele>10.145316</ele>
        <time>2015-08-13T13:48:36Z</time>
      </trkpt>
      <trkpt lat="49.21584" lon="1.28311">
        <ele>10.145316</ele>
        <time>2015-08-13T13:48:41Z</time>
      </trkpt>
      <trkpt lat="49.21574" lon="1.28298">
        <ele>10.235315</ele>
        <time>2015-08-13T13:48:51Z</time>
      </trkpt>
      <trkpt lat="49.21569" lon="1.28292">
        <ele>10.235315</ele>
        <time>2015-08-13T13:48:56Z</time>
      </trkpt>
      <trkpt lat="49.21559" lon="1.28282">
        <ele>10.384505</ele>
        <time>2015-08-13T13:49:06Z</time>
      </trkpt>
      <trkpt lat="49.21558" lon="1.28281">
        <ele>10.384505</ele>
        <time>2015-08-13T13:49:11Z</time>
      </trkpt>
      <trkpt lat="49.2155" lon="1.28274">
        <ele>10.443661</ele>
        <time>2015-08-13T13:49:21Z</time>
      </trkpt>
      <trkpt lat="49.21545" lon="1.28266">
        <ele>10.443661</ele>
        <time>2015-08-13T13:49:26Z</time>
      </trkpt>
      <trkpt lat="49.21534" lon="1.28255">
        <ele>10.490943</ele>
        <time>2015-08-13T13:49:36Z</time>
      </trkpt>
      <trkpt lat="49.2153" lon="1.2825">
        <ele>10.490943</ele>
        <time>2015-08-13T13:49:41Z</time>
      </trkpt>
      <trkpt lat="49.2152" lon="1.2824">
        <ele>10.48352</ele>
        <time>2015-08-13T13:49:51Z</time>
      </trkpt>
      <trkpt lat="49.21515" lon="1.28233">
        <ele>10.48352</ele>
        <time>2015-08-13T13:49:56Z</time>
      </trkpt>
      <trkpt lat="49.21501" lon="1.28214">
        <ele>10.540388</ele>
        <time>2015-08-13T13:50:11Z</time>
      </trkpt>
      <trkpt lat="49.21496" lon="1.28208">
        <ele>10.540388</ele>
        <time>2015-08-13T13:50:17Z</time>
      </trkpt>
      <trkpt lat="49.21489" lon="1.28199">
        <ele>10.728396</ele>
        <time>2015-08-13T13:50:27Z</time>
      </trkpt>
      <trkpt lat="49.21486" lon="1.28196">
        <ele>10.728396</ele>
        <time>2015-08-13T13:50:31Z</time>
      </trkpt>
      <trkpt lat="49.21475" lon="1.28188">
        <ele>10.892959</ele>
        <time>2015-08-13T13:50:41Z</time>
      </trkpt>
      <trkpt lat="49.21472" lon="1.28184">
        <ele>10.892959</ele>
        <time>2015-08-13T13:50:46Z</time>
      </trkpt>
      <trkpt lat="49.21463" lon="1.28172">
        <ele>11.063849</ele>
        <time>2015-08-13T13:50:56Z</time>
      </trkpt>
      <trkpt lat="49.21459" lon="1.28165">
        <ele>11.063849</ele>
        <time>2015-08-13T13:51:01Z</time>
      </trkpt>
      <trkpt lat="49.21451" lon="1.28149">
        <ele>11.254241</ele>
        <time>2015-08-13T13:51:11Z</time>
      </trkpt>
      <trkpt lat="49.21446" lon="1.28143">
        <ele>11.254241</ele>
        <time>2015-08-13T13:51:16Z</time>
      </trkpt>
      <trkpt lat="49.21446" lon="1.28137">
        <ele>11.404241</ele>
        <time>2015-08-13T13:51:26Z</time>
      </trkpt>
      <trkpt lat="49.21449" lon="1.28131">
        <ele>11.404241</ele>
        <time>2015-08-13T13:51:31Z</time>
      </trkpt>
      <trkpt lat="49.21456" lon="1.28121">
        <ele>11.42966</ele>
        <time>2015-08-13T13:51:41Z</time>
      </trkpt>
      <trkpt lat="49.21459" lon="1.28118">
        <ele>11.42966</ele>
        <time>2015-08-13T13:51:46Z</time>
      </trkpt>
      <trkpt lat="49.21467" lon="1.28107">
        <ele>11.469026</ele>
        <time>2015-08-13T13:52:01Z</time>
      </trkpt>
      <trkpt lat="49.21469" lon="1.28103">
        <ele>11.469026</ele>
        <time>2015-08-13T13:52:06Z</time>
      </trkpt>
      <trkpt lat="49.21473" lon="1.28099">
        <ele>11.469026</ele>
        <time>2015-08-13T13:52:16Z</time>
      </trkpt>
      <trkpt lat="49.21476" lon="1.28095">
        <ele>11.679486</ele>
        <time>2015-08-13T13:52:21Z</time>
      </trkpt>
      <trkpt lat="49.21468" lon="1.2808">
        <ele>11.975604</ele>
        <time>2015-08-13T13:52:31Z</time>
      </trkpt>
      <trkpt lat="49.21463" lon="1.28074">
        <ele>11.975604</ele>
        <time>2015-08-13T13:52:36Z</time>
      </trkpt>
      <trkpt lat="49.21456" lon="1.28059">
        <ele>12.378875</ele>
        <time>2015-08-13T13:52:46Z</time>
      </trkpt>
      <trkpt lat="49.21452" lon="1.28054">
        <ele>12.378875</ele>
        <time>2015-08-13T13:52:51Z</time>
      </trkpt>
      <trkpt lat="49.21443" lon="1.28044">
        <ele>12.808052</ele>
        <time>2015-08-13T13:53:01Z</time>
      </trkpt>
      <trkpt lat="49.21438" lon="1.28037">
        <ele>12.808052</ele>
        <time>2015-08-13T13:53:06Z</time>
      </trkpt>
      <trkpt lat="49.21431" lon="1.28023">
        <ele>13.33192</ele>
        <time>2015-08-13T13:53:16Z</time>
      </trkpt>
      <trkpt lat="49.21428" lon="1.28013">
        <ele>13.33192</ele>
        <time>2015-08-13T13:53:21Z</time>
      </trkpt>
      <trkpt lat="49.21423" lon="1.28017">
        <ele>13.855443</ele>
        <time>2015-08-13T13:53:31Z</time>
      </trkpt>
      <trkpt lat="49.21428" lon="1.28027">
        <ele>13.855443</ele>
        <time>2015-08-13T13:53:36Z</time>
      </trkpt>
      <trkpt lat="49.21435" lon="1.28036">
        <ele>14.218542</ele>
        <time>2015-08-13T13:53:46Z</time>
      </trkpt>
      <trkpt lat="49.21435" lon="1.28034">
        <ele>14.218542</ele>
        <time>2015-08-13T13:53:51Z</time>
      </trkpt>
      <trkpt lat="49.21434" lon="1.28032">
        <ele>14.218542</ele>
        <time>2015-08-13T13:53:56Z</time>
      </trkpt>
      <trkpt lat="49.21434" lon="1.28033">
        <ele>14.218542</ele>
        <time>2015-08-13T13:54:01Z</time>
      </trkpt>
      <trkpt lat="49.21434" lon="1.28033">
        <ele>14.218542</ele>
        <time>2015-08-13T13:54:06Z</time>
      </trkpt>
      <trkpt lat="49.21433" lon="1.28033">
        <ele>14.218542</ele>
        <time>2015-08-13T13:54:11Z</time>
      </trkpt>
      <trkpt lat="49.21431" lon="1.28032">
        <ele>14.218542</ele>
        <time>2015-08-13T13:54:16Z</time>
      </trkpt>
      <trkpt lat="49.21429" lon="1.28035">
        <ele>14.3598385</ele>
        <time>2015-08-13T13:54:21Z</time>
      </trkpt>
      <trkpt lat="49.21426" lon="1.28038">
        <ele>14.3598385</ele>
        <time>2015-08-13T13:54:26Z</time>
      </trkpt>
      <trkpt lat="49.21415" lon="1.28049">
        <ele>14.468104</ele>
        <time>2015-08-13T13:54:36Z</time>
      </trkpt>
      <trkpt lat="49.21411" lon="1.28053">
        <ele>14.468104</ele>
        <time>2015-08-13T13:54:41Z</time>
      </trkpt>
      <trkpt lat="49.21401" lon="1.28061">
        <ele>14.559844</ele>
        <time>2015-08-13T13:54:51Z</time>
      </trkpt>
      <trkpt lat="49.21396" lon="1.28069">
        <ele>14.559844</ele>
        <time>2015-08-13T13:54:56Z</time>
      </trkpt>
      <trkpt lat="49.21386" lon="1.28077">
        <ele>14.636012</ele>
        <time>2015-08-13T13:55:06Z</time>
      </trkpt>
      <trkpt lat="49.21382" lon="1.28072">
        <ele>14.636012</ele>
        <time>2015-08-13T13:55:11Z</time>
      </trkpt>
      <trkpt lat="49.21375" lon="1.28059">
        <ele>14.625508</ele>
        <time>2015-08-13T13:55:21Z</time>
      </trkpt>
      <trkpt lat="49.21371" lon="1.28054">
        <ele>14.625508</ele>
        <time>2015-08-13T13:55:26Z</time>
      </trkpt>
      <trkpt lat="49.21363" lon="1.28044">
        <ele>14.505956</ele>
        <time>2015-08-13T13:55:37Z</time>
      </trkpt>
      <trkpt lat="49.21359" lon="1.2804">
        <ele>14.505956</ele>
        <time>2015-08-13T13:55:41Z</time>
      </trkpt>
      <trkpt lat="49.21349" lon="1.2803">
        <ele>14.256951</ele>
        <time>2015-08-13T13:55:51Z</time>
      </trkpt>
      <trkpt lat="49.2135" lon="1.28028">
        <ele>14.256951</ele>
        <time>2015-08-13T13:55:56Z</time>
      </trkpt>
      <trkpt lat="49.21348" lon="1.28026">
        <ele>14.256951</ele>
        <time>2015-08-13T13:56:06Z</time>
      </trkpt>
      <trkpt lat="49.21348" lon="1.28027">
        <ele>14.256951</ele>
        <time>2015-08-13T13:56:11Z</time>
      </trkpt>
      <trkpt lat="49.21341" lon="1.2802">
        <ele>13.744682</ele>
        <time>2015-08-13T13:56:26Z</time>
      </trkpt>
      <trkpt lat="49.21337" lon="1.28013">
        <ele>13.744682</ele>
        <time>2015-08-13T13:56:31Z</time>
      </trkpt>
      <trkpt lat="49.21337" lon="1.28014">
        <ele>13.744682</ele>
        <time>2015-08-13T13:56:41Z</time>
      </trkpt>
      <trkpt lat="49.21339" lon="1.28012">
        <ele>13.263843</ele>
        <time>2015-08-13T13:56:46Z</time>
      </trkpt>
      <trkpt lat="49.21339" lon="1.28012">
        <ele>13.263843</ele>
        <time>2015-08-13T13:56:56Z</time>
      </trkpt>
      <trkpt lat="49.2134" lon="1.28012">
        <ele>13.263843</ele>
        <time>2015-08-13T13:57:01Z</time>
      </trkpt>
      <trkpt lat="49.21345" lon="1.2802">
        <ele>13.263843</ele>
        <time>2015-08-13T13:57:11Z</time>
      </trkpt>
      <trkpt lat="49.21347" lon="1.28023">
        <ele>12.597422</ele>
        <time>2015-08-13T13:57:16Z</time>
      </trkpt>
      <trkpt lat="49.21348" lon="1.28024">
        <ele>12.597422</ele>
        <time>2015-08-13T13:57:26Z</time>
      </trkpt>
      <trkpt lat="49.21347" lon="1.28025">
        <ele>12.597422</ele>
        <time>2015-08-13T13:57:31Z</time>
      </trkpt>
      <trkpt lat="49.21348" lon="1.28028">
        <ele>12.597422</ele>
        <time>2015-08-13T13:57:41Z</time>
      </trkpt>
      <trkpt lat="49.21349" lon="1.28029">
        <ele>12.597422</ele>
        <time>2015-08-13T13:57:46Z</time>
      </trkpt>
      <trkpt lat="49.21351" lon="1.28031">
        <ele>12.597422</ele>
        <time>2015-08-13T13:57:56Z</time>
      </trkpt>
      <trkpt lat="49.21355" lon="1.28034">
        <ele>11.660165</ele>
        <time>2015-08-13T13:58:01Z</time>
      </trkpt>
      <trkpt lat="49.2136" lon="1.28044">
        <ele>11.660165</ele>
        <time>2015-08-13T13:58:11Z</time>
      </trkpt>
      <trkpt lat="49.21364" lon="1.28049">
        <ele>10.834992</ele>
        <time>2015-08-13T13:58:16Z</time>
      </trkpt>
      <trkpt lat="49.21379" lon="1.28068">
        <ele>10.274618</ele>
        <time>2015-08-13T13:58:31Z</time>
      </trkpt>
      <trkpt lat="49.21382" lon="1.28073">
        <ele>10.274618</ele>
        <time>2015-08-13T13:58:36Z</time>
      </trkpt>
      <trkpt lat="49.21392" lon="1.28088">
        <ele>9.961256</ele>
        <time>2015-08-13T13:58:46Z</time>
      </trkpt>
      <trkpt lat="49.21397" lon="1.28084">
        <ele>9.961256</ele>
        <time>2015-08-13T13:58:51Z</time>
      </trkpt>
      <trkpt lat="49.21405" lon="1.28071">
        <ele>9.719197</ele>
        <time>2015-08-13T13:59:01Z</time>
      </trkpt>
      <trkpt lat="49.21409" lon="1.28067">
        <ele>9.719197</ele>
        <time>2015-08-13T13:59:06Z</time>
      </trkpt>
      <trkpt lat="49.21416" lon="1.28055">
        <ele>9.558351</ele>
        <time>2015-08-13T13:59:16Z</time>
      </trkpt>
      <trkpt lat="49.2142" lon="1.28052">
        <ele>9.558351</ele>
        <time>2015-08-13T13:59:21Z</time>
      </trkpt>
      <trkpt lat="49.21426" lon="1.28041">
        <ele>9.458826</ele>
        <time>2015-08-13T13:59:31Z</time>
      </trkpt>
      <trkpt lat="49.21429" lon="1.28038">
        <ele>9.458826</ele>
        <time>2015-08-13T13:59:36Z</time>
      </trkpt>
      <trkpt lat="49.21434" lon="1.28026">
        <ele>9.618168</ele>
        <time>2015-08-13T13:59:46Z</time>
      </trkpt>
      <trkpt lat="49.21428" lon="1.28018">
        <ele>9.618168</ele>
        <time>2015-08-13T13:59:51Z</time>
      </trkpt>
      <trkpt lat="49.21416" lon="1.27997">
        <ele>9.872799</ele>
        <time>2015-08-13T14:00:06Z</time>
      </trkpt>
      <trkpt lat="49.21412" lon="1.2799">
        <ele>9.872799</ele>
        <time>2015-08-13T14:00:11Z</time>
      </trkpt>
      <trkpt lat="49.21403" lon="1.27974">
        <ele>10.18616</ele>
        <time>2015-08-13T14:00:21Z</time>
      </trkpt>
      <trkpt lat="49.21398" lon="1.27968">
        <ele>10.18616</ele>
        <time>2015-08-13T14:00:26Z</time>
      </trkpt>
      <trkpt lat="49.2139" lon="1.27955">
        <ele>10.610667</ele>
        <time>2015-08-13T14:00:36Z</time>
      </trkpt>
      <trkpt lat="49.21384" lon="1.27948">
        <ele>10.610667</ele>
        <time>2015-08-13T14:00:41Z</time>
      </trkpt>
      <trkpt lat="49.21374" lon="1.27934">
        <ele>11.122507</ele>
        <time>2015-08-13T14:00:51Z</time>
      </trkpt>
      <trkpt lat="49.21369" lon="1.27925">
        <ele>11.122507</ele>
        <time>2015-08-13T14:00:56Z</time>
      </trkpt>
      <trkpt lat="49.21362" lon="1.27911">
        <ele>11.814656</ele>
        <time>2015-08-13T14:01:06Z</time>
      </trkpt>
      <trkpt lat="49.21357" lon="1.27905">
        <ele>11.814656</ele>
        <time>2015-08-13T14:01:11Z</time>
      </trkpt>
      <trkpt lat="49.21347" lon="1.2789">
        <ele>12.59982</ele>
        <time>2015-08-13T14:01:21Z</time>
      </trkpt>
      <trkpt lat="49.21342" lon="1.27885">
        <ele>12.59982</ele>
        <time>2015-08-13T14:01:26Z</time>
      </trkpt>
      <trkpt lat="49.21328" lon="1.27868">
        <ele>13.440095</ele>
        <time>2015-08-13T14:01:41Z</time>
      </trkpt>
      <trkpt lat="49.21323" lon="1.27861">
        <ele>13.440095</ele>
        <time>2015-08-13T14:01:46Z</time>
      </trkpt>
      <trkpt lat="49.21314" lon="1.27848">
        <ele>14.271397</ele>
        <time>2015-08-13T14:01:56Z</time>
      </trkpt>
      <trkpt lat="49.21309" lon="1.27842">
        <ele>14.271397</ele>
        <time>2015-08-13T14:02:01Z</time>
      </trkpt>
      <trkpt lat="49.21299" lon="1.2783">
        <ele>15.13527</ele>
        <time>2015-08-13T14:02:11Z</time>
      </trkpt>
      <trkpt lat="49.21294" lon="1.27823">
        <ele>15.13527</ele>
        <time>2015-08-13T14:02:16Z</time>
      </trkpt>
      <trkpt lat="49.21286" lon="1.27813">
        <ele>15.983671</ele>
        <time>2015-08-13T14:02:26Z</time>
      </trkpt>
      <trkpt lat="49.21289" lon="1.27817">
        <ele>15.983671</ele>
        <time>2015-08-13T14:02:31Z</time>
      </trkpt>
      <trkpt lat="49.21279" lon="1.27802">
        <ele>16.613636</ele>
        <time>2015-08-13T14:02:41Z</time>
      </trkpt>
      <trkpt lat="49.21274" lon="1.27795">
        <ele>16.613636</ele>
        <time>2015-08-13T14:02:46Z</time>
      </trkpt>
      <trkpt lat="49.21265" lon="1.27779">
        <ele>17.169214</ele>
        <time>2015-08-13T14:02:56Z</time>
      </trkpt>
      <trkpt lat="49.21259" lon="1.27771">
        <ele>17.169214</ele>
        <time>2015-08-13T14:03:01Z</time>
      </trkpt>
      <trkpt lat="49.2125" lon="1.27758">
        <ele>17.75529</ele>
        <time>2015-08-13T14:03:11Z</time>
      </trkpt>
      <trkpt lat="49.21245" lon="1.27751">
        <ele>17.75529</ele>
        <time>2015-08-13T14:03:16Z</time>
      </trkpt>
      <trkpt lat="49.21236" lon="1.27738">
        <ele>18.296062</ele>
        <time>2015-08-13T14:03:26Z</time>
      </trkpt>
      <trkpt lat="49.21232" lon="1.27731">
        <ele>18.296062</ele>
        <time>2015-08-13T14:03:31Z</time>
      </trkpt>
      <trkpt lat="49.21219" lon="1.27707">
        <ele>18.865585</ele>
        <time>2015-08-13T14:03:47Z</time>
      </trkpt>
      <trkpt lat="49.21216" lon="1.277">
        <ele>18.865585</ele>
        <time>2015-08-13T14:03:51Z</time>
      </trkpt>
      <trkpt lat="49.21208" lon="1.27686">
        <ele>19.359488</ele>
        <time>2015-08-13T14:04:01Z</time>
      </trkpt>
      <trkpt lat="49.21205" lon="1.27677">
        <ele>19.359488</ele>
        <time>2015-08-13T14:04:06Z</time>
      </trkpt>
      <trkpt lat="49.21201" lon="1.2766">
        <ele>19.782206</ele>
        <time>2015-08-13T14:04:16Z</time>
      </trkpt>
      <trkpt lat="49.21198" lon="1.2765">
        <ele>19.782206</ele>
        <time>2015-08-13T14:04:21Z</time>
      </trkpt>
      <trkpt lat="49.21192" lon="1.27633">
        <ele>20.138084</ele>
        <time>2015-08-13T14:04:31Z</time>
      </trkpt>
      <trkpt lat="49.21189" lon="1.27624">
        <ele>20.138084</ele>
        <time>2015-08-13T14:04:36Z</time>
      </trkpt>
      <trkpt lat="49.21184" lon="1.27606">
        <ele>20.40256</ele>
        <time>2015-08-13T14:04:46Z</time>
      </trkpt>
      <trkpt lat="49.21181" lon="1.27597">
        <ele>20.40256</ele>
        <time>2015-08-13T14:04:51Z</time>
      </trkpt>
      <trkpt lat="49.21175" lon="1.27578">
        <ele>20.553165</ele>
        <time>2015-08-13T14:05:01Z</time>
      </trkpt>
      <trkpt lat="49.21172" lon="1.2757">
        <ele>20.553165</ele>
        <time>2015-08-13T14:05:06Z</time>
      </trkpt>
      <trkpt lat="49.21166" lon="1.27542">
        <ele>20.684736</ele>
        <time>2015-08-13T14:05:21Z</time>
      </trkpt>
      <trkpt lat="49.21163" lon="1.27533">
        <ele>20.684736</ele>
        <time>2015-08-13T14:05:26Z</time>
      </trkpt>
      <trkpt lat="49.21158" lon="1.27517">
        <ele>20.798756</ele>
        <time>2015-08-13T14:05:36Z</time>
      </trkpt>
      <trkpt lat="49.21156" lon="1.27506">
        <ele>20.798756</ele>
        <time>2015-08-13T14:05:41Z</time>
      </trkpt>
      <trkpt lat="49.21151" lon="1.27491">
        <ele>20.954332</ele>
        <time>2015-08-13T14:05:51Z</time>
      </trkpt>
      <trkpt lat="49.21149" lon="1.27481">
        <ele>20.954332</ele>
        <time>2015-08-13T14:05:56Z</time>
      </trkpt>
      <trkpt lat="49.21146" lon="1.27462">
        <ele>21.090849</ele>
        <time>2015-08-13T14:06:06Z</time>
      </trkpt>
      <trkpt lat="49.21144" lon="1.27453">
        <ele>21.090849</ele>
        <time>2015-08-13T14:06:11Z</time>
      </trkpt>
      <trkpt lat="49.2114" lon="1.27437">
        <ele>21.238695</ele>
        <time>2015-08-13T14:06:21Z</time>
      </trkpt>
      <trkpt lat="49.21137" lon="1.27428">
        <ele>21.238695</ele>
        <time>2015-08-13T14:06:26Z</time>
      </trkpt>
      <trkpt lat="49.21137" lon="1.27424">
        <ele>21.368372</ele>
        <time>2015-08-13T14:06:36Z</time>
      </trkpt>
      <trkpt lat="49.21138" lon="1.27425">
        <ele>21.368372</ele>
        <time>2015-08-13T14:06:41Z</time>
      </trkpt>
      <trkpt lat="49.21139" lon="1.27426">
        <ele>21.368372</ele>
        <time>2015-08-13T14:06:51Z</time>
      </trkpt>
      <trkpt lat="49.21141" lon="1.27426">
        <ele>21.368372</ele>
        <time>2015-08-13T14:06:56Z</time>
      </trkpt>
      <trkpt lat="49.21143" lon="1.27426">
        <ele>21.368372</ele>
        <time>2015-08-13T14:07:01Z</time>
      </trkpt>
      <trkpt lat="49.21143" lon="1.27424">
        <ele>21.368372</ele>
        <time>2015-08-13T14:07:06Z</time>
      </trkpt>
      <trkpt lat="49.21141" lon="1.27422">
        <ele>21.19322</ele>
        <time>2015-08-13T14:07:11Z</time>
      </trkpt>
      <trkpt lat="49.2114" lon="1.2742">
        <ele>21.19322</ele>
        <time>2015-08-13T14:07:16Z</time>
      </trkpt>
      <trkpt lat="49.21141" lon="1.27419">
        <ele>21.19322</ele>
        <time>2015-08-13T14:07:21Z</time>
      </trkpt>
      <trkpt lat="49.2114" lon="1.27416">
        <ele>21.19322</ele>
        <time>2015-08-13T14:07:26Z</time>
      </trkpt>
      <trkpt lat="49.21139" lon="1.27406">
        <ele>20.77997</ele>
        <time>2015-08-13T14:07:31Z</time>
      </trkpt>
      <trkpt lat="49.21136" lon="1.27398">
        <ele>20.77997</ele>
        <time>2015-08-13T14:07:36Z</time>
      </trkpt>
      <trkpt lat="49.2113" lon="1.27375">
        <ele>20.421707</ele>
        <time>2015-08-13T14:07:46Z</time>
      </trkpt>
      <trkpt lat="49.21128" lon="1.27367">
        <ele>20.421707</ele>
        <time>2015-08-13T14:07:51Z</time>
      </trkpt>
      <trkpt lat="49.21124" lon="1.27348">
        <ele>20.188086</ele>
        <time>2015-08-13T14:08:01Z</time>
      </trkpt>
      <trkpt lat="49.21121" lon="1.27339">
        <ele>20.188086</ele>
        <time>2015-08-13T14:08:06Z</time>
      </trkpt>
      <trkpt lat="49.21117" lon="1.27323">
        <ele>20.04242</ele>
        <time>2015-08-13T14:08:16Z</time>
      </trkpt>
      <trkpt lat="49.21116" lon="1.27312">
        <ele>20.04242</ele>
        <time>2015-08-13T14:08:21Z</time>
      </trkpt>
      <trkpt lat="49.21111" lon="1.27294">
        <ele>19.849594</ele>
        <time>2015-08-13T14:08:31Z</time>
      </trkpt>
      <trkpt lat="49.21109" lon="1.27283">
        <ele>19.849594</ele>
        <time>2015-08-13T14:08:36Z</time>
      </trkpt>
      <trkpt lat="49.21105" lon="1.27265">
        <ele>19.599834</ele>
        <time>2015-08-13T14:08:46Z</time>
      </trkpt>
      <trkpt lat="49.21104" lon="1.27256">
        <ele>19.599834</ele>
        <time>2015-08-13T14:08:51Z</time>
      </trkpt>
      <trkpt lat="49.21101" lon="1.27238">
        <ele>19.31306</ele>
        <time>2015-08-13T14:09:01Z</time>
      </trkpt>
      <trkpt lat="49.21099" lon="1.2723">
        <ele>19.31306</ele>
        <time>2015-08-13T14:09:06Z</time>
      </trkpt>
      <trkpt lat="49.21094" lon="1.272">
        <ele>19.02223</ele>
        <time>2015-08-13T14:09:21Z</time>
      </trkpt>
      <trkpt lat="49.21091" lon="1.27189">
        <ele>19.02223</ele>
        <time>2015-08-13T14:09:26Z</time>
      </trkpt>
      <trkpt lat="49.21088" lon="1.27174">
        <ele>18.75788</ele>
        <time>2015-08-13T14:09:36Z</time>
      </trkpt>
      <trkpt lat="49.21088" lon="1.27162">
        <ele>18.75788</ele>
        <time>2015-08-13T14:09:41Z</time>
      </trkpt>
      <trkpt lat="49.21083" lon="1.27145">
        <ele>18.476149</ele>
        <time>2015-08-13T14:09:51Z</time>
      </trkpt>
      <trkpt lat="49.21082" lon="1.27136">
        <ele>18.476149</ele>
        <time>2015-08-13T14:09:56Z</time>
      </trkpt>
      <trkpt lat="49.21078" lon="1.27116">
        <ele>18.16526</ele>
        <time>2015-08-13T14:10:06Z</time>
      </trkpt>
      <trkpt lat="49.21076" lon="1.27108">
        <ele>18.16526</ele>
        <time>2015-08-13T14:10:11Z</time>
      </trkpt>
      <trkpt lat="49.21073" lon="1.2709">
        <ele>17.79994</ele>
        <time>2015-08-13T14:10:21Z</time>
      </trkpt>
      <trkpt lat="49.21072" lon="1.2708">
        <ele>17.79994</ele>
        <time>2015-08-13T14:10:26Z</time>
      </trkpt>
      <trkpt lat="49.21072" lon="1.27062">
        <ele>17.400135</ele>
        <time>2015-08-13T14:10:37Z</time>
      </trkpt>
      <trkpt lat="49.21069" lon="1.27052">
        <ele>17.400135</ele>
        <time>2015-08-13T14:10:41Z</time>
      </trkpt>
      <trkpt lat="49.21065" lon="1.27031">
        <ele>16.998808</ele>
        <time>2015-08-13T14:10:51Z</time>
      </trkpt>
      <trkpt lat="49.21065" lon="1.27019">
        <ele>16.998808</ele>
        <time>2015-08-13T14:10:56Z</time>
      </trkpt>
      <trkpt lat="49.21067" lon="1.27003">
        <ele>16.612059</ele>
        <time>2015-08-13T14:11:06Z</time>
      </trkpt>
      <trkpt lat="49.21067" lon="1.26995">
        <ele>16.612059</ele>
        <time>2015-08-13T14:11:11Z</time>
      </trkpt>
      <trkpt lat="49.21065" lon="1.26962">
        <ele>16.110624</ele>
        <time>2015-08-13T14:11:26Z</time>
      </trkpt>
      <trkpt lat="49.21065" lon="1.26952">
        <ele>16.110624</ele>
        <time>2015-08-13T14:11:31Z</time>
      </trkpt>
      <trkpt lat="49.21062" lon="1.26934">
        <ele>15.6200075</ele>
        <time>2015-08-13T14:11:41Z</time>
      </trkpt>
      <trkpt lat="49.21063" lon="1.26923">
        <ele>15.6200075</ele>
        <time>2015-08-13T14:11:46Z</time>
      </trkpt>
      <trkpt lat="49.21059" lon="1.26904">
        <ele>15.141136</ele>
        <time>2015-08-13T14:11:56Z</time>
      </trkpt>
      <trkpt lat="49.21058" lon="1.26896">
        <ele>15.141136</ele>
        <time>2015-08-13T14:12:01Z</time>
      </trkpt>
      <trkpt lat="49.2106" lon="1.26877">
        <ele>14.674798</ele>
        <time>2015-08-13T14:12:11Z</time>
      </trkpt>
      <trkpt lat="49.2106" lon="1.26868">
        <ele>14.674798</ele>
        <time>2015-08-13T14:12:16Z</time>
      </trkpt>
      <trkpt lat="49.21058" lon="1.26847">
        <ele>14.236056</ele>
        <time>2015-08-13T14:12:26Z</time>
      </trkpt>
      <trkpt lat="49.21055" lon="1.26839">
        <ele>14.236056</ele>
        <time>2015-08-13T14:12:31Z</time>
      </trkpt>
      <trkpt lat="49.21052" lon="1.2682">
        <ele>13.867568</ele>
        <time>2015-08-13T14:12:41Z</time>
      </trkpt>
      <trkpt lat="49.21049" lon="1.2681">
        <ele>13.867568</ele>
        <time>2015-08-13T14:12:46Z</time>
      </trkpt>
      <trkpt lat="49.21048" lon="1.26792">
        <ele>13.608618</ele>
        <time>2015-08-13T14:12:56Z</time>
      </trkpt>
      <trkpt lat="49.21047" lon="1.26782">
        <ele>13.608618</ele>
        <time>2015-08-13T14:13:01Z</time>
      </trkpt>
      <trkpt lat="49.21043" lon="1.26764">
        <ele>13.49525</ele>
        <time>2015-08-13T14:13:11Z</time>
      </trkpt>
      <trkpt lat="49.21041" lon="1.26755">
        <ele>13.49525</ele>
        <time>2015-08-13T14:13:16Z</time>
      </trkpt>
      <trkpt lat="49.21035" lon="1.26725">
        <ele>13.502767</ele>
        <time>2015-08-13T14:13:31Z</time>
      </trkpt>
      <trkpt lat="49.21034" lon="1.26719">
        <ele>13.502767</ele>
        <time>2015-08-13T14:13:36Z</time>
      </trkpt>
      <trkpt lat="49.21031" lon="1.26703">
        <ele>13.607904</ele>
        <time>2015-08-13T14:13:46Z</time>
      </trkpt>
      <trkpt lat="49.21029" lon="1.26692">
        <ele>13.607904</ele>
        <time>2015-08-13T14:13:51Z</time>
      </trkpt>
      <trkpt lat="49.21027" lon="1.26678">
        <ele>13.788795</ele>
        <time>2015-08-13T14:14:01Z</time>
      </trkpt>
      <trkpt lat="49.21025" lon="1.26668">
        <ele>13.788795</ele>
        <time>2015-08-13T14:14:06Z</time>
      </trkpt>
      <trkpt lat="49.2102" lon="1.26651">
        <ele>14.010522</ele>
        <time>2015-08-13T14:14:16Z</time>
      </trkpt>
      <trkpt lat="49.21018" lon="1.26642">
        <ele>14.010522</ele>
        <time>2015-08-13T14:14:21Z</time>
      </trkpt>
      <trkpt lat="49.21015" lon="1.26624">
        <ele>14.283815</ele>
        <time>2015-08-13T14:14:31Z</time>
      </trkpt>
      <trkpt lat="49.21013" lon="1.26616">
        <ele>14.283815</ele>
        <time>2015-08-13T14:14:36Z</time>
      </trkpt>
      <trkpt lat="49.2101" lon="1.26596">
        <ele>14.589629</ele>
        <time>2015-08-13T14:14:46Z</time>
      </trkpt>
      <trkpt lat="49.21008" lon="1.26589">
        <ele>14.589629</ele>
        <time>2015-08-13T14:14:51Z</time>
      </trkpt>
      <trkpt lat="49.21006" lon="1.26572">
        <ele>14.895792</ele>
        <time>2015-08-13T14:15:01Z</time>
      </trkpt>
      <trkpt lat="49.21005" lon="1.26565">
        <ele>14.895792</ele>
        <time>2015-08-13T14:15:06Z</time>
      </trkpt>
      <trkpt lat="49.21004" lon="1.26559">
        <ele>14.895792</ele>
        <time>2015-08-13T14:15:16Z</time>
      </trkpt>
      <trkpt lat="49.21004" lon="1.26553">
        <ele>15.273352</ele>
        <time>2015-08-13T14:15:21Z</time>
      </trkpt>
      <trkpt lat="49.21" lon="1.26535">
        <ele>15.629405</ele>
        <time>2015-08-13T14:15:31Z</time>
      </trkpt>
      <trkpt lat="49.20998" lon="1.26528">
        <ele>15.629405</ele>
        <time>2015-08-13T14:15:36Z</time>
      </trkpt>
      <trkpt lat="49.20995" lon="1.26513">
        <ele>15.978802</ele>
        <time>2015-08-13T14:15:46Z</time>
      </trkpt>
      <trkpt lat="49.20993" lon="1.26504">
        <ele>15.978802</ele>
        <time>2015-08-13T14:15:51Z</time>
      </trkpt>
      <trkpt lat="49.20991" lon="1.26481">
        <ele>16.220026</ele>
        <time>2015-08-13T14:16:06Z</time>
      </trkpt>
      <trkpt lat="49.2099" lon="1.26472">
        <ele>16.220026</ele>
        <time>2015-08-13T14:16:11Z</time>
      </trkpt>
      <trkpt lat="49.20987" lon="1.26454">
        <ele>16.475485</ele>
        <time>2015-08-13T14:16:21Z</time>
      </trkpt>
      <trkpt lat="49.20986" lon="1.26442">
        <ele>16.475485</ele>
        <time>2015-08-13T14:16:26Z</time>
      </trkpt>
      <trkpt lat="49.20983" lon="1.26426">
        <ele>16.728863</ele>
        <time>2015-08-13T14:16:36Z</time>
      </trkpt>
      <trkpt lat="49.20983" lon="1.26416">
        <ele>16.728863</ele>
        <time>2015-08-13T14:16:41Z</time>
      </trkpt>
      <trkpt lat="49.20981" lon="1.26402">
        <ele>16.993868</ele>
        <time>2015-08-13T14:16:51Z</time>
      </trkpt>
      <trkpt lat="49.20979" lon="1.26394">
        <ele>16.993868</ele>
        <time>2015-08-13T14:16:56Z</time>
      </trkpt>
      <trkpt lat="49.20978" lon="1.26374">
        <ele>17.182302</ele>
        <time>2015-08-13T14:17:06Z</time>
      </trkpt>
      <trkpt lat="49.20976" lon="1.26363">
        <ele>17.182302</ele>
        <time>2015-08-13T14:17:11Z</time>
      </trkpt>
      <trkpt lat="49.20974" lon="1.26346">
        <ele>17.414421</ele>
        <time>2015-08-13T14:17:21Z</time>
      </trkpt>
      <trkpt lat="49.20973" lon="1.26339">
        <ele>17.414421</ele>
        <time>2015-08-13T14:17:26Z</time>
      </trkpt>
      <trkpt lat="49.20969" lon="1.26319">
        <ele>17.498903</ele>
        <time>2015-08-13T14:17:36Z</time>
      </trkpt>
      <trkpt lat="49.20969" lon="1.26308">
        <ele>17.498903</ele>
        <time>2015-08-13T14:17:41Z</time>
      </trkpt>
      <trkpt lat="49.20969" lon="1.26289">
        <ele>17.460663</ele>
        <time>2015-08-13T14:17:51Z</time>
      </trkpt>
      <trkpt lat="49.20968" lon="1.26281">
        <ele>17.460663</ele>
        <time>2015-08-13T14:17:56Z</time>
      </trkpt>
      <trkpt lat="49.20965" lon="1.26246">
        <ele>17.279903</ele>
        <time>2015-08-13T14:18:16Z</time>
      </trkpt>
      <trkpt lat="49.20964" lon="1.26234">
        <ele>17.279903</ele>
        <time>2015-08-13T14:18:21Z</time>
      </trkpt>
      <trkpt lat="49.20961" lon="1.26208">
        <ele>16.981926</ele>
        <time>2015-08-13T14:18:36Z</time>
      </trkpt>
      <trkpt lat="49.2096" lon="1.26197">
        <ele>16.981926</ele>
        <time>2015-08-13T14:18:41Z</time>
      </trkpt>
      <trkpt lat="49.20959" lon="1.26177">
        <ele>16.619333</ele>
        <time>2015-08-13T14:18:52Z</time>
      </trkpt>
      <trkpt lat="49.20959" lon="1.26169">
        <ele>16.619333</ele>
        <time>2015-08-13T14:18:57Z</time>
      </trkpt>
      <trkpt lat="49.20959" lon="1.26156">
        <ele>16.24105</ele>
        <time>2015-08-13T14:19:06Z</time>
      </trkpt>
      <trkpt lat="49.20957" lon="1.26157">
        <ele>16.24105</ele>
        <time>2015-08-13T14:19:11Z</time>
      </trkpt>
      <trkpt lat="49.20958" lon="1.26144">
        <ele>15.863632</ele>
        <time>2015-08-13T14:19:21Z</time>
      </trkpt>
      <trkpt lat="49.20959" lon="1.26135">
        <ele>15.863632</ele>
        <time>2015-08-13T14:19:26Z</time>
      </trkpt>
      <trkpt lat="49.20958" lon="1.26118">
        <ele>15.401537</ele>
        <time>2015-08-13T14:19:36Z</time>
      </trkpt>
      <trkpt lat="49.20958" lon="1.26109">
        <ele>15.401537</ele>
        <time>2015-08-13T14:19:41Z</time>
      </trkpt>
      <trkpt lat="49.20955" lon="1.26088">
        <ele>15.02073</ele>
        <time>2015-08-13T14:19:51Z</time>
      </trkpt>
      <trkpt lat="49.20955" lon="1.26082">
        <ele>15.02073</ele>
        <time>2015-08-13T14:19:56Z</time>
      </trkpt>
      <trkpt lat="49.20953" lon="1.26064">
        <ele>14.817106</ele>
        <time>2015-08-13T14:20:06Z</time>
      </trkpt>
      <trkpt lat="49.20953" lon="1.26054">
        <ele>14.817106</ele>
        <time>2015-08-13T14:20:11Z</time>
      </trkpt>
      <trkpt lat="49.20952" lon="1.26027">
        <ele>14.662842</ele>
        <time>2015-08-13T14:20:26Z</time>
      </trkpt>
      <trkpt lat="49.20953" lon="1.26018">
        <ele>14.662842</ele>
        <time>2015-08-13T14:20:31Z</time>
      </trkpt>
      <trkpt lat="49.20951" lon="1.26">
        <ele>14.46818</ele>
        <time>2015-08-13T14:20:41Z</time>
      </trkpt>
      <trkpt lat="49.20951" lon="1.25989">
        <ele>14.46818</ele>
        <time>2015-08-13T14:20:46Z</time>
      </trkpt>
      <trkpt lat="49.20949" lon="1.25971">
        <ele>14.2653475</ele>
        <time>2015-08-13T14:20:56Z</time>
      </trkpt>
      <trkpt lat="49.20949" lon="1.25964">
        <ele>14.2653475</ele>
        <time>2015-08-13T14:21:01Z</time>
      </trkpt>
      <trkpt lat="49.20947" lon="1.2595">
        <ele>14.127449</ele>
        <time>2015-08-13T14:21:11Z</time>
      </trkpt>
      <trkpt lat="49.20948" lon="1.25942">
        <ele>14.127449</ele>
        <time>2015-08-13T14:21:16Z</time>
      </trkpt>
      <trkpt lat="49.20946" lon="1.25924">
        <ele>13.963504</ele>
        <time>2015-08-13T14:21:26Z</time>
      </trkpt>
      <trkpt lat="49.20946" lon="1.25914">
        <ele>13.963504</ele>
        <time>2015-08-13T14:21:31Z</time>
      </trkpt>
      <trkpt lat="49.20943" lon="1.25887">
        <ele>13.919854</ele>
        <time>2015-08-13T14:21:46Z</time>
      </trkpt>
      <trkpt lat="49.20941" lon="1.25881">
        <ele>13.919854</ele>
        <time>2015-08-13T14:21:51Z</time>
      </trkpt>
      <trkpt lat="49.20936" lon="1.25859">
        <ele>13.82911</ele>
        <time>2015-08-13T14:22:01Z</time>
      </trkpt>
      <trkpt lat="49.20934" lon="1.2585">
        <ele>13.82911</ele>
        <time>2015-08-13T14:22:07Z</time>
      </trkpt>
      <trkpt lat="49.20931" lon="1.25831">
        <ele>13.68041</ele>
        <time>2015-08-13T14:22:16Z</time>
      </trkpt>
      <trkpt lat="49.20928" lon="1.25824">
        <ele>13.68041</ele>
        <time>2015-08-13T14:22:21Z</time>
      </trkpt>
      <trkpt lat="49.20923" lon="1.25807">
        <ele>13.550312</ele>
        <time>2015-08-13T14:22:31Z</time>
      </trkpt>
      <trkpt lat="49.20922" lon="1.25799">
        <ele>13.550312</ele>
        <time>2015-08-13T14:22:36Z</time>
      </trkpt>
      <trkpt lat="49.20918" lon="1.25782">
        <ele>13.567328</ele>
        <time>2015-08-13T14:22:46Z</time>
      </trkpt>
      <trkpt lat="49.20919" lon="1.25777">
        <ele>13.567328</ele>
        <time>2015-08-13T14:22:51Z</time>
      </trkpt>
      <trkpt lat="49.20916" lon="1.25755">
        <ele>13.547479</ele>
        <time>2015-08-13T14:23:01Z</time>
      </trkpt>
      <trkpt lat="49.20916" lon="1.25751">
        <ele>13.547479</ele>
        <time>2015-08-13T14:23:06Z</time>
      </trkpt>
      <trkpt lat="49.20915" lon="1.25737">
        <ele>13.522148</ele>
        <time>2015-08-13T14:23:16Z</time>
      </trkpt>
      <trkpt lat="49.20915" lon="1.25728">
        <ele>13.522148</ele>
        <time>2015-08-13T14:23:21Z</time>
      </trkpt>
      <trkpt lat="49.20915" lon="1.25711">
        <ele>13.419545</ele>
        <time>2015-08-13T14:23:31Z</time>
      </trkpt>
      <trkpt lat="49.20916" lon="1.25704">
        <ele>13.419545</ele>
        <time>2015-08-13T14:23:36Z</time>
      </trkpt>
      <trkpt lat="49.20917" lon="1.25685">
        <ele>13.245419</ele>
        <time>2015-08-13T14:23:46Z</time>
      </trkpt>
      <trkpt lat="49.2092" lon="1.25681">
        <ele>13.245419</ele>
        <time>2015-08-13T14:23:51Z</time>
      </trkpt>
      <trkpt lat="49.20936" lon="1.25682">
        <ele>12.875588</ele>
        <time>2015-08-13T14:24:06Z</time>
      </trkpt>
      <trkpt lat="49.20942" lon="1.25684">
        <ele>12.875588</ele>
        <time>2015-08-13T14:24:12Z</time>
      </trkpt>
      <trkpt lat="49.20952" lon="1.25687">
        <ele>12.541406</ele>
        <time>2015-08-13T14:24:21Z</time>
      </trkpt>
      <trkpt lat="49.20957" lon="1.25686">
        <ele>12.541406</ele>
        <time>2015-08-13T14:24:26Z</time>
      </trkpt>
      <trkpt lat="49.20964" lon="1.25671">
        <ele>12.269774</ele>
        <time>2015-08-13T14:24:36Z</time>
      </trkpt>
      <trkpt lat="49.20967" lon="1.25658">
        <ele>12.269774</ele>
        <time>2015-08-13T14:24:41Z</time>
      </trkpt>
      <trkpt lat="49.20971" lon="1.25641">
        <ele>12.27278</ele>
        <time>2015-08-13T14:24:51Z</time>
      </trkpt>
      <trkpt lat="49.20972" lon="1.25634">
        <ele>12.27278</ele>
        <time>2015-08-13T14:24:57Z</time>
      </trkpt>
      <trkpt lat="49.20975" lon="1.25617">
        <ele>12.313819</ele>
        <time>2015-08-13T14:25:06Z</time>
      </trkpt>
      <trkpt lat="49.20976" lon="1.2561">
        <ele>12.313819</ele>
        <time>2015-08-13T14:25:11Z</time>
      </trkpt>
      <trkpt lat="49.20979" lon="1.25588">
        <ele>12.389716</ele>
        <time>2015-08-13T14:25:21Z</time>
      </trkpt>
      <trkpt lat="49.2098" lon="1.2558">
        <ele>12.389716</ele>
        <time>2015-08-13T14:25:26Z</time>
      </trkpt>
      <trkpt lat="49.20983" lon="1.25562">
        <ele>12.569484</ele>
        <time>2015-08-13T14:25:36Z</time>
      </trkpt>
      <trkpt lat="49.20985" lon="1.25555">
        <ele>12.569484</ele>
        <time>2015-08-13T14:25:41Z</time>
      </trkpt>
      <trkpt lat="49.20989" lon="1.25538">
        <ele>12.585311</ele>
        <time>2015-08-13T14:25:51Z</time>
      </trkpt>
      <trkpt lat="49.20993" lon="1.2553">
        <ele>12.585311</ele>
        <time>2015-08-13T14:25:56Z</time>
      </trkpt>
      <trkpt lat="49.20999" lon="1.25512">
        <ele>12.535383</ele>
        <time>2015-08-13T14:26:06Z</time>
      </trkpt>
      <trkpt lat="49.20999" lon="1.25503">
        <ele>12.535383</ele>
        <time>2015-08-13T14:26:11Z</time>
      </trkpt>
      <trkpt lat="49.21003" lon="1.25489">
        <ele>12.539679</ele>
        <time>2015-08-13T14:26:21Z</time>
      </trkpt>
      <trkpt lat="49.21006" lon="1.2548">
        <ele>12.539679</ele>
        <time>2015-08-13T14:26:26Z</time>
      </trkpt>
      <trkpt lat="49.21011" lon="1.25465">
        <ele>12.550688</ele>
        <time>2015-08-13T14:26:36Z</time>
      </trkpt>
      <trkpt lat="49.21012" lon="1.25464">
        <ele>12.550688</ele>
        <time>2015-08-13T14:26:41Z</time>
      </trkpt>
      <trkpt lat="49.21019" lon="1.25443">
        <ele>12.553194</ele>
        <time>2015-08-13T14:26:51Z</time>
      </trkpt>
      <trkpt lat="49.21021" lon="1.25437">
        <ele>12.553194</ele>
        <time>2015-08-13T14:26:56Z</time>
      </trkpt>
      <trkpt lat="49.21029" lon="1.25421">
        <ele>12.648413</ele>
        <time>2015-08-13T14:27:06Z</time>
      </trkpt>
      <trkpt lat="49.21033" lon="1.25413">
        <ele>12.648413</ele>
        <time>2015-08-13T14:27:11Z</time>
      </trkpt>
      <trkpt lat="49.21037" lon="1.25397">
        <ele>12.958689</ele>
        <time>2015-08-13T14:27:21Z</time>
      </trkpt>
      <trkpt lat="49.21039" lon="1.25389">
        <ele>12.958689</ele>
        <time>2015-08-13T14:27:26Z</time>
      </trkpt>
      <trkpt lat="49.21045" lon="1.25371">
        <ele>13.250915</ele>
        <time>2015-08-13T14:27:36Z</time>
      </trkpt>
      <trkpt lat="49.21046" lon="1.25364">
        <ele>13.250915</ele>
        <time>2015-08-13T14:27:41Z</time>
      </trkpt>
      <trkpt lat="49.21052" lon="1.25339">
        <ele>13.208284</ele>
        <time>2015-08-13T14:27:56Z</time>
      </trkpt>
      <trkpt lat="49.21055" lon="1.25334">
        <ele>13.208284</ele>
        <time>2015-08-13T14:28:02Z</time>
      </trkpt>
      <trkpt lat="49.21058" lon="1.2532">
        <ele>13.0714245</ele>
        <time>2015-08-13T14:28:11Z</time>
      </trkpt>
      <trkpt lat="49.21058" lon="1.25316">
        <ele>13.0714245</ele>
        <time>2015-08-13T14:28:16Z</time>
      </trkpt>
      <trkpt lat="49.21058" lon="1.25316">
        <ele>13.0714245</ele>
        <time>2015-08-13T14:28:21Z</time>
      </trkpt>
      <trkpt lat="49.21059" lon="1.25316">
        <ele>13.0714245</ele>
        <time>2015-08-13T14:28:26Z</time>
      </trkpt>
      <trkpt lat="49.21059" lon="1.25315">
        <ele>13.0714245</ele>
        <time>2015-08-13T14:28:31Z</time>
      </trkpt>
      <trkpt lat="49.21058" lon="1.25315">
        <ele>13.0714245</ele>
        <time>2015-08-13T14:28:36Z</time>
      </trkpt>
      <trkpt lat="49.21058" lon="1.25315">
        <ele>13.0714245</ele>
        <time>2015-08-13T14:28:41Z</time>
      </trkpt>
      <trkpt lat="49.21059" lon="1.25315">
        <ele>13.0714245</ele>
        <time>2015-08-13T14:28:46Z</time>
      </trkpt>
      <trkpt lat="49.2106" lon="1.25315">
        <ele>13.0714245</ele>
        <time>2015-08-13T14:28:51Z</time>
      </trkpt>
      <trkpt lat="49.2106" lon="1.25314">
        <ele>13.0714245</ele>
        <time>2015-08-13T14:28:56Z</time>
      </trkpt>
      <trkpt lat="49.21059" lon="1.2531">
        <ele>12.515932</ele>
        <time>2015-08-13T14:29:01Z</time>
      </trkpt>
      <trkpt lat="49.21059" lon="1.2531">
        <ele>12.515932</ele>
        <time>2015-08-13T14:29:06Z</time>
      </trkpt>
      <trkpt lat="49.21059" lon="1.2531">
        <ele>12.515932</ele>
        <time>2015-08-13T14:29:11Z</time>
      </trkpt>
      <trkpt lat="49.21059" lon="1.2531">
        <ele>12.515932</ele>
        <time>2015-08-13T14:29:16Z</time>
      </trkpt>
      <trkpt lat="49.21056" lon="1.25307">
        <ele>12.515932</ele>
        <time>2015-08-13T14:29:21Z</time>
      </trkpt>
      <trkpt lat="49.21052" lon="1.25305">
        <ele>12.515932</ele>
        <time>2015-08-13T14:29:26Z</time>
      </trkpt>
      <trkpt lat="49.21051" lon="1.25304">
        <ele>11.876507</ele>
        <time>2015-08-13T14:29:31Z</time>
      </trkpt>
      <trkpt lat="49.21051" lon="1.25305">
        <ele>11.876507</ele>
        <time>2015-08-13T14:29:36Z</time>
      </trkpt>
      <trkpt lat="49.2105" lon="1.25305">
        <ele>11.876507</ele>
        <time>2015-08-13T14:29:41Z</time>
      </trkpt>
      <trkpt lat="49.21049" lon="1.25303">
        <ele>11.876507</ele>
        <time>2015-08-13T14:29:46Z</time>
      </trkpt>
      <trkpt lat="49.21049" lon="1.25303">
        <ele>11.876507</ele>
        <time>2015-08-13T14:29:51Z</time>
      </trkpt>
      <trkpt lat="49.2105" lon="1.25303">
        <ele>11.876507</ele>
        <time>2015-08-13T14:29:56Z</time>
      </trkpt>
      <trkpt lat="49.2105" lon="1.25302">
        <ele>11.876507</ele>
        <time>2015-08-13T14:30:01Z</time>
      </trkpt>
      <trkpt lat="49.21051" lon="1.25302">
        <ele>11.876507</ele>
        <time>2015-08-13T14:30:06Z</time>
      </trkpt>
      <trkpt lat="49.21052" lon="1.25302">
        <ele>11.876507</ele>
        <time>2015-08-13T14:30:11Z</time>
      </trkpt>
      <trkpt lat="49.21048" lon="1.253">
        <ele>11.117631</ele>
        <time>2015-08-13T14:30:16Z</time>
      </trkpt>
      <trkpt lat="49.21042" lon="1.25297">
        <ele>11.117631</ele>
        <time>2015-08-13T14:30:21Z</time>
      </trkpt>
      <trkpt lat="49.21036" lon="1.25293">
        <ele>10.538185</ele>
        <time>2015-08-13T14:30:26Z</time>
      </trkpt>
      <trkpt lat="49.21019" lon="1.25283">
        <ele>10.126364</ele>
        <time>2015-08-13T14:30:41Z</time>
      </trkpt>
      <trkpt lat="49.21013" lon="1.2528">
        <ele>10.126364</ele>
        <time>2015-08-13T14:30:46Z</time>
      </trkpt>
      <trkpt lat="49.20996" lon="1.25267">
        <ele>9.841927</ele>
        <time>2015-08-13T14:31:01Z</time>
      </trkpt>
      <trkpt lat="49.20994" lon="1.25266">
        <ele>9.841927</ele>
        <time>2015-08-13T14:31:06Z</time>
      </trkpt>
      <trkpt lat="49.20995" lon="1.25265">
        <ele>9.841927</ele>
        <time>2015-08-13T14:31:16Z</time>
      </trkpt>
      <trkpt lat="49.20994" lon="1.25265">
        <ele>9.841927</ele>
        <time>2015-08-13T14:31:21Z</time>
      </trkpt>
      <trkpt lat="49.20994" lon="1.25266">
        <ele>9.841927</ele>
        <time>2015-08-13T14:31:26Z</time>
      </trkpt>
      <trkpt lat="49.20994" lon="1.25267">
        <ele>9.841927</ele>
        <time>2015-08-13T14:31:31Z</time>
      </trkpt>
      <trkpt lat="49.20994" lon="1.25266">
        <ele>9.841927</ele>
        <time>2015-08-13T14:31:36Z</time>
      </trkpt>
      <trkpt lat="49.20992" lon="1.25267">
        <ele>9.841927</ele>
        <time>2015-08-13T14:31:41Z</time>
      </trkpt>
      <trkpt lat="49.20992" lon="1.25265">
        <ele>9.603986</ele>
        <time>2015-08-13T14:31:47Z</time>
      </trkpt>
      <trkpt lat="49.20992" lon="1.25265">
        <ele>9.603986</ele>
        <time>2015-08-13T14:31:51Z</time>
      </trkpt>
      <trkpt lat="49.20993" lon="1.25266">
        <ele>9.603986</ele>
        <time>2015-08-13T14:31:56Z</time>
      </trkpt>
      <trkpt lat="49.20993" lon="1.25268">
        <ele>9.603986</ele>
        <time>2015-08-13T14:32:01Z</time>
      </trkpt>
      <trkpt lat="49.20994" lon="1.25266">
        <ele>9.603986</ele>
        <time>2015-08-13T14:32:06Z</time>
      </trkpt>
      <trkpt lat="49.20997" lon="1.25259">
        <ele>9.603986</ele>
        <time>2015-08-13T14:32:11Z</time>
      </trkpt>
      <trkpt lat="49.20999" lon="1.25245">
        <ele>9.351866</ele>
        <time>2015-08-13T14:32:21Z</time>
      </trkpt>
      <trkpt lat="49.21002" lon="1.25236">
        <ele>9.351866</ele>
        <time>2015-08-13T14:32:26Z</time>
      </trkpt>
      <trkpt lat="49.21006" lon="1.25219">
        <ele>9.072605</ele>
        <time>2015-08-13T14:32:36Z</time>
      </trkpt>
      <trkpt lat="49.21007" lon="1.25217">
        <ele>9.072605</ele>
        <time>2015-08-13T14:32:41Z</time>
      </trkpt>
      <trkpt lat="49.21012" lon="1.25193">
        <ele>8.855137</ele>
        <time>2015-08-13T14:32:51Z</time>
      </trkpt>
      <trkpt lat="49.21014" lon="1.25184">
        <ele>8.855137</ele>
        <time>2015-08-13T14:32:56Z</time>
      </trkpt>
      <trkpt lat="49.21017" lon="1.25166">
        <ele>8.666384</ele>
        <time>2015-08-13T14:33:06Z</time>
      </trkpt>
      <trkpt lat="49.2102" lon="1.25157">
        <ele>8.666384</ele>
        <time>2015-08-13T14:33:11Z</time>
      </trkpt>
      <trkpt lat="49.21024" lon="1.25139">
        <ele>8.475606</ele>
        <time>2015-08-13T14:33:21Z</time>
      </trkpt>
      <trkpt lat="49.21027" lon="1.2513">
        <ele>8.475606</ele>
        <time>2015-08-13T14:33:26Z</time>
      </trkpt>
      <trkpt lat="49.21034" lon="1.25104">
        <ele>8.326368</ele>
        <time>2015-08-13T14:33:41Z</time>
      </trkpt>
      <trkpt lat="49.21036" lon="1.25096">
        <ele>8.326368</ele>
        <time>2015-08-13T14:33:46Z</time>
      </trkpt>
      <trkpt lat="49.21043" lon="1.25078">
        <ele>8.258907</ele>
        <time>2015-08-13T14:33:56Z</time>
      </trkpt>
      <trkpt lat="49.21047" lon="1.2507">
        <ele>8.258907</ele>
        <time>2015-08-13T14:34:01Z</time>
      </trkpt>
      <trkpt lat="49.2105" lon="1.25052">
        <ele>8.194973</ele>
        <time>2015-08-13T14:34:11Z</time>
      </trkpt>
      <trkpt lat="49.21053" lon="1.25043">
        <ele>8.194973</ele>
        <time>2015-08-13T14:34:16Z</time>
      </trkpt>
      <trkpt lat="49.21061" lon="1.25027">
        <ele>8.119688</ele>
        <time>2015-08-13T14:34:26Z</time>
      </trkpt>
      <trkpt lat="49.21064" lon="1.25018">
        <ele>8.119688</ele>
        <time>2015-08-13T14:34:31Z</time>
      </trkpt>
      <trkpt lat="49.21068" lon="1.25">
        <ele>8.048113</ele>
        <time>2015-08-13T14:34:41Z</time>
      </trkpt>
      <trkpt lat="49.21071" lon="1.24991">
        <ele>8.048113</ele>
        <time>2015-08-13T14:34:46Z</time>
      </trkpt>
      <trkpt lat="49.21078" lon="1.24973">
        <ele>8.008594</ele>
        <time>2015-08-13T14:34:56Z</time>
      </trkpt>
      <trkpt lat="49.21081" lon="1.24965">
        <ele>8.008594</ele>
        <time>2015-08-13T14:35:01Z</time>
      </trkpt>
      <trkpt lat="49.21086" lon="1.24947">
        <ele>7.9696546</ele>
        <time>2015-08-13T14:35:11Z</time>
      </trkpt>
      <trkpt lat="49.21088" lon="1.24939">
        <ele>7.9696546</ele>
        <time>2015-08-13T14:35:16Z</time>
      </trkpt>
      <trkpt lat="49.21096" lon="1.2492">
        <ele>7.9021244</ele>
        <time>2015-08-13T14:35:26Z</time>
      </trkpt>
      <trkpt lat="49.21099" lon="1.24912">
        <ele>7.9021244</ele>
        <time>2015-08-13T14:35:31Z</time>
      </trkpt>
      <trkpt lat="49.21107" lon="1.24887">
        <ele>7.836695</ele>
        <time>2015-08-13T14:35:46Z</time>
      </trkpt>
      <trkpt lat="49.2111" lon="1.2488">
        <ele>7.836695</ele>
        <time>2015-08-13T14:35:51Z</time>
      </trkpt>
      <trkpt lat="49.21118" lon="1.24862">
        <ele>7.8017964</ele>
        <time>2015-08-13T14:36:01Z</time>
      </trkpt>
      <trkpt lat="49.21121" lon="1.24855">
        <ele>7.8017964</ele>
        <time>2015-08-13T14:36:06Z</time>
      </trkpt>
      <trkpt lat="49.21128" lon="1.24838">
        <ele>7.866914</ele>
        <time>2015-08-13T14:36:16Z</time>
      </trkpt>
      <trkpt lat="49.21131" lon="1.2483">
        <ele>7.866914</ele>
        <time>2015-08-13T14:36:21Z</time>
      </trkpt>
      <trkpt lat="49.21138" lon="1.24814">
        <ele>7.9088044</ele>
        <time>2015-08-13T14:36:31Z</time>
      </trkpt>
      <trkpt lat="49.21141" lon="1.24805">
        <ele>7.9088044</ele>
        <time>2015-08-13T14:36:36Z</time>
      </trkpt>
      <trkpt lat="49.21148" lon="1.24788">
        <ele>7.986278</ele>
        <time>2015-08-13T14:36:46Z</time>
      </trkpt>
      <trkpt lat="49.21151" lon="1.2478">
        <ele>7.986278</ele>
        <time>2015-08-13T14:36:51Z</time>
      </trkpt>
      <trkpt lat="49.21158" lon="1.24766">
        <ele>8.081671</ele>
        <time>2015-08-13T14:37:01Z</time>
      </trkpt>
      <trkpt lat="49.21161" lon="1.24759">
        <ele>8.081671</ele>
        <time>2015-08-13T14:37:06Z</time>
      </trkpt>
      <trkpt lat="49.21168" lon="1.24742">
        <ele>8.120927</ele>
        <time>2015-08-13T14:37:16Z</time>
      </trkpt>
      <trkpt lat="49.2117" lon="1.24734">
        <ele>8.120927</ele>
        <time>2015-08-13T14:37:21Z</time>
      </trkpt>
      <trkpt lat="49.21177" lon="1.24719">
        <ele>8.093238</ele>
        <time>2015-08-13T14:37:31Z</time>
      </trkpt>
      <trkpt lat="49.21181" lon="1.24712">
        <ele>8.093238</ele>
        <time>2015-08-13T14:37:36Z</time>
      </trkpt>
      <trkpt lat="49.21183" lon="1.24706">
        <ele>8.07525</ele>
        <time>2015-08-13T14:37:51Z</time>
      </trkpt>
      <trkpt lat="49.21183" lon="1.24706">
        <ele>8.07525</ele>
        <time>2015-08-13T14:37:56Z</time>
      </trkpt>
      <trkpt lat="49.21184" lon="1.24706">
        <ele>8.07525</ele>
        <time>2015-08-13T14:38:01Z</time>
      </trkpt>
      <trkpt lat="49.21184" lon="1.24706">
        <ele>8.07525</ele>
        <time>2015-08-13T14:38:06Z</time>
      </trkpt>
      <trkpt lat="49.21185" lon="1.24706">
        <ele>8.07525</ele>
        <time>2015-08-13T14:38:11Z</time>
      </trkpt>
      <trkpt lat="49.21185" lon="1.24706">
        <ele>8.07525</ele>
        <time>2015-08-13T14:38:16Z</time>
      </trkpt>
      <trkpt lat="49.21184" lon="1.24705">
        <ele>8.07525</ele>
        <time>2015-08-13T14:38:21Z</time>
      </trkpt>
      <trkpt lat="49.21184" lon="1.24704">
        <ele>8.07525</ele>
        <time>2015-08-13T14:38:26Z</time>
      </trkpt>
      <trkpt lat="49.21184" lon="1.24705">
        <ele>8.07525</ele>
        <time>2015-08-13T14:38:31Z</time>
      </trkpt>
      <trkpt lat="49.21186" lon="1.24704">
        <ele>8.07525</ele>
        <time>2015-08-13T14:38:37Z</time>
      </trkpt>
      <trkpt lat="49.21184" lon="1.24703">
        <ele>8.0947275</ele>
        <time>2015-08-13T14:38:46Z</time>
      </trkpt>
      <trkpt lat="49.21184" lon="1.24705">
        <ele>8.0947275</ele>
        <time>2015-08-13T14:38:51Z</time>
      </trkpt>
      <trkpt lat="49.21185" lon="1.24705">
        <ele>8.0947275</ele>
        <time>2015-08-13T14:39:01Z</time>
      </trkpt>
      <trkpt lat="49.21186" lon="1.24705">
        <ele>8.0947275</ele>
        <time>2015-08-13T14:39:06Z</time>
      </trkpt>
      <trkpt lat="49.21182" lon="1.24706">
        <ele>8.0947275</ele>
        <time>2015-08-13T14:39:16Z</time>
      </trkpt>
      <trkpt lat="49.21183" lon="1.24704">
        <ele>8.191709</ele>
        <time>2015-08-13T14:39:21Z</time>
      </trkpt>
      <trkpt lat="49.21185" lon="1.24702">
        <ele>8.191709</ele>
        <time>2015-08-13T14:39:31Z</time>
      </trkpt>
      <trkpt lat="49.21185" lon="1.24702">
        <ele>8.191709</ele>
        <time>2015-08-13T14:39:36Z</time>
      </trkpt>
      <trkpt lat="49.21186" lon="1.24702">
        <ele>8.191709</ele>
        <time>2015-08-13T14:39:41Z</time>
      </trkpt>
      <trkpt lat="49.21187" lon="1.24701">
        <ele>8.191709</ele>
        <time>2015-08-13T14:39:46Z</time>
      </trkpt>
      <trkpt lat="49.21187" lon="1.24701">
        <ele>8.191709</ele>
        <time>2015-08-13T14:39:51Z</time>
      </trkpt>
      <trkpt lat="49.21188" lon="1.24702">
        <ele>8.191709</ele>
        <time>2015-08-13T14:39:56Z</time>
      </trkpt>
      <trkpt lat="49.21189" lon="1.24702">
        <ele>8.191709</ele>
        <time>2015-08-13T14:40:01Z</time>
      </trkpt>
      <trkpt lat="49.21188" lon="1.24702">
        <ele>8.191709</ele>
        <time>2015-08-13T14:40:06Z</time>
      </trkpt>
      <trkpt lat="49.21188" lon="1.24702">
        <ele>8.191709</ele>
        <time>2015-08-13T14:40:11Z</time>
      </trkpt>
      <trkpt lat="49.21188" lon="1.24701">
        <ele>8.191709</ele>
        <time>2015-08-13T14:40:16Z</time>
      </trkpt>
      <trkpt lat="49.21187" lon="1.24703">
        <ele>8.191709</ele>
        <time>2015-08-13T14:40:21Z</time>
      </trkpt>
      <trkpt lat="49.21185" lon="1.24701">
        <ele>7.9995704</ele>
        <time>2015-08-13T14:40:26Z</time>
      </trkpt>
      <trkpt lat="49.2118" lon="1.24696">
        <ele>7.9995704</ele>
        <time>2015-08-13T14:40:31Z</time>
      </trkpt>
      <trkpt lat="49.21168" lon="1.24686">
        <ele>7.9720535</ele>
        <time>2015-08-13T14:40:41Z</time>
      </trkpt>
      <trkpt lat="49.21163" lon="1.24683">
        <ele>7.9720535</ele>
        <time>2015-08-13T14:40:47Z</time>
      </trkpt>
      <trkpt lat="49.21147" lon="1.24669">
        <ele>8.067959</ele>
        <time>2015-08-13T14:41:01Z</time>
      </trkpt>
      <trkpt lat="49.21142" lon="1.24666">
        <ele>8.067959</ele>
        <time>2015-08-13T14:41:06Z</time>
      </trkpt>
      <trkpt lat="49.21131" lon="1.24656">
        <ele>8.219956</ele>
        <time>2015-08-13T14:41:16Z</time>
      </trkpt>
      <trkpt lat="49.21125" lon="1.24651">
        <ele>8.219956</ele>
        <time>2015-08-13T14:41:21Z</time>
      </trkpt>
      <trkpt lat="49.21115" lon="1.24642">
        <ele>8.466392</ele>
        <time>2015-08-13T14:41:31Z</time>
      </trkpt>
      <trkpt lat="49.2111" lon="1.24637">
        <ele>8.466392</ele>
        <time>2015-08-13T14:41:36Z</time>
      </trkpt>
      <trkpt lat="49.21099" lon="1.24627">
        <ele>8.741663</ele>
        <time>2015-08-13T14:41:46Z</time>
      </trkpt>
      <trkpt lat="49.21092" lon="1.24622">
        <ele>8.741663</ele>
        <time>2015-08-13T14:41:51Z</time>
      </trkpt>
      <trkpt lat="49.21082" lon="1.24615">
        <ele>9.028156</ele>
        <time>2015-08-13T14:42:01Z</time>
      </trkpt>
      <trkpt lat="49.21076" lon="1.24608">
        <ele>9.028156</ele>
        <time>2015-08-13T14:42:06Z</time>
      </trkpt>
      <trkpt lat="49.21065" lon="1.24599">
        <ele>9.309534</ele>
        <time>2015-08-13T14:42:16Z</time>
      </trkpt>
      <trkpt lat="49.2106" lon="1.24595">
        <ele>9.309534</ele>
        <time>2015-08-13T14:42:21Z</time>
      </trkpt>
      <trkpt lat="49.21049" lon="1.24586">
        <ele>9.613925</ele>
        <time>2015-08-13T14:42:31Z</time>
      </trkpt>
      <trkpt lat="49.21045" lon="1.2458">
        <ele>9.613925</ele>
        <time>2015-08-13T14:42:36Z</time>
      </trkpt>
      <trkpt lat="49.21043" lon="1.24562">
        <ele>9.880881</ele>
        <time>2015-08-13T14:42:46Z</time>
      </trkpt>
      <trkpt lat="49.21047" lon="1.24555">
        <ele>9.880881</ele>
        <time>2015-08-13T14:42:51Z</time>
      </trkpt>
      <trkpt lat="49.21056" lon="1.24541">
        <ele>10.213043</ele>
        <time>2015-08-13T14:43:01Z</time>
      </trkpt>
      <trkpt lat="49.2106" lon="1.24535">
        <ele>10.213043</ele>
        <time>2015-08-13T14:43:06Z</time>
      </trkpt>
      <trkpt lat="49.2107" lon="1.24521">
        <ele>10.647709</ele>
        <time>2015-08-13T14:43:16Z</time>
      </trkpt>
      <trkpt lat="49.21074" lon="1.24515">
        <ele>10.647709</ele>
        <time>2015-08-13T14:43:22Z</time>
      </trkpt>
      <trkpt lat="49.21084" lon="1.24502">
        <ele>11.075063</ele>
        <time>2015-08-13T14:43:32Z</time>
      </trkpt>
      <trkpt lat="49.2109" lon="1.24495">
        <ele>11.075063</ele>
        <time>2015-08-13T14:43:36Z</time>
      </trkpt>
      <trkpt lat="49.21103" lon="1.24475">
        <ele>11.523103</ele>
        <time>2015-08-13T14:43:51Z</time>
      </trkpt>
      <trkpt lat="49.21108" lon="1.24468">
        <ele>11.523103</ele>
        <time>2015-08-13T14:43:56Z</time>
      </trkpt>
      <trkpt lat="49.21118" lon="1.24456">
        <ele>11.974511</ele>
        <time>2015-08-13T14:44:06Z</time>
      </trkpt>
      <trkpt lat="49.21122" lon="1.24449">
        <ele>11.974511</ele>
        <time>2015-08-13T14:44:11Z</time>
      </trkpt>
      <trkpt lat="49.21132" lon="1.24434">
        <ele>12.384438</ele>
        <time>2015-08-13T14:44:21Z</time>
      </trkpt>
      <trkpt lat="49.21137" lon="1.24429">
        <ele>12.384438</ele>
        <time>2015-08-13T14:44:26Z</time>
      </trkpt>
      <trkpt lat="49.21147" lon="1.24414">
        <ele>12.769123</ele>
        <time>2015-08-13T14:44:36Z</time>
      </trkpt>
      <trkpt lat="49.21152" lon="1.24407">
        <ele>12.769123</ele>
        <time>2015-08-13T14:44:41Z</time>
      </trkpt>
      <trkpt lat="49.21159" lon="1.24395">
        <ele>13.114898</ele>
        <time>2015-08-13T14:44:51Z</time>
      </trkpt>
      <trkpt lat="49.21164" lon="1.24386">
        <ele>13.114898</ele>
        <time>2015-08-13T14:44:57Z</time>
      </trkpt>
      <trkpt lat="49.21174" lon="1.24375">
        <ele>13.409238</ele>
        <time>2015-08-13T14:45:06Z</time>
      </trkpt>
      <trkpt lat="49.21178" lon="1.24369">
        <ele>13.409238</ele>
        <time>2015-08-13T14:45:11Z</time>
      </trkpt>
      <trkpt lat="49.21188" lon="1.24353">
        <ele>13.712776</ele>
        <time>2015-08-13T14:45:21Z</time>
      </trkpt>
      <trkpt lat="49.21192" lon="1.24348">
        <ele>13.712776</ele>
        <time>2015-08-13T14:45:26Z</time>
      </trkpt>
      <trkpt lat="49.21201" lon="1.24334">
        <ele>14.009644</ele>
        <time>2015-08-13T14:45:36Z</time>
      </trkpt>
      <trkpt lat="49.21205" lon="1.24328">
        <ele>14.009644</ele>
        <time>2015-08-13T14:45:41Z</time>
      </trkpt>
      <trkpt lat="49.21214" lon="1.24312">
        <ele>14.241959</ele>
        <time>2015-08-13T14:45:51Z</time>
      </trkpt>
      <trkpt lat="49.21219" lon="1.24306">
        <ele>14.241959</ele>
        <time>2015-08-13T14:45:56Z</time>
      </trkpt>
      <trkpt lat="49.21227" lon="1.24292">
        <ele>14.370716</ele>
        <time>2015-08-13T14:46:06Z</time>
      </trkpt>
      <trkpt lat="49.21233" lon="1.24285">
        <ele>14.370716</ele>
        <time>2015-08-13T14:46:11Z</time>
      </trkpt>
      <trkpt lat="49.21242" lon="1.24273">
        <ele>14.5042095</ele>
        <time>2015-08-13T14:46:21Z</time>
      </trkpt>
      <trkpt lat="49.21247" lon="1.24267">
        <ele>14.5042095</ele>
        <time>2015-08-13T14:46:26Z</time>
      </trkpt>
      <trkpt lat="49.21257" lon="1.24254">
        <ele>14.598685</ele>
        <time>2015-08-13T14:46:36Z</time>
      </trkpt>
      <trkpt lat="49.21261" lon="1.24247">
        <ele>14.598685</ele>
        <time>2015-08-13T14:46:41Z</time>
      </trkpt>
      <trkpt lat="49.21276" lon="1.24226">
        <ele>14.656977</ele>
        <time>2015-08-13T14:46:56Z</time>
      </trkpt>
      <trkpt lat="49.21281" lon="1.24217">
        <ele>14.656977</ele>
        <time>2015-08-13T14:47:01Z</time>
      </trkpt>
      <trkpt lat="49.21289" lon="1.24205">
        <ele>14.60978</ele>
        <time>2015-08-13T14:47:11Z</time>
      </trkpt>
      <trkpt lat="49.21295" lon="1.24198">
        <ele>14.60978</ele>
        <time>2015-08-13T14:47:16Z</time>
      </trkpt>
      <trkpt lat="49.21305" lon="1.24184">
        <ele>14.5084915</ele>
        <time>2015-08-13T14:47:26Z</time>
      </trkpt>
      <trkpt lat="49.21309" lon="1.24178">
        <ele>14.5084915</ele>
        <time>2015-08-13T14:47:31Z</time>
      </trkpt>
      <trkpt lat="49.21318" lon="1.24164">
        <ele>14.372085</ele>
        <time>2015-08-13T14:47:41Z</time>
      </trkpt>
      <trkpt lat="49.21322" lon="1.24157">
        <ele>14.372085</ele>
        <time>2015-08-13T14:47:46Z</time>
      </trkpt>
      <trkpt lat="49.21332" lon="1.24144">
        <ele>14.117375</ele>
        <time>2015-08-13T14:47:56Z</time>
      </trkpt>
      <trkpt lat="49.21337" lon="1.24138">
        <ele>14.117375</ele>
        <time>2015-08-13T14:48:01Z</time>
      </trkpt>
      <trkpt lat="49.21346" lon="1.24125">
        <ele>13.854983</ele>
        <time>2015-08-13T14:48:11Z</time>
      </trkpt>
      <trkpt lat="49.2135" lon="1.24117">
        <ele>13.854983</ele>
        <time>2015-08-13T14:48:16Z</time>
      </trkpt>
      <trkpt lat="49.21365" lon="1.24095">
        <ele>13.615377</ele>
        <time>2015-08-13T14:48:31Z</time>
      </trkpt>
      <trkpt lat="49.21369" lon="1.2409">
        <ele>13.615377</ele>
        <time>2015-08-13T14:48:36Z</time>
      </trkpt>
      <trkpt lat="49.21379" lon="1.24078">
        <ele>13.54202</ele>
        <time>2015-08-13T14:48:46Z</time>
      </trkpt>
      <trkpt lat="49.21379" lon="1.24077">
        <ele>13.54202</ele>
        <time>2015-08-13T14:48:51Z</time>
      </trkpt>
      <trkpt lat="49.21387" lon="1.24065">
        <ele>13.47915</ele>
        <time>2015-08-13T14:49:01Z</time>
      </trkpt>
      <trkpt lat="49.21394" lon="1.24057">
        <ele>13.47915</ele>
        <time>2015-08-13T14:49:06Z</time>
      </trkpt>
      <trkpt lat="49.21402" lon="1.24042">
        <ele>13.440942</ele>
        <time>2015-08-13T14:49:16Z</time>
      </trkpt>
      <trkpt lat="49.21406" lon="1.24035">
        <ele>13.440942</ele>
        <time>2015-08-13T14:49:21Z</time>
      </trkpt>
      <trkpt lat="49.21413" lon="1.24023">
        <ele>13.368406</ele>
        <time>2015-08-13T14:49:31Z</time>
      </trkpt>
      <trkpt lat="49.21414" lon="1.24023">
        <ele>13.368406</ele>
        <time>2015-08-13T14:49:36Z</time>
      </trkpt>
      <trkpt lat="49.21419" lon="1.24017">
        <ele>13.368406</ele>
        <time>2015-08-13T14:49:46Z</time>
      </trkpt>
      <trkpt lat="49.21424" lon="1.24013">
        <ele>13.279034</ele>
        <time>2015-08-13T14:49:51Z</time>
      </trkpt>
      <trkpt lat="49.21437" lon="1.24016">
        <ele>13.088196</ele>
        <time>2015-08-13T14:50:06Z</time>
      </trkpt>
      <trkpt lat="49.2144" lon="1.24023">
        <ele>13.088196</ele>
        <time>2015-08-13T14:50:11Z</time>
      </trkpt>
      <trkpt lat="49.21447" lon="1.24031">
        <ele>12.818639</ele>
        <time>2015-08-13T14:50:21Z</time>
      </trkpt>
      <trkpt lat="49.21454" lon="1.24028">
        <ele>12.818639</ele>
        <time>2015-08-13T14:50:26Z</time>
      </trkpt>
      <trkpt lat="49.2146" lon="1.24021">
        <ele>12.549295</ele>
        <time>2015-08-13T14:50:36Z</time>
      </trkpt>
      <trkpt lat="49.21464" lon="1.24012">
        <ele>12.549295</ele>
        <time>2015-08-13T14:50:41Z</time>
      </trkpt>
      <trkpt lat="49.21467" lon="1.23996">
        <ele>12.410932</ele>
        <time>2015-08-13T14:50:51Z</time>
      </trkpt>
      <trkpt lat="49.21467" lon="1.23988">
        <ele>12.410932</ele>
        <time>2015-08-13T14:50:56Z</time>
      </trkpt>
      <trkpt lat="49.21463" lon="1.23987">
        <ele>12.38022</ele>
        <time>2015-08-13T14:51:06Z</time>
      </trkpt>
      <trkpt lat="49.21465" lon="1.23987">
        <ele>12.38022</ele>
        <time>2015-08-13T14:51:11Z</time>
      </trkpt>
      <trkpt lat="49.21466" lon="1.23989">
        <ele>12.38022</ele>
        <time>2015-08-13T14:51:21Z</time>
      </trkpt>
      <trkpt lat="49.21465" lon="1.23989">
        <ele>12.38022</ele>
        <time>2015-08-13T14:51:26Z</time>
      </trkpt>
      <trkpt lat="49.21464" lon="1.23985">
        <ele>12.38022</ele>
        <time>2015-08-13T14:51:36Z</time>
      </trkpt>
      <trkpt lat="49.21461" lon="1.23978">
        <ele>12.147007</ele>
        <time>2015-08-13T14:51:41Z</time>
      </trkpt>
      <trkpt lat="49.2146" lon="1.23974">
        <ele>12.147007</ele>
        <time>2015-08-13T14:51:51Z</time>
      </trkpt>
      <trkpt lat="49.21457" lon="1.23974">
        <ele>12.147007</ele>
        <time>2015-08-13T14:51:56Z</time>
      </trkpt>
      <trkpt lat="49.21454" lon="1.23978">
        <ele>11.827988</ele>
        <time>2015-08-13T14:52:06Z</time>
      </trkpt>
      <trkpt lat="49.21453" lon="1.23978">
        <ele>11.827988</ele>
        <time>2015-08-13T14:52:11Z</time>
      </trkpt>
      <trkpt lat="49.21458" lon="1.23977">
        <ele>11.827988</ele>
        <time>2015-08-13T14:52:26Z</time>
      </trkpt>
      <trkpt lat="49.2146" lon="1.23976">
        <ele>11.827988</ele>
        <time>2015-08-13T14:52:31Z</time>
      </trkpt>
      <trkpt lat="49.21463" lon="1.23976">
        <ele>11.560331</ele>
        <time>2015-08-13T14:52:41Z</time>
      </trkpt>
      <trkpt lat="49.21464" lon="1.23978">
        <ele>11.560331</ele>
        <time>2015-08-13T14:52:46Z</time>
      </trkpt>
      <trkpt lat="49.21464" lon="1.23979">
        <ele>11.560331</ele>
        <time>2015-08-13T14:52:56Z</time>
      </trkpt>
      <trkpt lat="49.21465" lon="1.23982">
        <ele>11.560331</ele>
        <time>2015-08-13T14:53:01Z</time>
      </trkpt>
      <trkpt lat="49.21464" lon="1.23982">
        <ele>11.560331</ele>
        <time>2015-08-13T14:53:11Z</time>
      </trkpt>
      <trkpt lat="49.21464" lon="1.2398">
        <ele>11.560331</ele>
        <time>2015-08-13T14:53:16Z</time>
      </trkpt>
      <trkpt lat="49.21465" lon="1.2398">
        <ele>11.560331</ele>
        <time>2015-08-13T14:53:26Z</time>
      </trkpt>
      <trkpt lat="49.21466" lon="1.23981">
        <ele>11.560331</ele>
        <time>2015-08-13T14:53:31Z</time>
      </trkpt>
      <trkpt lat="49.21465" lon="1.23982">
        <ele>11.067457</ele>
        <time>2015-08-13T14:53:41Z</time>
      </trkpt>
      <trkpt lat="49.21467" lon="1.23982">
        <ele>11.067457</ele>
        <time>2015-08-13T14:53:46Z</time>
      </trkpt>
      <trkpt lat="49.21468" lon="1.23986">
        <ele>11.067457</ele>
        <time>2015-08-13T14:54:01Z</time>
      </trkpt>
      <trkpt lat="49.21468" lon="1.23987">
        <ele>11.067457</ele>
        <time>2015-08-13T14:54:06Z</time>
      </trkpt>
      <trkpt lat="49.21471" lon="1.23985">
        <ele>11.067457</ele>
        <time>2015-08-13T14:54:16Z</time>
      </trkpt>
      <trkpt lat="49.21471" lon="1.23985">
        <ele>10.742214</ele>
        <time>2015-08-13T14:54:21Z</time>
      </trkpt>
      <trkpt lat="49.21471" lon="1.23986">
        <ele>10.742214</ele>
        <time>2015-08-13T14:54:31Z</time>
      </trkpt>
      <trkpt lat="49.21471" lon="1.23984">
        <ele>10.742214</ele>
        <time>2015-08-13T14:54:36Z</time>
      </trkpt>
      <trkpt lat="49.21469" lon="1.23986">
        <ele>10.742214</ele>
        <time>2015-08-13T14:54:46Z</time>
      </trkpt>
      <trkpt lat="49.21468" lon="1.23985">
        <ele>10.742214</ele>
        <time>2015-08-13T14:54:51Z</time>
      </trkpt>
      <trkpt lat="49.2147" lon="1.23985">
        <ele>10.742214</ele>
        <time>2015-08-13T14:55:01Z</time>
      </trkpt>
      <trkpt lat="49.21468" lon="1.23986">
        <ele>10.3860655</ele>
        <time>2015-08-13T14:55:06Z</time>
      </trkpt>
      <trkpt lat="49.21468" lon="1.23986">
        <ele>10.3860655</ele>
        <time>2015-08-13T14:55:16Z</time>
      </trkpt>
      <trkpt lat="49.2147" lon="1.23979">
        <ele>10.3860655</ele>
        <time>2015-08-13T14:55:21Z</time>
      </trkpt>
      <trkpt lat="49.21476" lon="1.23965">
        <ele>10.160989</ele>
        <time>2015-08-13T14:55:36Z</time>
      </trkpt>
      <trkpt lat="49.2148" lon="1.2396">
        <ele>10.160989</ele>
        <time>2015-08-13T14:55:41Z</time>
      </trkpt>
      <trkpt lat="49.21486" lon="1.2395">
        <ele>10.086969</ele>
        <time>2015-08-13T14:55:51Z</time>
      </trkpt>
      <trkpt lat="49.21491" lon="1.23942">
        <ele>10.086969</ele>
        <time>2015-08-13T14:55:56Z</time>
      </trkpt>
      <trkpt lat="49.21497" lon="1.23931">
        <ele>9.980319</ele>
        <time>2015-08-13T14:56:06Z</time>
      </trkpt>
      <trkpt lat="49.21501" lon="1.23925">
        <ele>9.980319</ele>
        <time>2015-08-13T14:56:11Z</time>
      </trkpt>
      <trkpt lat="49.2151" lon="1.23913">
        <ele>10.045598</ele>
        <time>2015-08-13T14:56:21Z</time>
      </trkpt>
      <trkpt lat="49.21513" lon="1.23908">
        <ele>10.045598</ele>
        <time>2015-08-13T14:56:26Z</time>
      </trkpt>
      <trkpt lat="49.21521" lon="1.23893">
        <ele>10.18361</ele>
        <time>2015-08-13T14:56:36Z</time>
      </trkpt>
      <trkpt lat="49.21527" lon="1.23888">
        <ele>10.18361</ele>
        <time>2015-08-13T14:56:41Z</time>
      </trkpt>
      <trkpt lat="49.21536" lon="1.23871">
        <ele>10.28781</ele>
        <time>2015-08-13T14:56:56Z</time>
      </trkpt>
      <trkpt lat="49.21541" lon="1.23864">
        <ele>10.28781</ele>
        <time>2015-08-13T14:57:01Z</time>
      </trkpt>
      <trkpt lat="49.2155" lon="1.23857">
        <ele>10.446898</ele>
        <time>2015-08-13T14:57:11Z</time>
      </trkpt>
      <trkpt lat="49.21556" lon="1.2385">
        <ele>10.446898</ele>
        <time>2015-08-13T14:57:16Z</time>
      </trkpt>
      <trkpt lat="49.21564" lon="1.23839">
        <ele>10.65642</ele>
        <time>2015-08-13T14:57:26Z</time>
      </trkpt>
      <trkpt lat="49.21567" lon="1.23833">
        <ele>10.65642</ele>
        <time>2015-08-13T14:57:31Z</time>
      </trkpt>
      <trkpt lat="49.21575" lon="1.2382">
        <ele>10.811213</ele>
        <time>2015-08-13T14:57:41Z</time>
      </trkpt>
      <trkpt lat="49.21579" lon="1.23811">
        <ele>10.811213</ele>
        <time>2015-08-13T14:57:46Z</time>
      </trkpt>
      <trkpt lat="49.21585" lon="1.23801">
        <ele>10.886036</ele>
        <time>2015-08-13T14:57:56Z</time>
      </trkpt>
      <trkpt lat="49.2159" lon="1.23794">
        <ele>10.886036</ele>
        <time>2015-08-13T14:58:01Z</time>
      </trkpt>
      <trkpt lat="49.21599" lon="1.23784">
        <ele>10.929775</ele>
        <time>2015-08-13T14:58:11Z</time>
      </trkpt>
      <trkpt lat="49.21604" lon="1.2378">
        <ele>10.929775</ele>
        <time>2015-08-13T14:58:16Z</time>
      </trkpt>
      <trkpt lat="49.21614" lon="1.23767">
        <ele>11.016622</ele>
        <time>2015-08-13T14:58:26Z</time>
      </trkpt>
      <trkpt lat="49.21619" lon="1.23764">
        <ele>11.016622</ele>
        <time>2015-08-13T14:58:31Z</time>
      </trkpt>
      <trkpt lat="49.21627" lon="1.23755">
        <ele>11.042256</ele>
        <time>2015-08-13T14:58:41Z</time>
      </trkpt>
      <trkpt lat="49.21631" lon="1.23749">
        <ele>11.042256</ele>
        <time>2015-08-13T14:58:46Z</time>
      </trkpt>
      <trkpt lat="49.21641" lon="1.23741">
        <ele>11.011067</ele>
        <time>2015-08-13T14:58:56Z</time>
      </trkpt>
      <trkpt lat="49.21646" lon="1.23737">
        <ele>11.011067</ele>
        <time>2015-08-13T14:59:01Z</time>
      </trkpt>
      <trkpt lat="49.21655" lon="1.23727">
        <ele>11.013739</ele>
        <time>2015-08-13T14:59:12Z</time>
      </trkpt>
      <trkpt lat="49.21658" lon="1.23724">
        <ele>11.013739</ele>
        <time>2015-08-13T14:59:16Z</time>
      </trkpt>
      <trkpt lat="49.21668" lon="1.23713">
        <ele>10.990085</ele>
        <time>2015-08-13T14:59:26Z</time>
      </trkpt>
      <trkpt lat="49.21674" lon="1.23708">
        <ele>10.990085</ele>
        <time>2015-08-13T14:59:31Z</time>
      </trkpt>
      <trkpt lat="49.21684" lon="1.23697">
        <ele>11.014107</ele>
        <time>2015-08-13T14:59:41Z</time>
      </trkpt>
      <trkpt lat="49.21689" lon="1.23692">
        <ele>11.014107</ele>
        <time>2015-08-13T14:59:46Z</time>
      </trkpt>
      <trkpt lat="49.21703" lon="1.23678">
        <ele>11.010124</ele>
        <time>2015-08-13T15:00:01Z</time>
      </trkpt>
      <trkpt lat="49.21707" lon="1.23673">
        <ele>11.010124</ele>
        <time>2015-08-13T15:00:06Z</time>
      </trkpt>
      <trkpt lat="49.21716" lon="1.23662">
        <ele>10.994556</ele>
        <time>2015-08-13T15:00:16Z</time>
      </trkpt>
      <trkpt lat="49.2172" lon="1.23659">
        <ele>10.994556</ele>
        <time>2015-08-13T15:00:21Z</time>
      </trkpt>
      <trkpt lat="49.21729" lon="1.2365">
        <ele>10.982645</ele>
        <time>2015-08-13T15:00:31Z</time>
      </trkpt>
      <trkpt lat="49.21734" lon="1.23645">
        <ele>10.982645</ele>
        <time>2015-08-13T15:00:36Z</time>
      </trkpt>
      <trkpt lat="49.21744" lon="1.23637">
        <ele>10.959679</ele>
        <time>2015-08-13T15:00:46Z</time>
      </trkpt>
      <trkpt lat="49.21749" lon="1.23631">
        <ele>10.959679</ele>
        <time>2015-08-13T15:00:51Z</time>
      </trkpt>
      <trkpt lat="49.21758" lon="1.23623">
        <ele>11.11381</ele>
        <time>2015-08-13T15:01:01Z</time>
      </trkpt>
      <trkpt lat="49.21765" lon="1.23616">
        <ele>11.11381</ele>
        <time>2015-08-13T15:01:06Z</time>
      </trkpt>
      <trkpt lat="49.21774" lon="1.23604">
        <ele>11.287415</ele>
        <time>2015-08-13T15:01:16Z</time>
      </trkpt>
      <trkpt lat="49.21779" lon="1.23601">
        <ele>11.287415</ele>
        <time>2015-08-13T15:01:21Z</time>
      </trkpt>
      <trkpt lat="49.21789" lon="1.23592">
        <ele>11.420862</ele>
        <time>2015-08-13T15:01:31Z</time>
      </trkpt>
      <trkpt lat="49.21793" lon="1.23588">
        <ele>11.420862</ele>
        <time>2015-08-13T15:01:36Z</time>
      </trkpt>
      <trkpt lat="49.21804" lon="1.23578">
        <ele>11.603125</ele>
        <time>2015-08-13T15:01:46Z</time>
      </trkpt>
      <trkpt lat="49.21808" lon="1.23574">
        <ele>11.603125</ele>
        <time>2015-08-13T15:01:51Z</time>
      </trkpt>
      <trkpt lat="49.21819" lon="1.23565">
        <ele>11.613873</ele>
        <time>2015-08-13T15:02:01Z</time>
      </trkpt>
      <trkpt lat="49.21825" lon="1.23561">
        <ele>11.613873</ele>
        <time>2015-08-13T15:02:06Z</time>
      </trkpt>
      <trkpt lat="49.21834" lon="1.23554">
        <ele>11.508843</ele>
        <time>2015-08-13T15:02:16Z</time>
      </trkpt>
      <trkpt lat="49.21839" lon="1.2355">
        <ele>11.508843</ele>
        <time>2015-08-13T15:02:21Z</time>
      </trkpt>
      <trkpt lat="49.21856" lon="1.23539">
        <ele>11.48412</ele>
        <time>2015-08-13T15:02:36Z</time>
      </trkpt>
      <trkpt lat="49.2186" lon="1.23537">
        <ele>11.48412</ele>
        <time>2015-08-13T15:02:41Z</time>
      </trkpt>
      <trkpt lat="49.21871" lon="1.23528">
        <ele>11.461761</ele>
        <time>2015-08-13T15:02:51Z</time>
      </trkpt>
      <trkpt lat="49.21875" lon="1.23525">
        <ele>11.461761</ele>
        <time>2015-08-13T15:02:56Z</time>
      </trkpt>
      <trkpt lat="49.21888" lon="1.23518">
        <ele>11.412779</ele>
        <time>2015-08-13T15:03:06Z</time>
      </trkpt>
      <trkpt lat="49.21893" lon="1.23515">
        <ele>11.412779</ele>
        <time>2015-08-13T15:03:11Z</time>
      </trkpt>
      <trkpt lat="49.21902" lon="1.23507">
        <ele>11.368034</ele>
        <time>2015-08-13T15:03:21Z</time>
      </trkpt>
      <trkpt lat="49.21907" lon="1.23504">
        <ele>11.368034</ele>
        <time>2015-08-13T15:03:26Z</time>
      </trkpt>
      <trkpt lat="49.21919" lon="1.23495">
        <ele>11.370527</ele>
        <time>2015-08-13T15:03:37Z</time>
      </trkpt>
      <trkpt lat="49.21924" lon="1.23492">
        <ele>11.370527</ele>
        <time>2015-08-13T15:03:41Z</time>
      </trkpt>
      <trkpt lat="49.21934" lon="1.23483">
        <ele>11.416731</ele>
        <time>2015-08-13T15:03:51Z</time>
      </trkpt>
      <trkpt lat="49.21939" lon="1.2348">
        <ele>11.416731</ele>
        <time>2015-08-13T15:03:56Z</time>
      </trkpt>
      <trkpt lat="49.2195" lon="1.23472">
        <ele>11.359148</ele>
        <time>2015-08-13T15:04:06Z</time>
      </trkpt>
      <trkpt lat="49.21956" lon="1.23468">
        <ele>11.359148</ele>
        <time>2015-08-13T15:04:11Z</time>
      </trkpt>
      <trkpt lat="49.21965" lon="1.23462">
        <ele>11.378452</ele>
        <time>2015-08-13T15:04:21Z</time>
      </trkpt>
      <trkpt lat="49.2197" lon="1.23458">
        <ele>11.378452</ele>
        <time>2015-08-13T15:04:26Z</time>
      </trkpt>
      <trkpt lat="49.21981" lon="1.23449">
        <ele>11.368022</ele>
        <time>2015-08-13T15:04:36Z</time>
      </trkpt>
      <trkpt lat="49.21987" lon="1.23446">
        <ele>11.368022</ele>
        <time>2015-08-13T15:04:41Z</time>
      </trkpt>
      <trkpt lat="49.21997" lon="1.23438">
        <ele>11.315617</ele>
        <time>2015-08-13T15:04:51Z</time>
      </trkpt>
      <trkpt lat="49.22002" lon="1.23433">
        <ele>11.315617</ele>
        <time>2015-08-13T15:04:56Z</time>
      </trkpt>
      <trkpt lat="49.22011" lon="1.23427">
        <ele>11.224427</ele>
        <time>2015-08-13T15:05:06Z</time>
      </trkpt>
      <trkpt lat="49.22017" lon="1.23423">
        <ele>11.224427</ele>
        <time>2015-08-13T15:05:11Z</time>
      </trkpt>
      <trkpt lat="49.22028" lon="1.23414">
        <ele>11.155166</ele>
        <time>2015-08-13T15:05:21Z</time>
      </trkpt>
      <trkpt lat="49.22035" lon="1.23411">
        <ele>11.155166</ele>
        <time>2015-08-13T15:05:26Z</time>
      </trkpt>
      <trkpt lat="49.2205" lon="1.23398">
        <ele>11.04873</ele>
        <time>2015-08-13T15:05:41Z</time>
      </trkpt>
      <trkpt lat="49.22055" lon="1.23395">
        <ele>11.04873</ele>
        <time>2015-08-13T15:05:46Z</time>
      </trkpt>
      <trkpt lat="49.22067" lon="1.23389">
        <ele>11.008991</ele>
        <time>2015-08-13T15:05:57Z</time>
      </trkpt>
      <trkpt lat="49.22072" lon="1.23385">
        <ele>11.008991</ele>
        <time>2015-08-13T15:06:01Z</time>
      </trkpt>
      <trkpt lat="49.22081" lon="1.23378">
        <ele>11.031121</ele>
        <time>2015-08-13T15:06:11Z</time>
      </trkpt>
      <trkpt lat="49.22087" lon="1.23374">
        <ele>11.031121</ele>
        <time>2015-08-13T15:06:16Z</time>
      </trkpt>
      <trkpt lat="49.22097" lon="1.23365">
        <ele>11.05283</ele>
        <time>2015-08-13T15:06:26Z</time>
      </trkpt>
      <trkpt lat="49.22102" lon="1.23362">
        <ele>11.05283</ele>
        <time>2015-08-13T15:06:31Z</time>
      </trkpt>
      <trkpt lat="49.22113" lon="1.23354">
        <ele>11.045224</ele>
        <time>2015-08-13T15:06:41Z</time>
      </trkpt>
      <trkpt lat="49.22119" lon="1.23351">
        <ele>11.045224</ele>
        <time>2015-08-13T15:06:46Z</time>
      </trkpt>
      <trkpt lat="49.22129" lon="1.23344">
        <ele>11.082494</ele>
        <time>2015-08-13T15:06:56Z</time>
      </trkpt>
      <trkpt lat="49.22133" lon="1.2334">
        <ele>11.082494</ele>
        <time>2015-08-13T15:07:01Z</time>
      </trkpt>
      <trkpt lat="49.22146" lon="1.23334">
        <ele>11.06032</ele>
        <time>2015-08-13T15:07:16Z</time>
      </trkpt>
      <trkpt lat="49.22144" lon="1.23334">
        <ele>11.06032</ele>
        <time>2015-08-13T15:07:21Z</time>
      </trkpt>
      <trkpt lat="49.22149" lon="1.23339">
        <ele>11.06032</ele>
        <time>2015-08-13T15:07:31Z</time>
      </trkpt>
      <trkpt lat="49.22152" lon="1.23346">
        <ele>10.853391</ele>
        <time>2015-08-13T15:07:36Z</time>
      </trkpt>
      <trkpt lat="49.22157" lon="1.23364">
        <ele>10.591105</ele>
        <time>2015-08-13T15:07:46Z</time>
      </trkpt>
      <trkpt lat="49.22158" lon="1.23374">
        <ele>10.591105</ele>
        <time>2015-08-13T15:07:51Z</time>
      </trkpt>
      <trkpt lat="49.22162" lon="1.2339">
        <ele>10.393512</ele>
        <time>2015-08-13T15:08:01Z</time>
      </trkpt>
      <trkpt lat="49.22164" lon="1.23397">
        <ele>10.393512</ele>
        <time>2015-08-13T15:08:06Z</time>
      </trkpt>
      <trkpt lat="49.22168" lon="1.23413">
        <ele>10.241954</ele>
        <time>2015-08-13T15:08:16Z</time>
      </trkpt>
      <trkpt lat="49.22171" lon="1.23419">
        <ele>10.241954</ele>
        <time>2015-08-13T15:08:21Z</time>
      </trkpt>
      <trkpt lat="49.22178" lon="1.23434">
        <ele>10.104603</ele>
        <time>2015-08-13T15:08:31Z</time>
      </trkpt>
      <trkpt lat="49.22181" lon="1.23443">
        <ele>10.104603</ele>
        <time>2015-08-13T15:08:37Z</time>
      </trkpt>
      <trkpt lat="49.22187" lon="1.23461">
        <ele>9.879866</ele>
        <time>2015-08-13T15:08:46Z</time>
      </trkpt>
      <trkpt lat="49.2219" lon="1.23469">
        <ele>9.879866</ele>
        <time>2015-08-13T15:08:51Z</time>
      </trkpt>
      <trkpt lat="49.22196" lon="1.23485">
        <ele>9.718841</ele>
        <time>2015-08-13T15:09:01Z</time>
      </trkpt>
      <trkpt lat="49.22198" lon="1.23493">
        <ele>9.718841</ele>
        <time>2015-08-13T15:09:06Z</time>
      </trkpt>
      <trkpt lat="49.22207" lon="1.23519">
        <ele>9.545175</ele>
        <time>2015-08-13T15:09:22Z</time>
      </trkpt>
      <trkpt lat="49.2221" lon="1.23526">
        <ele>9.545175</ele>
        <time>2015-08-13T15:09:26Z</time>
      </trkpt>
      <trkpt lat="49.22216" lon="1.23538">
        <ele>9.259327</ele>
        <time>2015-08-13T15:09:36Z</time>
      </trkpt>
      <trkpt lat="49.22218" lon="1.23545">
        <ele>9.259327</ele>
        <time>2015-08-13T15:09:41Z</time>
      </trkpt>
      <trkpt lat="49.22219" lon="1.23552">
        <ele>8.985543</ele>
        <time>2015-08-13T15:09:46Z</time>
      </trkpt>
      <trkpt lat="49.22224" lon="1.23569">
        <ele>8.723608</ele>
        <time>2015-08-13T15:09:56Z</time>
      </trkpt>
      <trkpt lat="49.22227" lon="1.23577">
        <ele>8.723608</ele>
        <time>2015-08-13T15:10:01Z</time>
      </trkpt>
      <trkpt lat="49.22233" lon="1.23595">
        <ele>8.473278</ele>
        <time>2015-08-13T15:10:11Z</time>
      </trkpt>
      <trkpt lat="49.22236" lon="1.23601">
        <ele>8.473278</ele>
        <time>2015-08-13T15:10:16Z</time>
      </trkpt>
      <trkpt lat="49.22247" lon="1.23601">
        <ele>8.349571</ele>
        <time>2015-08-13T15:10:26Z</time>
      </trkpt>
      <trkpt lat="49.2225" lon="1.23598">
        <ele>8.349571</ele>
        <time>2015-08-13T15:10:31Z</time>
      </trkpt>
      <trkpt lat="49.2225" lon="1.23597">
        <ele>8.349571</ele>
        <time>2015-08-13T15:10:46Z</time>
      </trkpt>
      <trkpt lat="49.22251" lon="1.236">
        <ele>8.349571</ele>
        <time>2015-08-13T15:10:51Z</time>
      </trkpt>
      <trkpt lat="49.22251" lon="1.236">
        <ele>8.349571</ele>
        <time>2015-08-13T15:11:01Z</time>
      </trkpt>
      <trkpt lat="49.22253" lon="1.236">
        <ele>8.300169</ele>
        <time>2015-08-13T15:11:06Z</time>
      </trkpt>
      <trkpt lat="49.22255" lon="1.23599">
        <ele>8.300169</ele>
        <time>2015-08-13T15:11:16Z</time>
      </trkpt>
      <trkpt lat="49.22253" lon="1.236">
        <ele>8.300169</ele>
        <time>2015-08-13T15:11:21Z</time>
      </trkpt>
      <trkpt lat="49.22251" lon="1.23599">
        <ele>8.300169</ele>
        <time>2015-08-13T15:11:26Z</time>
      </trkpt>
      <trkpt lat="49.22251" lon="1.23597">
        <ele>8.300169</ele>
        <time>2015-08-13T15:11:31Z</time>
      </trkpt>
      <trkpt lat="49.22251" lon="1.23597">
        <ele>8.300169</ele>
        <time>2015-08-13T15:11:36Z</time>
      </trkpt>
      <trkpt lat="49.22251" lon="1.23592">
        <ele>8.550182</ele>
        <time>2015-08-13T15:12:06Z</time>
      </trkpt>
      <trkpt lat="49.2225" lon="1.23593">
        <ele>8.550182</ele>
        <time>2015-08-13T15:12:11Z</time>
      </trkpt>
      <trkpt lat="49.2225" lon="1.23593">
        <ele>8.550182</ele>
        <time>2015-08-13T15:12:21Z</time>
      </trkpt>
      <trkpt lat="49.22251" lon="1.23592">
        <ele>8.550182</ele>
        <time>2015-08-13T15:12:36Z</time>
      </trkpt>
      <trkpt lat="49.22256" lon="1.23589">
        <ele>8.550182</ele>
        <time>2015-08-13T15:12:41Z</time>
      </trkpt>
      <trkpt lat="49.22257" lon="1.23588">
        <ele>9.062353</ele>
        <time>2015-08-13T15:12:56Z</time>
      </trkpt>
      <trkpt lat="49.22259" lon="1.23586">
        <ele>9.062353</ele>
        <time>2015-08-13T15:13:26Z</time>
      </trkpt>
      <trkpt lat="49.22262" lon="1.23586">
        <ele>9.062353</ele>
        <time>2015-08-13T15:13:31Z</time>
      </trkpt>
      <trkpt lat="49.22272" lon="1.2358">
        <ele>9.4411335</ele>
        <time>2015-08-13T15:13:41Z</time>
      </trkpt>
      <trkpt lat="49.22276" lon="1.23576">
        <ele>9.4411335</ele>
        <time>2015-08-13T15:13:46Z</time>
      </trkpt>
      <trkpt lat="49.22287" lon="1.23567">
        <ele>9.738331</ele>
        <time>2015-08-13T15:13:56Z</time>
      </trkpt>
      <trkpt lat="49.22293" lon="1.2357">
        <ele>9.738331</ele>
        <time>2015-08-13T15:14:01Z</time>
      </trkpt>
      <trkpt lat="49.22299" lon="1.23561">
        <ele>9.98776</ele>
        <time>2015-08-13T15:14:11Z</time>
      </trkpt>
      <trkpt lat="49.22305" lon="1.23555">
        <ele>9.98776</ele>
        <time>2015-08-13T15:14:16Z</time>
      </trkpt>
      <trkpt lat="49.22317" lon="1.23545">
        <ele>10.220893</ele>
        <time>2015-08-13T15:14:27Z</time>
      </trkpt>
      <trkpt lat="49.22324" lon="1.23542">
        <ele>10.220893</ele>
        <time>2015-08-13T15:14:31Z</time>
      </trkpt>
      <trkpt lat="49.22338" lon="1.23536">
        <ele>10.22195</ele>
        <time>2015-08-13T15:14:41Z</time>
      </trkpt>
      <trkpt lat="49.22343" lon="1.23533">
        <ele>10.22195</ele>
        <time>2015-08-13T15:14:46Z</time>
      </trkpt>
      <trkpt lat="49.22359" lon="1.23523">
        <ele>9.906949</ele>
        <time>2015-08-13T15:15:01Z</time>
      </trkpt>
      <trkpt lat="49.22367" lon="1.23519">
        <ele>9.906949</ele>
        <time>2015-08-13T15:15:06Z</time>
      </trkpt>
      <trkpt lat="49.22377" lon="1.23516">
        <ele>9.559249</ele>
        <time>2015-08-13T15:15:16Z</time>
      </trkpt>
      <trkpt lat="49.22383" lon="1.23512">
        <ele>9.559249</ele>
        <time>2015-08-13T15:15:21Z</time>
      </trkpt>
      <trkpt lat="49.22396" lon="1.23509">
        <ele>9.16768</ele>
        <time>2015-08-13T15:15:31Z</time>
      </trkpt>
      <trkpt lat="49.22402" lon="1.23508">
        <ele>9.16768</ele>
        <time>2015-08-13T15:15:36Z</time>
      </trkpt>
      <trkpt lat="49.22415" lon="1.23503">
        <ele>8.894947</ele>
        <time>2015-08-13T15:15:46Z</time>
      </trkpt>
      <trkpt lat="49.22421" lon="1.235">
        <ele>8.894947</ele>
        <time>2015-08-13T15:15:51Z</time>
      </trkpt>
      <trkpt lat="49.22432" lon="1.23496">
        <ele>8.732951</ele>
        <time>2015-08-13T15:16:01Z</time>
      </trkpt>
      <trkpt lat="49.22439" lon="1.23495">
        <ele>8.732951</ele>
        <time>2015-08-13T15:16:06Z</time>
      </trkpt>
      <trkpt lat="49.2246" lon="1.2349">
        <ele>8.904454</ele>
        <time>2015-08-13T15:16:21Z</time>
      </trkpt>
      <trkpt lat="49.22468" lon="1.23487">
        <ele>8.904454</ele>
        <time>2015-08-13T15:16:26Z</time>
      </trkpt>
      <trkpt lat="49.22476" lon="1.23483">
        <ele>8.995237</ele>
        <time>2015-08-13T15:16:37Z</time>
      </trkpt>
      <trkpt lat="49.22483" lon="1.2348">
        <ele>8.995237</ele>
        <time>2015-08-13T15:16:41Z</time>
      </trkpt>
      <trkpt lat="49.22494" lon="1.23477">
        <ele>8.982013</ele>
        <time>2015-08-13T15:16:51Z</time>
      </trkpt>
      <trkpt lat="49.22501" lon="1.23474">
        <ele>8.982013</ele>
        <time>2015-08-13T15:16:56Z</time>
      </trkpt>
      <trkpt lat="49.22514" lon="1.23469">
        <ele>8.944373</ele>
        <time>2015-08-13T15:17:06Z</time>
      </trkpt>
      <trkpt lat="49.22521" lon="1.23465">
        <ele>8.944373</ele>
        <time>2015-08-13T15:17:11Z</time>
      </trkpt>
      <trkpt lat="49.22534" lon="1.23461">
        <ele>9.085834</ele>
        <time>2015-08-13T15:17:21Z</time>
      </trkpt>
      <trkpt lat="49.22539" lon="1.23461">
        <ele>9.085834</ele>
        <time>2015-08-13T15:17:26Z</time>
      </trkpt>
      <trkpt lat="49.22554" lon="1.23453">
        <ele>9.147713</ele>
        <time>2015-08-13T15:17:36Z</time>
      </trkpt>
      <trkpt lat="49.22561" lon="1.23452">
        <ele>9.147713</ele>
        <time>2015-08-13T15:17:41Z</time>
      </trkpt>
      <trkpt lat="49.2258" lon="1.23447">
        <ele>9.149955</ele>
        <time>2015-08-13T15:17:56Z</time>
      </trkpt>
      <trkpt lat="49.22585" lon="1.23445">
        <ele>9.149955</ele>
        <time>2015-08-13T15:18:01Z</time>
      </trkpt>
      <trkpt lat="49.22598" lon="1.23443">
        <ele>9.168858</ele>
        <time>2015-08-13T15:18:11Z</time>
      </trkpt>
      <trkpt lat="49.22604" lon="1.23441">
        <ele>9.168858</ele>
        <time>2015-08-13T15:18:16Z</time>
      </trkpt>
      <trkpt lat="49.22614" lon="1.23437">
        <ele>9.174189</ele>
        <time>2015-08-13T15:18:26Z</time>
      </trkpt>
      <trkpt lat="49.22622" lon="1.23434">
        <ele>9.174189</ele>
        <time>2015-08-13T15:18:31Z</time>
      </trkpt>
      <trkpt lat="49.22637" lon="1.23431">
        <ele>9.051511</ele>
        <time>2015-08-13T15:18:41Z</time>
      </trkpt>
      <trkpt lat="49.22646" lon="1.2343">
        <ele>9.051511</ele>
        <time>2015-08-13T15:18:46Z</time>
      </trkpt>
      <trkpt lat="49.22659" lon="1.23431">
        <ele>8.940148</ele>
        <time>2015-08-13T15:18:56Z</time>
      </trkpt>
      <trkpt lat="49.22664" lon="1.23429">
        <ele>8.940148</ele>
        <time>2015-08-13T15:19:01Z</time>
      </trkpt>
      <trkpt lat="49.22676" lon="1.23426">
        <ele>8.839457</ele>
        <time>2015-08-13T15:19:11Z</time>
      </trkpt>
      <trkpt lat="49.22681" lon="1.23427">
        <ele>8.839457</ele>
        <time>2015-08-13T15:19:16Z</time>
      </trkpt>
      <trkpt lat="49.22694" lon="1.23425">
        <ele>8.70558</ele>
        <time>2015-08-13T15:19:26Z</time>
      </trkpt>
      <trkpt lat="49.227" lon="1.23425">
        <ele>8.70558</ele>
        <time>2015-08-13T15:19:31Z</time>
      </trkpt>
      <trkpt lat="49.22715" lon="1.23425">
        <ele>8.497978</ele>
        <time>2015-08-13T15:19:41Z</time>
      </trkpt>
      <trkpt lat="49.22722" lon="1.23423">
        <ele>8.497978</ele>
        <time>2015-08-13T15:19:46Z</time>
      </trkpt>
      <trkpt lat="49.2274" lon="1.23421">
        <ele>8.25135</ele>
        <time>2015-08-13T15:20:01Z</time>
      </trkpt>
      <trkpt lat="49.22745" lon="1.23422">
        <ele>8.25135</ele>
        <time>2015-08-13T15:20:06Z</time>
      </trkpt>
      <trkpt lat="49.22757" lon="1.23421">
        <ele>7.882666</ele>
        <time>2015-08-13T15:20:16Z</time>
      </trkpt>
      <trkpt lat="49.22765" lon="1.23422">
        <ele>7.882666</ele>
        <time>2015-08-13T15:20:21Z</time>
      </trkpt>
      <trkpt lat="49.22774" lon="1.23424">
        <ele>7.5459123</ele>
        <time>2015-08-13T15:20:31Z</time>
      </trkpt>
      <trkpt lat="49.22784" lon="1.23427">
        <ele>7.2827897</ele>
        <time>2015-08-13T15:20:36Z</time>
      </trkpt>
      <trkpt lat="49.22798" lon="1.2343">
        <ele>7.117314</ele>
        <time>2015-08-13T15:20:46Z</time>
      </trkpt>
      <trkpt lat="49.22805" lon="1.23431">
        <ele>7.117314</ele>
        <time>2015-08-13T15:20:51Z</time>
      </trkpt>
      <trkpt lat="49.22818" lon="1.23433">
        <ele>7.0858636</ele>
        <time>2015-08-13T15:21:01Z</time>
      </trkpt>
      <trkpt lat="49.22824" lon="1.23434">
        <ele>7.0858636</ele>
        <time>2015-08-13T15:21:07Z</time>
      </trkpt>
      <trkpt lat="49.22834" lon="1.23437">
        <ele>7.164118</ele>
        <time>2015-08-13T15:21:17Z</time>
      </trkpt>
      <trkpt lat="49.22841" lon="1.23438">
        <ele>7.164118</ele>
        <time>2015-08-13T15:21:21Z</time>
      </trkpt>
      <trkpt lat="49.22851" lon="1.23437">
        <ele>7.170705</ele>
        <time>2015-08-13T15:21:31Z</time>
      </trkpt>
      <trkpt lat="49.22858" lon="1.23437">
        <ele>7.170705</ele>
        <time>2015-08-13T15:21:36Z</time>
      </trkpt>
      <trkpt lat="49.22873" lon="1.23437">
        <ele>7.240404</ele>
        <time>2015-08-13T15:21:46Z</time>
      </trkpt>
      <trkpt lat="49.2288" lon="1.23438">
        <ele>7.240404</ele>
        <time>2015-08-13T15:21:51Z</time>
      </trkpt>
      <trkpt lat="49.22892" lon="1.23437">
        <ele>7.46909</ele>
        <time>2015-08-13T15:22:01Z</time>
      </trkpt>
      <trkpt lat="49.22898" lon="1.23436">
        <ele>7.46909</ele>
        <time>2015-08-13T15:22:06Z</time>
      </trkpt>
      <trkpt lat="49.22907" lon="1.23433">
        <ele>7.6569233</ele>
        <time>2015-08-13T15:22:16Z</time>
      </trkpt>
      <trkpt lat="49.22908" lon="1.23433">
        <ele>7.6569233</ele>
        <time>2015-08-13T15:22:21Z</time>
      </trkpt>
      <trkpt lat="49.22915" lon="1.23432">
        <ele>7.6569233</ele>
        <time>2015-08-13T15:22:36Z</time>
      </trkpt>
      <trkpt lat="49.22923" lon="1.23433">
        <ele>7.7917905</ele>
        <time>2015-08-13T15:22:41Z</time>
      </trkpt>
      <trkpt lat="49.22933" lon="1.2344">
        <ele>8.049964</ele>
        <time>2015-08-13T15:22:51Z</time>
      </trkpt>
      <trkpt lat="49.22938" lon="1.23443">
        <ele>8.049964</ele>
        <time>2015-08-13T15:22:56Z</time>
      </trkpt>
      <trkpt lat="49.22947" lon="1.23445">
        <ele>8.335022</ele>
        <time>2015-08-13T15:23:06Z</time>
      </trkpt>
      <trkpt lat="49.22952" lon="1.23445">
        <ele>8.335022</ele>
        <time>2015-08-13T15:23:11Z</time>
      </trkpt>
      <trkpt lat="49.22961" lon="1.23447">
        <ele>8.730492</ele>
        <time>2015-08-13T15:23:21Z</time>
      </trkpt>
      <trkpt lat="49.22966" lon="1.23452">
        <ele>8.730492</ele>
        <time>2015-08-13T15:23:26Z</time>
      </trkpt>
      <trkpt lat="49.22972" lon="1.23463">
        <ele>9.068473</ele>
        <time>2015-08-13T15:23:36Z</time>
      </trkpt>
      <trkpt lat="49.22975" lon="1.23474">
        <ele>9.068473</ele>
        <time>2015-08-13T15:23:41Z</time>
      </trkpt>
      <trkpt lat="49.22978" lon="1.23487">
        <ele>9.481793</ele>
        <time>2015-08-13T15:23:51Z</time>
      </trkpt>
      <trkpt lat="49.2298" lon="1.23494">
        <ele>9.481793</ele>
        <time>2015-08-13T15:23:56Z</time>
      </trkpt>
      <trkpt lat="49.22986" lon="1.23509">
        <ele>10.021272</ele>
        <time>2015-08-13T15:24:06Z</time>
      </trkpt>
      <trkpt lat="49.2299" lon="1.23518">
        <ele>10.021272</ele>
        <time>2015-08-13T15:24:11Z</time>
      </trkpt>
      <trkpt lat="49.22995" lon="1.23531">
        <ele>10.603955</ele>
        <time>2015-08-13T15:24:21Z</time>
      </trkpt>
      <trkpt lat="49.22999" lon="1.23539">
        <ele>10.603955</ele>
        <time>2015-08-13T15:24:26Z</time>
      </trkpt>
      <trkpt lat="49.23005" lon="1.23556">
        <ele>11.210528</ele>
        <time>2015-08-13T15:24:36Z</time>
      </trkpt>
      <trkpt lat="49.23008" lon="1.23564">
        <ele>11.210528</ele>
        <time>2015-08-13T15:24:41Z</time>
      </trkpt>
      <trkpt lat="49.23017" lon="1.2359">
        <ele>11.923931</ele>
        <time>2015-08-13T15:24:56Z</time>
      </trkpt>
      <trkpt lat="49.2302" lon="1.23598">
        <ele>11.923931</ele>
        <time>2015-08-13T15:25:01Z</time>
      </trkpt>
      <trkpt lat="49.23025" lon="1.23614">
        <ele>12.590158</ele>
        <time>2015-08-13T15:25:11Z</time>
      </trkpt>
      <trkpt lat="49.23026" lon="1.23623">
        <ele>12.590158</ele>
        <time>2015-08-13T15:25:16Z</time>
      </trkpt>
      <trkpt lat="49.23032" lon="1.23636">
        <ele>13.2107935</ele>
        <time>2015-08-13T15:25:26Z</time>
      </trkpt>
      <trkpt lat="49.23035" lon="1.23645">
        <ele>13.2107935</ele>
        <time>2015-08-13T15:25:31Z</time>
      </trkpt>
      <trkpt lat="49.23041" lon="1.23662">
        <ele>13.816288</ele>
        <time>2015-08-13T15:25:41Z</time>
      </trkpt>
      <trkpt lat="49.23044" lon="1.2367">
        <ele>13.816288</ele>
        <time>2015-08-13T15:25:46Z</time>
      </trkpt>
      <trkpt lat="49.2305" lon="1.23686">
        <ele>14.449348</ele>
        <time>2015-08-13T15:25:56Z</time>
      </trkpt>
      <trkpt lat="49.23052" lon="1.23694">
        <ele>14.449348</ele>
        <time>2015-08-13T15:26:01Z</time>
      </trkpt>
      <trkpt lat="49.23058" lon="1.23708">
        <ele>15.091859</ele>
        <time>2015-08-13T15:26:11Z</time>
      </trkpt>
      <trkpt lat="49.23061" lon="1.23716">
        <ele>15.091859</ele>
        <time>2015-08-13T15:26:16Z</time>
      </trkpt>
      <trkpt lat="49.23066" lon="1.23735">
        <ele>15.82793</ele>
        <time>2015-08-13T15:26:26Z</time>
      </trkpt>
      <trkpt lat="49.23068" lon="1.23743">
        <ele>15.82793</ele>
        <time>2015-08-13T15:26:31Z</time>
      </trkpt>
      <trkpt lat="49.23074" lon="1.23758">
        <ele>16.619984</ele>
        <time>2015-08-13T15:26:41Z</time>
      </trkpt>
      <trkpt lat="49.23076" lon="1.23767">
        <ele>16.619984</ele>
        <time>2015-08-13T15:26:46Z</time>
      </trkpt>
      <trkpt lat="49.23084" lon="1.23782">
        <ele>17.533972</ele>
        <time>2015-08-13T15:26:56Z</time>
      </trkpt>
      <trkpt lat="49.23087" lon="1.23789">
        <ele>17.533972</ele>
        <time>2015-08-13T15:27:01Z</time>
      </trkpt>
      <trkpt lat="49.23096" lon="1.23813">
        <ele>18.342484</ele>
        <time>2015-08-13T15:27:16Z</time>
      </trkpt>
      <trkpt lat="49.23098" lon="1.23821">
        <ele>18.342484</ele>
        <time>2015-08-13T15:27:21Z</time>
      </trkpt>
      <trkpt lat="49.23103" lon="1.23835">
        <ele>19.137794</ele>
        <time>2015-08-13T15:27:31Z</time>
      </trkpt>
      <trkpt lat="49.23107" lon="1.23835">
        <ele>19.137794</ele>
        <time>2015-08-13T15:27:36Z</time>
      </trkpt>
      <trkpt lat="49.23118" lon="1.23824">
        <ele>19.87579</ele>
        <time>2015-08-13T15:27:46Z</time>
      </trkpt>
      <trkpt lat="49.23123" lon="1.2382">
        <ele>19.87579</ele>
        <time>2015-08-13T15:27:51Z</time>
      </trkpt>
      <trkpt lat="49.23133" lon="1.23809">
        <ele>20.429348</ele>
        <time>2015-08-13T15:28:01Z</time>
      </trkpt>
      <trkpt lat="49.23138" lon="1.23805">
        <ele>20.429348</ele>
        <time>2015-08-13T15:28:06Z</time>
      </trkpt>
      <trkpt lat="49.23147" lon="1.23795">
        <ele>20.839777</ele>
        <time>2015-08-13T15:28:16Z</time>
      </trkpt>
      <trkpt lat="49.23153" lon="1.23791">
        <ele>20.839777</ele>
        <time>2015-08-13T15:28:21Z</time>
      </trkpt>
      <trkpt lat="49.23164" lon="1.23781">
        <ele>21.246683</ele>
        <time>2015-08-13T15:28:31Z</time>
      </trkpt>
      <trkpt lat="49.23168" lon="1.23776">
        <ele>21.246683</ele>
        <time>2015-08-13T15:28:36Z</time>
      </trkpt>
      <trkpt lat="49.23178" lon="1.23764">
        <ele>21.50567</ele>
        <time>2015-08-13T15:28:46Z</time>
      </trkpt>
      <trkpt lat="49.2318" lon="1.23761">
        <ele>21.50567</ele>
        <time>2015-08-13T15:28:51Z</time>
      </trkpt>
      <trkpt lat="49.23193" lon="1.23753">
        <ele>21.670753</ele>
        <time>2015-08-13T15:29:01Z</time>
      </trkpt>
      <trkpt lat="49.23197" lon="1.23754">
        <ele>21.670753</ele>
        <time>2015-08-13T15:29:06Z</time>
      </trkpt>
      <trkpt lat="49.23207" lon="1.23769">
        <ele>21.893173</ele>
        <time>2015-08-13T15:29:16Z</time>
      </trkpt>
      <trkpt lat="49.23211" lon="1.23775">
        <ele>21.893173</ele>
        <time>2015-08-13T15:29:21Z</time>
      </trkpt>
      <trkpt lat="49.23224" lon="1.23792">
        <ele>22.154415</ele>
        <time>2015-08-13T15:29:37Z</time>
      </trkpt>
      <trkpt lat="49.23228" lon="1.23798">
        <ele>22.154415</ele>
        <time>2015-08-13T15:29:41Z</time>
      </trkpt>
      <trkpt lat="49.23236" lon="1.23811">
        <ele>22.24991</ele>
        <time>2015-08-13T15:29:51Z</time>
      </trkpt>
      <trkpt lat="49.2324" lon="1.23818">
        <ele>22.24991</ele>
        <time>2015-08-13T15:29:56Z</time>
      </trkpt>
      <trkpt lat="49.23246" lon="1.23827">
        <ele>22.422955</ele>
        <time>2015-08-13T15:30:06Z</time>
      </trkpt>
      <trkpt lat="49.23248" lon="1.2383">
        <ele>22.422955</ele>
        <time>2015-08-13T15:30:11Z</time>
      </trkpt>
      <trkpt lat="49.23257" lon="1.23839">
        <ele>22.567327</ele>
        <time>2015-08-13T15:30:21Z</time>
      </trkpt>
      <trkpt lat="49.2326" lon="1.23841">
        <ele>22.567327</ele>
        <time>2015-08-13T15:30:26Z</time>
      </trkpt>
      <trkpt lat="49.23259" lon="1.23842">
        <ele>22.567327</ele>
        <time>2015-08-13T15:30:36Z</time>
      </trkpt>
      <trkpt lat="49.2326" lon="1.23843">
        <ele>22.567327</ele>
        <time>2015-08-13T15:30:41Z</time>
      </trkpt>
      <trkpt lat="49.2326" lon="1.23843">
        <ele>22.567327</ele>
        <time>2015-08-13T15:30:51Z</time>
      </trkpt>
      <trkpt lat="49.23258" lon="1.23844">
        <ele>22.567327</ele>
        <time>2015-08-13T15:30:57Z</time>
      </trkpt>
      <trkpt lat="49.23259" lon="1.23844">
        <ele>22.567327</ele>
        <time>2015-08-13T15:31:06Z</time>
      </trkpt>
      <trkpt lat="49.23261" lon="1.23842">
        <ele>22.224438</ele>
        <time>2015-08-13T15:31:11Z</time>
      </trkpt>
      <trkpt lat="49.2326" lon="1.23844">
        <ele>22.224438</ele>
        <time>2015-08-13T15:31:21Z</time>
      </trkpt>
      <trkpt lat="49.23259" lon="1.23845">
        <ele>22.224438</ele>
        <time>2015-08-13T15:31:26Z</time>
      </trkpt>
      <trkpt lat="49.23265" lon="1.23843">
        <ele>22.224438</ele>
        <time>2015-08-13T15:31:41Z</time>
      </trkpt>
      <trkpt lat="49.23262" lon="1.23844">
        <ele>21.936321</ele>
        <time>2015-08-13T15:31:46Z</time>
      </trkpt>
      <trkpt lat="49.23259" lon="1.23843">
        <ele>21.936321</ele>
        <time>2015-08-13T15:31:56Z</time>
      </trkpt>
      <trkpt lat="49.2326" lon="1.23843">
        <ele>21.936321</ele>
        <time>2015-08-13T15:32:01Z</time>
      </trkpt>
      <trkpt lat="49.23264" lon="1.2385">
        <ele>21.71508</ele>
        <time>2015-08-13T15:32:11Z</time>
      </trkpt>
      <trkpt lat="49.23268" lon="1.23857">
        <ele>21.71508</ele>
        <time>2015-08-13T15:32:16Z</time>
      </trkpt>
      <trkpt lat="49.23274" lon="1.2387">
        <ele>21.571747</ele>
        <time>2015-08-13T15:32:26Z</time>
      </trkpt>
      <trkpt lat="49.23276" lon="1.2388">
        <ele>21.571747</ele>
        <time>2015-08-13T15:32:31Z</time>
      </trkpt>
      <trkpt lat="49.23284" lon="1.23896">
        <ele>21.501925</ele>
        <time>2015-08-13T15:32:41Z</time>
      </trkpt>
      <trkpt lat="49.23285" lon="1.23904">
        <ele>21.501925</ele>
        <time>2015-08-13T15:32:46Z</time>
      </trkpt>
      <trkpt lat="49.23289" lon="1.23919">
        <ele>21.414867</ele>
        <time>2015-08-13T15:32:56Z</time>
      </trkpt>
      <trkpt lat="49.23291" lon="1.23926">
        <ele>21.414867</ele>
        <time>2015-08-13T15:33:01Z</time>
      </trkpt>
      <trkpt lat="49.233" lon="1.2394">
        <ele>21.212126</ele>
        <time>2015-08-13T15:33:11Z</time>
      </trkpt>
      <trkpt lat="49.23306" lon="1.23948">
        <ele>21.212126</ele>
        <time>2015-08-13T15:33:16Z</time>
      </trkpt>
      <trkpt lat="49.23311" lon="1.23963">
        <ele>21.004559</ele>
        <time>2015-08-13T15:33:26Z</time>
      </trkpt>
      <trkpt lat="49.23315" lon="1.23969">
        <ele>21.004559</ele>
        <time>2015-08-13T15:33:31Z</time>
      </trkpt>
      <trkpt lat="49.2332" lon="1.23985">
        <ele>20.995764</ele>
        <time>2015-08-13T15:33:41Z</time>
      </trkpt>
      <trkpt lat="49.23322" lon="1.23993">
        <ele>20.995764</ele>
        <time>2015-08-13T15:33:46Z</time>
      </trkpt>
      <trkpt lat="49.23328" lon="1.24008">
        <ele>21.186466</ele>
        <time>2015-08-13T15:33:56Z</time>
      </trkpt>
      <trkpt lat="49.23331" lon="1.24015">
        <ele>21.186466</ele>
        <time>2015-08-13T15:34:01Z</time>
      </trkpt>
      <trkpt lat="49.23337" lon="1.24029">
        <ele>21.38942</ele>
        <time>2015-08-13T15:34:11Z</time>
      </trkpt>
      <trkpt lat="49.23341" lon="1.24036">
        <ele>21.38942</ele>
        <time>2015-08-13T15:34:16Z</time>
      </trkpt>
      <trkpt lat="49.23353" lon="1.24059">
        <ele>21.661663</ele>
        <time>2015-08-13T15:34:31Z</time>
      </trkpt>
      <trkpt lat="49.23357" lon="1.24065">
        <ele>21.661663</ele>
        <time>2015-08-13T15:34:36Z</time>
      </trkpt>
      <trkpt lat="49.23364" lon="1.2408">
        <ele>21.854074</ele>
        <time>2015-08-13T15:34:46Z</time>
      </trkpt>
      <trkpt lat="49.2337" lon="1.24086">
        <ele>21.854074</ele>
        <time>2015-08-13T15:34:51Z</time>
      </trkpt>
      <trkpt lat="49.23376" lon="1.24099">
        <ele>22.001638</ele>
        <time>2015-08-13T15:35:01Z</time>
      </trkpt>
      <trkpt lat="49.23379" lon="1.24107">
        <ele>22.001638</ele>
        <time>2015-08-13T15:35:06Z</time>
      </trkpt>
      <trkpt lat="49.23387" lon="1.2412">
        <ele>21.99276</ele>
        <time>2015-08-13T15:35:16Z</time>
      </trkpt>
      <trkpt lat="49.2339" lon="1.24127">
        <ele>21.99276</ele>
        <time>2015-08-13T15:35:21Z</time>
      </trkpt>
      <trkpt lat="49.23399" lon="1.2414">
        <ele>21.796526</ele>
        <time>2015-08-13T15:35:31Z</time>
      </trkpt>
      <trkpt lat="49.23403" lon="1.24143">
        <ele>21.796526</ele>
        <time>2015-08-13T15:35:36Z</time>
      </trkpt>
      <trkpt lat="49.23405" lon="1.24144">
        <ele>21.796526</ele>
        <time>2015-08-13T15:35:47Z</time>
      </trkpt>
      <trkpt lat="49.2341" lon="1.24141">
        <ele>21.514505</ele>
        <time>2015-08-13T15:35:51Z</time>
      </trkpt>
      <trkpt lat="49.23418" lon="1.24133">
        <ele>21.168964</ele>
        <time>2015-08-13T15:36:01Z</time>
      </trkpt>
      <trkpt lat="49.23423" lon="1.24128">
        <ele>21.168964</ele>
        <time>2015-08-13T15:36:06Z</time>
      </trkpt>
      <trkpt lat="49.23435" lon="1.24109">
        <ele>20.607763</ele>
        <time>2015-08-13T15:36:21Z</time>
      </trkpt>
      <trkpt lat="49.23438" lon="1.24104">
        <ele>20.607763</ele>
        <time>2015-08-13T15:36:26Z</time>
      </trkpt>
      <trkpt lat="49.23441" lon="1.24102">
        <ele>20.607763</ele>
        <time>2015-08-13T15:36:36Z</time>
      </trkpt>
      <trkpt lat="49.23442" lon="1.24104">
        <ele>19.733746</ele>
        <time>2015-08-13T15:36:41Z</time>
      </trkpt>
      <trkpt lat="49.23444" lon="1.24107">
        <ele>19.733746</ele>
        <time>2015-08-13T15:36:52Z</time>
      </trkpt>
      <trkpt lat="49.23442" lon="1.24107">
        <ele>19.733746</ele>
        <time>2015-08-13T15:36:56Z</time>
      </trkpt>
      <trkpt lat="49.23441" lon="1.24106">
        <ele>19.733746</ele>
        <time>2015-08-13T15:37:06Z</time>
      </trkpt>
      <trkpt lat="49.23443" lon="1.24113">
        <ele>18.630672</ele>
        <time>2015-08-13T15:37:11Z</time>
      </trkpt>
      <trkpt lat="49.23444" lon="1.24119">
        <ele>18.630672</ele>
        <time>2015-08-13T15:37:16Z</time>
      </trkpt>
      <trkpt lat="49.23443" lon="1.24119">
        <ele>18.630672</ele>
        <time>2015-08-13T15:37:21Z</time>
      </trkpt>
      <trkpt lat="49.23445" lon="1.24121">
        <ele>18.630672</ele>
        <time>2015-08-13T15:37:26Z</time>
      </trkpt>
      <trkpt lat="49.23447" lon="1.24121">
        <ele>18.630672</ele>
        <time>2015-08-13T15:37:31Z</time>
      </trkpt>
      <trkpt lat="49.23449" lon="1.2412">
        <ele>17.866734</ele>
        <time>2015-08-13T15:37:36Z</time>
      </trkpt>
      <trkpt lat="49.23449" lon="1.2412">
        <ele>17.866734</ele>
        <time>2015-08-13T15:37:41Z</time>
      </trkpt>
      <trkpt lat="49.23449" lon="1.24121">
        <ele>17.866734</ele>
        <time>2015-08-13T15:37:46Z</time>
      </trkpt>
      <trkpt lat="49.23448" lon="1.24122">
        <ele>17.866734</ele>
        <time>2015-08-13T15:37:51Z</time>
      </trkpt>
      <trkpt lat="49.23447" lon="1.24122">
        <ele>17.866734</ele>
        <time>2015-08-13T15:38:06Z</time>
      </trkpt>
      <trkpt lat="49.23447" lon="1.24122">
        <ele>17.866734</ele>
        <time>2015-08-13T15:38:11Z</time>
      </trkpt>
      <trkpt lat="49.23445" lon="1.2412">
        <ele>17.866734</ele>
        <time>2015-08-13T15:38:26Z</time>
      </trkpt>
      <trkpt lat="49.23434" lon="1.24122">
        <ele>16.958607</ele>
        <time>2015-08-13T15:38:36Z</time>
      </trkpt>
      <trkpt lat="49.23428" lon="1.24124">
        <ele>16.958607</ele>
        <time>2015-08-13T15:38:41Z</time>
      </trkpt>
      <trkpt lat="49.23416" lon="1.24131">
        <ele>16.02086</ele>
        <time>2015-08-13T15:38:51Z</time>
      </trkpt>
      <trkpt lat="49.23412" lon="1.24131">
        <ele>16.02086</ele>
        <time>2015-08-13T15:38:56Z</time>
      </trkpt>
      <trkpt lat="49.23408" lon="1.2414">
        <ele>15.044386</ele>
        <time>2015-08-13T15:39:06Z</time>
      </trkpt>
      <trkpt lat="49.23405" lon="1.24144">
        <ele>15.044386</ele>
        <time>2015-08-13T15:39:11Z</time>
      </trkpt>
      <trkpt lat="49.23403" lon="1.24147">
        <ele>15.044386</ele>
        <time>2015-08-13T15:39:21Z</time>
      </trkpt>
      <trkpt lat="49.23399" lon="1.24143">
        <ele>14.150491</ele>
        <time>2015-08-13T15:39:26Z</time>
      </trkpt>
      <trkpt lat="49.23394" lon="1.24134">
        <ele>14.150491</ele>
        <time>2015-08-13T15:39:36Z</time>
      </trkpt>
      <trkpt lat="49.23391" lon="1.2413">
        <ele>13.494508</ele>
        <time>2015-08-13T15:39:42Z</time>
      </trkpt>
      <trkpt lat="49.23386" lon="1.24122">
        <ele>13.494508</ele>
        <time>2015-08-13T15:39:51Z</time>
      </trkpt>
      <trkpt lat="49.23384" lon="1.24118">
        <ele>13.133157</ele>
        <time>2015-08-13T15:39:56Z</time>
      </trkpt>
      <trkpt lat="49.23379" lon="1.24109">
        <ele>13.133157</ele>
        <time>2015-08-13T15:40:06Z</time>
      </trkpt>
      <trkpt lat="49.23376" lon="1.24103">
        <ele>13.002806</ele>
        <time>2015-08-13T15:40:11Z</time>
      </trkpt>
      <trkpt lat="49.2337" lon="1.24093">
        <ele>13.002806</ele>
        <time>2015-08-13T15:40:21Z</time>
      </trkpt>
      <trkpt lat="49.23369" lon="1.2409">
        <ele>13.130251</ele>
        <time>2015-08-13T15:40:26Z</time>
      </trkpt>
      <trkpt lat="49.2337" lon="1.24089">
        <ele>13.130251</ele>
        <time>2015-08-13T15:40:36Z</time>
      </trkpt>
      <trkpt lat="49.23368" lon="1.24089">
        <ele>13.130251</ele>
        <time>2015-08-13T15:40:41Z</time>
      </trkpt>
      <trkpt lat="49.23373" lon="1.241">
        <ele>13.640408</ele>
        <time>2015-08-13T15:40:56Z</time>
      </trkpt>
      <trkpt lat="49.23374" lon="1.24102">
        <ele>13.640408</ele>
        <time>2015-08-13T15:41:01Z</time>
      </trkpt>
      <trkpt lat="49.23373" lon="1.24118">
        <ele>14.388486</ele>
        <time>2015-08-13T15:41:11Z</time>
      </trkpt>
      <trkpt lat="49.23375" lon="1.24125">
        <ele>14.388486</ele>
        <time>2015-08-13T15:41:16Z</time>
      </trkpt>
      <trkpt lat="49.23381" lon="1.2414">
        <ele>15.398136</ele>
        <time>2015-08-13T15:41:26Z</time>
      </trkpt>
      <trkpt lat="49.23383" lon="1.24149">
        <ele>15.398136</ele>
        <time>2015-08-13T15:41:31Z</time>
      </trkpt>
      <trkpt lat="49.23388" lon="1.24166">
        <ele>16.517567</ele>
        <time>2015-08-13T15:41:41Z</time>
      </trkpt>
      <trkpt lat="49.23391" lon="1.24174">
        <ele>16.517567</ele>
        <time>2015-08-13T15:41:46Z</time>
      </trkpt>
      <trkpt lat="49.23397" lon="1.2419">
        <ele>17.663439</ele>
        <time>2015-08-13T15:41:56Z</time>
      </trkpt>
      <trkpt lat="49.23401" lon="1.242">
        <ele>17.663439</ele>
        <time>2015-08-13T15:42:01Z</time>
      </trkpt>
      <trkpt lat="49.23406" lon="1.24217">
        <ele>18.902563</ele>
        <time>2015-08-13T15:42:11Z</time>
      </trkpt>
      <trkpt lat="49.23409" lon="1.24223">
        <ele>18.902563</ele>
        <time>2015-08-13T15:42:16Z</time>
      </trkpt>
      <trkpt lat="49.23416" lon="1.24242">
        <ele>20.3398</ele>
        <time>2015-08-13T15:42:26Z</time>
      </trkpt>
      <trkpt lat="49.23419" lon="1.24252">
        <ele>20.3398</ele>
        <time>2015-08-13T15:42:31Z</time>
      </trkpt>
      <trkpt lat="49.23426" lon="1.2427">
        <ele>21.913244</ele>
        <time>2015-08-13T15:42:41Z</time>
      </trkpt>
      <trkpt lat="49.23429" lon="1.24278">
        <ele>21.913244</ele>
        <time>2015-08-13T15:42:46Z</time>
      </trkpt>
      <trkpt lat="49.23433" lon="1.24292">
        <ele>23.521933</ele>
        <time>2015-08-13T15:42:56Z</time>
      </trkpt>
      <trkpt lat="49.23437" lon="1.24299">
        <ele>23.521933</ele>
        <time>2015-08-13T15:43:01Z</time>
      </trkpt>
      <trkpt lat="49.23446" lon="1.24322">
        <ele>24.956963</ele>
        <time>2015-08-13T15:43:16Z</time>
      </trkpt>
      <trkpt lat="49.2345" lon="1.2433">
        <ele>24.956963</ele>
        <time>2015-08-13T15:43:21Z</time>
      </trkpt>
      <trkpt lat="49.23458" lon="1.24345">
        <ele>26.284706</ele>
        <time>2015-08-13T15:43:31Z</time>
      </trkpt>
      <trkpt lat="49.23463" lon="1.24352">
        <ele>26.284706</ele>
        <time>2015-08-13T15:43:36Z</time>
      </trkpt>
      <trkpt lat="49.2347" lon="1.24368">
        <ele>27.422895</ele>
        <time>2015-08-13T15:43:46Z</time>
      </trkpt>
      <trkpt lat="49.23472" lon="1.24377">
        <ele>27.422895</ele>
        <time>2015-08-13T15:43:51Z</time>
      </trkpt>
      <trkpt lat="49.23479" lon="1.24392">
        <ele>28.555298</ele>
        <time>2015-08-13T15:44:01Z</time>
      </trkpt>
      <trkpt lat="49.23482" lon="1.24398">
        <ele>28.555298</ele>
        <time>2015-08-13T15:44:06Z</time>
      </trkpt>
      <trkpt lat="49.23489" lon="1.24411">
        <ele>29.578442</ele>
        <time>2015-08-13T15:44:16Z</time>
      </trkpt>
      <trkpt lat="49.23495" lon="1.24422">
        <ele>29.578442</ele>
        <time>2015-08-13T15:44:21Z</time>
      </trkpt>
      <trkpt lat="49.23503" lon="1.24438">
        <ele>30.613003</ele>
        <time>2015-08-13T15:44:32Z</time>
      </trkpt>
      <trkpt lat="49.23505" lon="1.24443">
        <ele>30.613003</ele>
        <time>2015-08-13T15:44:36Z</time>
      </trkpt>
      <trkpt lat="49.23512" lon="1.24459">
        <ele>31.525837</ele>
        <time>2015-08-13T15:44:46Z</time>
      </trkpt>
      <trkpt lat="49.23515" lon="1.24467">
        <ele>31.525837</ele>
        <time>2015-08-13T15:44:51Z</time>
      </trkpt>
      <trkpt lat="49.23522" lon="1.24481">
        <ele>32.381336</ele>
        <time>2015-08-13T15:45:01Z</time>
      </trkpt>
      <trkpt lat="49.23526" lon="1.2449">
        <ele>32.381336</ele>
        <time>2015-08-13T15:45:06Z</time>
      </trkpt>
      <trkpt lat="49.23536" lon="1.24511">
        <ele>33.210583</ele>
        <time>2015-08-13T15:45:21Z</time>
      </trkpt>
      <trkpt lat="49.23539" lon="1.24521">
        <ele>33.210583</ele>
        <time>2015-08-13T15:45:26Z</time>
      </trkpt>
      <trkpt lat="49.23545" lon="1.24539">
        <ele>34.172207</ele>
        <time>2015-08-13T15:45:36Z</time>
      </trkpt>
      <trkpt lat="49.23547" lon="1.24543">
        <ele>34.172207</ele>
        <time>2015-08-13T15:45:41Z</time>
      </trkpt>
      <trkpt lat="49.23555" lon="1.24561">
        <ele>35.182327</ele>
        <time>2015-08-13T15:45:51Z</time>
      </trkpt>
      <trkpt lat="49.23558" lon="1.24568">
        <ele>35.182327</ele>
        <time>2015-08-13T15:45:56Z</time>
      </trkpt>
      <trkpt lat="49.23564" lon="1.24582">
        <ele>36.134335</ele>
        <time>2015-08-13T15:46:06Z</time>
      </trkpt>
      <trkpt lat="49.23568" lon="1.24591">
        <ele>36.134335</ele>
        <time>2015-08-13T15:46:11Z</time>
      </trkpt>
      <trkpt lat="49.23575" lon="1.24606">
        <ele>37.232315</ele>
        <time>2015-08-13T15:46:21Z</time>
      </trkpt>
      <trkpt lat="49.23577" lon="1.24615">
        <ele>37.232315</ele>
        <time>2015-08-13T15:46:26Z</time>
      </trkpt>
      <trkpt lat="49.23586" lon="1.24629">
        <ele>38.31918</ele>
        <time>2015-08-13T15:46:36Z</time>
      </trkpt>
      <trkpt lat="49.2359" lon="1.24636">
        <ele>38.31918</ele>
        <time>2015-08-13T15:46:41Z</time>
      </trkpt>
      <trkpt lat="49.236" lon="1.24653">
        <ele>39.508873</ele>
        <time>2015-08-13T15:46:51Z</time>
      </trkpt>
      <trkpt lat="49.23605" lon="1.24659">
        <ele>39.508873</ele>
        <time>2015-08-13T15:46:56Z</time>
      </trkpt>
      <trkpt lat="49.23613" lon="1.24669">
        <ele>40.67618</ele>
        <time>2015-08-13T15:47:06Z</time>
      </trkpt>
      <trkpt lat="49.23617" lon="1.24674">
        <ele>40.67618</ele>
        <time>2015-08-13T15:47:11Z</time>
      </trkpt>
      <trkpt lat="49.23627" lon="1.24685">
        <ele>41.73406</ele>
        <time>2015-08-13T15:47:21Z</time>
      </trkpt>
      <trkpt lat="49.23631" lon="1.2469">
        <ele>41.73406</ele>
        <time>2015-08-13T15:47:26Z</time>
      </trkpt>
      <trkpt lat="49.2364" lon="1.24698">
        <ele>42.87605</ele>
        <time>2015-08-13T15:47:37Z</time>
      </trkpt>
      <trkpt lat="49.23646" lon="1.24701">
        <ele>42.87605</ele>
        <time>2015-08-13T15:47:41Z</time>
      </trkpt>
      <trkpt lat="49.23658" lon="1.2471">
        <ele>43.83457</ele>
        <time>2015-08-13T15:47:51Z</time>
      </trkpt>
      <trkpt lat="49.23662" lon="1.24716">
        <ele>43.83457</ele>
        <time>2015-08-13T15:47:56Z</time>
      </trkpt>
      <trkpt lat="49.23674" lon="1.24725">
        <ele>44.492</ele>
        <time>2015-08-13T15:48:11Z</time>
      </trkpt>
      <trkpt lat="49.23679" lon="1.2473">
        <ele>44.492</ele>
        <time>2015-08-13T15:48:16Z</time>
      </trkpt>
      <trkpt lat="49.23688" lon="1.24746">
        <ele>44.797905</ele>
        <time>2015-08-13T15:48:26Z</time>
      </trkpt>
      <trkpt lat="49.23694" lon="1.2475">
        <ele>44.797905</ele>
        <time>2015-08-13T15:48:31Z</time>
      </trkpt>
      <trkpt lat="49.23703" lon="1.24757">
        <ele>44.735455</ele>
        <time>2015-08-13T15:48:41Z</time>
      </trkpt>
      <trkpt lat="49.23707" lon="1.24762">
        <ele>44.735455</ele>
        <time>2015-08-13T15:48:46Z</time>
      </trkpt>
      <trkpt lat="49.23714" lon="1.24771">
        <ele>44.434242</ele>
        <time>2015-08-13T15:48:56Z</time>
      </trkpt>
      <trkpt lat="49.23718" lon="1.24776">
        <ele>44.434242</ele>
        <time>2015-08-13T15:49:01Z</time>
      </trkpt>
      <trkpt lat="49.23729" lon="1.24785">
        <ele>44.05831</ele>
        <time>2015-08-13T15:49:11Z</time>
      </trkpt>
      <trkpt lat="49.23733" lon="1.24788">
        <ele>44.05831</ele>
        <time>2015-08-13T15:49:16Z</time>
      </trkpt>
      <trkpt lat="49.2374" lon="1.24794">
        <ele>43.42845</ele>
        <time>2015-08-13T15:49:26Z</time>
      </trkpt>
      <trkpt lat="49.23743" lon="1.24797">
        <ele>43.42845</ele>
        <time>2015-08-13T15:49:31Z</time>
      </trkpt>
      <trkpt lat="49.23753" lon="1.24806">
        <ele>42.782864</ele>
        <time>2015-08-13T15:49:41Z</time>
      </trkpt>
      <trkpt lat="49.23757" lon="1.2481">
        <ele>42.782864</ele>
        <time>2015-08-13T15:49:46Z</time>
      </trkpt>
      <trkpt lat="49.23766" lon="1.24824">
        <ele>42.097336</ele>
        <time>2015-08-13T15:49:56Z</time>
      </trkpt>
      <trkpt lat="49.23771" lon="1.24831">
        <ele>42.097336</ele>
        <time>2015-08-13T15:50:01Z</time>
      </trkpt>
      <trkpt lat="49.23782" lon="1.24856">
        <ele>41.13338</ele>
        <time>2015-08-13T15:50:16Z</time>
      </trkpt>
      <trkpt lat="49.23786" lon="1.2486">
        <ele>41.13338</ele>
        <time>2015-08-13T15:50:21Z</time>
      </trkpt>
      <trkpt lat="49.2379" lon="1.24871">
        <ele>39.699635</ele>
        <time>2015-08-13T15:50:31Z</time>
      </trkpt>
      <trkpt lat="49.23791" lon="1.24875">
        <ele>39.699635</ele>
        <time>2015-08-13T15:50:36Z</time>
      </trkpt>
      <trkpt lat="49.23797" lon="1.24885">
        <ele>37.994774</ele>
        <time>2015-08-13T15:50:46Z</time>
      </trkpt>
      <trkpt lat="49.23801" lon="1.24893">
        <ele>37.994774</ele>
        <time>2015-08-13T15:50:51Z</time>
      </trkpt>
      <trkpt lat="49.2381" lon="1.2491">
        <ele>36.189198</ele>
        <time>2015-08-13T15:51:01Z</time>
      </trkpt>
      <trkpt lat="49.23816" lon="1.24917">
        <ele>36.189198</ele>
        <time>2015-08-13T15:51:06Z</time>
      </trkpt>
      <trkpt lat="49.23821" lon="1.24932">
        <ele>34.29691</ele>
        <time>2015-08-13T15:51:16Z</time>
      </trkpt>
      <trkpt lat="49.23824" lon="1.24937">
        <ele>34.29691</ele>
        <time>2015-08-13T15:51:21Z</time>
      </trkpt>
      <trkpt lat="49.23831" lon="1.24954">
        <ele>32.331062</ele>
        <time>2015-08-13T15:51:31Z</time>
      </trkpt>
      <trkpt lat="49.23836" lon="1.2496">
        <ele>32.331062</ele>
        <time>2015-08-13T15:51:36Z</time>
      </trkpt>
      <trkpt lat="49.23842" lon="1.24975">
        <ele>30.520138</ele>
        <time>2015-08-13T15:51:46Z</time>
      </trkpt>
      <trkpt lat="49.23846" lon="1.24981">
        <ele>30.520138</ele>
        <time>2015-08-13T15:51:51Z</time>
      </trkpt>
      <trkpt lat="49.23852" lon="1.24994">
        <ele>28.815905</ele>
        <time>2015-08-13T15:52:01Z</time>
      </trkpt>
      <trkpt lat="49.23857" lon="1.25003">
        <ele>28.815905</ele>
        <time>2015-08-13T15:52:06Z</time>
      </trkpt>
      <trkpt lat="49.2387" lon="1.25019">
        <ele>27.302967</ele>
        <time>2015-08-13T15:52:21Z</time>
      </trkpt>
      <trkpt lat="49.23873" lon="1.25024">
        <ele>27.302967</ele>
        <time>2015-08-13T15:52:26Z</time>
      </trkpt>
      <trkpt lat="49.23879" lon="1.25036">
        <ele>25.914951</ele>
        <time>2015-08-13T15:52:36Z</time>
      </trkpt>
      <trkpt lat="49.23881" lon="1.2504">
        <ele>25.914951</ele>
        <time>2015-08-13T15:52:41Z</time>
      </trkpt>
      <trkpt lat="49.23885" lon="1.25049">
        <ele>24.834879</ele>
        <time>2015-08-13T15:52:51Z</time>
      </trkpt>
      <trkpt lat="49.23889" lon="1.25054">
        <ele>24.834879</ele>
        <time>2015-08-13T15:52:56Z</time>
      </trkpt>
      <trkpt lat="49.23901" lon="1.25072">
        <ele>24.058395</ele>
        <time>2015-08-13T15:53:06Z</time>
      </trkpt>
      <trkpt lat="49.23905" lon="1.25079">
        <ele>24.058395</ele>
        <time>2015-08-13T15:53:11Z</time>
      </trkpt>
      <trkpt lat="49.23913" lon="1.25098">
        <ele>23.479614</ele>
        <time>2015-08-13T15:53:22Z</time>
      </trkpt>
      <trkpt lat="49.23915" lon="1.25102">
        <ele>23.479614</ele>
        <time>2015-08-13T15:53:26Z</time>
      </trkpt>
      <trkpt lat="49.23924" lon="1.25116">
        <ele>23.086205</ele>
        <time>2015-08-13T15:53:36Z</time>
      </trkpt>
      <trkpt lat="49.23927" lon="1.25122">
        <ele>23.086205</ele>
        <time>2015-08-13T15:53:41Z</time>
      </trkpt>
      <trkpt lat="49.23934" lon="1.25131">
        <ele>22.851692</ele>
        <time>2015-08-13T15:53:51Z</time>
      </trkpt>
      <trkpt lat="49.2394" lon="1.25145">
        <ele>22.750973</ele>
        <time>2015-08-13T15:53:57Z</time>
      </trkpt>
      <trkpt lat="49.23946" lon="1.25159">
        <ele>22.861177</ele>
        <time>2015-08-13T15:54:06Z</time>
      </trkpt>
      <trkpt lat="49.23949" lon="1.25161">
        <ele>22.861177</ele>
        <time>2015-08-13T15:54:11Z</time>
      </trkpt>
      <trkpt lat="49.23961" lon="1.25177">
        <ele>22.993677</ele>
        <time>2015-08-13T15:54:26Z</time>
      </trkpt>
      <trkpt lat="49.23963" lon="1.2519">
        <ele>22.993677</ele>
        <time>2015-08-13T15:54:31Z</time>
      </trkpt>
      <trkpt lat="49.23966" lon="1.25201">
        <ele>22.973526</ele>
        <time>2015-08-13T15:54:41Z</time>
      </trkpt>
      <trkpt lat="49.2397" lon="1.2521">
        <ele>22.973526</ele>
        <time>2015-08-13T15:54:46Z</time>
      </trkpt>
      <trkpt lat="49.2398" lon="1.25231">
        <ele>22.7975</ele>
        <time>2015-08-13T15:54:56Z</time>
      </trkpt>
      <trkpt lat="49.23982" lon="1.25233">
        <ele>22.7975</ele>
        <time>2015-08-13T15:55:01Z</time>
      </trkpt>
      <trkpt lat="49.23991" lon="1.25251">
        <ele>22.722357</ele>
        <time>2015-08-13T15:55:12Z</time>
      </trkpt>
      <trkpt lat="49.23993" lon="1.25256">
        <ele>22.722357</ele>
        <time>2015-08-13T15:55:16Z</time>
      </trkpt>
      <trkpt lat="49.24" lon="1.25269">
        <ele>22.610943</ele>
        <time>2015-08-13T15:55:26Z</time>
      </trkpt>
      <trkpt lat="49.24005" lon="1.25279">
        <ele>22.610943</ele>
        <time>2015-08-13T15:55:31Z</time>
      </trkpt>
      <trkpt lat="49.2401" lon="1.2529">
        <ele>22.40827</ele>
        <time>2015-08-13T15:55:41Z</time>
      </trkpt>
      <trkpt lat="49.24013" lon="1.25297">
        <ele>22.40827</ele>
        <time>2015-08-13T15:55:46Z</time>
      </trkpt>
      <trkpt lat="49.24018" lon="1.2531">
        <ele>22.150038</ele>
        <time>2015-08-13T15:55:56Z</time>
      </trkpt>
      <trkpt lat="49.24022" lon="1.25315">
        <ele>22.150038</ele>
        <time>2015-08-13T15:56:01Z</time>
      </trkpt>
      <trkpt lat="49.24031" lon="1.2533">
        <ele>21.970299</ele>
        <time>2015-08-13T15:56:11Z</time>
      </trkpt>
      <trkpt lat="49.24038" lon="1.25346">
        <ele>21.805635</ele>
        <time>2015-08-13T15:56:16Z</time>
      </trkpt>
      <trkpt lat="49.2405" lon="1.25366">
        <ele>21.611603</ele>
        <time>2015-08-13T15:56:31Z</time>
      </trkpt>
      <trkpt lat="49.24053" lon="1.25368">
        <ele>21.611603</ele>
        <time>2015-08-13T15:56:36Z</time>
      </trkpt>
      <trkpt lat="49.24058" lon="1.25372">
        <ele>21.611603</ele>
        <time>2015-08-13T15:56:46Z</time>
      </trkpt>
      <trkpt lat="49.24062" lon="1.25376">
        <ele>21.592041</ele>
        <time>2015-08-13T15:56:51Z</time>
      </trkpt>
      <trkpt lat="49.2407" lon="1.25387">
        <ele>21.603832</ele>
        <time>2015-08-13T15:57:01Z</time>
      </trkpt>
      <trkpt lat="49.24073" lon="1.25393">
        <ele>21.603832</ele>
        <time>2015-08-13T15:57:07Z</time>
      </trkpt>
      <trkpt lat="49.24083" lon="1.25408">
        <ele>21.456593</ele>
        <time>2015-08-13T15:57:16Z</time>
      </trkpt>
      <trkpt lat="49.24085" lon="1.25412">
        <ele>21.456593</ele>
        <time>2015-08-13T15:57:21Z</time>
      </trkpt>
      <trkpt lat="49.24094" lon="1.25423">
        <ele>21.23374</ele>
        <time>2015-08-13T15:57:31Z</time>
      </trkpt>
      <trkpt lat="49.24098" lon="1.25429">
        <ele>21.23374</ele>
        <time>2015-08-13T15:57:36Z</time>
      </trkpt>
      <trkpt lat="49.2411" lon="1.25441">
        <ele>21.070383</ele>
        <time>2015-08-13T15:57:46Z</time>
      </trkpt>
      <trkpt lat="49.24116" lon="1.2545">
        <ele>21.070383</ele>
        <time>2015-08-13T15:57:51Z</time>
      </trkpt>
      <trkpt lat="49.2412" lon="1.25465">
        <ele>20.832119</ele>
        <time>2015-08-13T15:58:01Z</time>
      </trkpt>
      <trkpt lat="49.24126" lon="1.2547">
        <ele>20.832119</ele>
        <time>2015-08-13T15:58:06Z</time>
      </trkpt>
      <trkpt lat="49.24136" lon="1.25482">
        <ele>20.639582</ele>
        <time>2015-08-13T15:58:16Z</time>
      </trkpt>
      <trkpt lat="49.24144" lon="1.2549">
        <ele>20.532343</ele>
        <time>2015-08-13T15:58:21Z</time>
      </trkpt>
      <trkpt lat="49.24148" lon="1.255">
        <ele>20.532343</ele>
        <time>2015-08-13T15:58:31Z</time>
      </trkpt>
      <trkpt lat="49.24149" lon="1.25507">
        <ele>20.503576</ele>
        <time>2015-08-13T15:58:36Z</time>
      </trkpt>
      <trkpt lat="49.24155" lon="1.25513">
        <ele>20.503576</ele>
        <time>2015-08-13T15:58:51Z</time>
      </trkpt>
      <trkpt lat="49.24157" lon="1.25515">
        <ele>20.258493</ele>
        <time>2015-08-13T15:58:56Z</time>
      </trkpt>
      <trkpt lat="49.24165" lon="1.25526">
        <ele>19.899246</ele>
        <time>2015-08-13T15:59:06Z</time>
      </trkpt>
      <trkpt lat="49.2417" lon="1.25532">
        <ele>19.899246</ele>
        <time>2015-08-13T15:59:11Z</time>
      </trkpt>
      <trkpt lat="49.24179" lon="1.25548">
        <ele>19.463142</ele>
        <time>2015-08-13T15:59:21Z</time>
      </trkpt>
      <trkpt lat="49.24182" lon="1.25559">
        <ele>19.463142</ele>
        <time>2015-08-13T15:59:26Z</time>
      </trkpt>
      <trkpt lat="49.24191" lon="1.25576">
        <ele>18.840843</ele>
        <time>2015-08-13T15:59:36Z</time>
      </trkpt>
      <trkpt lat="49.24196" lon="1.25582">
        <ele>18.840843</ele>
        <time>2015-08-13T15:59:41Z</time>
      </trkpt>
      <trkpt lat="49.24205" lon="1.25593">
        <ele>18.234188</ele>
        <time>2015-08-13T15:59:51Z</time>
      </trkpt>
      <trkpt lat="49.24209" lon="1.25602">
        <ele>18.234188</ele>
        <time>2015-08-13T15:59:56Z</time>
      </trkpt>
      <trkpt lat="49.24217" lon="1.25616">
        <ele>17.628372</ele>
        <time>2015-08-13T16:00:06Z</time>
      </trkpt>
      <trkpt lat="49.24221" lon="1.25621">
        <ele>17.628372</ele>
        <time>2015-08-13T16:00:11Z</time>
      </trkpt>
      <trkpt lat="49.2423" lon="1.25632">
        <ele>17.009668</ele>
        <time>2015-08-13T16:00:21Z</time>
      </trkpt>
      <trkpt lat="49.24234" lon="1.25639">
        <ele>17.009668</ele>
        <time>2015-08-13T16:00:26Z</time>
      </trkpt>
      <trkpt lat="49.24241" lon="1.25655">
        <ele>16.350962</ele>
        <time>2015-08-13T16:00:36Z</time>
      </trkpt>
      <trkpt lat="49.24244" lon="1.25662">
        <ele>16.350962</ele>
        <time>2015-08-13T16:00:41Z</time>
      </trkpt>
      <trkpt lat="49.24251" lon="1.25669">
        <ele>15.785749</ele>
        <time>2015-08-13T16:00:51Z</time>
      </trkpt>
      <trkpt lat="49.24254" lon="1.2567">
        <ele>15.785749</ele>
        <time>2015-08-13T16:00:56Z</time>
      </trkpt>
      <trkpt lat="49.24256" lon="1.25675">
        <ele>15.785749</ele>
        <time>2015-08-13T16:01:06Z</time>
      </trkpt>
      <trkpt lat="49.2426" lon="1.2568">
        <ele>15.653612</ele>
        <time>2015-08-13T16:01:11Z</time>
      </trkpt>
      <trkpt lat="49.24276" lon="1.25691">
        <ele>15.648274</ele>
        <time>2015-08-13T16:01:26Z</time>
      </trkpt>
      <trkpt lat="49.24284" lon="1.25698">
        <ele>15.744991</ele>
        <time>2015-08-13T16:01:31Z</time>
      </trkpt>
      <trkpt lat="49.24293" lon="1.25705">
        <ele>15.862895</ele>
        <time>2015-08-13T16:01:42Z</time>
      </trkpt>
      <trkpt lat="49.24297" lon="1.25712">
        <ele>15.862895</ele>
        <time>2015-08-13T16:01:46Z</time>
      </trkpt>
      <trkpt lat="49.24306" lon="1.25725">
        <ele>15.710825</ele>
        <time>2015-08-13T16:01:56Z</time>
      </trkpt>
      <trkpt lat="49.24311" lon="1.25731">
        <ele>15.710825</ele>
        <time>2015-08-13T16:02:01Z</time>
      </trkpt>
      <trkpt lat="49.2432" lon="1.25741">
        <ele>15.380042</ele>
        <time>2015-08-13T16:02:11Z</time>
      </trkpt>
      <trkpt lat="49.24325" lon="1.25746">
        <ele>15.380042</ele>
        <time>2015-08-13T16:02:16Z</time>
      </trkpt>
      <trkpt lat="49.24334" lon="1.25751">
        <ele>15.128538</ele>
        <time>2015-08-13T16:02:26Z</time>
      </trkpt>
      <trkpt lat="49.24339" lon="1.25757">
        <ele>15.128538</ele>
        <time>2015-08-13T16:02:31Z</time>
      </trkpt>
      <trkpt lat="49.24348" lon="1.25773">
        <ele>14.820442</ele>
        <time>2015-08-13T16:02:41Z</time>
      </trkpt>
      <trkpt lat="49.24352" lon="1.2578">
        <ele>14.820442</ele>
        <time>2015-08-13T16:02:46Z</time>
      </trkpt>
      <trkpt lat="49.2436" lon="1.25794">
        <ele>14.445313</ele>
        <time>2015-08-13T16:02:56Z</time>
      </trkpt>
      <trkpt lat="49.24365" lon="1.258">
        <ele>14.445313</ele>
        <time>2015-08-13T16:03:01Z</time>
      </trkpt>
      <trkpt lat="49.24371" lon="1.2579">
        <ele>14.137781</ele>
        <time>2015-08-13T16:03:16Z</time>
      </trkpt>
      <trkpt lat="49.2437" lon="1.2579">
        <ele>14.137781</ele>
        <time>2015-08-13T16:03:21Z</time>
      </trkpt>
      <trkpt lat="49.24371" lon="1.25792">
        <ele>14.137781</ele>
        <time>2015-08-13T16:03:31Z</time>
      </trkpt>
      <trkpt lat="49.2437" lon="1.2579">
        <ele>14.137781</ele>
        <time>2015-08-13T16:03:36Z</time>
      </trkpt>
      <trkpt lat="49.2437" lon="1.25788">
        <ele>14.137781</ele>
        <time>2015-08-13T16:03:46Z</time>
      </trkpt>
      <trkpt lat="49.24369" lon="1.25787">
        <ele>14.137781</ele>
        <time>2015-08-13T16:03:51Z</time>
      </trkpt>
      <trkpt lat="49.24371" lon="1.25788">
        <ele>14.137781</ele>
        <time>2015-08-13T16:04:01Z</time>
      </trkpt>
      <trkpt lat="49.24371" lon="1.25787">
        <ele>13.431539</ele>
        <time>2015-08-13T16:04:06Z</time>
      </trkpt>
      <trkpt lat="49.2437" lon="1.25786">
        <ele>13.431539</ele>
        <time>2015-08-13T16:04:16Z</time>
      </trkpt>
      <trkpt lat="49.2437" lon="1.25787">
        <ele>13.431539</ele>
        <time>2015-08-13T16:04:21Z</time>
      </trkpt>
      <trkpt lat="49.2437" lon="1.25788">
        <ele>13.431539</ele>
        <time>2015-08-13T16:04:31Z</time>
      </trkpt>
      <trkpt lat="49.2437" lon="1.25788">
        <ele>13.431539</ele>
        <time>2015-08-13T16:04:36Z</time>
      </trkpt>
      <trkpt lat="49.2437" lon="1.25784">
        <ele>13.431539</ele>
        <time>2015-08-13T16:04:46Z</time>
      </trkpt>
      <trkpt lat="49.2437" lon="1.25785">
        <ele>13.431539</ele>
        <time>2015-08-13T16:04:51Z</time>
      </trkpt>
      <trkpt lat="49.2437" lon="1.25785">
        <ele>13.431539</ele>
        <time>2015-08-13T16:05:01Z</time>
      </trkpt>
      <trkpt lat="49.2437" lon="1.25785">
        <ele>13.431539</ele>
        <time>2015-08-13T16:05:06Z</time>
      </trkpt>
      <trkpt lat="49.2437" lon="1.25785">
        <ele>13.431539</ele>
        <time>2015-08-13T16:05:21Z</time>
      </trkpt>
      <trkpt lat="49.2437" lon="1.25785">
        <ele>13.431539</ele>
        <time>2015-08-13T16:05:26Z</time>
      </trkpt>
      <trkpt lat="49.2437" lon="1.25785">
        <ele>13.431539</ele>
        <time>2015-08-13T16:05:36Z</time>
      </trkpt>
      <trkpt lat="49.2437" lon="1.25785">
        <ele>13.431539</ele>
        <time>2015-08-13T16:05:41Z</time>
      </trkpt>
      <trkpt lat="49.2437" lon="1.25785">
        <ele>13.431539</ele>
        <time>2015-08-13T16:05:51Z</time>
      </trkpt>
      <trkpt lat="49.2437" lon="1.25786">
        <ele>13.431539</ele>
        <time>2015-08-13T16:05:56Z</time>
      </trkpt>
      <trkpt lat="49.2437" lon="1.25786">
        <ele>13.431539</ele>
        <time>2015-08-13T16:06:06Z</time>
      </trkpt>
      <trkpt lat="49.2437" lon="1.25786">
        <ele>13.431539</ele>
        <time>2015-08-13T16:06:11Z</time>
      </trkpt>
      <trkpt lat="49.2437" lon="1.25786">
        <ele>13.431539</ele>
        <time>2015-08-13T16:06:21Z</time>
      </trkpt>
      <trkpt lat="49.2437" lon="1.25786">
        <ele>13.431539</ele>
        <time>2015-08-13T16:06:26Z</time>
      </trkpt>
      <trkpt lat="49.2437" lon="1.25786">
        <ele>13.431539</ele>
        <time>2015-08-13T16:06:36Z</time>
      </trkpt>
      <trkpt lat="49.2437" lon="1.25786">
        <ele>13.431539</ele>
        <time>2015-08-13T16:06:41Z</time>
      </trkpt>
      <trkpt lat="49.24371" lon="1.25787">
        <ele>12.702679</ele>
        <time>2015-08-13T16:06:51Z</time>
      </trkpt>
      <trkpt lat="49.24371" lon="1.25787">
        <ele>12.702679</ele>
        <time>2015-08-13T16:06:56Z</time>
      </trkpt>
      <trkpt lat="49.24372" lon="1.25788">
        <ele>12.702679</ele>
        <time>2015-08-13T16:07:11Z</time>
      </trkpt>
      <trkpt lat="49.24373" lon="1.25789">
        <ele>12.702679</ele>
        <time>2015-08-13T16:07:16Z</time>
      </trkpt>
      <trkpt lat="49.24373" lon="1.25791">
        <ele>12.702679</ele>
        <time>2015-08-13T16:07:26Z</time>
      </trkpt>
      <trkpt lat="49.24373" lon="1.25791">
        <ele>12.702679</ele>
        <time>2015-08-13T16:07:32Z</time>
      </trkpt>
      <trkpt lat="49.24371" lon="1.25789">
        <ele>12.702679</ele>
        <time>2015-08-13T16:07:41Z</time>
      </trkpt>
      <trkpt lat="49.24371" lon="1.25788">
        <ele>12.702679</ele>
        <time>2015-08-13T16:07:46Z</time>
      </trkpt>
      <trkpt lat="49.24371" lon="1.25789">
        <ele>12.702679</ele>
        <time>2015-08-13T16:07:56Z</time>
      </trkpt>
      <trkpt lat="49.24371" lon="1.25789">
        <ele>12.702679</ele>
        <time>2015-08-13T16:08:01Z</time>
      </trkpt>
      <trkpt lat="49.24371" lon="1.25789">
        <ele>12.702679</ele>
        <time>2015-08-13T16:08:11Z</time>
      </trkpt>
      <trkpt lat="49.2437" lon="1.25788">
        <ele>12.025916</ele>
        <time>2015-08-13T16:08:16Z</time>
      </trkpt>
      <trkpt lat="49.24369" lon="1.25788">
        <ele>12.025916</ele>
        <time>2015-08-13T16:08:26Z</time>
      </trkpt>
      <trkpt lat="49.24369" lon="1.25787">
        <ele>12.025916</ele>
        <time>2015-08-13T16:08:31Z</time>
      </trkpt>
      <trkpt lat="49.24369" lon="1.25787">
        <ele>12.025916</ele>
        <time>2015-08-13T16:08:41Z</time>
      </trkpt>
      <trkpt lat="49.24369" lon="1.25787">
        <ele>12.025916</ele>
        <time>2015-08-13T16:08:46Z</time>
      </trkpt>
      <trkpt lat="49.2437" lon="1.25786">
        <ele>12.025916</ele>
        <time>2015-08-13T16:08:56Z</time>
      </trkpt>
      <trkpt lat="49.24369" lon="1.25786">
        <ele>12.025916</ele>
        <time>2015-08-13T16:09:01Z</time>
      </trkpt>
      <trkpt lat="49.2437" lon="1.25787">
        <ele>12.025916</ele>
        <time>2015-08-13T16:09:16Z</time>
      </trkpt>
      <trkpt lat="49.2437" lon="1.25787">
        <ele>12.025916</ele>
        <time>2015-08-13T16:09:21Z</time>
      </trkpt>
      <trkpt lat="49.2437" lon="1.25788">
        <ele>12.025916</ele>
        <time>2015-08-13T16:09:31Z</time>
      </trkpt>
      <trkpt lat="49.2437" lon="1.25787">
        <ele>12.025916</ele>
        <time>2015-08-13T16:09:36Z</time>
      </trkpt>
      <trkpt lat="49.24369" lon="1.2579">
        <ele>12.025916</ele>
        <time>2015-08-13T16:09:46Z</time>
      </trkpt>
      <trkpt lat="49.24369" lon="1.25791">
        <ele>12.025916</ele>
        <time>2015-08-13T16:09:51Z</time>
      </trkpt>
      <trkpt lat="49.24369" lon="1.25791">
        <ele>12.025916</ele>
        <time>2015-08-13T16:10:01Z</time>
      </trkpt>
      <trkpt lat="49.24369" lon="1.25788">
        <ele>12.025916</ele>
        <time>2015-08-13T16:10:06Z</time>
      </trkpt>
      <trkpt lat="49.24369" lon="1.25786">
        <ele>11.513561</ele>
        <time>2015-08-13T16:10:16Z</time>
      </trkpt>
      <trkpt lat="49.24369" lon="1.25786">
        <ele>11.513561</ele>
        <time>2015-08-13T16:10:21Z</time>
      </trkpt>
      <trkpt lat="49.24369" lon="1.25786">
        <ele>11.513561</ele>
        <time>2015-08-13T16:10:31Z</time>
      </trkpt>
      <trkpt lat="49.24369" lon="1.25785">
        <ele>11.513561</ele>
        <time>2015-08-13T16:10:36Z</time>
      </trkpt>
      <trkpt lat="49.24368" lon="1.25784">
        <ele>11.513561</ele>
        <time>2015-08-13T16:10:46Z</time>
      </trkpt>
      <trkpt lat="49.24369" lon="1.25785">
        <ele>11.513561</ele>
        <time>2015-08-13T16:10:51Z</time>
      </trkpt>
      <trkpt lat="49.24369" lon="1.25787">
        <ele>11.513561</ele>
        <time>2015-08-13T16:11:01Z</time>
      </trkpt>
      <trkpt lat="49.24369" lon="1.25786">
        <ele>11.513561</ele>
        <time>2015-08-13T16:11:06Z</time>
      </trkpt>
      <trkpt lat="49.24369" lon="1.25786">
        <ele>11.513561</ele>
        <time>2015-08-13T16:11:16Z</time>
      </trkpt>
      <trkpt lat="49.24369" lon="1.25786">
        <ele>11.513561</ele>
        <time>2015-08-13T16:11:21Z</time>
      </trkpt>
      <trkpt lat="49.24369" lon="1.25785">
        <ele>11.513561</ele>
        <time>2015-08-13T16:11:31Z</time>
      </trkpt>
      <trkpt lat="49.24369" lon="1.25786">
        <ele>11.513561</ele>
        <time>2015-08-13T16:11:36Z</time>
      </trkpt>
      <trkpt lat="49.24369" lon="1.25786">
        <ele>11.513561</ele>
        <time>2015-08-13T16:11:46Z</time>
      </trkpt>
      <trkpt lat="49.24369" lon="1.25786">
        <ele>11.513561</ele>
        <time>2015-08-13T16:11:51Z</time>
      </trkpt>
      <trkpt lat="49.2437" lon="1.25785">
        <ele>11.513561</ele>
        <time>2015-08-13T16:12:06Z</time>
      </trkpt>
      <trkpt lat="49.2437" lon="1.25785">
        <ele>11.513561</ele>
        <time>2015-08-13T16:12:11Z</time>
      </trkpt>
      <trkpt lat="49.2437" lon="1.25787">
        <ele>11.513561</ele>
        <time>2015-08-13T16:12:21Z</time>
      </trkpt>
      <trkpt lat="49.2437" lon="1.25788">
        <ele>11.009811</ele>
        <time>2015-08-13T16:12:26Z</time>
      </trkpt>
      <trkpt lat="49.2437" lon="1.25788">
        <ele>11.009811</ele>
        <time>2015-08-13T16:12:36Z</time>
      </trkpt>
      <trkpt lat="49.2437" lon="1.25788">
        <ele>11.009811</ele>
        <time>2015-08-13T16:12:41Z</time>
      </trkpt>
      <trkpt lat="49.2437" lon="1.25788">
        <ele>11.009811</ele>
        <time>2015-08-13T16:12:51Z</time>
      </trkpt>
      <trkpt lat="49.2437" lon="1.25788">
        <ele>11.009811</ele>
        <time>2015-08-13T16:12:56Z</time>
      </trkpt>
      <trkpt lat="49.2437" lon="1.25788">
        <ele>11.009811</ele>
        <time>2015-08-13T16:13:06Z</time>
      </trkpt>
      <trkpt lat="49.2437" lon="1.25788">
        <ele>11.009811</ele>
        <time>2015-08-13T16:13:11Z</time>
      </trkpt>
      <trkpt lat="49.24369" lon="1.25786">
        <ele>11.009811</ele>
        <time>2015-08-13T16:13:21Z</time>
      </trkpt>
      <trkpt lat="49.24368" lon="1.25786">
        <ele>11.009811</ele>
        <time>2015-08-13T16:13:26Z</time>
      </trkpt>
      <trkpt lat="49.24371" lon="1.25786">
        <ele>11.009811</ele>
        <time>2015-08-13T16:13:36Z</time>
      </trkpt>
      <trkpt lat="49.24372" lon="1.25787">
        <ele>11.009811</ele>
        <time>2015-08-13T16:13:41Z</time>
      </trkpt>
      <trkpt lat="49.2437" lon="1.25785">
        <ele>10.600853</ele>
        <time>2015-08-13T16:13:51Z</time>
      </trkpt>
      <trkpt lat="49.24369" lon="1.25784">
        <ele>10.600853</ele>
        <time>2015-08-13T16:13:56Z</time>
      </trkpt>
      <trkpt lat="49.24368" lon="1.25787">
        <ele>10.600853</ele>
        <time>2015-08-13T16:14:06Z</time>
      </trkpt>
      <trkpt lat="49.24368" lon="1.25788">
        <ele>10.600853</ele>
        <time>2015-08-13T16:14:11Z</time>
      </trkpt>
      <trkpt lat="49.2437" lon="1.2579">
        <ele>10.600853</ele>
        <time>2015-08-13T16:14:21Z</time>
      </trkpt>
      <trkpt lat="49.2437" lon="1.25791">
        <ele>10.600853</ele>
        <time>2015-08-13T16:14:26Z</time>
      </trkpt>
      <trkpt lat="49.24369" lon="1.25787">
        <ele>10.250982</ele>
        <time>2015-08-13T16:14:36Z</time>
      </trkpt>
      <trkpt lat="49.2437" lon="1.25786">
        <ele>10.250982</ele>
        <time>2015-08-13T16:14:41Z</time>
      </trkpt>
      <trkpt lat="49.24369" lon="1.25785">
        <ele>10.250982</ele>
        <time>2015-08-13T16:14:51Z</time>
      </trkpt>
      <trkpt lat="49.24367" lon="1.25785">
        <ele>10.250982</ele>
        <time>2015-08-13T16:14:56Z</time>
      </trkpt>
      <trkpt lat="49.24366" lon="1.25784">
        <ele>10.250982</ele>
        <time>2015-08-13T16:15:06Z</time>
      </trkpt>
      <trkpt lat="49.24366" lon="1.25784">
        <ele>10.250982</ele>
        <time>2015-08-13T16:15:11Z</time>
      </trkpt>
      <trkpt lat="49.24365" lon="1.25783">
        <ele>10.250982</ele>
        <time>2015-08-13T16:15:26Z</time>
      </trkpt>
      <trkpt lat="49.24365" lon="1.25782">
        <ele>10.250982</ele>
        <time>2015-08-13T16:15:31Z</time>
      </trkpt>
      <trkpt lat="49.24366" lon="1.25786">
        <ele>9.696368</ele>
        <time>2015-08-13T16:15:41Z</time>
      </trkpt>
      <trkpt lat="49.24366" lon="1.25786">
        <ele>9.696368</ele>
        <time>2015-08-13T16:15:46Z</time>
      </trkpt>
      <trkpt lat="49.24368" lon="1.25792">
        <ele>9.696368</ele>
        <time>2015-08-13T16:15:56Z</time>
      </trkpt>
      <trkpt lat="49.24367" lon="1.25798">
        <ele>9.183105</ele>
        <time>2015-08-13T16:16:01Z</time>
      </trkpt>
      <trkpt lat="49.24366" lon="1.25806">
        <ele>9.183105</ele>
        <time>2015-08-13T16:16:11Z</time>
      </trkpt>
      <trkpt lat="49.24369" lon="1.25809">
        <ele>9.183105</ele>
        <time>2015-08-13T16:16:16Z</time>
      </trkpt>
      <trkpt lat="49.24376" lon="1.25819">
        <ele>8.895855</ele>
        <time>2015-08-13T16:16:26Z</time>
      </trkpt>
      <trkpt lat="49.24379" lon="1.25827">
        <ele>8.895855</ele>
        <time>2015-08-13T16:16:31Z</time>
      </trkpt>
      <trkpt lat="49.24384" lon="1.25838">
        <ele>8.817729</ele>
        <time>2015-08-13T16:16:41Z</time>
      </trkpt>
      <trkpt lat="49.24388" lon="1.25844">
        <ele>8.817729</ele>
        <time>2015-08-13T16:16:46Z</time>
      </trkpt>
      <trkpt lat="49.24394" lon="1.2585">
        <ele>8.802787</ele>
        <time>2015-08-13T16:16:56Z</time>
      </trkpt>
      <trkpt lat="49.24397" lon="1.25857">
        <ele>8.802787</ele>
        <time>2015-08-13T16:17:01Z</time>
      </trkpt>
      <trkpt lat="49.2441" lon="1.25877">
        <ele>8.84533</ele>
        <time>2015-08-13T16:17:16Z</time>
      </trkpt>
      <trkpt lat="49.24414" lon="1.25883">
        <ele>8.84533</ele>
        <time>2015-08-13T16:17:21Z</time>
      </trkpt>
      <trkpt lat="49.24421" lon="1.25892">
        <ele>8.853455</ele>
        <time>2015-08-13T16:17:31Z</time>
      </trkpt>
      <trkpt lat="49.24426" lon="1.25898">
        <ele>8.853455</ele>
        <time>2015-08-13T16:17:36Z</time>
      </trkpt>
      <trkpt lat="49.24429" lon="1.25905">
        <ele>9.044736</ele>
        <time>2015-08-13T16:17:46Z</time>
      </trkpt>
      <trkpt lat="49.24433" lon="1.25912">
        <ele>9.044736</ele>
        <time>2015-08-13T16:17:51Z</time>
      </trkpt>
      <trkpt lat="49.24441" lon="1.25923">
        <ele>9.519388</ele>
        <time>2015-08-13T16:18:01Z</time>
      </trkpt>
      <trkpt lat="49.24446" lon="1.2593">
        <ele>9.519388</ele>
        <time>2015-08-13T16:18:06Z</time>
      </trkpt>
      <trkpt lat="49.24453" lon="1.25941">
        <ele>10.095669</ele>
        <time>2015-08-13T16:18:16Z</time>
      </trkpt>
      <trkpt lat="49.24456" lon="1.25945">
        <ele>10.095669</ele>
        <time>2015-08-13T16:18:21Z</time>
      </trkpt>
      <trkpt lat="49.24463" lon="1.25958">
        <ele>10.590508</ele>
        <time>2015-08-13T16:18:31Z</time>
      </trkpt>
      <trkpt lat="49.24466" lon="1.25965">
        <ele>10.590508</ele>
        <time>2015-08-13T16:18:36Z</time>
      </trkpt>
      <trkpt lat="49.24471" lon="1.25981">
        <ele>11.093939</ele>
        <time>2015-08-13T16:18:46Z</time>
      </trkpt>
      <trkpt lat="49.24474" lon="1.25987">
        <ele>11.093939</ele>
        <time>2015-08-13T16:18:51Z</time>
      </trkpt>
      <trkpt lat="49.2448" lon="1.26">
        <ele>11.761437</ele>
        <time>2015-08-13T16:19:01Z</time>
      </trkpt>
      <trkpt lat="49.24481" lon="1.26009">
        <ele>11.761437</ele>
        <time>2015-08-13T16:19:06Z</time>
      </trkpt>
      <trkpt lat="49.24484" lon="1.26026">
        <ele>12.347539</ele>
        <time>2015-08-13T16:19:16Z</time>
      </trkpt>
      <trkpt lat="49.24489" lon="1.26031">
        <ele>12.347539</ele>
        <time>2015-08-13T16:19:21Z</time>
      </trkpt>
      <trkpt lat="49.24498" lon="1.2604">
        <ele>12.913299</ele>
        <time>2015-08-13T16:19:31Z</time>
      </trkpt>
      <trkpt lat="49.24502" lon="1.26042">
        <ele>12.913299</ele>
        <time>2015-08-13T16:19:36Z</time>
      </trkpt>
      <trkpt lat="49.24506" lon="1.26048">
        <ele>13.428923</ele>
        <time>2015-08-13T16:19:46Z</time>
      </trkpt>
      <trkpt lat="49.24511" lon="1.26057">
        <ele>13.428923</ele>
        <time>2015-08-13T16:19:51Z</time>
      </trkpt>
      <trkpt lat="49.2452" lon="1.26075">
        <ele>13.996696</ele>
        <time>2015-08-13T16:20:06Z</time>
      </trkpt>
      <trkpt lat="49.24524" lon="1.26079">
        <ele>13.996696</ele>
        <time>2015-08-13T16:20:11Z</time>
      </trkpt>
      <trkpt lat="49.24531" lon="1.26091">
        <ele>14.581596</ele>
        <time>2015-08-13T16:20:21Z</time>
      </trkpt>
      <trkpt lat="49.24536" lon="1.261">
        <ele>14.581596</ele>
        <time>2015-08-13T16:20:26Z</time>
      </trkpt>
      <trkpt lat="49.24546" lon="1.26116">
        <ele>15.309704</ele>
        <time>2015-08-13T16:20:36Z</time>
      </trkpt>
      <trkpt lat="49.24551" lon="1.26121">
        <ele>15.309704</ele>
        <time>2015-08-13T16:20:41Z</time>
      </trkpt>
      <trkpt lat="49.24556" lon="1.26133">
        <ele>16.196617</ele>
        <time>2015-08-13T16:20:51Z</time>
      </trkpt>
      <trkpt lat="49.24557" lon="1.26135">
        <ele>16.196617</ele>
        <time>2015-08-13T16:20:56Z</time>
      </trkpt>
      <trkpt lat="49.24564" lon="1.26147">
        <ele>17.155529</ele>
        <time>2015-08-13T16:21:06Z</time>
      </trkpt>
      <trkpt lat="49.24565" lon="1.26149">
        <ele>17.155529</ele>
        <time>2015-08-13T16:21:11Z</time>
      </trkpt>
      <trkpt lat="49.24577" lon="1.2617">
        <ele>18.30763</ele>
        <time>2015-08-13T16:21:21Z</time>
      </trkpt>
      <trkpt lat="49.24581" lon="1.26175">
        <ele>18.30763</ele>
        <time>2015-08-13T16:21:26Z</time>
      </trkpt>
      <trkpt lat="49.24587" lon="1.26185">
        <ele>19.519753</ele>
        <time>2015-08-13T16:21:36Z</time>
      </trkpt>
      <trkpt lat="49.24591" lon="1.26188">
        <ele>19.519753</ele>
        <time>2015-08-13T16:21:41Z</time>
      </trkpt>
      <trkpt lat="49.24601" lon="1.26201">
        <ele>20.841349</ele>
        <time>2015-08-13T16:21:51Z</time>
      </trkpt>
      <trkpt lat="49.24603" lon="1.26207">
        <ele>20.841349</ele>
        <time>2015-08-13T16:21:56Z</time>
      </trkpt>
      <trkpt lat="49.24612" lon="1.2622">
        <ele>22.101849</ele>
        <time>2015-08-13T16:22:11Z</time>
      </trkpt>
      <trkpt lat="49.24614" lon="1.26225">
        <ele>22.101849</ele>
        <time>2015-08-13T16:22:16Z</time>
      </trkpt>
      <trkpt lat="49.24622" lon="1.26237">
        <ele>23.258766</ele>
        <time>2015-08-13T16:22:26Z</time>
      </trkpt>
      <trkpt lat="49.24625" lon="1.26242">
        <ele>23.258766</ele>
        <time>2015-08-13T16:22:31Z</time>
      </trkpt>
      <trkpt lat="49.24633" lon="1.26261">
        <ele>24.143414</ele>
        <time>2015-08-13T16:22:41Z</time>
      </trkpt>
      <trkpt lat="49.24637" lon="1.26266">
        <ele>24.143414</ele>
        <time>2015-08-13T16:22:46Z</time>
      </trkpt>
      <trkpt lat="49.2465" lon="1.26278">
        <ele>24.874163</ele>
        <time>2015-08-13T16:22:57Z</time>
      </trkpt>
      <trkpt lat="49.24655" lon="1.26284">
        <ele>24.874163</ele>
        <time>2015-08-13T16:23:01Z</time>
      </trkpt>
      <trkpt lat="49.24666" lon="1.26298">
        <ele>25.489164</ele>
        <time>2015-08-13T16:23:11Z</time>
      </trkpt>
      <trkpt lat="49.2467" lon="1.26305">
        <ele>25.489164</ele>
        <time>2015-08-13T16:23:16Z</time>
      </trkpt>
      <trkpt lat="49.24678" lon="1.26317">
        <ele>25.880075</ele>
        <time>2015-08-13T16:23:26Z</time>
      </trkpt>
      <trkpt lat="49.24683" lon="1.2633">
        <ele>26.148983</ele>
        <time>2015-08-13T16:23:31Z</time>
      </trkpt>
      <trkpt lat="49.24691" lon="1.2635">
        <ele>26.16033</ele>
        <time>2015-08-13T16:23:41Z</time>
      </trkpt>
      <trkpt lat="49.24694" lon="1.26355">
        <ele>26.16033</ele>
        <time>2015-08-13T16:23:46Z</time>
      </trkpt>
      <trkpt lat="49.24701" lon="1.26375">
        <ele>25.875786</ele>
        <time>2015-08-13T16:23:56Z</time>
      </trkpt>
      <trkpt lat="49.24706" lon="1.26387">
        <ele>25.563372</ele>
        <time>2015-08-13T16:24:01Z</time>
      </trkpt>
      <trkpt lat="49.24712" lon="1.26401">
        <ele>25.356276</ele>
        <time>2015-08-13T16:24:11Z</time>
      </trkpt>
      <trkpt lat="49.24715" lon="1.26408">
        <ele>25.356276</ele>
        <time>2015-08-13T16:24:16Z</time>
      </trkpt>
      <trkpt lat="49.24712" lon="1.26419">
        <ele>25.103855</ele>
        <time>2015-08-13T16:24:26Z</time>
      </trkpt>
      <trkpt lat="49.24709" lon="1.26423">
        <ele>25.103855</ele>
        <time>2015-08-13T16:24:31Z</time>
      </trkpt>
      <trkpt lat="49.24696" lon="1.26435">
        <ele>24.83964</ele>
        <time>2015-08-13T16:24:46Z</time>
      </trkpt>
      <trkpt lat="49.24689" lon="1.26436">
        <ele>24.83964</ele>
        <time>2015-08-13T16:24:51Z</time>
      </trkpt>
      <trkpt lat="49.2468" lon="1.26441">
        <ele>24.724466</ele>
        <time>2015-08-13T16:25:01Z</time>
      </trkpt>
      <trkpt lat="49.24675" lon="1.26444">
        <ele>24.724466</ele>
        <time>2015-08-13T16:25:06Z</time>
      </trkpt>
      <trkpt lat="49.24664" lon="1.26454">
        <ele>24.921392</ele>
        <time>2015-08-13T16:25:16Z</time>
      </trkpt>
      <trkpt lat="49.24661" lon="1.2646">
        <ele>24.921392</ele>
        <time>2015-08-13T16:25:21Z</time>
      </trkpt>
      <trkpt lat="49.24652" lon="1.26469">
        <ele>25.393303</ele>
        <time>2015-08-13T16:25:31Z</time>
      </trkpt>
      <trkpt lat="49.24648" lon="1.26475">
        <ele>25.393303</ele>
        <time>2015-08-13T16:25:36Z</time>
      </trkpt>
      <trkpt lat="49.24638" lon="1.26483">
        <ele>26.061827</ele>
        <time>2015-08-13T16:25:46Z</time>
      </trkpt>
      <trkpt lat="49.24634" lon="1.26488">
        <ele>26.061827</ele>
        <time>2015-08-13T16:25:51Z</time>
      </trkpt>
      <trkpt lat="49.24626" lon="1.26499">
        <ele>26.925888</ele>
        <time>2015-08-13T16:26:01Z</time>
      </trkpt>
      <trkpt lat="49.24622" lon="1.26505">
        <ele>26.925888</ele>
        <time>2015-08-13T16:26:06Z</time>
      </trkpt>
      <trkpt lat="49.24608" lon="1.26523">
        <ele>28.027193</ele>
        <time>2015-08-13T16:26:21Z</time>
      </trkpt>
      <trkpt lat="49.24603" lon="1.26528">
        <ele>28.027193</ele>
        <time>2015-08-13T16:26:26Z</time>
      </trkpt>
      <trkpt lat="49.24595" lon="1.26536">
        <ele>29.302877</ele>
        <time>2015-08-13T16:26:36Z</time>
      </trkpt>
      <trkpt lat="49.24592" lon="1.26543">
        <ele>29.302877</ele>
        <time>2015-08-13T16:26:41Z</time>
      </trkpt>
      <trkpt lat="49.24593" lon="1.26549">
        <ele>30.506893</ele>
        <time>2015-08-13T16:26:51Z</time>
      </trkpt>
      <trkpt lat="49.24587" lon="1.26554">
        <ele>30.506893</ele>
        <time>2015-08-13T16:26:56Z</time>
      </trkpt>
      <trkpt lat="49.2458" lon="1.26562">
        <ele>31.627668</ele>
        <time>2015-08-13T16:27:06Z</time>
      </trkpt>
      <trkpt lat="49.24576" lon="1.26569">
        <ele>31.627668</ele>
        <time>2015-08-13T16:27:11Z</time>
      </trkpt>
      <trkpt lat="49.24564" lon="1.26576">
        <ele>32.65476</ele>
        <time>2015-08-13T16:27:21Z</time>
      </trkpt>
      <trkpt lat="49.24561" lon="1.26578">
        <ele>32.65476</ele>
        <time>2015-08-13T16:27:26Z</time>
      </trkpt>
      <trkpt lat="49.24552" lon="1.26579">
        <ele>33.72291</ele>
        <time>2015-08-13T16:27:36Z</time>
      </trkpt>
      <trkpt lat="49.24548" lon="1.2658">
        <ele>33.72291</ele>
        <time>2015-08-13T16:27:41Z</time>
      </trkpt>
      <trkpt lat="49.24537" lon="1.26585">
        <ele>34.72632</ele>
        <time>2015-08-13T16:27:51Z</time>
      </trkpt>
      <trkpt lat="49.24533" lon="1.26585">
        <ele>34.72632</ele>
        <time>2015-08-13T16:27:56Z</time>
      </trkpt>
      <trkpt lat="49.24522" lon="1.26585">
        <ele>35.480724</ele>
        <time>2015-08-13T16:28:06Z</time>
      </trkpt>
      <trkpt lat="49.24519" lon="1.26583">
        <ele>35.480724</ele>
        <time>2015-08-13T16:28:11Z</time>
      </trkpt>
      <trkpt lat="49.24517" lon="1.26578">
        <ele>35.480724</ele>
        <time>2015-08-13T16:28:21Z</time>
      </trkpt>
      <trkpt lat="49.24513" lon="1.26573">
        <ele>36.190826</ele>
        <time>2015-08-13T16:28:26Z</time>
      </trkpt>
      <trkpt lat="49.24502" lon="1.26559">
        <ele>36.844723</ele>
        <time>2015-08-13T16:28:41Z</time>
      </trkpt>
      <trkpt lat="49.245" lon="1.26553">
        <ele>36.844723</ele>
        <time>2015-08-13T16:28:46Z</time>
      </trkpt>
      <trkpt lat="49.24492" lon="1.26543">
        <ele>37.258648</ele>
        <time>2015-08-13T16:28:56Z</time>
      </trkpt>
      <trkpt lat="49.24487" lon="1.26538">
        <ele>37.258648</ele>
        <time>2015-08-13T16:29:01Z</time>
      </trkpt>
      <trkpt lat="49.24487" lon="1.26536">
        <ele>37.258648</ele>
        <time>2015-08-13T16:29:11Z</time>
      </trkpt>
      <trkpt lat="49.2448" lon="1.2654">
        <ele>37.450397</ele>
        <time>2015-08-13T16:29:16Z</time>
      </trkpt>
      <trkpt lat="49.24475" lon="1.26551">
        <ele>37.450397</ele>
        <time>2015-08-13T16:29:26Z</time>
      </trkpt>
      <trkpt lat="49.24471" lon="1.26558">
        <ele>37.53801</ele>
        <time>2015-08-13T16:29:31Z</time>
      </trkpt>
      <trkpt lat="49.24466" lon="1.26574">
        <ele>37.559113</ele>
        <time>2015-08-13T16:29:41Z</time>
      </trkpt>
      <trkpt lat="49.24464" lon="1.26584">
        <ele>37.559113</ele>
        <time>2015-08-13T16:29:46Z</time>
      </trkpt>
      <trkpt lat="49.24457" lon="1.26602">
        <ele>37.50557</ele>
        <time>2015-08-13T16:29:56Z</time>
      </trkpt>
      <trkpt lat="49.24454" lon="1.26608">
        <ele>37.50557</ele>
        <time>2015-08-13T16:30:01Z</time>
      </trkpt>
      <trkpt lat="49.24448" lon="1.26623">
        <ele>37.355644</ele>
        <time>2015-08-13T16:30:11Z</time>
      </trkpt>
      <trkpt lat="49.24446" lon="1.2663">
        <ele>37.355644</ele>
        <time>2015-08-13T16:30:16Z</time>
      </trkpt>
      <trkpt lat="49.24441" lon="1.26643">
        <ele>37.17597</ele>
        <time>2015-08-13T16:30:26Z</time>
      </trkpt>
      <trkpt lat="49.24437" lon="1.26656">
        <ele>36.941895</ele>
        <time>2015-08-13T16:30:31Z</time>
      </trkpt>
      <trkpt lat="49.24429" lon="1.26677">
        <ele>36.60193</ele>
        <time>2015-08-13T16:30:46Z</time>
      </trkpt>
      <trkpt lat="49.24426" lon="1.26688">
        <ele>36.60193</ele>
        <time>2015-08-13T16:30:51Z</time>
      </trkpt>
      <trkpt lat="49.24422" lon="1.26703">
        <ele>36.1807</ele>
        <time>2015-08-13T16:31:01Z</time>
      </trkpt>
      <trkpt lat="49.2442" lon="1.26711">
        <ele>36.1807</ele>
        <time>2015-08-13T16:31:06Z</time>
      </trkpt>
      <trkpt lat="49.24415" lon="1.2673">
        <ele>35.730072</ele>
        <time>2015-08-13T16:31:16Z</time>
      </trkpt>
      <trkpt lat="49.24412" lon="1.26736">
        <ele>35.730072</ele>
        <time>2015-08-13T16:31:21Z</time>
      </trkpt>
      <trkpt lat="49.24407" lon="1.26749">
        <ele>35.39904</ele>
        <time>2015-08-13T16:31:31Z</time>
      </trkpt>
      <trkpt lat="49.24405" lon="1.26759">
        <ele>35.39904</ele>
        <time>2015-08-13T16:31:37Z</time>
      </trkpt>
      <trkpt lat="49.24402" lon="1.2677">
        <ele>35.10913</ele>
        <time>2015-08-13T16:31:46Z</time>
      </trkpt>
      <trkpt lat="49.244" lon="1.26778">
        <ele>35.10913</ele>
        <time>2015-08-13T16:31:51Z</time>
      </trkpt>
      <trkpt lat="49.24395" lon="1.26793">
        <ele>34.888367</ele>
        <time>2015-08-13T16:32:01Z</time>
      </trkpt>
      <trkpt lat="49.24392" lon="1.268">
        <ele>34.888367</ele>
        <time>2015-08-13T16:32:06Z</time>
      </trkpt>
      <trkpt lat="49.24389" lon="1.26817">
        <ele>34.76248</ele>
        <time>2015-08-13T16:32:16Z</time>
      </trkpt>
      <trkpt lat="49.24387" lon="1.26824">
        <ele>34.76248</ele>
        <time>2015-08-13T16:32:21Z</time>
      </trkpt>
      <trkpt lat="49.2438" lon="1.26841">
        <ele>34.5965</ele>
        <time>2015-08-13T16:32:31Z</time>
      </trkpt>
      <trkpt lat="49.24378" lon="1.26849">
        <ele>34.5965</ele>
        <time>2015-08-13T16:32:36Z</time>
      </trkpt>
      <trkpt lat="49.2437" lon="1.26873">
        <ele>34.53924</ele>
        <time>2015-08-13T16:32:51Z</time>
      </trkpt>
      <trkpt lat="49.24367" lon="1.26881">
        <ele>34.53924</ele>
        <time>2015-08-13T16:32:56Z</time>
      </trkpt>
      <trkpt lat="49.24361" lon="1.26898">
        <ele>34.483253</ele>
        <time>2015-08-13T16:33:06Z</time>
      </trkpt>
      <trkpt lat="49.24359" lon="1.26904">
        <ele>34.483253</ele>
        <time>2015-08-13T16:33:11Z</time>
      </trkpt>
      <trkpt lat="49.24355" lon="1.2692">
        <ele>34.501873</ele>
        <time>2015-08-13T16:33:21Z</time>
      </trkpt>
      <trkpt lat="49.24351" lon="1.26927">
        <ele>34.501873</ele>
        <time>2015-08-13T16:33:26Z</time>
      </trkpt>
      <trkpt lat="49.24345" lon="1.26941">
        <ele>34.590733</ele>
        <time>2015-08-13T16:33:36Z</time>
      </trkpt>
      <trkpt lat="49.24342" lon="1.26948">
        <ele>34.590733</ele>
        <time>2015-08-13T16:33:41Z</time>
      </trkpt>
      <trkpt lat="49.24338" lon="1.26964">
        <ele>34.788788</ele>
        <time>2015-08-13T16:33:51Z</time>
      </trkpt>
      <trkpt lat="49.24336" lon="1.26974">
        <ele>34.788788</ele>
        <time>2015-08-13T16:33:56Z</time>
      </trkpt>
      <trkpt lat="49.24332" lon="1.26991">
        <ele>35.01648</ele>
        <time>2015-08-13T16:34:06Z</time>
      </trkpt>
      <trkpt lat="49.24331" lon="1.26998">
        <ele>35.01648</ele>
        <time>2015-08-13T16:34:11Z</time>
      </trkpt>
      <trkpt lat="49.24326" lon="1.27016">
        <ele>35.387333</ele>
        <time>2015-08-13T16:34:21Z</time>
      </trkpt>
      <trkpt lat="49.24325" lon="1.27024">
        <ele>35.387333</ele>
        <time>2015-08-13T16:34:26Z</time>
      </trkpt>
      <trkpt lat="49.24323" lon="1.27041">
        <ele>35.732265</ele>
        <time>2015-08-13T16:34:36Z</time>
      </trkpt>
      <trkpt lat="49.24322" lon="1.2705">
        <ele>35.732265</ele>
        <time>2015-08-13T16:34:41Z</time>
      </trkpt>
      <trkpt lat="49.2432" lon="1.27065">
        <ele>36.06759</ele>
        <time>2015-08-13T16:34:51Z</time>
      </trkpt>
      <trkpt lat="49.24318" lon="1.27075">
        <ele>36.06759</ele>
        <time>2015-08-13T16:34:56Z</time>
      </trkpt>
      <trkpt lat="49.24314" lon="1.27097">
        <ele>36.422825</ele>
        <time>2015-08-13T16:35:11Z</time>
      </trkpt>
      <trkpt lat="49.24314" lon="1.27106">
        <ele>36.422825</ele>
        <time>2015-08-13T16:35:16Z</time>
      </trkpt>
      <trkpt lat="49.2431" lon="1.27125">
        <ele>36.782</ele>
        <time>2015-08-13T16:35:26Z</time>
      </trkpt>
      <trkpt lat="49.24309" lon="1.27131">
        <ele>36.782</ele>
        <time>2015-08-13T16:35:31Z</time>
      </trkpt>
      <trkpt lat="49.24308" lon="1.27152">
        <ele>37.17352</ele>
        <time>2015-08-13T16:35:41Z</time>
      </trkpt>
      <trkpt lat="49.24307" lon="1.2716">
        <ele>37.17352</ele>
        <time>2015-08-13T16:35:46Z</time>
      </trkpt>
      <trkpt lat="49.24304" lon="1.27174">
        <ele>37.594746</ele>
        <time>2015-08-13T16:35:56Z</time>
      </trkpt>
      <trkpt lat="49.24303" lon="1.27184">
        <ele>37.594746</ele>
        <time>2015-08-13T16:36:01Z</time>
      </trkpt>
      <trkpt lat="49.24301" lon="1.27198">
        <ele>38.057552</ele>
        <time>2015-08-13T16:36:11Z</time>
      </trkpt>
      <trkpt lat="49.243" lon="1.27204">
        <ele>38.057552</ele>
        <time>2015-08-13T16:36:16Z</time>
      </trkpt>
      <trkpt lat="49.24296" lon="1.27223">
        <ele>38.471924</ele>
        <time>2015-08-13T16:36:26Z</time>
      </trkpt>
      <trkpt lat="49.24295" lon="1.2723">
        <ele>38.471924</ele>
        <time>2015-08-13T16:36:31Z</time>
      </trkpt>
      <trkpt lat="49.24293" lon="1.27251">
        <ele>38.9275</ele>
        <time>2015-08-13T16:36:41Z</time>
      </trkpt>
      <trkpt lat="49.24293" lon="1.27261">
        <ele>38.9275</ele>
        <time>2015-08-13T16:36:46Z</time>
      </trkpt>
      <trkpt lat="49.24289" lon="1.27286">
        <ele>39.3487</ele>
        <time>2015-08-13T16:37:01Z</time>
      </trkpt>
      <trkpt lat="49.24288" lon="1.27295">
        <ele>39.3487</ele>
        <time>2015-08-13T16:37:06Z</time>
      </trkpt>
      <trkpt lat="49.24285" lon="1.27312">
        <ele>39.780857</ele>
        <time>2015-08-13T16:37:16Z</time>
      </trkpt>
      <trkpt lat="49.24284" lon="1.27322">
        <ele>39.780857</ele>
        <time>2015-08-13T16:37:21Z</time>
      </trkpt>
      <trkpt lat="49.24282" lon="1.2734">
        <ele>40.25152</ele>
        <time>2015-08-13T16:37:31Z</time>
      </trkpt>
      <trkpt lat="49.2428" lon="1.27348">
        <ele>40.25152</ele>
        <time>2015-08-13T16:37:36Z</time>
      </trkpt>
      <trkpt lat="49.24278" lon="1.27369">
        <ele>40.714043</ele>
        <time>2015-08-13T16:37:46Z</time>
      </trkpt>
      <trkpt lat="49.24277" lon="1.27377">
        <ele>40.714043</ele>
        <time>2015-08-13T16:37:51Z</time>
      </trkpt>
      <trkpt lat="49.24275" lon="1.2739">
        <ele>41.125233</ele>
        <time>2015-08-13T16:38:01Z</time>
      </trkpt>
      <trkpt lat="49.24276" lon="1.27389">
        <ele>41.125233</ele>
        <time>2015-08-13T16:38:06Z</time>
      </trkpt>
      <trkpt lat="49.24276" lon="1.27387">
        <ele>41.125233</ele>
        <time>2015-08-13T16:38:16Z</time>
      </trkpt>
      <trkpt lat="49.24275" lon="1.27386">
        <ele>41.125233</ele>
        <time>2015-08-13T16:38:21Z</time>
      </trkpt>
      <trkpt lat="49.24274" lon="1.2739">
        <ele>41.125233</ele>
        <time>2015-08-13T16:38:31Z</time>
      </trkpt>
      <trkpt lat="49.24272" lon="1.27396">
        <ele>41.546085</ele>
        <time>2015-08-13T16:38:36Z</time>
      </trkpt>
      <trkpt lat="49.2427" lon="1.27414">
        <ele>42.061897</ele>
        <time>2015-08-13T16:38:52Z</time>
      </trkpt>
      <trkpt lat="49.24269" lon="1.27424">
        <ele>42.061897</ele>
        <time>2015-08-13T16:38:56Z</time>
      </trkpt>
      <trkpt lat="49.24266" lon="1.27437">
        <ele>42.52087</ele>
        <time>2015-08-13T16:39:06Z</time>
      </trkpt>
      <trkpt lat="49.24265" lon="1.27446">
        <ele>42.52087</ele>
        <time>2015-08-13T16:39:11Z</time>
      </trkpt>
      <trkpt lat="49.24263" lon="1.27463">
        <ele>42.98426</ele>
        <time>2015-08-13T16:39:21Z</time>
      </trkpt>
      <trkpt lat="49.24262" lon="1.27471">
        <ele>42.98426</ele>
        <time>2015-08-13T16:39:26Z</time>
      </trkpt>
      <trkpt lat="49.24259" lon="1.27491">
        <ele>43.422363</ele>
        <time>2015-08-13T16:39:36Z</time>
      </trkpt>
      <trkpt lat="49.24258" lon="1.27501">
        <ele>43.422363</ele>
        <time>2015-08-13T16:39:41Z</time>
      </trkpt>
      <trkpt lat="49.24256" lon="1.27518">
        <ele>43.82213</ele>
        <time>2015-08-13T16:39:51Z</time>
      </trkpt>
      <trkpt lat="49.24255" lon="1.27527">
        <ele>43.82213</ele>
        <time>2015-08-13T16:39:56Z</time>
      </trkpt>
      <trkpt lat="49.24252" lon="1.27548">
        <ele>44.185997</ele>
        <time>2015-08-13T16:40:07Z</time>
      </trkpt>
      <trkpt lat="49.24251" lon="1.27558">
        <ele>44.185997</ele>
        <time>2015-08-13T16:40:11Z</time>
      </trkpt>
      <trkpt lat="49.24249" lon="1.27575">
        <ele>44.473106</ele>
        <time>2015-08-13T16:40:21Z</time>
      </trkpt>
      <trkpt lat="49.24248" lon="1.27585">
        <ele>44.473106</ele>
        <time>2015-08-13T16:40:26Z</time>
      </trkpt>
      <trkpt lat="49.24243" lon="1.27613">
        <ele>44.70345</ele>
        <time>2015-08-13T16:40:41Z</time>
      </trkpt>
      <trkpt lat="49.24243" lon="1.27624">
        <ele>44.70345</ele>
        <time>2015-08-13T16:40:46Z</time>
      </trkpt>
      <trkpt lat="49.2424" lon="1.27643">
        <ele>44.88132</ele>
        <time>2015-08-13T16:40:56Z</time>
      </trkpt>
      <trkpt lat="49.24239" lon="1.27649">
        <ele>44.88132</ele>
        <time>2015-08-13T16:41:01Z</time>
      </trkpt>
      <trkpt lat="49.24235" lon="1.27667">
        <ele>44.982018</ele>
        <time>2015-08-13T16:41:11Z</time>
      </trkpt>
      <trkpt lat="49.24235" lon="1.27678">
        <ele>44.982018</ele>
        <time>2015-08-13T16:41:16Z</time>
      </trkpt>
      <trkpt lat="49.24233" lon="1.27697">
        <ele>45.098167</ele>
        <time>2015-08-13T16:41:26Z</time>
      </trkpt>
      <trkpt lat="49.24231" lon="1.27704">
        <ele>45.098167</ele>
        <time>2015-08-13T16:41:31Z</time>
      </trkpt>
      <trkpt lat="49.24227" lon="1.27722">
        <ele>45.243496</ele>
        <time>2015-08-13T16:41:41Z</time>
      </trkpt>
      <trkpt lat="49.24226" lon="1.27728">
        <ele>45.243496</ele>
        <time>2015-08-13T16:41:46Z</time>
      </trkpt>
      <trkpt lat="49.24218" lon="1.27733">
        <ele>45.589165</ele>
        <time>2015-08-13T16:41:56Z</time>
      </trkpt>
      <trkpt lat="49.24213" lon="1.27732">
        <ele>45.589165</ele>
        <time>2015-08-13T16:42:02Z</time>
      </trkpt>
      <trkpt lat="49.242" lon="1.2773">
        <ele>45.889683</ele>
        <time>2015-08-13T16:42:11Z</time>
      </trkpt>
      <trkpt lat="49.24193" lon="1.27728">
        <ele>45.889683</ele>
        <time>2015-08-13T16:42:16Z</time>
      </trkpt>
      <trkpt lat="49.24176" lon="1.27722">
        <ele>46.263596</ele>
        <time>2015-08-13T16:42:31Z</time>
      </trkpt>
      <trkpt lat="49.2417" lon="1.27722">
        <ele>46.263596</ele>
        <time>2015-08-13T16:42:36Z</time>
      </trkpt>
      <trkpt lat="49.24156" lon="1.27722">
        <ele>46.56113</ele>
        <time>2015-08-13T16:42:46Z</time>
      </trkpt>
      <trkpt lat="49.24149" lon="1.2772">
        <ele>46.56113</ele>
        <time>2015-08-13T16:42:51Z</time>
      </trkpt>
      <trkpt lat="49.24139" lon="1.27721">
        <ele>46.859898</ele>
        <time>2015-08-13T16:43:01Z</time>
      </trkpt>
      <trkpt lat="49.24133" lon="1.27718">
        <ele>46.859898</ele>
        <time>2015-08-13T16:43:06Z</time>
      </trkpt>
      <trkpt lat="49.2412" lon="1.27717">
        <ele>47.073284</ele>
        <time>2015-08-13T16:43:16Z</time>
      </trkpt>
      <trkpt lat="49.24114" lon="1.27717">
        <ele>47.073284</ele>
        <time>2015-08-13T16:43:21Z</time>
      </trkpt>
      <trkpt lat="49.24103" lon="1.27714">
        <ele>47.25098</ele>
        <time>2015-08-13T16:43:31Z</time>
      </trkpt>
      <trkpt lat="49.24097" lon="1.27713">
        <ele>47.25098</ele>
        <time>2015-08-13T16:43:36Z</time>
      </trkpt>
      <trkpt lat="49.24085" lon="1.27712">
        <ele>47.395893</ele>
        <time>2015-08-13T16:43:46Z</time>
      </trkpt>
      <trkpt lat="49.24077" lon="1.27712">
        <ele>47.395893</ele>
        <time>2015-08-13T16:43:51Z</time>
      </trkpt>
      <trkpt lat="49.24061" lon="1.27706">
        <ele>47.265816</ele>
        <time>2015-08-13T16:44:06Z</time>
      </trkpt>
      <trkpt lat="49.24056" lon="1.27701">
        <ele>47.265816</ele>
        <time>2015-08-13T16:44:11Z</time>
      </trkpt>
      <trkpt lat="49.24047" lon="1.27693">
        <ele>47.170322</ele>
        <time>2015-08-13T16:44:22Z</time>
      </trkpt>
      <trkpt lat="49.24041" lon="1.27687">
        <ele>47.170322</ele>
        <time>2015-08-13T16:44:26Z</time>
      </trkpt>
      <trkpt lat="49.2403" lon="1.27678">
        <ele>46.9638</ele>
        <time>2015-08-13T16:44:36Z</time>
      </trkpt>
      <trkpt lat="49.24024" lon="1.27674">
        <ele>46.9638</ele>
        <time>2015-08-13T16:44:41Z</time>
      </trkpt>
      <trkpt lat="49.24017" lon="1.27671">
        <ele>46.65575</ele>
        <time>2015-08-13T16:44:51Z</time>
      </trkpt>
      <trkpt lat="49.24013" lon="1.27667">
        <ele>46.65575</ele>
        <time>2015-08-13T16:44:56Z</time>
      </trkpt>
      <trkpt lat="49.24004" lon="1.27662">
        <ele>46.529068</ele>
        <time>2015-08-13T16:45:06Z</time>
      </trkpt>
      <trkpt lat="49.24005" lon="1.27664">
        <ele>46.529068</ele>
        <time>2015-08-13T16:45:11Z</time>
      </trkpt>
      <trkpt lat="49.24009" lon="1.27669">
        <ele>46.529068</ele>
        <time>2015-08-13T16:45:21Z</time>
      </trkpt>
      <trkpt lat="49.24009" lon="1.2767">
        <ele>46.529068</ele>
        <time>2015-08-13T16:45:26Z</time>
      </trkpt>
      <trkpt lat="49.24005" lon="1.27659">
        <ele>46.513878</ele>
        <time>2015-08-13T16:45:36Z</time>
      </trkpt>
      <trkpt lat="49.24004" lon="1.27657">
        <ele>46.513878</ele>
        <time>2015-08-13T16:45:41Z</time>
      </trkpt>
      <trkpt lat="49.23998" lon="1.27654">
        <ele>46.513878</ele>
        <time>2015-08-13T16:45:51Z</time>
      </trkpt>
      <trkpt lat="49.23993" lon="1.2765">
        <ele>46.963047</ele>
        <time>2015-08-13T16:45:56Z</time>
      </trkpt>
      <trkpt lat="49.2398" lon="1.27636">
        <ele>47.52486</ele>
        <time>2015-08-13T16:46:06Z</time>
      </trkpt>
      <trkpt lat="49.23976" lon="1.27631">
        <ele>47.52486</ele>
        <time>2015-08-13T16:46:11Z</time>
      </trkpt>
      <trkpt lat="49.2397" lon="1.27623">
        <ele>48.26223</ele>
        <time>2015-08-13T16:46:21Z</time>
      </trkpt>
      <trkpt lat="49.23966" lon="1.27617">
        <ele>48.26223</ele>
        <time>2015-08-13T16:46:26Z</time>
      </trkpt>
      <trkpt lat="49.23954" lon="1.27611">
        <ele>49.348217</ele>
        <time>2015-08-13T16:46:36Z</time>
      </trkpt>
      <trkpt lat="49.23951" lon="1.27609">
        <ele>49.348217</ele>
        <time>2015-08-13T16:46:41Z</time>
      </trkpt>
      <trkpt lat="49.23936" lon="1.27593">
        <ele>50.97102</ele>
        <time>2015-08-13T16:46:56Z</time>
      </trkpt>
      <trkpt lat="49.2393" lon="1.27585">
        <ele>50.97102</ele>
        <time>2015-08-13T16:47:01Z</time>
      </trkpt>
      <trkpt lat="49.23921" lon="1.27574">
        <ele>52.813526</ele>
        <time>2015-08-13T16:47:11Z</time>
      </trkpt>
      <trkpt lat="49.23916" lon="1.27569">
        <ele>52.813526</ele>
        <time>2015-08-13T16:47:16Z</time>
      </trkpt>
      <trkpt lat="49.239" lon="1.27554">
        <ele>54.76867</ele>
        <time>2015-08-13T16:47:26Z</time>
      </trkpt>
      <trkpt lat="49.23898" lon="1.27552">
        <ele>54.76867</ele>
        <time>2015-08-13T16:47:31Z</time>
      </trkpt>
      <trkpt lat="49.23889" lon="1.27538">
        <ele>56.56402</ele>
        <time>2015-08-13T16:47:41Z</time>
      </trkpt>
      <trkpt lat="49.23886" lon="1.27531">
        <ele>56.56402</ele>
        <time>2015-08-13T16:47:46Z</time>
      </trkpt>
      <trkpt lat="49.23874" lon="1.27524">
        <ele>58.149387</ele>
        <time>2015-08-13T16:47:56Z</time>
      </trkpt>
      <trkpt lat="49.23869" lon="1.2752">
        <ele>58.149387</ele>
        <time>2015-08-13T16:48:01Z</time>
      </trkpt>
      <trkpt lat="49.23863" lon="1.27509">
        <ele>59.46452</ele>
        <time>2015-08-13T16:48:11Z</time>
      </trkpt>
      <trkpt lat="49.23858" lon="1.27504">
        <ele>59.46452</ele>
        <time>2015-08-13T16:48:16Z</time>
      </trkpt>
      <trkpt lat="49.23851" lon="1.27496">
        <ele>60.728188</ele>
        <time>2015-08-13T16:48:26Z</time>
      </trkpt>
      <trkpt lat="49.23846" lon="1.27489">
        <ele>60.728188</ele>
        <time>2015-08-13T16:48:31Z</time>
      </trkpt>
      <trkpt lat="49.23835" lon="1.27475">
        <ele>61.840675</ele>
        <time>2015-08-13T16:48:41Z</time>
      </trkpt>
      <trkpt lat="49.2383" lon="1.27466">
        <ele>61.840675</ele>
        <time>2015-08-13T16:48:46Z</time>
      </trkpt>
      <trkpt lat="49.23825" lon="1.27455">
        <ele>62.83977</ele>
        <time>2015-08-13T16:48:56Z</time>
      </trkpt>
      <trkpt lat="49.23824" lon="1.2745">
        <ele>62.83977</ele>
        <time>2015-08-13T16:49:01Z</time>
      </trkpt>
      <trkpt lat="49.23831" lon="1.27433">
        <ele>63.96263</ele>
        <time>2015-08-13T16:49:16Z</time>
      </trkpt>
      <trkpt lat="49.23835" lon="1.27426">
        <ele>63.96263</ele>
        <time>2015-08-13T16:49:21Z</time>
      </trkpt>
      <trkpt lat="49.23844" lon="1.27412">
        <ele>65.34223</ele>
        <time>2015-08-13T16:49:31Z</time>
      </trkpt>
      <trkpt lat="49.23848" lon="1.27406">
        <ele>65.34223</ele>
        <time>2015-08-13T16:49:36Z</time>
      </trkpt>
      <trkpt lat="49.23853" lon="1.27387">
        <ele>66.81292</ele>
        <time>2015-08-13T16:49:46Z</time>
      </trkpt>
      <trkpt lat="49.23857" lon="1.27379">
        <ele>66.81292</ele>
        <time>2015-08-13T16:49:52Z</time>
      </trkpt>
      <trkpt lat="49.23864" lon="1.27362">
        <ele>68.04808</ele>
        <time>2015-08-13T16:50:01Z</time>
      </trkpt>
      <trkpt lat="49.23867" lon="1.27353">
        <ele>68.04808</ele>
        <time>2015-08-13T16:50:06Z</time>
      </trkpt>
      <trkpt lat="49.23875" lon="1.27338">
        <ele>69.12052</ele>
        <time>2015-08-13T16:50:17Z</time>
      </trkpt>
      <trkpt lat="49.23878" lon="1.27333">
        <ele>69.12052</ele>
        <time>2015-08-13T16:50:21Z</time>
      </trkpt>
      <trkpt lat="49.23884" lon="1.27317">
        <ele>69.737946</ele>
        <time>2015-08-13T16:50:31Z</time>
      </trkpt>
      <trkpt lat="49.23888" lon="1.27312">
        <ele>69.737946</ele>
        <time>2015-08-13T16:50:36Z</time>
      </trkpt>
      <trkpt lat="49.23897" lon="1.27294">
        <ele>70.26496</ele>
        <time>2015-08-13T16:50:46Z</time>
      </trkpt>
      <trkpt lat="49.23899" lon="1.27289">
        <ele>70.26496</ele>
        <time>2015-08-13T16:50:51Z</time>
      </trkpt>
      <trkpt lat="49.23907" lon="1.27272">
        <ele>70.53534</ele>
        <time>2015-08-13T16:51:01Z</time>
      </trkpt>
      <trkpt lat="49.23914" lon="1.27261">
        <ele>70.626396</ele>
        <time>2015-08-13T16:51:06Z</time>
      </trkpt>
      <trkpt lat="49.23925" lon="1.27244">
        <ele>70.437416</ele>
        <time>2015-08-13T16:51:21Z</time>
      </trkpt>
      <trkpt lat="49.2393" lon="1.27235">
        <ele>70.437416</ele>
        <time>2015-08-13T16:51:26Z</time>
      </trkpt>
      <trkpt lat="49.23938" lon="1.27222">
        <ele>69.97678</ele>
        <time>2015-08-13T16:51:36Z</time>
      </trkpt>
      <trkpt lat="49.23942" lon="1.27217">
        <ele>69.97678</ele>
        <time>2015-08-13T16:51:42Z</time>
      </trkpt>
      <trkpt lat="49.2395" lon="1.27208">
        <ele>69.20982</ele>
        <time>2015-08-13T16:51:51Z</time>
      </trkpt>
      <trkpt lat="49.23953" lon="1.27199">
        <ele>69.20982</ele>
        <time>2015-08-13T16:51:56Z</time>
      </trkpt>
      <trkpt lat="49.23955" lon="1.27189">
        <ele>68.191765</ele>
        <time>2015-08-13T16:52:06Z</time>
      </trkpt>
      <trkpt lat="49.23952" lon="1.27186">
        <ele>68.191765</ele>
        <time>2015-08-13T16:52:11Z</time>
      </trkpt>
      <trkpt lat="49.23949" lon="1.27188">
        <ele>68.191765</ele>
        <time>2015-08-13T16:52:21Z</time>
      </trkpt>
      <trkpt lat="49.23951" lon="1.27187">
        <ele>67.161835</ele>
        <time>2015-08-13T16:52:26Z</time>
      </trkpt>
      <trkpt lat="49.2395" lon="1.2718">
        <ele>67.161835</ele>
        <time>2015-08-13T16:52:36Z</time>
      </trkpt>
      <trkpt lat="49.2395" lon="1.27179">
        <ele>67.161835</ele>
        <time>2015-08-13T16:52:41Z</time>
      </trkpt>
      <trkpt lat="49.23952" lon="1.27184">
        <ele>65.96703</ele>
        <time>2015-08-13T16:52:56Z</time>
      </trkpt>
      <trkpt lat="49.23951" lon="1.27185">
        <ele>65.96703</ele>
        <time>2015-08-13T16:53:01Z</time>
      </trkpt>
      <trkpt lat="49.23948" lon="1.27187">
        <ele>65.96703</ele>
        <time>2015-08-13T16:53:11Z</time>
      </trkpt>
      <trkpt lat="49.2395" lon="1.27188">
        <ele>65.96703</ele>
        <time>2015-08-13T16:53:16Z</time>
      </trkpt>
      <trkpt lat="49.23953" lon="1.27188">
        <ele>64.65338</ele>
        <time>2015-08-13T16:53:26Z</time>
      </trkpt>
      <trkpt lat="49.23952" lon="1.27186">
        <ele>64.65338</ele>
        <time>2015-08-13T16:53:31Z</time>
      </trkpt>
      <trkpt lat="49.23953" lon="1.27187">
        <ele>64.65338</ele>
        <time>2015-08-13T16:53:41Z</time>
      </trkpt>
      <trkpt lat="49.23956" lon="1.27186">
        <ele>64.65338</ele>
        <time>2015-08-13T16:53:46Z</time>
      </trkpt>
      <trkpt lat="49.23958" lon="1.27188">
        <ele>64.65338</ele>
        <time>2015-08-13T16:53:56Z</time>
      </trkpt>
      <trkpt lat="49.23958" lon="1.27187">
        <ele>64.65338</ele>
        <time>2015-08-13T16:54:01Z</time>
      </trkpt>
      <trkpt lat="49.23956" lon="1.27186">
        <ele>62.672962</ele>
        <time>2015-08-13T16:54:06Z</time>
      </trkpt>
      <trkpt lat="49.23956" lon="1.27186">
        <ele>62.672962</ele>
        <time>2015-08-13T16:54:11Z</time>
      </trkpt>
      <trkpt lat="49.23955" lon="1.27186">
        <ele>62.672962</ele>
        <time>2015-08-13T16:54:16Z</time>
      </trkpt>
      <trkpt lat="49.23956" lon="1.27188">
        <ele>62.672962</ele>
        <time>2015-08-13T16:54:21Z</time>
      </trkpt>
      <trkpt lat="49.23958" lon="1.27189">
        <ele>62.672962</ele>
        <time>2015-08-13T16:54:26Z</time>
      </trkpt>
      <trkpt lat="49.23958" lon="1.2719">
        <ele>62.672962</ele>
        <time>2015-08-13T16:54:36Z</time>
      </trkpt>
      <trkpt lat="49.23956" lon="1.2719">
        <ele>62.672962</ele>
        <time>2015-08-13T16:54:51Z</time>
      </trkpt>
      <trkpt lat="49.23957" lon="1.27191">
        <ele>62.672962</ele>
        <time>2015-08-13T16:54:57Z</time>
      </trkpt>
    </trkseg>
  </trk>
</gpx>